<?xml version="1.0" encoding="UTF-8"?>
<gpx version="1.1" creator="https://www.youtrack.es" xsi:schemaLocation="http://www.topografix.com/GPX/1/1 http://www.topografix.com/GPX/1/1/gpx.xsd http://www.garmin.com/xmlschemas/GpxExtensions/v3 http://www.garmin.com/xmlschemas/GpxExtensionsv3.xsd http://www.garmin.com/xmlschemas/TrackPointExtension/v1 http://www.garmin.com/xmlschemas/TrackPointExtensionv1.xsd" xmlns:gpxtpx="http://www.garmin.com/xmlschemas/TrackPointExtension/v1" xmlns:gpxx="http://www.garmin.com/xmlschemas/GpxExtensions/v3" xmlns:xsi="http://www.w3.org/2001/XMLSchema-instance">
  <metadata>
    <link href="https://www.youtrack.es">
      <text>YouTrack.es</text>
    </link>
    <time>2026-05-09T02:56:47Z</time>
  </metadata>
  <trk>
    <src>https://www.youtrack.es</src>
    <link href="https://www.youtrack.es/ruta/35514-el-giro-de-rigo-de-costa-rica-reto-colibri">
      <text>YouTrack.es</text>
    </link>
    <trkseg>
      <trkpt lat="9.979664" lon="-84.17719">
        <ele>933.162</ele>
        <time>2022-08-11T17:25:41Z</time>
      </trkpt>
      <trkpt lat="9.980161" lon="-84.177266">
        <ele>935.883</ele>
        <time>2022-08-11T17:26:21Z</time>
      </trkpt>
      <trkpt lat="9.980911" lon="-84.177555">
        <ele>935.711</ele>
        <time>2022-08-11T17:27:01Z</time>
      </trkpt>
      <trkpt lat="9.980489" lon="-84.179659">
        <ele>931.309</ele>
        <time>2022-08-11T17:27:41Z</time>
      </trkpt>
      <trkpt lat="9.980088" lon="-84.181697">
        <ele>925.787</ele>
        <time>2022-08-11T17:28:21Z</time>
      </trkpt>
      <trkpt lat="9.980003" lon="-84.182244">
        <ele>924.637</ele>
        <time>2022-08-11T17:29:01Z</time>
      </trkpt>
      <trkpt lat="9.979622" lon="-84.184354">
        <ele>917.576</ele>
        <time>2022-08-11T17:29:41Z</time>
      </trkpt>
      <trkpt lat="9.979368" lon="-84.185545">
        <ele>916.039</ele>
        <time>2022-08-11T17:30:21Z</time>
      </trkpt>
      <trkpt lat="9.981404" lon="-84.186006">
        <ele>919.084</ele>
        <time>2022-08-11T17:31:01Z</time>
      </trkpt>
      <trkpt lat="9.983471" lon="-84.186418">
        <ele>941.838</ele>
        <time>2022-08-11T17:31:41Z</time>
      </trkpt>
      <trkpt lat="9.985203" lon="-84.186729">
        <ele>946.397</ele>
        <time>2022-08-11T17:32:21Z</time>
      </trkpt>
      <trkpt lat="9.986048" lon="-84.184757">
        <ele>952.294</ele>
        <time>2022-08-11T17:33:01Z</time>
      </trkpt>
      <trkpt lat="9.986755" lon="-84.182665">
        <ele>953.893</ele>
        <time>2022-08-11T17:33:41Z</time>
      </trkpt>
      <trkpt lat="9.987273" lon="-84.180733">
        <ele>959.714</ele>
        <time>2022-08-11T17:34:21Z</time>
      </trkpt>
      <trkpt lat="9.987748" lon="-84.179102">
        <ele>964.654</ele>
        <time>2022-08-11T17:35:01Z</time>
      </trkpt>
      <trkpt lat="9.988149" lon="-84.17715">
        <ele>969.509</ele>
        <time>2022-08-11T17:35:41Z</time>
      </trkpt>
      <trkpt lat="9.988614" lon="-84.17524">
        <ele>974.609</ele>
        <time>2022-08-11T17:36:21Z</time>
      </trkpt>
      <trkpt lat="9.989193" lon="-84.173663">
        <ele>975.272</ele>
        <time>2022-08-11T17:37:01Z</time>
      </trkpt>
      <trkpt lat="9.989753" lon="-84.172064">
        <ele>979.262</ele>
        <time>2022-08-11T17:37:41Z</time>
      </trkpt>
      <trkpt lat="9.989959" lon="-84.171658">
        <ele>980.981</ele>
        <time>2022-08-11T17:38:21Z</time>
      </trkpt>
      <trkpt lat="9.991814" lon="-84.172641">
        <ele>980.524</ele>
        <time>2022-08-11T17:39:01Z</time>
      </trkpt>
      <trkpt lat="9.993758" lon="-84.17366">
        <ele>979.769</ele>
        <time>2022-08-11T17:39:41Z</time>
      </trkpt>
      <trkpt lat="9.994244" lon="-84.173907">
        <ele>977.773</ele>
        <time>2022-08-11T17:40:21Z</time>
      </trkpt>
      <trkpt lat="9.994591" lon="-84.172835">
        <ele>982.482</ele>
        <time>2022-08-11T17:41:01Z</time>
      </trkpt>
      <trkpt lat="9.995115" lon="-84.170757">
        <ele>994.179</ele>
        <time>2022-08-11T17:41:41Z</time>
      </trkpt>
      <trkpt lat="9.995485" lon="-84.169104">
        <ele>996.678</ele>
        <time>2022-08-11T17:42:21Z</time>
      </trkpt>
      <trkpt lat="9.995791" lon="-84.167698">
        <ele>1000.667</ele>
        <time>2022-08-11T17:43:01Z</time>
      </trkpt>
      <trkpt lat="9.995865" lon="-84.167398">
        <ele>1001.381</ele>
        <time>2022-08-11T17:43:41Z</time>
      </trkpt>
      <trkpt lat="9.995802" lon="-84.167248">
        <ele>1001.419</ele>
        <time>2022-08-11T17:44:21Z</time>
      </trkpt>
      <trkpt lat="9.995722" lon="-84.167046">
        <ele>1001.809</ele>
        <time>2022-08-11T17:45:01Z</time>
      </trkpt>
      <trkpt lat="9.996081" lon="-84.165877">
        <ele>1004.667</ele>
        <time>2022-08-11T17:45:41Z</time>
      </trkpt>
      <trkpt lat="9.996705" lon="-84.163846">
        <ele>1012.447</ele>
        <time>2022-08-11T17:46:21Z</time>
      </trkpt>
      <trkpt lat="9.997476" lon="-84.16185">
        <ele>1018.646</ele>
        <time>2022-08-11T17:47:01Z</time>
      </trkpt>
      <trkpt lat="9.998233" lon="-84.159823">
        <ele>1028.679</ele>
        <time>2022-08-11T17:47:41Z</time>
      </trkpt>
      <trkpt lat="9.998529" lon="-84.159136">
        <ele>1033.264</ele>
        <time>2022-08-11T17:48:21Z</time>
      </trkpt>
      <trkpt lat="9.998677" lon="-84.157924">
        <ele>1036.098</ele>
        <time>2022-08-11T17:49:01Z</time>
      </trkpt>
      <trkpt lat="9.998778" lon="-84.156326">
        <ele>1042.347</ele>
        <time>2022-08-11T17:49:41Z</time>
      </trkpt>
      <trkpt lat="9.999032" lon="-84.154265">
        <ele>1040.364</ele>
        <time>2022-08-11T17:50:21Z</time>
      </trkpt>
      <trkpt lat="9.999324" lon="-84.152894">
        <ele>1041.283</ele>
        <time>2022-08-11T17:51:01Z</time>
      </trkpt>
      <trkpt lat="9.999514" lon="-84.151907">
        <ele>1045.562</ele>
        <time>2022-08-11T17:51:41Z</time>
      </trkpt>
      <trkpt lat="10.000162" lon="-84.150766">
        <ele>1047.683</ele>
        <time>2022-08-11T17:52:21Z</time>
      </trkpt>
      <trkpt lat="10.000373" lon="-84.15053">
        <ele>1048.411</ele>
        <time>2022-08-11T17:53:01Z</time>
      </trkpt>
      <trkpt lat="10.001887" lon="-84.150299">
        <ele>1059.209</ele>
        <time>2022-08-11T17:53:41Z</time>
      </trkpt>
      <trkpt lat="10.002774" lon="-84.150181">
        <ele>1064.317</ele>
        <time>2022-08-11T17:54:21Z</time>
      </trkpt>
      <trkpt lat="10.003112" lon="-84.151887">
        <ele>1059.017</ele>
        <time>2022-08-11T17:55:01Z</time>
      </trkpt>
      <trkpt lat="10.004866" lon="-84.151629">
        <ele>1059.286</ele>
        <time>2022-08-11T17:55:41Z</time>
      </trkpt>
      <trkpt lat="10.005895" lon="-84.151431">
        <ele>1058.769</ele>
        <time>2022-08-11T17:56:21Z</time>
      </trkpt>
      <trkpt lat="10.005895" lon="-84.152365">
        <ele>1053.424</ele>
        <time>2022-08-11T17:57:01Z</time>
      </trkpt>
      <trkpt lat="10.008028" lon="-84.152008">
        <ele>1046.218</ele>
        <time>2022-08-11T17:57:41Z</time>
      </trkpt>
      <trkpt lat="10.010215" lon="-84.152051">
        <ele>1051.167</ele>
        <time>2022-08-11T17:58:21Z</time>
      </trkpt>
      <trkpt lat="10.012358" lon="-84.152191">
        <ele>1064.494</ele>
        <time>2022-08-11T17:59:01Z</time>
      </trkpt>
      <trkpt lat="10.013657" lon="-84.152331">
        <ele>1069.813</ele>
        <time>2022-08-11T17:59:41Z</time>
      </trkpt>
      <trkpt lat="10.013435" lon="-84.153736">
        <ele>1060.279</ele>
        <time>2022-08-11T18:00:21Z</time>
      </trkpt>
      <trkpt lat="10.015507" lon="-84.154305">
        <ele>1065.805</ele>
        <time>2022-08-11T18:01:01Z</time>
      </trkpt>
      <trkpt lat="10.017698" lon="-84.154285">
        <ele>1055.825</ele>
        <time>2022-08-11T18:01:41Z</time>
      </trkpt>
      <trkpt lat="10.018997" lon="-84.15524">
        <ele>1058.409</ele>
        <time>2022-08-11T18:02:21Z</time>
      </trkpt>
      <trkpt lat="10.020777" lon="-84.156167">
        <ele>1062.868</ele>
        <time>2022-08-11T18:03:01Z</time>
      </trkpt>
      <trkpt lat="10.021612" lon="-84.156425">
        <ele>1064.458</ele>
        <time>2022-08-11T18:03:41Z</time>
      </trkpt>
      <trkpt lat="10.023268" lon="-84.155999">
        <ele>1077.447</ele>
        <time>2022-08-11T18:04:21Z</time>
      </trkpt>
      <trkpt lat="10.024672" lon="-84.155805">
        <ele>1081.760</ele>
        <time>2022-08-11T18:05:01Z</time>
      </trkpt>
      <trkpt lat="10.025665" lon="-84.155977">
        <ele>1083.255</ele>
        <time>2022-08-11T18:05:41Z</time>
      </trkpt>
      <trkpt lat="10.026991" lon="-84.156755">
        <ele>1074.769</ele>
        <time>2022-08-11T18:06:21Z</time>
      </trkpt>
      <trkpt lat="10.028121" lon="-84.157452">
        <ele>1077.778</ele>
        <time>2022-08-11T18:07:01Z</time>
      </trkpt>
      <trkpt lat="10.029803" lon="-84.157607">
        <ele>1089.915</ele>
        <time>2022-08-11T18:07:41Z</time>
      </trkpt>
      <trkpt lat="10.030722" lon="-84.158433">
        <ele>1100.214</ele>
        <time>2022-08-11T18:08:21Z</time>
      </trkpt>
      <trkpt lat="10.03159" lon="-84.159106">
        <ele>1108.655</ele>
        <time>2022-08-11T18:09:01Z</time>
      </trkpt>
      <trkpt lat="10.032308" lon="-84.159063">
        <ele>1116.407</ele>
        <time>2022-08-11T18:09:41Z</time>
      </trkpt>
      <trkpt lat="10.032868" lon="-84.158526">
        <ele>1132.317</ele>
        <time>2022-08-11T18:10:21Z</time>
      </trkpt>
      <trkpt lat="10.03358" lon="-84.157462">
        <ele>1139.109</ele>
        <time>2022-08-11T18:11:01Z</time>
      </trkpt>
      <trkpt lat="10.03532" lon="-84.158134">
        <ele>1146.596</ele>
        <time>2022-08-11T18:11:41Z</time>
      </trkpt>
      <trkpt lat="10.035943" lon="-84.15837">
        <ele>1147.996</ele>
        <time>2022-08-11T18:12:21Z</time>
      </trkpt>
      <trkpt lat="10.036789" lon="-84.158685">
        <ele>1148.455</ele>
        <time>2022-08-11T18:13:01Z</time>
      </trkpt>
      <trkpt lat="10.038509" lon="-84.15937">
        <ele>1152.578</ele>
        <time>2022-08-11T18:13:41Z</time>
      </trkpt>
      <trkpt lat="10.040061" lon="-84.159971">
        <ele>1159.073</ele>
        <time>2022-08-11T18:14:21Z</time>
      </trkpt>
      <trkpt lat="10.042118" lon="-84.159908">
        <ele>1167.847</ele>
        <time>2022-08-11T18:15:01Z</time>
      </trkpt>
      <trkpt lat="10.042759" lon="-84.159972">
        <ele>1169.996</ele>
        <time>2022-08-11T18:15:41Z</time>
      </trkpt>
      <trkpt lat="10.043773" lon="-84.160246">
        <ele>1174.813</ele>
        <time>2022-08-11T18:16:21Z</time>
      </trkpt>
      <trkpt lat="10.044797" lon="-84.160278">
        <ele>1180.112</ele>
        <time>2022-08-11T18:17:01Z</time>
      </trkpt>
      <trkpt lat="10.045938" lon="-84.160922">
        <ele>1180.382</ele>
        <time>2022-08-11T18:17:41Z</time>
      </trkpt>
      <trkpt lat="10.046497" lon="-84.160873">
        <ele>1179.543</ele>
        <time>2022-08-11T18:18:21Z</time>
      </trkpt>
      <trkpt lat="10.047025" lon="-84.160916">
        <ele>1184.217</ele>
        <time>2022-08-11T18:19:01Z</time>
      </trkpt>
      <trkpt lat="10.047764" lon="-84.161066">
        <ele>1193.609</ele>
        <time>2022-08-11T18:19:41Z</time>
      </trkpt>
      <trkpt lat="10.049238" lon="-84.16092">
        <ele>1204.769</ele>
        <time>2022-08-11T18:20:21Z</time>
      </trkpt>
      <trkpt lat="10.050779" lon="-84.160968">
        <ele>1219.099</ele>
        <time>2022-08-11T18:21:01Z</time>
      </trkpt>
      <trkpt lat="10.052151" lon="-84.160722">
        <ele>1239.798</ele>
        <time>2022-08-11T18:21:41Z</time>
      </trkpt>
      <trkpt lat="10.053123" lon="-84.160626">
        <ele>1252.671</ele>
        <time>2022-08-11T18:22:21Z</time>
      </trkpt>
      <trkpt lat="10.055327" lon="-84.160946">
        <ele>1280.336</ele>
        <time>2022-08-11T18:23:01Z</time>
      </trkpt>
      <trkpt lat="10.057347" lon="-84.161336">
        <ele>1285.110</ele>
        <time>2022-08-11T18:23:41Z</time>
      </trkpt>
      <trkpt lat="10.057918" lon="-84.16155">
        <ele>1286.999</ele>
        <time>2022-08-11T18:24:21Z</time>
      </trkpt>
      <trkpt lat="10.058224" lon="-84.162183">
        <ele>1288.276</ele>
        <time>2022-08-11T18:25:01Z</time>
      </trkpt>
      <trkpt lat="10.058361" lon="-84.162698">
        <ele>1290.815</ele>
        <time>2022-08-11T18:25:41Z</time>
      </trkpt>
      <trkpt lat="10.058551" lon="-84.162935">
        <ele>1293.196</ele>
        <time>2022-08-11T18:26:21Z</time>
      </trkpt>
      <trkpt lat="10.058921" lon="-84.162344">
        <ele>1297.831</ele>
        <time>2022-08-11T18:27:01Z</time>
      </trkpt>
      <trkpt lat="10.059593" lon="-84.161619">
        <ele>1306.124</ele>
        <time>2022-08-11T18:27:41Z</time>
      </trkpt>
      <trkpt lat="10.060044" lon="-84.160373">
        <ele>1319.909</ele>
        <time>2022-08-11T18:28:21Z</time>
      </trkpt>
      <trkpt lat="10.060372" lon="-84.159214">
        <ele>1326.830</ele>
        <time>2022-08-11T18:29:01Z</time>
      </trkpt>
      <trkpt lat="10.061425" lon="-84.157879">
        <ele>1330.340</ele>
        <time>2022-08-11T18:29:41Z</time>
      </trkpt>
      <trkpt lat="10.062385" lon="-84.156264">
        <ele>1329.049</ele>
        <time>2022-08-11T18:30:21Z</time>
      </trkpt>
      <trkpt lat="10.063116" lon="-84.155739">
        <ele>1326.912</ele>
        <time>2022-08-11T18:31:01Z</time>
      </trkpt>
      <trkpt lat="10.064493" lon="-84.155228">
        <ele>1325.547</ele>
        <time>2022-08-11T18:31:41Z</time>
      </trkpt>
      <trkpt lat="10.065782" lon="-84.154928">
        <ele>1326.481</ele>
        <time>2022-08-11T18:32:21Z</time>
      </trkpt>
      <trkpt lat="10.066808" lon="-84.154541">
        <ele>1330.250</ele>
        <time>2022-08-11T18:33:01Z</time>
      </trkpt>
      <trkpt lat="10.067325" lon="-84.153983">
        <ele>1334.197</ele>
        <time>2022-08-11T18:33:41Z</time>
      </trkpt>
      <trkpt lat="10.068022" lon="-84.153887">
        <ele>1335.746</ele>
        <time>2022-08-11T18:34:21Z</time>
      </trkpt>
      <trkpt lat="10.069161" lon="-84.153805">
        <ele>1342.045</ele>
        <time>2022-08-11T18:35:01Z</time>
      </trkpt>
      <trkpt lat="10.070017" lon="-84.154245">
        <ele>1347.147</ele>
        <time>2022-08-11T18:35:41Z</time>
      </trkpt>
      <trkpt lat="10.069943" lon="-84.154814">
        <ele>1345.611</ele>
        <time>2022-08-11T18:36:21Z</time>
      </trkpt>
      <trkpt lat="10.069932" lon="-84.155039">
        <ele>1345.209</ele>
        <time>2022-08-11T18:37:01Z</time>
      </trkpt>
      <trkpt lat="10.07027" lon="-84.154878">
        <ele>1348.165</ele>
        <time>2022-08-11T18:37:41Z</time>
      </trkpt>
      <trkpt lat="10.070714" lon="-84.154685">
        <ele>1354.315</ele>
        <time>2022-08-11T18:38:21Z</time>
      </trkpt>
      <trkpt lat="10.070946" lon="-84.154824">
        <ele>1354.884</ele>
        <time>2022-08-11T18:39:01Z</time>
      </trkpt>
      <trkpt lat="10.070935" lon="-84.155071">
        <ele>1352.217</ele>
        <time>2022-08-11T18:39:41Z</time>
      </trkpt>
      <trkpt lat="10.070798" lon="-84.155597">
        <ele>1354.532</ele>
        <time>2022-08-11T18:40:21Z</time>
      </trkpt>
      <trkpt lat="10.070692" lon="-84.156232">
        <ele>1357.826</ele>
        <time>2022-08-11T18:41:01Z</time>
      </trkpt>
      <trkpt lat="10.070977" lon="-84.156768">
        <ele>1366.145</ele>
        <time>2022-08-11T18:41:41Z</time>
      </trkpt>
      <trkpt lat="10.07161" lon="-84.156586">
        <ele>1371.572</ele>
        <time>2022-08-11T18:42:21Z</time>
      </trkpt>
      <trkpt lat="10.072582" lon="-84.155701">
        <ele>1378.921</ele>
        <time>2022-08-11T18:43:01Z</time>
      </trkpt>
      <trkpt lat="10.073281" lon="-84.155303">
        <ele>1387.065</ele>
        <time>2022-08-11T18:43:41Z</time>
      </trkpt>
      <trkpt lat="10.074105" lon="-84.155346">
        <ele>1394.568</ele>
        <time>2022-08-11T18:44:21Z</time>
      </trkpt>
      <trkpt lat="10.074909" lon="-84.154759">
        <ele>1406.014</ele>
        <time>2022-08-11T18:45:01Z</time>
      </trkpt>
      <trkpt lat="10.075596" lon="-84.154652">
        <ele>1406.909</ele>
        <time>2022-08-11T18:45:41Z</time>
      </trkpt>
      <trkpt lat="10.076074" lon="-84.154848">
        <ele>1411.067</ele>
        <time>2022-08-11T18:46:21Z</time>
      </trkpt>
      <trkpt lat="10.076507" lon="-84.156328">
        <ele>1414.767</ele>
        <time>2022-08-11T18:47:01Z</time>
      </trkpt>
      <trkpt lat="10.076734" lon="-84.156618">
        <ele>1416.376</ele>
        <time>2022-08-11T18:47:41Z</time>
      </trkpt>
      <trkpt lat="10.077062" lon="-84.156489">
        <ele>1422.179</ele>
        <time>2022-08-11T18:48:21Z</time>
      </trkpt>
      <trkpt lat="10.077315" lon="-84.156339">
        <ele>1427.224</ele>
        <time>2022-08-11T18:49:01Z</time>
      </trkpt>
      <trkpt lat="10.077843" lon="-84.156489">
        <ele>1431.228</ele>
        <time>2022-08-11T18:49:41Z</time>
      </trkpt>
      <trkpt lat="10.077874" lon="-84.157081">
        <ele>1431.377</ele>
        <time>2022-08-11T18:50:21Z</time>
      </trkpt>
      <trkpt lat="10.078011" lon="-84.157413">
        <ele>1435.474</ele>
        <time>2022-08-11T18:51:01Z</time>
      </trkpt>
      <trkpt lat="10.07799" lon="-84.157681">
        <ele>1435.873</ele>
        <time>2022-08-11T18:51:41Z</time>
      </trkpt>
      <trkpt lat="10.078095" lon="-84.157971">
        <ele>1438.571</ele>
        <time>2022-08-11T18:52:21Z</time>
      </trkpt>
      <trkpt lat="10.078455" lon="-84.157585">
        <ele>1445.141</ele>
        <time>2022-08-11T18:53:01Z</time>
      </trkpt>
      <trkpt lat="10.079215" lon="-84.157306">
        <ele>1456.315</ele>
        <time>2022-08-11T18:53:41Z</time>
      </trkpt>
      <trkpt lat="10.080187" lon="-84.15695">
        <ele>1470.709</ele>
        <time>2022-08-11T18:54:21Z</time>
      </trkpt>
      <trkpt lat="10.080789" lon="-84.15681">
        <ele>1481.578</ele>
        <time>2022-08-11T18:55:01Z</time>
      </trkpt>
      <trkpt lat="10.08137" lon="-84.157658">
        <ele>1493.248</ele>
        <time>2022-08-11T18:55:41Z</time>
      </trkpt>
      <trkpt lat="10.081857" lon="-84.158319">
        <ele>1500.677</ele>
        <time>2022-08-11T18:56:21Z</time>
      </trkpt>
      <trkpt lat="10.08211" lon="-84.158792">
        <ele>1500.630</ele>
        <time>2022-08-11T18:57:01Z</time>
      </trkpt>
      <trkpt lat="10.083114" lon="-84.158963">
        <ele>1508.225</ele>
        <time>2022-08-11T18:57:41Z</time>
      </trkpt>
      <trkpt lat="10.083777" lon="-84.159146">
        <ele>1509.929</ele>
        <time>2022-08-11T18:58:21Z</time>
      </trkpt>
      <trkpt lat="10.084475" lon="-84.159336">
        <ele>1505.438</ele>
        <time>2022-08-11T18:59:01Z</time>
      </trkpt>
      <trkpt lat="10.084961" lon="-84.158896">
        <ele>1506.995</ele>
        <time>2022-08-11T18:59:41Z</time>
      </trkpt>
      <trkpt lat="10.085775" lon="-84.158929">
        <ele>1493.264</ele>
        <time>2022-08-11T19:00:21Z</time>
      </trkpt>
      <trkpt lat="10.086208" lon="-84.15909">
        <ele>1488.338</ele>
        <time>2022-08-11T19:01:01Z</time>
      </trkpt>
      <trkpt lat="10.08605" lon="-84.159272">
        <ele>1486.270</ele>
        <time>2022-08-11T19:01:41Z</time>
      </trkpt>
      <trkpt lat="10.08586" lon="-84.159422">
        <ele>1484.017</ele>
        <time>2022-08-11T19:02:21Z</time>
      </trkpt>
      <trkpt lat="10.085955" lon="-84.159594">
        <ele>1481.809</ele>
        <time>2022-08-11T19:03:01Z</time>
      </trkpt>
      <trkpt lat="10.086375" lon="-84.159436">
        <ele>1484.894</ele>
        <time>2022-08-11T19:03:41Z</time>
      </trkpt>
      <trkpt lat="10.08667" lon="-84.159597">
        <ele>1485.094</ele>
        <time>2022-08-11T19:04:21Z</time>
      </trkpt>
      <trkpt lat="10.086638" lon="-84.159854">
        <ele>1484.183</ele>
        <time>2022-08-11T19:05:01Z</time>
      </trkpt>
      <trkpt lat="10.086353" lon="-84.160069">
        <ele>1480.226</ele>
        <time>2022-08-11T19:05:41Z</time>
      </trkpt>
      <trkpt lat="10.086141" lon="-84.160144">
        <ele>1477.581</ele>
        <time>2022-08-11T19:06:21Z</time>
      </trkpt>
      <trkpt lat="10.086004" lon="-84.160316">
        <ele>1474.815</ele>
        <time>2022-08-11T19:07:01Z</time>
      </trkpt>
      <trkpt lat="10.085962" lon="-84.160498">
        <ele>1473.114</ele>
        <time>2022-08-11T19:07:41Z</time>
      </trkpt>
      <trkpt lat="10.086036" lon="-84.160702">
        <ele>1473.091</ele>
        <time>2022-08-11T19:08:21Z</time>
      </trkpt>
      <trkpt lat="10.086374" lon="-84.160992">
        <ele>1476.460</ele>
        <time>2022-08-11T19:09:01Z</time>
      </trkpt>
      <trkpt lat="10.086744" lon="-84.161217">
        <ele>1480.733</ele>
        <time>2022-08-11T19:09:41Z</time>
      </trkpt>
      <trkpt lat="10.086923" lon="-84.161603">
        <ele>1481.023</ele>
        <time>2022-08-11T19:10:21Z</time>
      </trkpt>
      <trkpt lat="10.086824" lon="-84.162517">
        <ele>1482.215</ele>
        <time>2022-08-11T19:11:01Z</time>
      </trkpt>
      <trkpt lat="10.086782" lon="-84.163032">
        <ele>1481.209</ele>
        <time>2022-08-11T19:11:41Z</time>
      </trkpt>
      <trkpt lat="10.087015" lon="-84.16329">
        <ele>1481.374</ele>
        <time>2022-08-11T19:12:21Z</time>
      </trkpt>
      <trkpt lat="10.087522" lon="-84.163129">
        <ele>1483.634</ele>
        <time>2022-08-11T19:13:01Z</time>
      </trkpt>
      <trkpt lat="10.087785" lon="-84.162971">
        <ele>1483.613</ele>
        <time>2022-08-11T19:13:41Z</time>
      </trkpt>
      <trkpt lat="10.088044" lon="-84.162719">
        <ele>1484.056</ele>
        <time>2022-08-11T19:14:21Z</time>
      </trkpt>
      <trkpt lat="10.088354" lon="-84.162382">
        <ele>1484.761</ele>
        <time>2022-08-11T19:15:01Z</time>
      </trkpt>
      <trkpt lat="10.088545" lon="-84.1622">
        <ele>1488.175</ele>
        <time>2022-08-11T19:15:41Z</time>
      </trkpt>
      <trkpt lat="10.088772" lon="-84.162188">
        <ele>1489.744</ele>
        <time>2022-08-11T19:16:21Z</time>
      </trkpt>
      <trkpt lat="10.088841" lon="-84.162306">
        <ele>1489.141</ele>
        <time>2022-08-11T19:17:01Z</time>
      </trkpt>
      <trkpt lat="10.088746" lon="-84.162553">
        <ele>1486.410</ele>
        <time>2022-08-11T19:17:41Z</time>
      </trkpt>
      <trkpt lat="10.088635" lon="-84.162998">
        <ele>1483.782</ele>
        <time>2022-08-11T19:18:21Z</time>
      </trkpt>
      <trkpt lat="10.088582" lon="-84.163438">
        <ele>1480.943</ele>
        <time>2022-08-11T19:19:01Z</time>
      </trkpt>
      <trkpt lat="10.08892" lon="-84.163899">
        <ele>1484.917</ele>
        <time>2022-08-11T19:19:41Z</time>
      </trkpt>
      <trkpt lat="10.089175" lon="-84.164225">
        <ele>1487.109</ele>
        <time>2022-08-11T19:20:21Z</time>
      </trkpt>
      <trkpt lat="10.089424" lon="-84.164601">
        <ele>1488.519</ele>
        <time>2022-08-11T19:21:01Z</time>
      </trkpt>
      <trkpt lat="10.08955" lon="-84.165051">
        <ele>1486.369</ele>
        <time>2022-08-11T19:21:41Z</time>
      </trkpt>
      <trkpt lat="10.089144" lon="-84.165477">
        <ele>1482.058</ele>
        <time>2022-08-11T19:22:21Z</time>
      </trkpt>
      <trkpt lat="10.088674" lon="-84.165858">
        <ele>1480.011</ele>
        <time>2022-08-11T19:23:01Z</time>
      </trkpt>
      <trkpt lat="10.087865" lon="-84.166534">
        <ele>1478.726</ele>
        <time>2022-08-11T19:23:41Z</time>
      </trkpt>
      <trkpt lat="10.087507" lon="-84.166862">
        <ele>1480.680</ele>
        <time>2022-08-11T19:24:21Z</time>
      </trkpt>
      <trkpt lat="10.087048" lon="-84.167495">
        <ele>1479.559</ele>
        <time>2022-08-11T19:25:01Z</time>
      </trkpt>
      <trkpt lat="10.086701" lon="-84.168012">
        <ele>1479.436</ele>
        <time>2022-08-11T19:25:41Z</time>
      </trkpt>
      <trkpt lat="10.086326" lon="-84.168543">
        <ele>1477.045</ele>
        <time>2022-08-11T19:26:21Z</time>
      </trkpt>
      <trkpt lat="10.085971" lon="-84.169056">
        <ele>1474.881</ele>
        <time>2022-08-11T19:27:01Z</time>
      </trkpt>
      <trkpt lat="10.085388" lon="-84.169593">
        <ele>1467.061</ele>
        <time>2022-08-11T19:27:41Z</time>
      </trkpt>
      <trkpt lat="10.084849" lon="-84.170371">
        <ele>1463.417</ele>
        <time>2022-08-11T19:28:21Z</time>
      </trkpt>
      <trkpt lat="10.084568" lon="-84.171271">
        <ele>1459.609</ele>
        <time>2022-08-11T19:29:01Z</time>
      </trkpt>
      <trkpt lat="10.084295" lon="-84.172095">
        <ele>1455.639</ele>
        <time>2022-08-11T19:29:41Z</time>
      </trkpt>
      <trkpt lat="10.084055" lon="-84.172637">
        <ele>1452.949</ele>
        <time>2022-08-11T19:30:21Z</time>
      </trkpt>
      <trkpt lat="10.083791" lon="-84.173195">
        <ele>1447.928</ele>
        <time>2022-08-11T19:31:01Z</time>
      </trkpt>
      <trkpt lat="10.08331" lon="-84.173571">
        <ele>1446.551</ele>
        <time>2022-08-11T19:31:41Z</time>
      </trkpt>
      <trkpt lat="10.082852" lon="-84.173888">
        <ele>1441.126</ele>
        <time>2022-08-11T19:32:21Z</time>
      </trkpt>
      <trkpt lat="10.082455" lon="-84.17399">
        <ele>1437.830</ele>
        <time>2022-08-11T19:33:01Z</time>
      </trkpt>
      <trkpt lat="10.081973" lon="-84.174031">
        <ele>1432.679</ele>
        <time>2022-08-11T19:33:41Z</time>
      </trkpt>
      <trkpt lat="10.0816" lon="-84.174068">
        <ele>1428.856</ele>
        <time>2022-08-11T19:34:21Z</time>
      </trkpt>
      <trkpt lat="10.081331" lon="-84.174143">
        <ele>1426.565</ele>
        <time>2022-08-11T19:35:01Z</time>
      </trkpt>
      <trkpt lat="10.08104" lon="-84.174342">
        <ele>1421.947</ele>
        <time>2022-08-11T19:35:41Z</time>
      </trkpt>
      <trkpt lat="10.080887" lon="-84.174615">
        <ele>1418.229</ele>
        <time>2022-08-11T19:36:21Z</time>
      </trkpt>
      <trkpt lat="10.080848" lon="-84.175089">
        <ele>1413.121</ele>
        <time>2022-08-11T19:37:01Z</time>
      </trkpt>
      <trkpt lat="10.080827" lon="-84.175448">
        <ele>1408.409</ele>
        <time>2022-08-11T19:37:41Z</time>
      </trkpt>
      <trkpt lat="10.080694" lon="-84.175849">
        <ele>1400.945</ele>
        <time>2022-08-11T19:38:21Z</time>
      </trkpt>
      <trkpt lat="10.080377" lon="-84.176488">
        <ele>1396.895</ele>
        <time>2022-08-11T19:39:01Z</time>
      </trkpt>
      <trkpt lat="10.07996" lon="-84.177253">
        <ele>1397.434</ele>
        <time>2022-08-11T19:39:41Z</time>
      </trkpt>
      <trkpt lat="10.079611" lon="-84.1778">
        <ele>1394.587</ele>
        <time>2022-08-11T19:40:21Z</time>
      </trkpt>
      <trkpt lat="10.079069" lon="-84.178329">
        <ele>1395.682</ele>
        <time>2022-08-11T19:41:01Z</time>
      </trkpt>
      <trkpt lat="10.078457" lon="-84.178913">
        <ele>1391.836</ele>
        <time>2022-08-11T19:41:41Z</time>
      </trkpt>
      <trkpt lat="10.077595" lon="-84.179638">
        <ele>1386.345</ele>
        <time>2022-08-11T19:42:21Z</time>
      </trkpt>
      <trkpt lat="10.076477" lon="-84.180606">
        <ele>1373.592</ele>
        <time>2022-08-11T19:43:01Z</time>
      </trkpt>
      <trkpt lat="10.075859" lon="-84.181012">
        <ele>1367.131</ele>
        <time>2022-08-11T19:43:41Z</time>
      </trkpt>
      <trkpt lat="10.075245" lon="-84.181282">
        <ele>1355.946</ele>
        <time>2022-08-11T19:44:21Z</time>
      </trkpt>
      <trkpt lat="10.074477" lon="-84.181492">
        <ele>1348.888</ele>
        <time>2022-08-11T19:45:01Z</time>
      </trkpt>
      <trkpt lat="10.073614" lon="-84.181583">
        <ele>1342.216</ele>
        <time>2022-08-11T19:45:41Z</time>
      </trkpt>
      <trkpt lat="10.072542" lon="-84.181567">
        <ele>1332.409</ele>
        <time>2022-08-11T19:46:21Z</time>
      </trkpt>
      <trkpt lat="10.072144" lon="-84.181689">
        <ele>1328.225</ele>
        <time>2022-08-11T19:47:01Z</time>
      </trkpt>
      <trkpt lat="10.071626" lon="-84.181877">
        <ele>1319.435</ele>
        <time>2022-08-11T19:47:41Z</time>
      </trkpt>
      <trkpt lat="10.0707" lon="-84.182244">
        <ele>1312.634</ele>
        <time>2022-08-11T19:48:21Z</time>
      </trkpt>
      <trkpt lat="10.069571" lon="-84.182716">
        <ele>1304.687</ele>
        <time>2022-08-11T19:49:01Z</time>
      </trkpt>
      <trkpt lat="10.068576" lon="-84.183129">
        <ele>1300.392</ele>
        <time>2022-08-11T19:49:41Z</time>
      </trkpt>
      <trkpt lat="10.06743" lon="-84.183525">
        <ele>1298.046</ele>
        <time>2022-08-11T19:50:21Z</time>
      </trkpt>
      <trkpt lat="10.066205" lon="-84.184085">
        <ele>1292.465</ele>
        <time>2022-08-11T19:51:01Z</time>
      </trkpt>
      <trkpt lat="10.065256" lon="-84.184537">
        <ele>1289.552</ele>
        <time>2022-08-11T19:51:41Z</time>
      </trkpt>
      <trkpt lat="10.06477" lon="-84.184725">
        <ele>1288.121</ele>
        <time>2022-08-11T19:52:21Z</time>
      </trkpt>
      <trkpt lat="10.064659" lon="-84.18477">
        <ele>1287.823</ele>
        <time>2022-08-11T19:53:01Z</time>
      </trkpt>
      <trkpt lat="10.064463" lon="-84.18477">
        <ele>1286.983</ele>
        <time>2022-08-11T19:53:41Z</time>
      </trkpt>
      <trkpt lat="10.063519" lon="-84.18435">
        <ele>1282.011</ele>
        <time>2022-08-11T19:54:21Z</time>
      </trkpt>
      <trkpt lat="10.062576" lon="-84.183901">
        <ele>1283.009</ele>
        <time>2022-08-11T19:55:01Z</time>
      </trkpt>
      <trkpt lat="10.060945" lon="-84.183129">
        <ele>1275.163</ele>
        <time>2022-08-11T19:55:41Z</time>
      </trkpt>
      <trkpt lat="10.060697" lon="-84.183016">
        <ele>1274.123</ele>
        <time>2022-08-11T19:56:21Z</time>
      </trkpt>
      <trkpt lat="10.060445" lon="-84.182976">
        <ele>1273.282</ele>
        <time>2022-08-11T19:57:01Z</time>
      </trkpt>
      <trkpt lat="10.060154" lon="-84.182987">
        <ele>1272.755</ele>
        <time>2022-08-11T19:57:41Z</time>
      </trkpt>
      <trkpt lat="10.059764" lon="-84.183295">
        <ele>1273.840</ele>
        <time>2022-08-11T19:58:21Z</time>
      </trkpt>
      <trkpt lat="10.059352" lon="-84.183628">
        <ele>1273.014</ele>
        <time>2022-08-11T19:59:01Z</time>
      </trkpt>
      <trkpt lat="10.058768" lon="-84.18394">
        <ele>1271.423</ele>
        <time>2022-08-11T19:59:41Z</time>
      </trkpt>
      <trkpt lat="10.058288" lon="-84.184137">
        <ele>1266.550</ele>
        <time>2022-08-11T20:00:21Z</time>
      </trkpt>
      <trkpt lat="10.05768" lon="-84.184357">
        <ele>1272.589</ele>
        <time>2022-08-11T20:01:01Z</time>
      </trkpt>
      <trkpt lat="10.057017" lon="-84.184623">
        <ele>1275.442</ele>
        <time>2022-08-11T20:01:41Z</time>
      </trkpt>
      <trkpt lat="10.056842" lon="-84.184849">
        <ele>1272.422</ele>
        <time>2022-08-11T20:02:21Z</time>
      </trkpt>
      <trkpt lat="10.0567" lon="-84.185117">
        <ele>1270.214</ele>
        <time>2022-08-11T20:03:01Z</time>
      </trkpt>
      <trkpt lat="10.056483" lon="-84.185278">
        <ele>1270.609</ele>
        <time>2022-08-11T20:03:41Z</time>
      </trkpt>
      <trkpt lat="10.056333" lon="-84.18533">
        <ele>1270.295</ele>
        <time>2022-08-11T20:04:21Z</time>
      </trkpt>
      <trkpt lat="10.056079" lon="-84.185324">
        <ele>1269.435</ele>
        <time>2022-08-11T20:05:01Z</time>
      </trkpt>
      <trkpt lat="10.055771" lon="-84.185489">
        <ele>1264.884</ele>
        <time>2022-08-11T20:05:41Z</time>
      </trkpt>
      <trkpt lat="10.055522" lon="-84.185784">
        <ele>1257.457</ele>
        <time>2022-08-11T20:06:21Z</time>
      </trkpt>
      <trkpt lat="10.055316" lon="-84.185928">
        <ele>1256.522</ele>
        <time>2022-08-11T20:07:01Z</time>
      </trkpt>
      <trkpt lat="10.054993" lon="-84.185926">
        <ele>1255.686</ele>
        <time>2022-08-11T20:07:41Z</time>
      </trkpt>
      <trkpt lat="10.054718" lon="-84.185915">
        <ele>1251.015</ele>
        <time>2022-08-11T20:08:21Z</time>
      </trkpt>
      <trkpt lat="10.054375" lon="-84.185872">
        <ele>1245.782</ele>
        <time>2022-08-11T20:09:01Z</time>
      </trkpt>
      <trkpt lat="10.05368" lon="-84.186011">
        <ele>1236.851</ele>
        <time>2022-08-11T20:09:41Z</time>
      </trkpt>
      <trkpt lat="10.053365" lon="-84.186153">
        <ele>1230.441</ele>
        <time>2022-08-11T20:10:21Z</time>
      </trkpt>
      <trkpt lat="10.053128" lon="-84.186309">
        <ele>1222.981</ele>
        <time>2022-08-11T20:11:01Z</time>
      </trkpt>
      <trkpt lat="10.05289" lon="-84.186427">
        <ele>1216.109</ele>
        <time>2022-08-11T20:11:41Z</time>
      </trkpt>
      <trkpt lat="10.052626" lon="-84.186454">
        <ele>1211.209</ele>
        <time>2022-08-11T20:12:21Z</time>
      </trkpt>
      <trkpt lat="10.052306" lon="-84.186257">
        <ele>1211.825</ele>
        <time>2022-08-11T20:13:01Z</time>
      </trkpt>
      <trkpt lat="10.051926" lon="-84.185811">
        <ele>1213.935</ele>
        <time>2022-08-11T20:13:41Z</time>
      </trkpt>
      <trkpt lat="10.051698" lon="-84.185511">
        <ele>1209.624</ele>
        <time>2022-08-11T20:14:21Z</time>
      </trkpt>
      <trkpt lat="10.05145" lon="-84.185408">
        <ele>1204.397</ele>
        <time>2022-08-11T20:15:01Z</time>
      </trkpt>
      <trkpt lat="10.051186" lon="-84.18545">
        <ele>1198.672</ele>
        <time>2022-08-11T20:15:41Z</time>
      </trkpt>
      <trkpt lat="10.050996" lon="-84.18566">
        <ele>1195.646</ele>
        <time>2022-08-11T20:16:21Z</time>
      </trkpt>
      <trkpt lat="10.050969" lon="-84.185896">
        <ele>1195.545</ele>
        <time>2022-08-11T20:17:01Z</time>
      </trkpt>
      <trkpt lat="10.05108" lon="-84.186169">
        <ele>1195.122</ele>
        <time>2022-08-11T20:17:41Z</time>
      </trkpt>
      <trkpt lat="10.05135" lon="-84.1864">
        <ele>1197.131</ele>
        <time>2022-08-11T20:18:21Z</time>
      </trkpt>
      <trkpt lat="10.051703" lon="-84.186515">
        <ele>1200.743</ele>
        <time>2022-08-11T20:19:01Z</time>
      </trkpt>
      <trkpt lat="10.052041" lon="-84.186568">
        <ele>1202.764</ele>
        <time>2022-08-11T20:19:41Z</time>
      </trkpt>
      <trkpt lat="10.052423" lon="-84.186791">
        <ele>1200.910</ele>
        <time>2022-08-11T20:20:21Z</time>
      </trkpt>
      <trkpt lat="10.052534" lon="-84.187107">
        <ele>1196.309</ele>
        <time>2022-08-11T20:21:01Z</time>
      </trkpt>
      <trkpt lat="10.052323" lon="-84.187434">
        <ele>1189.455</ele>
        <time>2022-08-11T20:21:41Z</time>
      </trkpt>
      <trkpt lat="10.051776" lon="-84.187601">
        <ele>1187.575</ele>
        <time>2022-08-11T20:22:21Z</time>
      </trkpt>
      <trkpt lat="10.050495" lon="-84.18783">
        <ele>1172.974</ele>
        <time>2022-08-11T20:23:01Z</time>
      </trkpt>
      <trkpt lat="10.050179" lon="-84.187953">
        <ele>1169.367</ele>
        <time>2022-08-11T20:23:41Z</time>
      </trkpt>
      <trkpt lat="10.049904" lon="-84.1882">
        <ele>1162.732</ele>
        <time>2022-08-11T20:24:21Z</time>
      </trkpt>
      <trkpt lat="10.049751" lon="-84.188495">
        <ele>1154.996</ele>
        <time>2022-08-11T20:25:01Z</time>
      </trkpt>
      <trkpt lat="10.049618" lon="-84.18864">
        <ele>1149.735</ele>
        <time>2022-08-11T20:25:41Z</time>
      </trkpt>
      <trkpt lat="10.049439" lon="-84.188709">
        <ele>1145.362</ele>
        <time>2022-08-11T20:26:21Z</time>
      </trkpt>
      <trkpt lat="10.04927" lon="-84.188693">
        <ele>1142.821</ele>
        <time>2022-08-11T20:27:01Z</time>
      </trkpt>
      <trkpt lat="10.04896" lon="-84.188413">
        <ele>1141.525</ele>
        <time>2022-08-11T20:27:41Z</time>
      </trkpt>
      <trkpt lat="10.048234" lon="-84.187822">
        <ele>1133.826</ele>
        <time>2022-08-11T20:28:21Z</time>
      </trkpt>
      <trkpt lat="10.047928" lon="-84.187693">
        <ele>1130.608</ele>
        <time>2022-08-11T20:29:01Z</time>
      </trkpt>
      <trkpt lat="10.047706" lon="-84.187602">
        <ele>1127.609</ele>
        <time>2022-08-11T20:29:41Z</time>
      </trkpt>
      <trkpt lat="10.047457" lon="-84.187608">
        <ele>1123.623</ele>
        <time>2022-08-11T20:30:21Z</time>
      </trkpt>
      <trkpt lat="10.047198" lon="-84.187811">
        <ele>1119.953</ele>
        <time>2022-08-11T20:31:01Z</time>
      </trkpt>
      <trkpt lat="10.047135" lon="-84.1885">
        <ele>1115.942</ele>
        <time>2022-08-11T20:31:41Z</time>
      </trkpt>
      <trkpt lat="10.047006" lon="-84.188888">
        <ele>1110.445</ele>
        <time>2022-08-11T20:32:21Z</time>
      </trkpt>
      <trkpt lat="10.045898" lon="-84.189875">
        <ele>1093.940</ele>
        <time>2022-08-11T20:33:01Z</time>
      </trkpt>
      <trkpt lat="10.045364" lon="-84.190406">
        <ele>1087.864</ele>
        <time>2022-08-11T20:33:41Z</time>
      </trkpt>
      <trkpt lat="10.045131" lon="-84.190712">
        <ele>1084.773</ele>
        <time>2022-08-11T20:34:21Z</time>
      </trkpt>
      <trkpt lat="10.045126" lon="-84.190712">
        <ele>1084.730</ele>
        <time>2022-08-11T20:35:01Z</time>
      </trkpt>
      <trkpt lat="10.044695" lon="-84.191474">
        <ele>1077.699</ele>
        <time>2022-08-11T20:35:41Z</time>
      </trkpt>
      <trkpt lat="10.04416" lon="-84.192413">
        <ele>1074.358</ele>
        <time>2022-08-11T20:36:21Z</time>
      </trkpt>
      <trkpt lat="10.043725" lon="-84.193042">
        <ele>1067.852</ele>
        <time>2022-08-11T20:37:01Z</time>
      </trkpt>
      <trkpt lat="10.043238" lon="-84.19345">
        <ele>1068.117</ele>
        <time>2022-08-11T20:37:41Z</time>
      </trkpt>
      <trkpt lat="10.04244" lon="-84.193866">
        <ele>1063.909</ele>
        <time>2022-08-11T20:38:21Z</time>
      </trkpt>
      <trkpt lat="10.041873" lon="-84.194326">
        <ele>1058.936</ele>
        <time>2022-08-11T20:39:01Z</time>
      </trkpt>
      <trkpt lat="10.041273" lon="-84.194667">
        <ele>1054.396</ele>
        <time>2022-08-11T20:39:41Z</time>
      </trkpt>
      <trkpt lat="10.040792" lon="-84.194878">
        <ele>1050.415</ele>
        <time>2022-08-11T20:40:21Z</time>
      </trkpt>
      <trkpt lat="10.040559" lon="-84.194927">
        <ele>1049.078</ele>
        <time>2022-08-11T20:41:01Z</time>
      </trkpt>
      <trkpt lat="10.040195" lon="-84.194911">
        <ele>1047.323</ele>
        <time>2022-08-11T20:41:41Z</time>
      </trkpt>
      <trkpt lat="10.039872" lon="-84.194914">
        <ele>1046.287</ele>
        <time>2022-08-11T20:42:21Z</time>
      </trkpt>
      <trkpt lat="10.039402" lon="-84.194865">
        <ele>1045.456</ele>
        <time>2022-08-11T20:43:01Z</time>
      </trkpt>
      <trkpt lat="10.038989" lon="-84.195095">
        <ele>1042.963</ele>
        <time>2022-08-11T20:43:41Z</time>
      </trkpt>
      <trkpt lat="10.038608" lon="-84.195374">
        <ele>1040.252</ele>
        <time>2022-08-11T20:44:21Z</time>
      </trkpt>
      <trkpt lat="10.038214" lon="-84.195635">
        <ele>1040.057</ele>
        <time>2022-08-11T20:45:01Z</time>
      </trkpt>
      <trkpt lat="10.038071" lon="-84.19579">
        <ele>1039.900</ele>
        <time>2022-08-11T20:45:41Z</time>
      </trkpt>
      <trkpt lat="10.037574" lon="-84.196595">
        <ele>1038.920</ele>
        <time>2022-08-11T20:46:21Z</time>
      </trkpt>
      <trkpt lat="10.037379" lon="-84.196874">
        <ele>1039.609</ele>
        <time>2022-08-11T20:47:01Z</time>
      </trkpt>
      <trkpt lat="10.03702" lon="-84.197239">
        <ele>1042.246</ele>
        <time>2022-08-11T20:47:41Z</time>
      </trkpt>
      <trkpt lat="10.036536" lon="-84.197773">
        <ele>1045.946</ele>
        <time>2022-08-11T20:48:21Z</time>
      </trkpt>
      <trkpt lat="10.03606" lon="-84.198555">
        <ele>1046.465</ele>
        <time>2022-08-11T20:49:01Z</time>
      </trkpt>
      <trkpt lat="10.035469" lon="-84.19949">
        <ele>1045.448</ele>
        <time>2022-08-11T20:49:41Z</time>
      </trkpt>
      <trkpt lat="10.03488" lon="-84.200177">
        <ele>1044.753</ele>
        <time>2022-08-11T20:50:21Z</time>
      </trkpt>
      <trkpt lat="10.03378" lon="-84.201083">
        <ele>1040.797</ele>
        <time>2022-08-11T20:51:01Z</time>
      </trkpt>
      <trkpt lat="10.032956" lon="-84.20183">
        <ele>1035.396</ele>
        <time>2022-08-11T20:51:41Z</time>
      </trkpt>
      <trkpt lat="10.032138" lon="-84.202576">
        <ele>1030.253</ele>
        <time>2022-08-11T20:52:21Z</time>
      </trkpt>
      <trkpt lat="10.031629" lon="-84.202985">
        <ele>1025.082</ele>
        <time>2022-08-11T20:53:01Z</time>
      </trkpt>
      <trkpt lat="10.031333" lon="-84.203301">
        <ele>1021.496</ele>
        <time>2022-08-11T20:53:41Z</time>
      </trkpt>
      <trkpt lat="10.031053" lon="-84.203569">
        <ele>1018.231</ele>
        <time>2022-08-11T20:54:21Z</time>
      </trkpt>
      <trkpt lat="10.03083" lon="-84.204004">
        <ele>1015.124</ele>
        <time>2022-08-11T20:55:01Z</time>
      </trkpt>
      <trkpt lat="10.030655" lon="-84.204288">
        <ele>1013.409</ele>
        <time>2022-08-11T20:55:41Z</time>
      </trkpt>
      <trkpt lat="10.030391" lon="-84.204497">
        <ele>1011.480</ele>
        <time>2022-08-11T20:56:21Z</time>
      </trkpt>
      <trkpt lat="10.029956" lon="-84.204718">
        <ele>1008.390</ele>
        <time>2022-08-11T20:57:01Z</time>
      </trkpt>
      <trkpt lat="10.029402" lon="-84.204943">
        <ele>1006.499</ele>
        <time>2022-08-11T20:57:41Z</time>
      </trkpt>
      <trkpt lat="10.028391" lon="-84.205336">
        <ele>1000.172</ele>
        <time>2022-08-11T20:58:21Z</time>
      </trkpt>
      <trkpt lat="10.027462" lon="-84.205648">
        <ele>995.957</ele>
        <time>2022-08-11T20:59:01Z</time>
      </trkpt>
      <trkpt lat="10.025973" lon="-84.206164">
        <ele>988.931</ele>
        <time>2022-08-11T20:59:41Z</time>
      </trkpt>
      <trkpt lat="10.025475" lon="-84.206298">
        <ele>986.120</ele>
        <time>2022-08-11T21:00:21Z</time>
      </trkpt>
      <trkpt lat="10.024302" lon="-84.206426">
        <ele>979.867</ele>
        <time>2022-08-11T21:01:01Z</time>
      </trkpt>
      <trkpt lat="10.023652" lon="-84.20645">
        <ele>978.826</ele>
        <time>2022-08-11T21:01:41Z</time>
      </trkpt>
      <trkpt lat="10.022828" lon="-84.206713">
        <ele>976.376</ele>
        <time>2022-08-11T21:02:21Z</time>
      </trkpt>
      <trkpt lat="10.021886" lon="-84.207009">
        <ele>973.790</ele>
        <time>2022-08-11T21:03:01Z</time>
      </trkpt>
      <trkpt lat="10.021574" lon="-84.207106">
        <ele>972.919</ele>
        <time>2022-08-11T21:03:41Z</time>
      </trkpt>
      <trkpt lat="10.021384" lon="-84.207433">
        <ele>972.309</ele>
        <time>2022-08-11T21:04:21Z</time>
      </trkpt>
      <trkpt lat="10.021149" lon="-84.208329">
        <ele>970.588</ele>
        <time>2022-08-11T21:05:01Z</time>
      </trkpt>
      <trkpt lat="10.020709" lon="-84.209974">
        <ele>969.488</ele>
        <time>2022-08-11T21:05:41Z</time>
      </trkpt>
      <trkpt lat="10.021547" lon="-84.210252">
        <ele>970.657</ele>
        <time>2022-08-11T21:06:21Z</time>
      </trkpt>
      <trkpt lat="10.021156" lon="-84.211722">
        <ele>968.810</ele>
        <time>2022-08-11T21:07:01Z</time>
      </trkpt>
      <trkpt lat="10.020826" lon="-84.212884">
        <ele>966.385</ele>
        <time>2022-08-11T21:07:41Z</time>
      </trkpt>
      <trkpt lat="10.020636" lon="-84.213656">
        <ele>964.529</ele>
        <time>2022-08-11T21:08:21Z</time>
      </trkpt>
      <trkpt lat="10.020181" lon="-84.215283">
        <ele>954.688</ele>
        <time>2022-08-11T21:09:01Z</time>
      </trkpt>
      <trkpt lat="10.019594" lon="-84.217474">
        <ele>953.895</ele>
        <time>2022-08-11T21:09:41Z</time>
      </trkpt>
      <trkpt lat="10.019028" lon="-84.219523">
        <ele>949.854</ele>
        <time>2022-08-11T21:10:21Z</time>
      </trkpt>
      <trkpt lat="10.018527" lon="-84.220896">
        <ele>944.754</ele>
        <time>2022-08-11T21:11:01Z</time>
      </trkpt>
      <trkpt lat="10.018161" lon="-84.221728">
        <ele>939.656</ele>
        <time>2022-08-11T21:11:41Z</time>
      </trkpt>
      <trkpt lat="10.01777" lon="-84.22245">
        <ele>930.011</ele>
        <time>2022-08-11T21:12:21Z</time>
      </trkpt>
      <trkpt lat="10.01763" lon="-84.222774">
        <ele>928.209</ele>
        <time>2022-08-11T21:13:01Z</time>
      </trkpt>
      <trkpt lat="10.017349" lon="-84.223457">
        <ele>924.436</ele>
        <time>2022-08-11T21:13:41Z</time>
      </trkpt>
      <trkpt lat="10.017026" lon="-84.224268">
        <ele>923.516</ele>
        <time>2022-08-11T21:14:21Z</time>
      </trkpt>
      <trkpt lat="10.016761" lon="-84.224879">
        <ele>925.195</ele>
        <time>2022-08-11T21:15:01Z</time>
      </trkpt>
      <trkpt lat="10.016708" lon="-84.225061">
        <ele>925.668</ele>
        <time>2022-08-11T21:15:41Z</time>
      </trkpt>
      <trkpt lat="10.016846" lon="-84.225733">
        <ele>925.343</ele>
        <time>2022-08-11T21:16:21Z</time>
      </trkpt>
      <trkpt lat="10.016729" lon="-84.225985">
        <ele>925.557</ele>
        <time>2022-08-11T21:17:01Z</time>
      </trkpt>
      <trkpt lat="10.016555" lon="-84.226165">
        <ele>924.946</ele>
        <time>2022-08-11T21:17:41Z</time>
      </trkpt>
      <trkpt lat="10.016494" lon="-84.226369">
        <ele>923.913</ele>
        <time>2022-08-11T21:18:21Z</time>
      </trkpt>
      <trkpt lat="10.016524" lon="-84.227017">
        <ele>920.782</ele>
        <time>2022-08-11T21:19:01Z</time>
      </trkpt>
      <trkpt lat="10.016482" lon="-84.22761">
        <ele>917.445</ele>
        <time>2022-08-11T21:19:41Z</time>
      </trkpt>
      <trkpt lat="10.016391" lon="-84.228084">
        <ele>913.947</ele>
        <time>2022-08-11T21:20:21Z</time>
      </trkpt>
      <trkpt lat="10.016235" lon="-84.228243">
        <ele>912.711</ele>
        <time>2022-08-11T21:21:01Z</time>
      </trkpt>
      <trkpt lat="10.01601" lon="-84.228613">
        <ele>910.809</ele>
        <time>2022-08-11T21:21:41Z</time>
      </trkpt>
      <trkpt lat="10.015783" lon="-84.22883">
        <ele>909.875</ele>
        <time>2022-08-11T21:22:21Z</time>
      </trkpt>
      <trkpt lat="10.015536" lon="-84.229024">
        <ele>909.195</ele>
        <time>2022-08-11T21:23:01Z</time>
      </trkpt>
      <trkpt lat="10.01527" lon="-84.229159">
        <ele>908.714</ele>
        <time>2022-08-11T21:23:41Z</time>
      </trkpt>
      <trkpt lat="10.014926" lon="-84.229245">
        <ele>909.077</ele>
        <time>2022-08-11T21:24:21Z</time>
      </trkpt>
      <trkpt lat="10.014615" lon="-84.229203">
        <ele>908.232</ele>
        <time>2022-08-11T21:25:01Z</time>
      </trkpt>
      <trkpt lat="10.01428" lon="-84.22916">
        <ele>907.456</ele>
        <time>2022-08-11T21:25:41Z</time>
      </trkpt>
      <trkpt lat="10.01423" lon="-84.229155">
        <ele>907.315</ele>
        <time>2022-08-11T21:26:21Z</time>
      </trkpt>
      <trkpt lat="10.01417" lon="-84.229669">
        <ele>906.682</ele>
        <time>2022-08-11T21:27:01Z</time>
      </trkpt>
      <trkpt lat="10.013988" lon="-84.230374">
        <ele>904.351</ele>
        <time>2022-08-11T21:27:41Z</time>
      </trkpt>
      <trkpt lat="10.013777" lon="-84.231058">
        <ele>901.729</ele>
        <time>2022-08-11T21:28:21Z</time>
      </trkpt>
      <trkpt lat="10.01349" lon="-84.231953">
        <ele>898.600</ele>
        <time>2022-08-11T21:29:01Z</time>
      </trkpt>
      <trkpt lat="10.013222" lon="-84.232847">
        <ele>898.220</ele>
        <time>2022-08-11T21:29:41Z</time>
      </trkpt>
      <trkpt lat="10.012919" lon="-84.233518">
        <ele>898.309</ele>
        <time>2022-08-11T21:30:21Z</time>
      </trkpt>
      <trkpt lat="10.012545" lon="-84.233916">
        <ele>900.843</ele>
        <time>2022-08-11T21:31:01Z</time>
      </trkpt>
      <trkpt lat="10.012213" lon="-84.234234">
        <ele>901.023</ele>
        <time>2022-08-11T21:31:41Z</time>
      </trkpt>
      <trkpt lat="10.012033" lon="-84.234505">
        <ele>899.442</ele>
        <time>2022-08-11T21:32:21Z</time>
      </trkpt>
      <trkpt lat="10.011948" lon="-84.23492">
        <ele>898.625</ele>
        <time>2022-08-11T21:33:01Z</time>
      </trkpt>
      <trkpt lat="10.011919" lon="-84.235158">
        <ele>898.040</ele>
        <time>2022-08-11T21:33:41Z</time>
      </trkpt>
      <trkpt lat="10.011871" lon="-84.235605">
        <ele>896.614</ele>
        <time>2022-08-11T21:34:21Z</time>
      </trkpt>
      <trkpt lat="10.011713" lon="-84.236073">
        <ele>895.913</ele>
        <time>2022-08-11T21:35:01Z</time>
      </trkpt>
      <trkpt lat="10.011511" lon="-84.236592">
        <ele>896.360</ele>
        <time>2022-08-11T21:35:41Z</time>
      </trkpt>
      <trkpt lat="10.011172" lon="-84.237187">
        <ele>892.799</ele>
        <time>2022-08-11T21:36:21Z</time>
      </trkpt>
      <trkpt lat="10.010892" lon="-84.237638">
        <ele>889.975</ele>
        <time>2022-08-11T21:37:01Z</time>
      </trkpt>
      <trkpt lat="10.010578" lon="-84.238143">
        <ele>886.928</ele>
        <time>2022-08-11T21:37:41Z</time>
      </trkpt>
      <trkpt lat="10.010477" lon="-84.238852">
        <ele>884.920</ele>
        <time>2022-08-11T21:38:21Z</time>
      </trkpt>
      <trkpt lat="10.010461" lon="-84.239077">
        <ele>884.509</ele>
        <time>2022-08-11T21:39:01Z</time>
      </trkpt>
      <trkpt lat="10.010314" lon="-84.240466">
        <ele>881.118</ele>
        <time>2022-08-11T21:39:41Z</time>
      </trkpt>
      <trkpt lat="10.010319" lon="-84.240579">
        <ele>880.968</ele>
        <time>2022-08-11T21:40:21Z</time>
      </trkpt>
      <trkpt lat="10.010551" lon="-84.240914">
        <ele>880.797</ele>
        <time>2022-08-11T21:41:01Z</time>
      </trkpt>
      <trkpt lat="10.011093" lon="-84.241237">
        <ele>883.660</ele>
        <time>2022-08-11T21:41:41Z</time>
      </trkpt>
      <trkpt lat="10.011503" lon="-84.241456">
        <ele>887.345</ele>
        <time>2022-08-11T21:42:21Z</time>
      </trkpt>
      <trkpt lat="10.011889" lon="-84.241805">
        <ele>888.669</ele>
        <time>2022-08-11T21:43:01Z</time>
      </trkpt>
      <trkpt lat="10.01227" lon="-84.242">
        <ele>888.268</ele>
        <time>2022-08-11T21:43:41Z</time>
      </trkpt>
      <trkpt lat="10.012397" lon="-84.242033">
        <ele>888.335</ele>
        <time>2022-08-11T21:44:21Z</time>
      </trkpt>
      <trkpt lat="10.012059" lon="-84.243416">
        <ele>882.644</ele>
        <time>2022-08-11T21:45:01Z</time>
      </trkpt>
      <trkpt lat="10.011965" lon="-84.243955">
        <ele>881.751</ele>
        <time>2022-08-11T21:45:41Z</time>
      </trkpt>
      <trkpt lat="10.012018" lon="-84.24466">
        <ele>880.601</ele>
        <time>2022-08-11T21:46:21Z</time>
      </trkpt>
      <trkpt lat="10.012067" lon="-84.245335">
        <ele>879.211</ele>
        <time>2022-08-11T21:47:01Z</time>
      </trkpt>
      <trkpt lat="10.012048" lon="-84.245896">
        <ele>877.609</ele>
        <time>2022-08-11T21:47:41Z</time>
      </trkpt>
      <trkpt lat="10.012006" lon="-84.246632">
        <ele>877.326</ele>
        <time>2022-08-11T21:48:21Z</time>
      </trkpt>
      <trkpt lat="10.01194" lon="-84.247102">
        <ele>877.236</ele>
        <time>2022-08-11T21:49:01Z</time>
      </trkpt>
      <trkpt lat="10.011694" lon="-84.248601">
        <ele>878.945</ele>
        <time>2022-08-11T21:49:41Z</time>
      </trkpt>
      <trkpt lat="10.011547" lon="-84.249372">
        <ele>878.158</ele>
        <time>2022-08-11T21:50:21Z</time>
      </trkpt>
      <trkpt lat="10.011332" lon="-84.25044">
        <ele>877.843</ele>
        <time>2022-08-11T21:51:01Z</time>
      </trkpt>
      <trkpt lat="10.011092" lon="-84.251734">
        <ele>874.167</ele>
        <time>2022-08-11T21:51:41Z</time>
      </trkpt>
      <trkpt lat="10.010979" lon="-84.252747">
        <ele>871.286</ele>
        <time>2022-08-11T21:52:21Z</time>
      </trkpt>
      <trkpt lat="10.010866" lon="-84.25392">
        <ele>867.173</ele>
        <time>2022-08-11T21:53:01Z</time>
      </trkpt>
      <trkpt lat="10.010629" lon="-84.255153">
        <ele>865.352</ele>
        <time>2022-08-11T21:53:41Z</time>
      </trkpt>
      <trkpt lat="10.010593" lon="-84.255343">
        <ele>864.128</ele>
        <time>2022-08-11T21:54:21Z</time>
      </trkpt>
      <trkpt lat="10.010134" lon="-84.256392">
        <ele>860.089</ele>
        <time>2022-08-11T21:55:01Z</time>
      </trkpt>
      <trkpt lat="10.009849" lon="-84.257297">
        <ele>859.817</ele>
        <time>2022-08-11T21:55:41Z</time>
      </trkpt>
      <trkpt lat="10.009705" lon="-84.258161">
        <ele>859.109</ele>
        <time>2022-08-11T21:56:21Z</time>
      </trkpt>
      <trkpt lat="10.009484" lon="-84.259522">
        <ele>855.483</ele>
        <time>2022-08-11T21:57:01Z</time>
      </trkpt>
      <trkpt lat="10.00935" lon="-84.260378">
        <ele>854.433</ele>
        <time>2022-08-11T21:57:41Z</time>
      </trkpt>
      <trkpt lat="10.008966" lon="-84.262409">
        <ele>851.832</ele>
        <time>2022-08-11T21:58:21Z</time>
      </trkpt>
      <trkpt lat="10.0086" lon="-84.264112">
        <ele>853.035</ele>
        <time>2022-08-11T21:59:01Z</time>
      </trkpt>
      <trkpt lat="10.008271" lon="-84.26592">
        <ele>850.240</ele>
        <time>2022-08-11T21:59:41Z</time>
      </trkpt>
      <trkpt lat="10.008224" lon="-84.266295">
        <ele>849.554</ele>
        <time>2022-08-11T22:00:21Z</time>
      </trkpt>
      <trkpt lat="10.008187" lon="-84.26669">
        <ele>848.883</ele>
        <time>2022-08-11T22:01:01Z</time>
      </trkpt>
      <trkpt lat="10.008195" lon="-84.266894">
        <ele>848.050</ele>
        <time>2022-08-11T22:01:41Z</time>
      </trkpt>
      <trkpt lat="10.008374" lon="-84.267416">
        <ele>845.049</ele>
        <time>2022-08-11T22:02:21Z</time>
      </trkpt>
      <trkpt lat="10.008989" lon="-84.268403">
        <ele>835.999</ele>
        <time>2022-08-11T22:03:01Z</time>
      </trkpt>
      <trkpt lat="10.009597" lon="-84.26942">
        <ele>827.707</ele>
        <time>2022-08-11T22:03:41Z</time>
      </trkpt>
      <trkpt lat="10.00994" lon="-84.270422">
        <ele>821.827</ele>
        <time>2022-08-11T22:04:21Z</time>
      </trkpt>
      <trkpt lat="10.010333" lon="-84.271588">
        <ele>820.109</ele>
        <time>2022-08-11T22:05:01Z</time>
      </trkpt>
      <trkpt lat="10.010713" lon="-84.272534">
        <ele>818.940</ele>
        <time>2022-08-11T22:05:41Z</time>
      </trkpt>
      <trkpt lat="10.011014" lon="-84.273691">
        <ele>818.290</ele>
        <time>2022-08-11T22:06:21Z</time>
      </trkpt>
      <trkpt lat="10.011402" lon="-84.275197">
        <ele>812.519</ele>
        <time>2022-08-11T22:07:01Z</time>
      </trkpt>
      <trkpt lat="10.011937" lon="-84.277257">
        <ele>806.172</ele>
        <time>2022-08-11T22:07:41Z</time>
      </trkpt>
      <trkpt lat="10.011937" lon="-84.277257">
        <ele>806.137</ele>
        <time>2022-08-11T22:08:21Z</time>
      </trkpt>
      <trkpt lat="10.011986" lon="-84.277822">
        <ele>804.461</ele>
        <time>2022-08-11T22:09:01Z</time>
      </trkpt>
      <trkpt lat="10.011918" lon="-84.27876">
        <ele>802.050</ele>
        <time>2022-08-11T22:09:41Z</time>
      </trkpt>
      <trkpt lat="10.011828" lon="-84.279788">
        <ele>799.447</ele>
        <time>2022-08-11T22:10:21Z</time>
      </trkpt>
      <trkpt lat="10.01173" lon="-84.280839">
        <ele>796.336</ele>
        <time>2022-08-11T22:11:01Z</time>
      </trkpt>
      <trkpt lat="10.011547" lon="-84.28157">
        <ele>793.634</ele>
        <time>2022-08-11T22:11:41Z</time>
      </trkpt>
      <trkpt lat="10.011334" lon="-84.282313">
        <ele>790.155</ele>
        <time>2022-08-11T22:12:21Z</time>
      </trkpt>
      <trkpt lat="10.011071" lon="-84.283284">
        <ele>785.510</ele>
        <time>2022-08-11T22:13:01Z</time>
      </trkpt>
      <trkpt lat="10.010773" lon="-84.284224">
        <ele>780.209</ele>
        <time>2022-08-11T22:13:41Z</time>
      </trkpt>
      <trkpt lat="10.010546" lon="-84.285016">
        <ele>782.144</ele>
        <time>2022-08-11T22:14:21Z</time>
      </trkpt>
      <trkpt lat="10.010268" lon="-84.285958">
        <ele>777.034</ele>
        <time>2022-08-11T22:15:01Z</time>
      </trkpt>
      <trkpt lat="10.010005" lon="-84.28682">
        <ele>774.033</ele>
        <time>2022-08-11T22:15:41Z</time>
      </trkpt>
      <trkpt lat="10.009629" lon="-84.288229">
        <ele>768.746</ele>
        <time>2022-08-11T22:16:21Z</time>
      </trkpt>
      <trkpt lat="10.009409" lon="-84.288669">
        <ele>766.741</ele>
        <time>2022-08-11T22:17:01Z</time>
      </trkpt>
      <trkpt lat="10.009094" lon="-84.289074">
        <ele>764.995</ele>
        <time>2022-08-11T22:17:41Z</time>
      </trkpt>
      <trkpt lat="10.008613" lon="-84.289575">
        <ele>764.074</ele>
        <time>2022-08-11T22:18:21Z</time>
      </trkpt>
      <trkpt lat="10.008055" lon="-84.290171">
        <ele>763.081</ele>
        <time>2022-08-11T22:19:01Z</time>
      </trkpt>
      <trkpt lat="10.007725" lon="-84.290564">
        <ele>763.060</ele>
        <time>2022-08-11T22:19:41Z</time>
      </trkpt>
      <trkpt lat="10.00743" lon="-84.29101">
        <ele>762.856</ele>
        <time>2022-08-11T22:20:21Z</time>
      </trkpt>
      <trkpt lat="10.007179" lon="-84.291464">
        <ele>764.359</ele>
        <time>2022-08-11T22:21:01Z</time>
      </trkpt>
      <trkpt lat="10.007087" lon="-84.291611">
        <ele>764.814</ele>
        <time>2022-08-11T22:21:41Z</time>
      </trkpt>
      <trkpt lat="10.006913" lon="-84.291776">
        <ele>765.509</ele>
        <time>2022-08-11T22:22:21Z</time>
      </trkpt>
      <trkpt lat="10.006773" lon="-84.291859">
        <ele>766.026</ele>
        <time>2022-08-11T22:23:01Z</time>
      </trkpt>
      <trkpt lat="10.006541" lon="-84.292028">
        <ele>765.356</ele>
        <time>2022-08-11T22:23:41Z</time>
      </trkpt>
      <trkpt lat="10.006337" lon="-84.292227">
        <ele>763.785</ele>
        <time>2022-08-11T22:24:21Z</time>
      </trkpt>
      <trkpt lat="10.006213" lon="-84.292441">
        <ele>762.888</ele>
        <time>2022-08-11T22:25:01Z</time>
      </trkpt>
      <trkpt lat="10.006141" lon="-84.292701">
        <ele>760.093</ele>
        <time>2022-08-11T22:25:41Z</time>
      </trkpt>
      <trkpt lat="10.00612" lon="-84.293284">
        <ele>753.147</ele>
        <time>2022-08-11T22:26:21Z</time>
      </trkpt>
      <trkpt lat="10.00613" lon="-84.293405">
        <ele>751.796</ele>
        <time>2022-08-11T22:27:01Z</time>
      </trkpt>
      <trkpt lat="10.005873" lon="-84.294432">
        <ele>744.563</ele>
        <time>2022-08-11T22:27:41Z</time>
      </trkpt>
      <trkpt lat="10.005703" lon="-84.295119">
        <ele>741.542</ele>
        <time>2022-08-11T22:28:21Z</time>
      </trkpt>
      <trkpt lat="10.005449" lon="-84.296005">
        <ele>744.454</ele>
        <time>2022-08-11T22:29:01Z</time>
      </trkpt>
      <trkpt lat="10.00538" lon="-84.296294">
        <ele>744.656</ele>
        <time>2022-08-11T22:29:41Z</time>
      </trkpt>
      <trkpt lat="10.005288" lon="-84.296474">
        <ele>745.311</ele>
        <time>2022-08-11T22:30:21Z</time>
      </trkpt>
      <trkpt lat="10.005138" lon="-84.29669">
        <ele>746.509</ele>
        <time>2022-08-11T22:31:01Z</time>
      </trkpt>
      <trkpt lat="10.004837" lon="-84.296902">
        <ele>745.176</ele>
        <time>2022-08-11T22:31:41Z</time>
      </trkpt>
      <trkpt lat="10.004555" lon="-84.297111">
        <ele>742.996</ele>
        <time>2022-08-11T22:32:21Z</time>
      </trkpt>
      <trkpt lat="10.004096" lon="-84.297577">
        <ele>740.975</ele>
        <time>2022-08-11T22:33:01Z</time>
      </trkpt>
      <trkpt lat="10.003649" lon="-84.298076">
        <ele>740.038</ele>
        <time>2022-08-11T22:33:41Z</time>
      </trkpt>
      <trkpt lat="10.003472" lon="-84.298261">
        <ele>740.983</ele>
        <time>2022-08-11T22:34:21Z</time>
      </trkpt>
      <trkpt lat="10.003329" lon="-84.298478">
        <ele>741.297</ele>
        <time>2022-08-11T22:35:01Z</time>
      </trkpt>
      <trkpt lat="10.002959" lon="-84.299275">
        <ele>733.826</ele>
        <time>2022-08-11T22:35:41Z</time>
      </trkpt>
      <trkpt lat="10.002497" lon="-84.300391">
        <ele>733.913</ele>
        <time>2022-08-11T22:36:21Z</time>
      </trkpt>
      <trkpt lat="10.002156" lon="-84.301511">
        <ele>728.252</ele>
        <time>2022-08-11T22:37:01Z</time>
      </trkpt>
      <trkpt lat="10.0018" lon="-84.302955">
        <ele>727.727</ele>
        <time>2022-08-11T22:37:41Z</time>
      </trkpt>
      <trkpt lat="10.001369" lon="-84.305131">
        <ele>717.568</ele>
        <time>2022-08-11T22:38:21Z</time>
      </trkpt>
      <trkpt lat="10.001369" lon="-84.305131">
        <ele>717.414</ele>
        <time>2022-08-11T22:39:01Z</time>
      </trkpt>
      <trkpt lat="10.001188" lon="-84.306035">
        <ele>714.509</ele>
        <time>2022-08-11T22:39:41Z</time>
      </trkpt>
      <trkpt lat="10.001121" lon="-84.306198">
        <ele>714.453</ele>
        <time>2022-08-11T22:40:21Z</time>
      </trkpt>
      <trkpt lat="10.00097" lon="-84.306434">
        <ele>714.323</ele>
        <time>2022-08-11T22:41:01Z</time>
      </trkpt>
      <trkpt lat="10.000521" lon="-84.306923">
        <ele>713.642</ele>
        <time>2022-08-11T22:41:41Z</time>
      </trkpt>
      <trkpt lat="10.000141" lon="-84.307258">
        <ele>713.085</ele>
        <time>2022-08-11T22:42:21Z</time>
      </trkpt>
      <trkpt lat="9.999718" lon="-84.307567">
        <ele>710.430</ele>
        <time>2022-08-11T22:43:01Z</time>
      </trkpt>
      <trkpt lat="9.999226" lon="-84.307721">
        <ele>708.094</ele>
        <time>2022-08-11T22:43:41Z</time>
      </trkpt>
      <trkpt lat="9.998392" lon="-84.307958">
        <ele>703.253</ele>
        <time>2022-08-11T22:44:21Z</time>
      </trkpt>
      <trkpt lat="9.997926" lon="-84.308113">
        <ele>705.070</ele>
        <time>2022-08-11T22:45:01Z</time>
      </trkpt>
      <trkpt lat="9.997746" lon="-84.308212">
        <ele>706.249</ele>
        <time>2022-08-11T22:45:41Z</time>
      </trkpt>
      <trkpt lat="9.997606" lon="-84.308344">
        <ele>707.219</ele>
        <time>2022-08-11T22:46:21Z</time>
      </trkpt>
      <trkpt lat="9.996653" lon="-84.30924">
        <ele>708.409</ele>
        <time>2022-08-11T22:47:01Z</time>
      </trkpt>
      <trkpt lat="9.996476" lon="-84.30944">
        <ele>705.519</ele>
        <time>2022-08-11T22:47:41Z</time>
      </trkpt>
      <trkpt lat="9.996325" lon="-84.309666">
        <ele>703.609</ele>
        <time>2022-08-11T22:48:21Z</time>
      </trkpt>
      <trkpt lat="9.99616" lon="-84.310135">
        <ele>702.412</ele>
        <time>2022-08-11T22:49:01Z</time>
      </trkpt>
      <trkpt lat="9.995907" lon="-84.310799">
        <ele>706.172</ele>
        <time>2022-08-11T22:49:41Z</time>
      </trkpt>
      <trkpt lat="9.995698" lon="-84.31139">
        <ele>702.751</ele>
        <time>2022-08-11T22:50:21Z</time>
      </trkpt>
      <trkpt lat="9.995491" lon="-84.311997">
        <ele>699.994</ele>
        <time>2022-08-11T22:51:01Z</time>
      </trkpt>
      <trkpt lat="9.995348" lon="-84.312356">
        <ele>700.219</ele>
        <time>2022-08-11T22:51:41Z</time>
      </trkpt>
      <trkpt lat="9.99514" lon="-84.31284">
        <ele>701.573</ele>
        <time>2022-08-11T22:52:21Z</time>
      </trkpt>
      <trkpt lat="9.994618" lon="-84.313721">
        <ele>701.212</ele>
        <time>2022-08-11T22:53:01Z</time>
      </trkpt>
      <trkpt lat="9.994237" lon="-84.314388">
        <ele>701.879</ele>
        <time>2022-08-11T22:53:41Z</time>
      </trkpt>
      <trkpt lat="9.994027" lon="-84.314913">
        <ele>699.588</ele>
        <time>2022-08-11T22:54:21Z</time>
      </trkpt>
      <trkpt lat="9.993754" lon="-84.31563">
        <ele>698.189</ele>
        <time>2022-08-11T22:55:01Z</time>
      </trkpt>
      <trkpt lat="9.993458" lon="-84.316372">
        <ele>697.906</ele>
        <time>2022-08-11T22:55:41Z</time>
      </trkpt>
      <trkpt lat="9.993197" lon="-84.317094">
        <ele>696.926</ele>
        <time>2022-08-11T22:56:21Z</time>
      </trkpt>
      <trkpt lat="9.992929" lon="-84.317951">
        <ele>695.909</ele>
        <time>2022-08-11T22:57:01Z</time>
      </trkpt>
      <trkpt lat="9.992674" lon="-84.318969">
        <ele>693.329</ele>
        <time>2022-08-11T22:57:41Z</time>
      </trkpt>
      <trkpt lat="9.992551" lon="-84.319689">
        <ele>688.629</ele>
        <time>2022-08-11T22:58:21Z</time>
      </trkpt>
      <trkpt lat="9.992453" lon="-84.320433">
        <ele>684.028</ele>
        <time>2022-08-11T22:59:01Z</time>
      </trkpt>
      <trkpt lat="9.992384" lon="-84.321088">
        <ele>681.511</ele>
        <time>2022-08-11T22:59:41Z</time>
      </trkpt>
      <trkpt lat="9.991393" lon="-84.320934">
        <ele>678.146</ele>
        <time>2022-08-11T23:00:21Z</time>
      </trkpt>
      <trkpt lat="9.989591" lon="-84.320555">
        <ele>667.690</ele>
        <time>2022-08-11T23:01:01Z</time>
      </trkpt>
      <trkpt lat="9.989166" lon="-84.320523">
        <ele>665.139</ele>
        <time>2022-08-11T23:01:41Z</time>
      </trkpt>
      <trkpt lat="9.988659" lon="-84.320624">
        <ele>665.146</ele>
        <time>2022-08-11T23:02:21Z</time>
      </trkpt>
      <trkpt lat="9.988047" lon="-84.320727">
        <ele>665.015</ele>
        <time>2022-08-11T23:03:01Z</time>
      </trkpt>
      <trkpt lat="9.987273" lon="-84.320736">
        <ele>663.799</ele>
        <time>2022-08-11T23:03:41Z</time>
      </trkpt>
      <trkpt lat="9.986663" lon="-84.320744">
        <ele>662.907</ele>
        <time>2022-08-11T23:04:21Z</time>
      </trkpt>
      <trkpt lat="9.985955" lon="-84.320721">
        <ele>661.227</ele>
        <time>2022-08-11T23:05:01Z</time>
      </trkpt>
      <trkpt lat="9.985209" lon="-84.320721">
        <ele>659.509</ele>
        <time>2022-08-11T23:05:41Z</time>
      </trkpt>
      <trkpt lat="9.984698" lon="-84.320715">
        <ele>658.920</ele>
        <time>2022-08-11T23:06:21Z</time>
      </trkpt>
      <trkpt lat="9.984239" lon="-84.320753">
        <ele>658.910</ele>
        <time>2022-08-11T23:07:01Z</time>
      </trkpt>
      <trkpt lat="9.984038" lon="-84.320817">
        <ele>658.449</ele>
        <time>2022-08-11T23:07:41Z</time>
      </trkpt>
      <trkpt lat="9.98359" lon="-84.320998">
        <ele>656.482</ele>
        <time>2022-08-11T23:08:21Z</time>
      </trkpt>
      <trkpt lat="9.983104" lon="-84.321337">
        <ele>654.077</ele>
        <time>2022-08-11T23:09:01Z</time>
      </trkpt>
      <trkpt lat="9.982566" lon="-84.321664">
        <ele>648.761</ele>
        <time>2022-08-11T23:09:41Z</time>
      </trkpt>
      <trkpt lat="9.982206" lon="-84.321759">
        <ele>646.450</ele>
        <time>2022-08-11T23:10:21Z</time>
      </trkpt>
      <trkpt lat="9.982034" lon="-84.321765">
        <ele>645.517</ele>
        <time>2022-08-11T23:11:01Z</time>
      </trkpt>
      <trkpt lat="9.981871" lon="-84.321735">
        <ele>644.566</ele>
        <time>2022-08-11T23:11:41Z</time>
      </trkpt>
      <trkpt lat="9.98169" lon="-84.321671">
        <ele>643.389</ele>
        <time>2022-08-11T23:12:21Z</time>
      </trkpt>
      <trkpt lat="9.981415" lon="-84.321504">
        <ele>643.206</ele>
        <time>2022-08-11T23:13:01Z</time>
      </trkpt>
      <trkpt lat="9.981244" lon="-84.321345">
        <ele>642.826</ele>
        <time>2022-08-11T23:13:41Z</time>
      </trkpt>
      <trkpt lat="9.981118" lon="-84.321151">
        <ele>642.009</ele>
        <time>2022-08-11T23:14:21Z</time>
      </trkpt>
      <trkpt lat="9.980955" lon="-84.320934">
        <ele>640.599</ele>
        <time>2022-08-11T23:15:01Z</time>
      </trkpt>
      <trkpt lat="9.980809" lon="-84.320693">
        <ele>640.159</ele>
        <time>2022-08-11T23:15:41Z</time>
      </trkpt>
      <trkpt lat="9.980735" lon="-84.320553">
        <ele>641.118</ele>
        <time>2022-08-11T23:16:21Z</time>
      </trkpt>
      <trkpt lat="9.98033" lon="-84.320012">
        <ele>643.551</ele>
        <time>2022-08-11T23:17:01Z</time>
      </trkpt>
      <trkpt lat="9.980243" lon="-84.31983">
        <ele>644.476</ele>
        <time>2022-08-11T23:17:41Z</time>
      </trkpt>
      <trkpt lat="9.980161" lon="-84.319664">
        <ele>645.140</ele>
        <time>2022-08-11T23:18:21Z</time>
      </trkpt>
      <trkpt lat="9.980124" lon="-84.31942">
        <ele>646.319</ele>
        <time>2022-08-11T23:19:01Z</time>
      </trkpt>
      <trkpt lat="9.980113" lon="-84.319253">
        <ele>647.266</ele>
        <time>2022-08-11T23:19:41Z</time>
      </trkpt>
      <trkpt lat="9.980177" lon="-84.318923">
        <ele>649.335</ele>
        <time>2022-08-11T23:20:21Z</time>
      </trkpt>
      <trkpt lat="9.980213" lon="-84.31865">
        <ele>651.293</ele>
        <time>2022-08-11T23:21:01Z</time>
      </trkpt>
      <trkpt lat="9.980324" lon="-84.318363">
        <ele>653.265</ele>
        <time>2022-08-11T23:21:41Z</time>
      </trkpt>
      <trkpt lat="9.980329" lon="-84.318065">
        <ele>652.421</ele>
        <time>2022-08-11T23:22:21Z</time>
      </trkpt>
      <trkpt lat="9.980253" lon="-84.317649">
        <ele>651.009</ele>
        <time>2022-08-11T23:23:01Z</time>
      </trkpt>
      <trkpt lat="9.980015" lon="-84.316641">
        <ele>654.250</ele>
        <time>2022-08-11T23:23:41Z</time>
      </trkpt>
      <trkpt lat="9.979827" lon="-84.316153">
        <ele>654.960</ele>
        <time>2022-08-11T23:24:21Z</time>
      </trkpt>
      <trkpt lat="9.979536" lon="-84.315862">
        <ele>655.719</ele>
        <time>2022-08-11T23:25:01Z</time>
      </trkpt>
      <trkpt lat="9.979171" lon="-84.315694">
        <ele>656.532</ele>
        <time>2022-08-11T23:25:41Z</time>
      </trkpt>
      <trkpt lat="9.978824" lon="-84.31562">
        <ele>657.457</ele>
        <time>2022-08-11T23:26:21Z</time>
      </trkpt>
      <trkpt lat="9.978523" lon="-84.315671">
        <ele>658.071</ele>
        <time>2022-08-11T23:27:01Z</time>
      </trkpt>
      <trkpt lat="9.978074" lon="-84.315774">
        <ele>657.520</ele>
        <time>2022-08-11T23:27:41Z</time>
      </trkpt>
      <trkpt lat="9.977593" lon="-84.315841">
        <ele>656.327</ele>
        <time>2022-08-11T23:28:21Z</time>
      </trkpt>
      <trkpt lat="9.977119" lon="-84.315882">
        <ele>654.156</ele>
        <time>2022-08-11T23:29:01Z</time>
      </trkpt>
      <trkpt lat="9.976486" lon="-84.315947">
        <ele>652.088</ele>
        <time>2022-08-11T23:29:41Z</time>
      </trkpt>
      <trkpt lat="9.975691" lon="-84.316011">
        <ele>653.524</ele>
        <time>2022-08-11T23:30:21Z</time>
      </trkpt>
      <trkpt lat="9.975049" lon="-84.316028">
        <ele>656.626</ele>
        <time>2022-08-11T23:31:01Z</time>
      </trkpt>
      <trkpt lat="9.974589" lon="-84.316079">
        <ele>658.809</ele>
        <time>2022-08-11T23:31:41Z</time>
      </trkpt>
      <trkpt lat="9.973844" lon="-84.316131">
        <ele>661.329</ele>
        <time>2022-08-11T23:32:21Z</time>
      </trkpt>
      <trkpt lat="9.973277" lon="-84.316133">
        <ele>662.329</ele>
        <time>2022-08-11T23:33:01Z</time>
      </trkpt>
      <trkpt lat="9.972504" lon="-84.316115">
        <ele>664.358</ele>
        <time>2022-08-11T23:33:41Z</time>
      </trkpt>
      <trkpt lat="9.971837" lon="-84.316112">
        <ele>667.011</ele>
        <time>2022-08-11T23:34:21Z</time>
      </trkpt>
      <trkpt lat="9.971201" lon="-84.31608">
        <ele>668.586</ele>
        <time>2022-08-11T23:35:01Z</time>
      </trkpt>
      <trkpt lat="9.970649" lon="-84.316062">
        <ele>668.010</ele>
        <time>2022-08-11T23:35:41Z</time>
      </trkpt>
      <trkpt lat="9.970237" lon="-84.316058">
        <ele>665.929</ele>
        <time>2022-08-11T23:36:21Z</time>
      </trkpt>
      <trkpt lat="9.969398" lon="-84.316031">
        <ele>663.066</ele>
        <time>2022-08-11T23:37:01Z</time>
      </trkpt>
      <trkpt lat="9.968535" lon="-84.316016">
        <ele>660.655</ele>
        <time>2022-08-11T23:37:41Z</time>
      </trkpt>
      <trkpt lat="9.968082" lon="-84.316001">
        <ele>657.676</ele>
        <time>2022-08-11T23:38:21Z</time>
      </trkpt>
      <trkpt lat="9.967664" lon="-84.315993">
        <ele>653.590</ele>
        <time>2022-08-11T23:39:01Z</time>
      </trkpt>
      <trkpt lat="9.966938" lon="-84.315978">
        <ele>648.219</ele>
        <time>2022-08-11T23:39:41Z</time>
      </trkpt>
      <trkpt lat="9.966621" lon="-84.315975">
        <ele>646.109</ele>
        <time>2022-08-11T23:40:21Z</time>
      </trkpt>
      <trkpt lat="9.966436" lon="-84.316058">
        <ele>645.388</ele>
        <time>2022-08-11T23:41:01Z</time>
      </trkpt>
      <trkpt lat="9.966196" lon="-84.316219">
        <ele>643.698</ele>
        <time>2022-08-11T23:41:41Z</time>
      </trkpt>
      <trkpt lat="9.965876" lon="-84.316439">
        <ele>640.117</ele>
        <time>2022-08-11T23:42:21Z</time>
      </trkpt>
      <trkpt lat="9.965789" lon="-84.31649">
        <ele>640.050</ele>
        <time>2022-08-11T23:43:01Z</time>
      </trkpt>
      <trkpt lat="9.965723" lon="-84.316539">
        <ele>640.645</ele>
        <time>2022-08-11T23:43:41Z</time>
      </trkpt>
      <trkpt lat="9.965662" lon="-84.31671">
        <ele>640.999</ele>
        <time>2022-08-11T23:44:21Z</time>
      </trkpt>
      <trkpt lat="9.965538" lon="-84.317193">
        <ele>639.638</ele>
        <time>2022-08-11T23:45:01Z</time>
      </trkpt>
      <trkpt lat="9.965415" lon="-84.317605">
        <ele>637.925</ele>
        <time>2022-08-11T23:45:41Z</time>
      </trkpt>
      <trkpt lat="9.965301" lon="-84.317701">
        <ele>637.754</ele>
        <time>2022-08-11T23:46:21Z</time>
      </trkpt>
      <trkpt lat="9.964997" lon="-84.317731">
        <ele>638.034</ele>
        <time>2022-08-11T23:47:01Z</time>
      </trkpt>
      <trkpt lat="9.9648" lon="-84.317757">
        <ele>639.455</ele>
        <time>2022-08-11T23:47:41Z</time>
      </trkpt>
      <trkpt lat="9.964356" lon="-84.317782">
        <ele>642.910</ele>
        <time>2022-08-11T23:48:21Z</time>
      </trkpt>
      <trkpt lat="9.963696" lon="-84.317847">
        <ele>646.509</ele>
        <time>2022-08-11T23:49:01Z</time>
      </trkpt>
      <trkpt lat="9.963463" lon="-84.317847">
        <ele>647.934</ele>
        <time>2022-08-11T23:49:41Z</time>
      </trkpt>
      <trkpt lat="9.962854" lon="-84.317774">
        <ele>648.194</ele>
        <time>2022-08-11T23:50:21Z</time>
      </trkpt>
      <trkpt lat="9.962469" lon="-84.317749">
        <ele>647.473</ele>
        <time>2022-08-11T23:51:01Z</time>
      </trkpt>
      <trkpt lat="9.961914" lon="-84.317703">
        <ele>647.576</ele>
        <time>2022-08-11T23:51:41Z</time>
      </trkpt>
      <trkpt lat="9.961734" lon="-84.31766">
        <ele>647.711</ele>
        <time>2022-08-11T23:52:21Z</time>
      </trkpt>
      <trkpt lat="9.961705" lon="-84.317652">
        <ele>647.995</ele>
        <time>2022-08-11T23:53:01Z</time>
      </trkpt>
      <trkpt lat="9.96201" lon="-84.316888">
        <ele>650.894</ele>
        <time>2022-08-11T23:53:41Z</time>
      </trkpt>
      <trkpt lat="9.962271" lon="-84.316208">
        <ele>652.411</ele>
        <time>2022-08-11T23:54:21Z</time>
      </trkpt>
      <trkpt lat="9.962566" lon="-84.315389">
        <ele>654.690</ele>
        <time>2022-08-11T23:55:01Z</time>
      </trkpt>
      <trkpt lat="9.962865" lon="-84.314596">
        <ele>655.571</ele>
        <time>2022-08-11T23:55:41Z</time>
      </trkpt>
      <trkpt lat="9.96292" lon="-84.314272">
        <ele>655.941</ele>
        <time>2022-08-11T23:56:21Z</time>
      </trkpt>
      <trkpt lat="9.962993" lon="-84.313608">
        <ele>658.515</ele>
        <time>2022-08-11T23:57:01Z</time>
      </trkpt>
      <trkpt lat="9.963212" lon="-84.312694">
        <ele>663.609</ele>
        <time>2022-08-11T23:57:41Z</time>
      </trkpt>
      <trkpt lat="9.963397" lon="-84.312023">
        <ele>665.538</ele>
        <time>2022-08-11T23:58:21Z</time>
      </trkpt>
      <trkpt lat="9.963594" lon="-84.311179">
        <ele>666.768</ele>
        <time>2022-08-11T23:59:01Z</time>
      </trkpt>
      <trkpt lat="9.963804" lon="-84.310354">
        <ele>669.417</ele>
        <time>2022-08-11T23:59:41Z</time>
      </trkpt>
      <trkpt lat="9.964017" lon="-84.309361">
        <ele>670.680</ele>
        <time>2022-08-12T00:00:21Z</time>
      </trkpt>
      <trkpt lat="9.964307" lon="-84.308238">
        <ele>673.185</ele>
        <time>2022-08-12T00:01:01Z</time>
      </trkpt>
      <trkpt lat="9.964513" lon="-84.307397">
        <ele>673.179</ele>
        <time>2022-08-12T00:01:41Z</time>
      </trkpt>
      <trkpt lat="9.964716" lon="-84.306587">
        <ele>676.278</ele>
        <time>2022-08-12T00:02:21Z</time>
      </trkpt>
      <trkpt lat="9.964873" lon="-84.305841">
        <ele>678.535</ele>
        <time>2022-08-12T00:03:01Z</time>
      </trkpt>
      <trkpt lat="9.964922" lon="-84.305009">
        <ele>679.934</ele>
        <time>2022-08-12T00:03:41Z</time>
      </trkpt>
      <trkpt lat="9.964983" lon="-84.304042">
        <ele>687.339</ele>
        <time>2022-08-12T00:04:21Z</time>
      </trkpt>
      <trkpt lat="9.965118" lon="-84.301956">
        <ele>692.201</ele>
        <time>2022-08-12T00:05:01Z</time>
      </trkpt>
      <trkpt lat="9.965245" lon="-84.300776">
        <ele>694.121</ele>
        <time>2022-08-12T00:05:41Z</time>
      </trkpt>
      <trkpt lat="9.965721" lon="-84.299679">
        <ele>697.609</ele>
        <time>2022-08-12T00:06:21Z</time>
      </trkpt>
      <trkpt lat="9.96617" lon="-84.298907">
        <ele>701.964</ele>
        <time>2022-08-12T00:07:01Z</time>
      </trkpt>
      <trkpt lat="9.966863" lon="-84.298056">
        <ele>707.164</ele>
        <time>2022-08-12T00:07:41Z</time>
      </trkpt>
      <trkpt lat="9.967475" lon="-84.297298">
        <ele>709.323</ele>
        <time>2022-08-12T00:08:21Z</time>
      </trkpt>
      <trkpt lat="9.967852" lon="-84.296443">
        <ele>712.766</ele>
        <time>2022-08-12T00:09:01Z</time>
      </trkpt>
      <trkpt lat="9.968026" lon="-84.295944">
        <ele>717.821</ele>
        <time>2022-08-12T00:09:41Z</time>
      </trkpt>
      <trkpt lat="9.968" lon="-84.295762">
        <ele>719.855</ele>
        <time>2022-08-12T00:10:21Z</time>
      </trkpt>
      <trkpt lat="9.967957" lon="-84.295639">
        <ele>721.044</ele>
        <time>2022-08-12T00:11:01Z</time>
      </trkpt>
      <trkpt lat="9.967328" lon="-84.29466">
        <ele>727.271</ele>
        <time>2022-08-12T00:11:41Z</time>
      </trkpt>
      <trkpt lat="9.96701" lon="-84.293705">
        <ele>729.220</ele>
        <time>2022-08-12T00:12:21Z</time>
      </trkpt>
      <trkpt lat="9.966807" lon="-84.292704">
        <ele>733.284</ele>
        <time>2022-08-12T00:13:01Z</time>
      </trkpt>
      <trkpt lat="9.966719" lon="-84.290641">
        <ele>744.707</ele>
        <time>2022-08-12T00:13:41Z</time>
      </trkpt>
      <trkpt lat="9.966745" lon="-84.288531">
        <ele>750.317</ele>
        <time>2022-08-12T00:14:21Z</time>
      </trkpt>
      <trkpt lat="9.966762" lon="-84.286707">
        <ele>751.809</ele>
        <time>2022-08-12T00:15:01Z</time>
      </trkpt>
      <trkpt lat="9.966813" lon="-84.284773">
        <ele>756.389</ele>
        <time>2022-08-12T00:15:41Z</time>
      </trkpt>
      <trkpt lat="9.966907" lon="-84.283543">
        <ele>758.779</ele>
        <time>2022-08-12T00:16:21Z</time>
      </trkpt>
      <trkpt lat="9.966733" lon="-84.282985">
        <ele>760.128</ele>
        <time>2022-08-12T00:17:01Z</time>
      </trkpt>
      <trkpt lat="9.966254" lon="-84.281992">
        <ele>756.031</ele>
        <time>2022-08-12T00:17:41Z</time>
      </trkpt>
      <trkpt lat="9.965593" lon="-84.281018">
        <ele>756.626</ele>
        <time>2022-08-12T00:18:21Z</time>
      </trkpt>
      <trkpt lat="9.965408" lon="-84.280562">
        <ele>756.680</ele>
        <time>2022-08-12T00:19:01Z</time>
      </trkpt>
      <trkpt lat="9.965329" lon="-84.280192">
        <ele>756.419</ele>
        <time>2022-08-12T00:19:41Z</time>
      </trkpt>
      <trkpt lat="9.965223" lon="-84.280036">
        <ele>756.476</ele>
        <time>2022-08-12T00:20:21Z</time>
      </trkpt>
      <trkpt lat="9.965138" lon="-84.279999">
        <ele>756.345</ele>
        <time>2022-08-12T00:21:01Z</time>
      </trkpt>
      <trkpt lat="9.965017" lon="-84.279929">
        <ele>756.253</ele>
        <time>2022-08-12T00:21:41Z</time>
      </trkpt>
      <trkpt lat="9.964975" lon="-84.279832">
        <ele>756.204</ele>
        <time>2022-08-12T00:22:21Z</time>
      </trkpt>
      <trkpt lat="9.96508" lon="-84.279698">
        <ele>756.614</ele>
        <time>2022-08-12T00:23:01Z</time>
      </trkpt>
      <trkpt lat="9.965286" lon="-84.279661">
        <ele>756.909</ele>
        <time>2022-08-12T00:23:41Z</time>
      </trkpt>
      <trkpt lat="9.965466" lon="-84.27943">
        <ele>757.316</ele>
        <time>2022-08-12T00:24:21Z</time>
      </trkpt>
      <trkpt lat="9.965725" lon="-84.27904">
        <ele>758.466</ele>
        <time>2022-08-12T00:25:01Z</time>
      </trkpt>
      <trkpt lat="9.966217" lon="-84.278649">
        <ele>760.945</ele>
        <time>2022-08-12T00:25:41Z</time>
      </trkpt>
      <trkpt lat="9.967341" lon="-84.278237">
        <ele>768.488</ele>
        <time>2022-08-12T00:26:21Z</time>
      </trkpt>
      <trkpt lat="9.967912" lon="-84.278055">
        <ele>768.933</ele>
        <time>2022-08-12T00:27:01Z</time>
      </trkpt>
      <trkpt lat="9.9682" lon="-84.277697">
        <ele>770.337</ele>
        <time>2022-08-12T00:27:41Z</time>
      </trkpt>
      <trkpt lat="9.968491" lon="-84.277032">
        <ele>771.566</ele>
        <time>2022-08-12T00:28:21Z</time>
      </trkpt>
      <trkpt lat="9.96937" lon="-84.275664">
        <ele>774.913</ele>
        <time>2022-08-12T00:29:01Z</time>
      </trkpt>
      <trkpt lat="9.970381" lon="-84.274392">
        <ele>779.312</ele>
        <time>2022-08-12T00:29:41Z</time>
      </trkpt>
      <trkpt lat="9.971308" lon="-84.273157">
        <ele>783.026</ele>
        <time>2022-08-12T00:30:21Z</time>
      </trkpt>
      <trkpt lat="9.972377" lon="-84.271664">
        <ele>788.347</ele>
        <time>2022-08-12T00:31:01Z</time>
      </trkpt>
      <trkpt lat="9.973396" lon="-84.27035">
        <ele>791.211</ele>
        <time>2022-08-12T00:31:41Z</time>
      </trkpt>
      <trkpt lat="9.974403" lon="-84.269125">
        <ele>796.109</ele>
        <time>2022-08-12T00:32:21Z</time>
      </trkpt>
      <trkpt lat="9.975713" lon="-84.26744">
        <ele>798.893</ele>
        <time>2022-08-12T00:33:01Z</time>
      </trkpt>
      <trkpt lat="9.976481" lon="-84.266444">
        <ele>802.363</ele>
        <time>2022-08-12T00:33:41Z</time>
      </trkpt>
      <trkpt lat="9.976925" lon="-84.266036">
        <ele>801.712</ele>
        <time>2022-08-12T00:34:21Z</time>
      </trkpt>
      <trkpt lat="9.977574" lon="-84.265226">
        <ele>804.915</ele>
        <time>2022-08-12T00:35:01Z</time>
      </trkpt>
      <trkpt lat="9.978172" lon="-84.264432">
        <ele>811.620</ele>
        <time>2022-08-12T00:35:41Z</time>
      </trkpt>
      <trkpt lat="9.978845" lon="-84.263449">
        <ele>810.384</ele>
        <time>2022-08-12T00:36:21Z</time>
      </trkpt>
      <trkpt lat="9.979961" lon="-84.261602">
        <ele>811.283</ele>
        <time>2022-08-12T00:37:01Z</time>
      </trkpt>
      <trkpt lat="9.98088" lon="-84.260186">
        <ele>813.410</ele>
        <time>2022-08-12T00:37:41Z</time>
      </trkpt>
      <trkpt lat="9.981314" lon="-84.259456">
        <ele>814.399</ele>
        <time>2022-08-12T00:38:21Z</time>
      </trkpt>
      <trkpt lat="9.98054" lon="-84.259115">
        <ele>816.727</ele>
        <time>2022-08-12T00:39:01Z</time>
      </trkpt>
      <trkpt lat="9.979937" lon="-84.258761">
        <ele>817.668</ele>
        <time>2022-08-12T00:39:41Z</time>
      </trkpt>
      <trkpt lat="9.979419" lon="-84.2583">
        <ele>813.514</ele>
        <time>2022-08-12T00:40:21Z</time>
      </trkpt>
      <trkpt lat="9.978996" lon="-84.257586">
        <ele>810.509</ele>
        <time>2022-08-12T00:41:01Z</time>
      </trkpt>
      <trkpt lat="9.978943" lon="-84.257318">
        <ele>809.953</ele>
        <time>2022-08-12T00:41:41Z</time>
      </trkpt>
      <trkpt lat="9.978573" lon="-84.25721">
        <ele>807.953</ele>
        <time>2022-08-12T00:42:21Z</time>
      </trkpt>
      <trkpt lat="9.978213" lon="-84.257242">
        <ele>806.372</ele>
        <time>2022-08-12T00:43:01Z</time>
      </trkpt>
      <trkpt lat="9.977779" lon="-84.257155">
        <ele>803.145</ele>
        <time>2022-08-12T00:43:41Z</time>
      </trkpt>
      <trkpt lat="9.97731" lon="-84.256773">
        <ele>795.810</ele>
        <time>2022-08-12T00:44:21Z</time>
      </trkpt>
      <trkpt lat="9.976908" lon="-84.25658">
        <ele>791.054</ele>
        <time>2022-08-12T00:45:01Z</time>
      </trkpt>
      <trkpt lat="9.976454" lon="-84.256666">
        <ele>792.173</ele>
        <time>2022-08-12T00:45:41Z</time>
      </trkpt>
      <trkpt lat="9.97628" lon="-84.256773">
        <ele>794.190</ele>
        <time>2022-08-12T00:46:21Z</time>
      </trkpt>
      <trkpt lat="9.976354" lon="-84.257138">
        <ele>791.499</ele>
        <time>2022-08-12T00:47:01Z</time>
      </trkpt>
      <trkpt lat="9.976301" lon="-84.25732">
        <ele>790.655</ele>
        <time>2022-08-12T00:47:41Z</time>
      </trkpt>
      <trkpt lat="9.976103" lon="-84.257341">
        <ele>790.507</ele>
        <time>2022-08-12T00:48:21Z</time>
      </trkpt>
      <trkpt lat="9.975786" lon="-84.257191">
        <ele>793.117</ele>
        <time>2022-08-12T00:49:01Z</time>
      </trkpt>
      <trkpt lat="9.97549" lon="-84.256976">
        <ele>797.709</ele>
        <time>2022-08-12T00:49:41Z</time>
      </trkpt>
      <trkpt lat="9.975109" lon="-84.25674">
        <ele>804.556</ele>
        <time>2022-08-12T00:50:21Z</time>
      </trkpt>
      <trkpt lat="9.974813" lon="-84.256472">
        <ele>809.236</ele>
        <time>2022-08-12T00:51:01Z</time>
      </trkpt>
      <trkpt lat="9.974399" lon="-84.256193">
        <ele>811.115</ele>
        <time>2022-08-12T00:51:41Z</time>
      </trkpt>
      <trkpt lat="9.973552" lon="-84.256042">
        <ele>810.148</ele>
        <time>2022-08-12T00:52:21Z</time>
      </trkpt>
      <trkpt lat="9.97198" lon="-84.255829">
        <ele>805.273</ele>
        <time>2022-08-12T00:53:01Z</time>
      </trkpt>
      <trkpt lat="9.970818" lon="-84.255711">
        <ele>801.017</ele>
        <time>2022-08-12T00:53:41Z</time>
      </trkpt>
      <trkpt lat="9.97021" lon="-84.255793">
        <ele>794.146</ele>
        <time>2022-08-12T00:54:21Z</time>
      </trkpt>
      <trkpt lat="9.969375" lon="-84.256126">
        <ele>788.233</ele>
        <time>2022-08-12T00:55:01Z</time>
      </trkpt>
      <trkpt lat="9.968837" lon="-84.256321">
        <ele>787.432</ele>
        <time>2022-08-12T00:55:41Z</time>
      </trkpt>
      <trkpt lat="9.96775" lon="-84.25667">
        <ele>792.973</ele>
        <time>2022-08-12T00:56:21Z</time>
      </trkpt>
      <trkpt lat="9.967264" lon="-84.256766">
        <ele>796.885</ele>
        <time>2022-08-12T00:57:01Z</time>
      </trkpt>
      <trkpt lat="9.966168" lon="-84.256204">
        <ele>800.913</ele>
        <time>2022-08-12T00:57:41Z</time>
      </trkpt>
      <trkpt lat="9.965575" lon="-84.255714">
        <ele>800.109</ele>
        <time>2022-08-12T00:58:21Z</time>
      </trkpt>
      <trkpt lat="9.965194" lon="-84.255574">
        <ele>800.038</ele>
        <time>2022-08-12T00:59:01Z</time>
      </trkpt>
      <trkpt lat="9.964293" lon="-84.255466">
        <ele>805.638</ele>
        <time>2022-08-12T00:59:41Z</time>
      </trkpt>
      <trkpt lat="9.962889" lon="-84.255183">
        <ele>808.927</ele>
        <time>2022-08-12T01:00:21Z</time>
      </trkpt>
      <trkpt lat="9.96218" lon="-84.254733">
        <ele>808.030</ele>
        <time>2022-08-12T01:01:01Z</time>
      </trkpt>
      <trkpt lat="9.963068" lon="-84.253263">
        <ele>811.955</ele>
        <time>2022-08-12T01:01:41Z</time>
      </trkpt>
      <trkpt lat="9.963629" lon="-84.251889">
        <ele>816.529</ele>
        <time>2022-08-12T01:02:21Z</time>
      </trkpt>
      <trkpt lat="9.964115" lon="-84.250409">
        <ele>818.378</ele>
        <time>2022-08-12T01:03:01Z</time>
      </trkpt>
      <trkpt lat="9.964409" lon="-84.248562">
        <ele>818.735</ele>
        <time>2022-08-12T01:03:41Z</time>
      </trkpt>
      <trkpt lat="9.964985" lon="-84.246562">
        <ele>817.814</ele>
        <time>2022-08-12T01:04:21Z</time>
      </trkpt>
      <trkpt lat="9.965694" lon="-84.244662">
        <ele>823.519</ele>
        <time>2022-08-12T01:05:01Z</time>
      </trkpt>
      <trkpt lat="9.966763" lon="-84.242819">
        <ele>823.409</ele>
        <time>2022-08-12T01:05:41Z</time>
      </trkpt>
      <trkpt lat="9.96781" lon="-84.241081">
        <ele>824.319</ele>
        <time>2022-08-12T01:06:21Z</time>
      </trkpt>
      <trkpt lat="9.96873" lon="-84.239287">
        <ele>830.309</ele>
        <time>2022-08-12T01:07:01Z</time>
      </trkpt>
      <trkpt lat="9.969513" lon="-84.237699">
        <ele>834.562</ele>
        <time>2022-08-12T01:07:41Z</time>
      </trkpt>
      <trkpt lat="9.969684" lon="-84.236583">
        <ele>833.332</ele>
        <time>2022-08-12T01:08:21Z</time>
      </trkpt>
      <trkpt lat="9.969589" lon="-84.23551">
        <ele>827.411</ele>
        <time>2022-08-12T01:09:01Z</time>
      </trkpt>
      <trkpt lat="9.969441" lon="-84.235049">
        <ele>822.094</ele>
        <time>2022-08-12T01:09:41Z</time>
      </trkpt>
      <trkpt lat="9.96924" lon="-84.234909">
        <ele>820.119</ele>
        <time>2022-08-12T01:10:21Z</time>
      </trkpt>
      <trkpt lat="9.968859" lon="-84.234737">
        <ele>819.653</ele>
        <time>2022-08-12T01:11:01Z</time>
      </trkpt>
      <trkpt lat="9.968658" lon="-84.234662">
        <ele>819.682</ele>
        <time>2022-08-12T01:11:41Z</time>
      </trkpt>
      <trkpt lat="9.968574" lon="-84.234501">
        <ele>819.899</ele>
        <time>2022-08-12T01:12:21Z</time>
      </trkpt>
      <trkpt lat="9.968732" lon="-84.234212">
        <ele>820.288</ele>
        <time>2022-08-12T01:13:01Z</time>
      </trkpt>
      <trkpt lat="9.968902" lon="-84.234008">
        <ele>821.635</ele>
        <time>2022-08-12T01:13:41Z</time>
      </trkpt>
      <trkpt lat="9.968822" lon="-84.233725">
        <ele>824.886</ele>
        <time>2022-08-12T01:14:21Z</time>
      </trkpt>
      <trkpt lat="9.968547" lon="-84.233274">
        <ele>830.214</ele>
        <time>2022-08-12T01:15:01Z</time>
      </trkpt>
      <trkpt lat="9.968156" lon="-84.23292">
        <ele>833.509</ele>
        <time>2022-08-12T01:15:41Z</time>
      </trkpt>
      <trkpt lat="9.968061" lon="-84.232513">
        <ele>835.934</ele>
        <time>2022-08-12T01:16:21Z</time>
      </trkpt>
      <trkpt lat="9.968103" lon="-84.231729">
        <ele>838.124</ele>
        <time>2022-08-12T01:17:01Z</time>
      </trkpt>
      <trkpt lat="9.968135" lon="-84.230742">
        <ele>839.773</ele>
        <time>2022-08-12T01:17:41Z</time>
      </trkpt>
      <trkpt lat="9.968276" lon="-84.229944">
        <ele>842.666</ele>
        <time>2022-08-12T01:18:21Z</time>
      </trkpt>
      <trkpt lat="9.968974" lon="-84.229719">
        <ele>843.031</ele>
        <time>2022-08-12T01:19:01Z</time>
      </trkpt>
      <trkpt lat="9.969544" lon="-84.229408">
        <ele>842.415</ele>
        <time>2022-08-12T01:19:41Z</time>
      </trkpt>
      <trkpt lat="9.969819" lon="-84.228785">
        <ele>840.964</ele>
        <time>2022-08-12T01:20:21Z</time>
      </trkpt>
      <trkpt lat="9.969761" lon="-84.227736">
        <ele>840.141</ele>
        <time>2022-08-12T01:21:01Z</time>
      </trkpt>
      <trkpt lat="9.969741" lon="-84.226651">
        <ele>841.270</ele>
        <time>2022-08-12T01:21:41Z</time>
      </trkpt>
      <trkpt lat="9.9699" lon="-84.225213">
        <ele>841.725</ele>
        <time>2022-08-12T01:22:21Z</time>
      </trkpt>
      <trkpt lat="9.970151" lon="-84.223867">
        <ele>841.326</ele>
        <time>2022-08-12T01:23:01Z</time>
      </trkpt>
      <trkpt lat="9.970309" lon="-84.223095">
        <ele>843.408</ele>
        <time>2022-08-12T01:23:41Z</time>
      </trkpt>
      <trkpt lat="9.970556" lon="-84.22201">
        <ele>845.209</ele>
        <time>2022-08-12T01:24:21Z</time>
      </trkpt>
      <trkpt lat="9.970587" lon="-84.221431">
        <ele>845.543</ele>
        <time>2022-08-12T01:25:01Z</time>
      </trkpt>
      <trkpt lat="9.970429" lon="-84.220808">
        <ele>845.643</ele>
        <time>2022-08-12T01:25:41Z</time>
      </trkpt>
      <trkpt lat="9.970281" lon="-84.220572">
        <ele>846.582</ele>
        <time>2022-08-12T01:26:21Z</time>
      </trkpt>
      <trkpt lat="9.970122" lon="-84.220325">
        <ele>847.125</ele>
        <time>2022-08-12T01:27:01Z</time>
      </trkpt>
      <trkpt lat="9.969943" lon="-84.220175">
        <ele>847.820</ele>
        <time>2022-08-12T01:27:41Z</time>
      </trkpt>
      <trkpt lat="9.97016" lon="-84.218798">
        <ele>853.754</ele>
        <time>2022-08-12T01:28:21Z</time>
      </trkpt>
      <trkpt lat="9.970317" lon="-84.21776">
        <ele>855.613</ele>
        <time>2022-08-12T01:29:01Z</time>
      </trkpt>
      <trkpt lat="9.970793" lon="-84.216934">
        <ele>855.990</ele>
        <time>2022-08-12T01:29:41Z</time>
      </trkpt>
      <trkpt lat="9.971068" lon="-84.216483">
        <ele>856.749</ele>
        <time>2022-08-12T01:30:21Z</time>
      </trkpt>
      <trkpt lat="9.971384" lon="-84.215611">
        <ele>856.838</ele>
        <time>2022-08-12T01:31:01Z</time>
      </trkpt>
      <trkpt lat="9.97187" lon="-84.214667">
        <ele>857.170</ele>
        <time>2022-08-12T01:31:41Z</time>
      </trkpt>
      <trkpt lat="9.972353" lon="-84.21372">
        <ele>857.517</ele>
        <time>2022-08-12T01:32:21Z</time>
      </trkpt>
      <trkpt lat="9.972733" lon="-84.213087">
        <ele>857.109</ele>
        <time>2022-08-12T01:33:01Z</time>
      </trkpt>
      <trkpt lat="9.972987" lon="-84.212379">
        <ele>857.784</ele>
        <time>2022-08-12T01:33:41Z</time>
      </trkpt>
      <trkpt lat="9.973112" lon="-84.211661">
        <ele>858.684</ele>
        <time>2022-08-12T01:34:21Z</time>
      </trkpt>
      <trkpt lat="9.973397" lon="-84.210899">
        <ele>861.363</ele>
        <time>2022-08-12T01:35:01Z</time>
      </trkpt>
      <trkpt lat="9.973639" lon="-84.210481">
        <ele>862.616</ele>
        <time>2022-08-12T01:35:41Z</time>
      </trkpt>
      <trkpt lat="9.974167" lon="-84.210448">
        <ele>861.511</ele>
        <time>2022-08-12T01:36:21Z</time>
      </trkpt>
      <trkpt lat="9.975" lon="-84.210366">
        <ele>861.015</ele>
        <time>2022-08-12T01:37:01Z</time>
      </trkpt>
      <trkpt lat="9.975381" lon="-84.210398">
        <ele>861.314</ele>
        <time>2022-08-12T01:37:41Z</time>
      </trkpt>
      <trkpt lat="9.975877" lon="-84.209286">
        <ele>865.241</ele>
        <time>2022-08-12T01:38:21Z</time>
      </trkpt>
      <trkpt lat="9.976569" lon="-84.207687">
        <ele>870.950</ele>
        <time>2022-08-12T01:39:01Z</time>
      </trkpt>
      <trkpt lat="9.977013" lon="-84.20641">
        <ele>874.216</ele>
        <time>2022-08-12T01:39:41Z</time>
      </trkpt>
      <trkpt lat="9.977439" lon="-84.204465">
        <ele>880.476</ele>
        <time>2022-08-12T01:40:21Z</time>
      </trkpt>
      <trkpt lat="9.977847" lon="-84.202381">
        <ele>884.113</ele>
        <time>2022-08-12T01:41:01Z</time>
      </trkpt>
      <trkpt lat="9.978037" lon="-84.201072">
        <ele>885.809</ele>
        <time>2022-08-12T01:41:41Z</time>
      </trkpt>
      <trkpt lat="9.978441" lon="-84.199063">
        <ele>892.552</ele>
        <time>2022-08-12T01:42:21Z</time>
      </trkpt>
      <trkpt lat="9.978879" lon="-84.196996">
        <ele>896.112</ele>
        <time>2022-08-12T01:43:01Z</time>
      </trkpt>
      <trkpt lat="9.979122" lon="-84.195837">
        <ele>902.661</ele>
        <time>2022-08-12T01:43:41Z</time>
      </trkpt>
      <trkpt lat="9.979186" lon="-84.194786">
        <ele>906.194</ele>
        <time>2022-08-12T01:44:21Z</time>
      </trkpt>
      <trkpt lat="9.979069" lon="-84.194217">
        <ele>904.439</ele>
        <time>2022-08-12T01:45:01Z</time>
      </trkpt>
      <trkpt lat="9.978891" lon="-84.193199">
        <ele>903.623</ele>
        <time>2022-08-12T01:45:41Z</time>
      </trkpt>
      <trkpt lat="9.978468" lon="-84.191271">
        <ele>905.922</ele>
        <time>2022-08-12T01:46:21Z</time>
      </trkpt>
      <trkpt lat="9.978272" lon="-84.189671">
        <ele>910.719</ele>
        <time>2022-08-12T01:47:01Z</time>
      </trkpt>
      <trkpt lat="9.978262" lon="-84.188065">
        <ele>912.768</ele>
        <time>2022-08-12T01:47:41Z</time>
      </trkpt>
      <trkpt lat="9.978384" lon="-84.186094">
        <ele>917.528</ele>
        <time>2022-08-12T01:48:21Z</time>
      </trkpt>
      <trkpt lat="9.978521" lon="-84.185396">
        <ele>919.189</ele>
        <time>2022-08-12T01:49:01Z</time>
      </trkpt>
      <trkpt lat="9.978814" lon="-84.183919">
        <ele>918.117</ele>
        <time>2022-08-12T01:49:41Z</time>
      </trkpt>
      <trkpt lat="9.979004" lon="-84.183211">
        <ele>920.409</ele>
        <time>2022-08-12T01:50:21Z</time>
      </trkpt>
      <trkpt lat="9.979247" lon="-84.182299">
        <ele>922.323</ele>
        <time>2022-08-12T01:51:01Z</time>
      </trkpt>
      <trkpt lat="9.979507" lon="-84.181116">
        <ele>926.023</ele>
        <time>2022-08-12T01:51:41Z</time>
      </trkpt>
      <trkpt lat="9.979612" lon="-84.179834">
        <ele>929.112</ele>
        <time>2022-08-12T01:52:21Z</time>
      </trkpt>
      <trkpt lat="9.979622" lon="-84.179083">
        <ele>931.285</ele>
        <time>2022-08-12T01:53:01Z</time>
      </trkpt>
      <trkpt lat="9.979611" lon="-84.178764">
        <ele>932.550</ele>
        <time>2022-08-12T01:53:41Z</time>
      </trkpt>
      <trkpt lat="9.979627" lon="-84.178464">
        <ele>933.824</ele>
        <time>2022-08-12T01:54:21Z</time>
      </trkpt>
      <trkpt lat="9.979622" lon="-84.178329">
        <ele>934.353</ele>
        <time>2022-08-12T01:55:01Z</time>
      </trkpt>
      <trkpt lat="9.97932" lon="-84.178313">
        <ele>932.580</ele>
        <time>2022-08-12T01:55:41Z</time>
      </trkpt>
      <trkpt lat="9.979061" lon="-84.178308">
        <ele>930.739</ele>
        <time>2022-08-12T01:56:21Z</time>
      </trkpt>
      <trkpt lat="9.978855" lon="-84.178313">
        <ele>928.954</ele>
        <time>2022-08-12T01:57:01Z</time>
      </trkpt>
      <trkpt lat="9.978713" lon="-84.178308">
        <ele>927.756</ele>
        <time>2022-08-12T01:57:41Z</time>
      </trkpt>
      <trkpt lat="9.979763" lon="-84.177269">
        <ele>934.6</ele>
      </trkpt>
      <trkpt lat="9.979764" lon="-84.177267">
        <ele>934.6</ele>
      </trkpt>
      <trkpt lat="9.979797" lon="-84.177115">
        <ele>935.1</ele>
      </trkpt>
      <trkpt lat="9.980873" lon="-84.177549">
        <ele>934.9</ele>
      </trkpt>
      <trkpt lat="9.980862" lon="-84.177604">
        <ele>934.9</ele>
      </trkpt>
      <trkpt lat="9.980862" lon="-84.177604">
        <ele>934</ele>
      </trkpt>
      <trkpt lat="9.980862" lon="-84.177607">
        <ele>934</ele>
      </trkpt>
      <trkpt lat="9.980684" lon="-84.178515">
        <ele>934</ele>
      </trkpt>
      <trkpt lat="9.980672" lon="-84.178582">
        <ele>934</ele>
      </trkpt>
      <trkpt lat="9.980296" lon="-84.180527">
        <ele>930.7</ele>
      </trkpt>
      <trkpt lat="9.980144" lon="-84.181322">
        <ele>928.9</ele>
      </trkpt>
      <trkpt lat="9.979959" lon="-84.182275">
        <ele>927.1</ele>
      </trkpt>
      <trkpt lat="9.979948" lon="-84.18233">
        <ele>926.9</ele>
      </trkpt>
      <trkpt lat="9.97994" lon="-84.1824">
        <ele>953</ele>
      </trkpt>
      <trkpt lat="9.97981" lon="-84.1831">
        <ele>951</ele>
      </trkpt>
      <trkpt lat="9.97965" lon="-84.1839">
        <ele>949</ele>
      </trkpt>
      <trkpt lat="9.97949" lon="-84.18474">
        <ele>947</ele>
      </trkpt>
      <trkpt lat="9.9793" lon="-84.18562">
        <ele>945</ele>
      </trkpt>
      <trkpt lat="9.98016" lon="-84.18578">
        <ele>946</ele>
      </trkpt>
      <trkpt lat="9.98016" lon="-84.18578">
        <ele>946</ele>
      </trkpt>
      <trkpt lat="9.98101" lon="-84.18594">
        <ele>950</ele>
      </trkpt>
      <trkpt lat="9.982288" lon="-84.186193">
        <ele>960</ele>
      </trkpt>
      <trkpt lat="9.982292" lon="-84.186173">
        <ele>925</ele>
      </trkpt>
      <trkpt lat="9.982728" lon="-84.18626">
        <ele>925</ele>
      </trkpt>
      <trkpt lat="9.983809" lon="-84.186477">
        <ele>930.1</ele>
      </trkpt>
      <trkpt lat="9.984452" lon="-84.186589">
        <ele>935.3</ele>
      </trkpt>
      <trkpt lat="9.985251" lon="-84.186729">
        <ele>942.3</ele>
      </trkpt>
      <trkpt lat="9.985218" lon="-84.186808">
        <ele>942.8</ele>
      </trkpt>
      <trkpt lat="9.985218" lon="-84.186808">
        <ele>945</ele>
      </trkpt>
      <trkpt lat="9.985251" lon="-84.186729">
        <ele>945</ele>
      </trkpt>
      <trkpt lat="9.985288" lon="-84.186658">
        <ele>945</ele>
      </trkpt>
      <trkpt lat="9.985962" lon="-84.185003">
        <ele>948.5</ele>
      </trkpt>
      <trkpt lat="9.986052" lon="-84.184726">
        <ele>949.5</ele>
      </trkpt>
      <trkpt lat="9.986278" lon="-84.184102">
        <ele>951.2</ele>
      </trkpt>
      <trkpt lat="9.986317" lon="-84.183989">
        <ele>951.4</ele>
      </trkpt>
      <trkpt lat="9.986317" lon="-84.183989">
        <ele>953</ele>
      </trkpt>
      <trkpt lat="9.986603" lon="-84.183188">
        <ele>953.5</ele>
      </trkpt>
      <trkpt lat="9.986848" lon="-84.182273">
        <ele>953.8</ele>
      </trkpt>
      <trkpt lat="9.987027" lon="-84.181613">
        <ele>954</ele>
      </trkpt>
      <trkpt lat="9.987155" lon="-84.181138">
        <ele>954.5</ele>
      </trkpt>
      <trkpt lat="9.987155" lon="-84.181138">
        <ele>957</ele>
      </trkpt>
      <trkpt lat="9.987169" lon="-84.181085">
        <ele>958.5</ele>
      </trkpt>
      <trkpt lat="9.987199" lon="-84.180911">
        <ele>959</ele>
      </trkpt>
      <trkpt lat="9.987259" lon="-84.180715">
        <ele>959.4</ele>
      </trkpt>
      <trkpt lat="9.98744" lon="-84.180122">
        <ele>960.7</ele>
      </trkpt>
      <trkpt lat="9.987803" lon="-84.178816">
        <ele>964</ele>
      </trkpt>
      <trkpt lat="9.987824" lon="-84.178749">
        <ele>964.4</ele>
      </trkpt>
      <trkpt lat="9.987824" lon="-84.178749">
        <ele>967.2</ele>
      </trkpt>
      <trkpt lat="9.987857" lon="-84.17864">
        <ele>967.4</ele>
      </trkpt>
      <trkpt lat="9.987994" lon="-84.178091">
        <ele>967.7</ele>
      </trkpt>
      <trkpt lat="9.988085" lon="-84.17764">
        <ele>968.1</ele>
      </trkpt>
      <trkpt lat="9.988236" lon="-84.176851">
        <ele>968.9</ele>
      </trkpt>
      <trkpt lat="9.988524" lon="-84.17562">
        <ele>970.6</ele>
      </trkpt>
      <trkpt lat="9.988646" lon="-84.175169">
        <ele>971.1</ele>
      </trkpt>
      <trkpt lat="9.988835" lon="-84.174493">
        <ele>971.9</ele>
      </trkpt>
      <trkpt lat="9.989105" lon="-84.17382">
        <ele>972.8</ele>
      </trkpt>
      <trkpt lat="9.989384" lon="-84.17307">
        <ele>973.6</ele>
      </trkpt>
      <trkpt lat="9.989547" lon="-84.172586">
        <ele>974.6</ele>
      </trkpt>
      <trkpt lat="9.989727" lon="-84.172105">
        <ele>975.7</ele>
      </trkpt>
      <trkpt lat="9.989779" lon="-84.17198">
        <ele>976</ele>
      </trkpt>
      <trkpt lat="9.989899" lon="-84.171671">
        <ele>976.9</ele>
      </trkpt>
      <trkpt lat="9.989899" lon="-84.171671">
        <ele>980</ele>
      </trkpt>
      <trkpt lat="9.98991" lon="-84.171643">
        <ele>980</ele>
      </trkpt>
      <trkpt lat="9.990353" lon="-84.171877">
        <ele>980</ele>
      </trkpt>
      <trkpt lat="9.99095" lon="-84.172183">
        <ele>980</ele>
      </trkpt>
      <trkpt lat="9.991054" lon="-84.172235">
        <ele>980</ele>
      </trkpt>
      <trkpt lat="9.991393" lon="-84.172411">
        <ele>980</ele>
      </trkpt>
      <trkpt lat="9.991832" lon="-84.17266">
        <ele>979.9</ele>
      </trkpt>
      <trkpt lat="9.992816" lon="-84.173181">
        <ele>978.6</ele>
      </trkpt>
      <trkpt lat="9.993173" lon="-84.173364">
        <ele>977.8</ele>
      </trkpt>
      <trkpt lat="9.994206" lon="-84.173892">
        <ele>976.1</ele>
      </trkpt>
      <trkpt lat="9.994206" lon="-84.173892">
        <ele>976</ele>
      </trkpt>
      <trkpt lat="9.99426" lon="-84.17392">
        <ele>976</ele>
      </trkpt>
      <trkpt lat="9.994514" lon="-84.173076">
        <ele>976</ele>
      </trkpt>
      <trkpt lat="9.994569" lon="-84.172848">
        <ele>977.4</ele>
      </trkpt>
      <trkpt lat="9.994591" lon="-84.17278">
        <ele>978.1</ele>
      </trkpt>
      <trkpt lat="9.994671" lon="-84.172491">
        <ele>979.9</ele>
      </trkpt>
      <trkpt lat="9.994831" lon="-84.171911">
        <ele>982.9</ele>
      </trkpt>
      <trkpt lat="9.994851" lon="-84.171827">
        <ele>983.5</ele>
      </trkpt>
      <trkpt lat="9.994933" lon="-84.171492">
        <ele>985.3</ele>
      </trkpt>
      <trkpt lat="9.995358" lon="-84.169681">
        <ele>991.9</ele>
      </trkpt>
      <trkpt lat="9.995623" lon="-84.168421">
        <ele>995.4</ele>
      </trkpt>
      <trkpt lat="9.995634" lon="-84.168378">
        <ele>995.5</ele>
      </trkpt>
      <trkpt lat="9.995694" lon="-84.168053">
        <ele>995.8</ele>
      </trkpt>
      <trkpt lat="9.995778" lon="-84.167701">
        <ele>996.5</ele>
      </trkpt>
      <trkpt lat="9.995829" lon="-84.167499">
        <ele>997.1</ele>
      </trkpt>
      <trkpt lat="9.99584" lon="-84.167418">
        <ele>997.4</ele>
      </trkpt>
      <trkpt lat="9.995839" lon="-84.16735">
        <ele>997.7</ele>
      </trkpt>
      <trkpt lat="9.99582" lon="-84.167275">
        <ele>998.1</ele>
      </trkpt>
      <trkpt lat="9.995774" lon="-84.167162">
        <ele>998.4</ele>
      </trkpt>
      <trkpt lat="9.995747" lon="-84.16704">
        <ele>998.8</ele>
      </trkpt>
      <trkpt lat="9.99576" lon="-84.166897">
        <ele>999.2</ele>
      </trkpt>
      <trkpt lat="9.996004" lon="-84.166043">
        <ele>1003.1</ele>
      </trkpt>
      <trkpt lat="9.996265" lon="-84.165119">
        <ele>1005.3</ele>
      </trkpt>
      <trkpt lat="9.996333" lon="-84.164912">
        <ele>1005.8</ele>
      </trkpt>
      <trkpt lat="9.996333" lon="-84.164912">
        <ele>1009.5</ele>
      </trkpt>
      <trkpt lat="9.996394" lon="-84.164722">
        <ele>1011.3</ele>
      </trkpt>
      <trkpt lat="9.996431" lon="-84.16462">
        <ele>1011.7</ele>
      </trkpt>
      <trkpt lat="9.996478" lon="-84.164472">
        <ele>1012</ele>
      </trkpt>
      <trkpt lat="9.996837" lon="-84.163472">
        <ele>1012.7</ele>
      </trkpt>
      <trkpt lat="9.996932" lon="-84.163229">
        <ele>1012.7</ele>
      </trkpt>
      <trkpt lat="9.996944" lon="-84.163198">
        <ele>1012.7</ele>
      </trkpt>
      <trkpt lat="9.997145" lon="-84.162708">
        <ele>1013</ele>
      </trkpt>
      <trkpt lat="9.997513" lon="-84.161763">
        <ele>1015.1</ele>
      </trkpt>
      <trkpt lat="9.997743" lon="-84.161146">
        <ele>1017.6</ele>
      </trkpt>
      <trkpt lat="9.998226" lon="-84.159889">
        <ele>1023.2</ele>
      </trkpt>
      <trkpt lat="9.998417" lon="-84.159438">
        <ele>1026.1</ele>
      </trkpt>
      <trkpt lat="9.998445" lon="-84.159372">
        <ele>1026.7</ele>
      </trkpt>
      <trkpt lat="9.998479" lon="-84.159279">
        <ele>1027.3</ele>
      </trkpt>
      <trkpt lat="9.998527" lon="-84.159107">
        <ele>1027.9</ele>
      </trkpt>
      <trkpt lat="9.998566" lon="-84.158866">
        <ele>1029</ele>
      </trkpt>
      <trkpt lat="9.998604" lon="-84.158467">
        <ele>1031.6</ele>
      </trkpt>
      <trkpt lat="9.998686" lon="-84.157687">
        <ele>1036</ele>
      </trkpt>
      <trkpt lat="9.998688" lon="-84.157657">
        <ele>1036.4</ele>
      </trkpt>
      <trkpt lat="9.99873" lon="-84.156746">
        <ele>1038.9</ele>
      </trkpt>
      <trkpt lat="9.998767" lon="-84.15612">
        <ele>1039.4</ele>
      </trkpt>
      <trkpt lat="9.998826" lon="-84.155384">
        <ele>1040.3</ele>
      </trkpt>
      <trkpt lat="9.998879" lon="-84.155062">
        <ele>1040.7</ele>
      </trkpt>
      <trkpt lat="9.998908" lon="-84.154909">
        <ele>1040.8</ele>
      </trkpt>
      <trkpt lat="9.99914" lon="-84.153679">
        <ele>1040.4</ele>
      </trkpt>
      <trkpt lat="9.999189" lon="-84.153417">
        <ele>1040.2</ele>
      </trkpt>
      <trkpt lat="9.999294" lon="-84.152917">
        <ele>1039.6</ele>
      </trkpt>
      <trkpt lat="9.999359" lon="-84.152601">
        <ele>1039.3</ele>
      </trkpt>
      <trkpt lat="9.999464" lon="-84.152047">
        <ele>1039.6</ele>
      </trkpt>
      <trkpt lat="9.999523" lon="-84.151872">
        <ele>1039.8</ele>
      </trkpt>
      <trkpt lat="9.999568" lon="-84.151771">
        <ele>1040</ele>
      </trkpt>
      <trkpt lat="9.99979" lon="-84.151386">
        <ele>1040.6</ele>
      </trkpt>
      <trkpt lat="10.000036" lon="-84.150965">
        <ele>1042.5</ele>
      </trkpt>
      <trkpt lat="10.000183" lon="-84.150687">
        <ele>1044.1</ele>
      </trkpt>
      <trkpt lat="10.000212" lon="-84.150646">
        <ele>1044.6</ele>
      </trkpt>
      <trkpt lat="10.000212" lon="-84.150646">
        <ele>1050.6</ele>
      </trkpt>
      <trkpt lat="10.000221" lon="-84.150633">
        <ele>1051.3</ele>
      </trkpt>
      <trkpt lat="10.000272" lon="-84.150594">
        <ele>1051.5</ele>
      </trkpt>
      <trkpt lat="10.000308" lon="-84.150577">
        <ele>1051.6</ele>
      </trkpt>
      <trkpt lat="10.00035" lon="-84.15057">
        <ele>1051.7</ele>
      </trkpt>
      <trkpt lat="10.000424" lon="-84.150547">
        <ele>1051.8</ele>
      </trkpt>
      <trkpt lat="10.000498" lon="-84.150534">
        <ele>1051.8</ele>
      </trkpt>
      <trkpt lat="10.000498" lon="-84.150534">
        <ele>1052</ele>
      </trkpt>
      <trkpt lat="10.001138" lon="-84.150423">
        <ele>1052</ele>
      </trkpt>
      <trkpt lat="10.001337" lon="-84.150383">
        <ele>1052</ele>
      </trkpt>
      <trkpt lat="10.001743" lon="-84.150312">
        <ele>1052</ele>
      </trkpt>
      <trkpt lat="10.001743" lon="-84.150312">
        <ele>1052</ele>
      </trkpt>
      <trkpt lat="10.001896" lon="-84.150285">
        <ele>1052</ele>
      </trkpt>
      <trkpt lat="10.002294" lon="-84.150229">
        <ele>1053.9</ele>
      </trkpt>
      <trkpt lat="10.002294" lon="-84.150229">
        <ele>1056.5</ele>
      </trkpt>
      <trkpt lat="10.002729" lon="-84.150167">
        <ele>1058.8</ele>
      </trkpt>
      <trkpt lat="10.002766" lon="-84.15016">
        <ele>1059.1</ele>
      </trkpt>
      <trkpt lat="10.002792" lon="-84.150156">
        <ele>1059.4</ele>
      </trkpt>
      <trkpt lat="10.002954" lon="-84.15103">
        <ele>1060.3</ele>
      </trkpt>
      <trkpt lat="10.003008" lon="-84.151325">
        <ele>1060.4</ele>
      </trkpt>
      <trkpt lat="10.003008" lon="-84.151325">
        <ele>1061</ele>
      </trkpt>
      <trkpt lat="10.003115" lon="-84.151917">
        <ele>1061</ele>
      </trkpt>
      <trkpt lat="10.003135" lon="-84.151914">
        <ele>1061</ele>
      </trkpt>
      <trkpt lat="10.003135" lon="-84.151914">
        <ele>1061</ele>
      </trkpt>
      <trkpt lat="10.003947" lon="-84.151774">
        <ele>1061</ele>
      </trkpt>
      <trkpt lat="10.004842" lon="-84.151606">
        <ele>1061</ele>
      </trkpt>
      <trkpt lat="10.005887" lon="-84.151433">
        <ele>1061</ele>
      </trkpt>
      <trkpt lat="10.005887" lon="-84.151433">
        <ele>1061</ele>
      </trkpt>
      <trkpt lat="10.005862" lon="-84.152111">
        <ele>1061</ele>
      </trkpt>
      <trkpt lat="10.005859" lon="-84.152336">
        <ele>1059.5</ele>
      </trkpt>
      <trkpt lat="10.005876" lon="-84.152333">
        <ele>1058.9</ele>
      </trkpt>
      <trkpt lat="10.005876" lon="-84.152333">
        <ele>1053.3</ele>
      </trkpt>
      <trkpt lat="10.007263" lon="-84.152108">
        <ele>1053.3</ele>
      </trkpt>
      <trkpt lat="10.007263" lon="-84.152108">
        <ele>1053.3</ele>
      </trkpt>
      <trkpt lat="10.007472" lon="-84.152074">
        <ele>1054.5</ele>
      </trkpt>
      <trkpt lat="10.007996" lon="-84.151994">
        <ele>1055.5</ele>
      </trkpt>
      <trkpt lat="10.008381" lon="-84.151983">
        <ele>1055.5</ele>
      </trkpt>
      <trkpt lat="10.009495" lon="-84.152031">
        <ele>1054.7</ele>
      </trkpt>
      <trkpt lat="10.009854" lon="-84.15204">
        <ele>1054.2</ele>
      </trkpt>
      <trkpt lat="10.010182" lon="-84.15206">
        <ele>1054.3</ele>
      </trkpt>
      <trkpt lat="10.010182" lon="-84.15206">
        <ele>1058</ele>
      </trkpt>
      <trkpt lat="10.012009" lon="-84.152173">
        <ele>1060.6</ele>
      </trkpt>
      <trkpt lat="10.012947" lon="-84.152224">
        <ele>1062.7</ele>
      </trkpt>
      <trkpt lat="10.013084" lon="-84.152229">
        <ele>1062.9</ele>
      </trkpt>
      <trkpt lat="10.013286" lon="-84.152255">
        <ele>1063.2</ele>
      </trkpt>
      <trkpt lat="10.013348" lon="-84.15227">
        <ele>1063.3</ele>
      </trkpt>
      <trkpt lat="10.013481" lon="-84.152327">
        <ele>1063.4</ele>
      </trkpt>
      <trkpt lat="10.013687" lon="-84.152435">
        <ele>1063.6</ele>
      </trkpt>
      <trkpt lat="10.013704" lon="-84.152371">
        <ele>1063.7</ele>
      </trkpt>
      <trkpt lat="10.013704" lon="-84.152371">
        <ele>1064</ele>
      </trkpt>
      <trkpt lat="10.013687" lon="-84.152435">
        <ele>1064</ele>
      </trkpt>
      <trkpt lat="10.013591" lon="-84.152704">
        <ele>1064</ele>
      </trkpt>
      <trkpt lat="10.013427" lon="-84.153627">
        <ele>1064</ele>
      </trkpt>
      <trkpt lat="10.013429" lon="-84.153716">
        <ele>1064</ele>
      </trkpt>
      <trkpt lat="10.013448" lon="-84.153775">
        <ele>1064</ele>
      </trkpt>
      <trkpt lat="10.013475" lon="-84.153831">
        <ele>1064</ele>
      </trkpt>
      <trkpt lat="10.013542" lon="-84.153882">
        <ele>1064</ele>
      </trkpt>
      <trkpt lat="10.013888" lon="-84.153949">
        <ele>1064</ele>
      </trkpt>
      <trkpt lat="10.014328" lon="-84.154043">
        <ele>1064</ele>
      </trkpt>
      <trkpt lat="10.014956" lon="-84.154173">
        <ele>1065</ele>
      </trkpt>
      <trkpt lat="10.015661" lon="-84.154311">
        <ele>1065.8</ele>
      </trkpt>
      <trkpt lat="10.016501" lon="-84.154401">
        <ele>1065.2</ele>
      </trkpt>
      <trkpt lat="10.016539" lon="-84.154401">
        <ele>1064.9</ele>
      </trkpt>
      <trkpt lat="10.016539" lon="-84.154401">
        <ele>1061.3</ele>
      </trkpt>
      <trkpt lat="10.016733" lon="-84.154403">
        <ele>1060.8</ele>
      </trkpt>
      <trkpt lat="10.01746" lon="-84.154248">
        <ele>1061.5</ele>
      </trkpt>
      <trkpt lat="10.017732" lon="-84.154255">
        <ele>1061.3</ele>
      </trkpt>
      <trkpt lat="10.017926" lon="-84.154329">
        <ele>1061</ele>
      </trkpt>
      <trkpt lat="10.018063" lon="-84.154425">
        <ele>1060.9</ele>
      </trkpt>
      <trkpt lat="10.018274" lon="-84.154628">
        <ele>1060.2</ele>
      </trkpt>
      <trkpt lat="10.018442" lon="-84.154802">
        <ele>1059.6</ele>
      </trkpt>
      <trkpt lat="10.018729" lon="-84.155079">
        <ele>1059.1</ele>
      </trkpt>
      <trkpt lat="10.019017" lon="-84.155289">
        <ele>1059.1</ele>
      </trkpt>
      <trkpt lat="10.019755" lon="-84.155669">
        <ele>1060.4</ele>
      </trkpt>
      <trkpt lat="10.020383" lon="-84.15596">
        <ele>1062.7</ele>
      </trkpt>
      <trkpt lat="10.020758" lon="-84.156113">
        <ele>1063.6</ele>
      </trkpt>
      <trkpt lat="10.020811" lon="-84.156134">
        <ele>1063.9</ele>
      </trkpt>
      <trkpt lat="10.020825" lon="-84.15614">
        <ele>1064.1</ele>
      </trkpt>
      <trkpt lat="10.021282" lon="-84.156337">
        <ele>1065.4</ele>
      </trkpt>
      <trkpt lat="10.02149" lon="-84.156387">
        <ele>1065.9</ele>
      </trkpt>
      <trkpt lat="10.021583" lon="-84.156387">
        <ele>1066.1</ele>
      </trkpt>
      <trkpt lat="10.021681" lon="-84.156373">
        <ele>1066.4</ele>
      </trkpt>
      <trkpt lat="10.022612" lon="-84.156163">
        <ele>1068</ele>
      </trkpt>
      <trkpt lat="10.022659" lon="-84.156148">
        <ele>1068.3</ele>
      </trkpt>
      <trkpt lat="10.022659" lon="-84.156148">
        <ele>1074.5</ele>
      </trkpt>
      <trkpt lat="10.023098" lon="-84.156009">
        <ele>1077.8</ele>
      </trkpt>
      <trkpt lat="10.023536" lon="-84.155926">
        <ele>1079.1</ele>
      </trkpt>
      <trkpt lat="10.024093" lon="-84.155864">
        <ele>1079.8</ele>
      </trkpt>
      <trkpt lat="10.024443" lon="-84.155824">
        <ele>1080</ele>
      </trkpt>
      <trkpt lat="10.024493" lon="-84.155817">
        <ele>1080</ele>
      </trkpt>
      <trkpt lat="10.024609" lon="-84.155815">
        <ele>1080.5</ele>
      </trkpt>
      <trkpt lat="10.025128" lon="-84.155845">
        <ele>1081.9</ele>
      </trkpt>
      <trkpt lat="10.025318" lon="-84.155889">
        <ele>1082.5</ele>
      </trkpt>
      <trkpt lat="10.025421" lon="-84.155917">
        <ele>1082.8</ele>
      </trkpt>
      <trkpt lat="10.025536" lon="-84.155954">
        <ele>1083.1</ele>
      </trkpt>
      <trkpt lat="10.025792" lon="-84.156039">
        <ele>1083.7</ele>
      </trkpt>
      <trkpt lat="10.025864" lon="-84.156065">
        <ele>1084</ele>
      </trkpt>
      <trkpt lat="10.025966" lon="-84.156111">
        <ele>1084.3</ele>
      </trkpt>
      <trkpt lat="10.025995" lon="-84.156128">
        <ele>1084.6</ele>
      </trkpt>
      <trkpt lat="10.026065" lon="-84.156165">
        <ele>1084.7</ele>
      </trkpt>
      <trkpt lat="10.026662" lon="-84.156554">
        <ele>1083.6</ele>
      </trkpt>
      <trkpt lat="10.02703" lon="-84.156811">
        <ele>1082.1</ele>
      </trkpt>
      <trkpt lat="10.027364" lon="-84.157055">
        <ele>1080.3</ele>
      </trkpt>
      <trkpt lat="10.027568" lon="-84.157196">
        <ele>1079.4</ele>
      </trkpt>
      <trkpt lat="10.027732" lon="-84.157317">
        <ele>1078.5</ele>
      </trkpt>
      <trkpt lat="10.02788" lon="-84.15739">
        <ele>1078.2</ele>
      </trkpt>
      <trkpt lat="10.02805" lon="-84.157444">
        <ele>1078</ele>
      </trkpt>
      <trkpt lat="10.028236" lon="-84.15748">
        <ele>1077.8</ele>
      </trkpt>
      <trkpt lat="10.028689" lon="-84.157501">
        <ele>1077.9</ele>
      </trkpt>
      <trkpt lat="10.029557" lon="-84.15754">
        <ele>1080.8</ele>
      </trkpt>
      <trkpt lat="10.029823" lon="-84.157579">
        <ele>1081.9</ele>
      </trkpt>
      <trkpt lat="10.029988" lon="-84.157627">
        <ele>1082.7</ele>
      </trkpt>
      <trkpt lat="10.030058" lon="-84.157662">
        <ele>1083.5</ele>
      </trkpt>
      <trkpt lat="10.03017" lon="-84.15773">
        <ele>1084.4</ele>
      </trkpt>
      <trkpt lat="10.030727" lon="-84.1584">
        <ele>1093.5</ele>
      </trkpt>
      <trkpt lat="10.031391" lon="-84.159039">
        <ele>1102.6</ele>
      </trkpt>
      <trkpt lat="10.031498" lon="-84.159106">
        <ele>1103.3</ele>
      </trkpt>
      <trkpt lat="10.031676" lon="-84.159145">
        <ele>1104.7</ele>
      </trkpt>
      <trkpt lat="10.031922" lon="-84.159166">
        <ele>1106.2</ele>
      </trkpt>
      <trkpt lat="10.032077" lon="-84.159135">
        <ele>1106.9</ele>
      </trkpt>
      <trkpt lat="10.032289" lon="-84.159058">
        <ele>1108.4</ele>
      </trkpt>
      <trkpt lat="10.032517" lon="-84.158916">
        <ele>1109.8</ele>
      </trkpt>
      <trkpt lat="10.032767" lon="-84.158658">
        <ele>1111.5</ele>
      </trkpt>
      <trkpt lat="10.032827" lon="-84.158588">
        <ele>1112</ele>
      </trkpt>
      <trkpt lat="10.032827" lon="-84.158588">
        <ele>1115.9</ele>
      </trkpt>
      <trkpt lat="10.032997" lon="-84.158391">
        <ele>1116.5</ele>
      </trkpt>
      <trkpt lat="10.033119" lon="-84.158198">
        <ele>1120.6</ele>
      </trkpt>
      <trkpt lat="10.033214" lon="-84.158098">
        <ele>1123.8</ele>
      </trkpt>
      <trkpt lat="10.033283" lon="-84.158009">
        <ele>1126.1</ele>
      </trkpt>
      <trkpt lat="10.033396" lon="-84.157796">
        <ele>1129</ele>
      </trkpt>
      <trkpt lat="10.033543" lon="-84.157415">
        <ele>1132.6</ele>
      </trkpt>
      <trkpt lat="10.034323" lon="-84.157726">
        <ele>1138.5</ele>
      </trkpt>
      <trkpt lat="10.035116" lon="-84.158042">
        <ele>1142</ele>
      </trkpt>
      <trkpt lat="10.035927" lon="-84.158352">
        <ele>1143</ele>
      </trkpt>
      <trkpt lat="10.036738" lon="-84.158669">
        <ele>1144.8</ele>
      </trkpt>
      <trkpt lat="10.037521" lon="-84.158969">
        <ele>1147.5</ele>
      </trkpt>
      <trkpt lat="10.03832" lon="-84.15928">
        <ele>1150.2</ele>
      </trkpt>
      <trkpt lat="10.039124" lon="-84.159593">
        <ele>1152</ele>
      </trkpt>
      <trkpt lat="10.039922" lon="-84.159906">
        <ele>1154.3</ele>
      </trkpt>
      <trkpt lat="10.040182" lon="-84.160003">
        <ele>1155.6</ele>
      </trkpt>
      <trkpt lat="10.040334" lon="-84.160016">
        <ele>1156.1</ele>
      </trkpt>
      <trkpt lat="10.04044" lon="-84.159998">
        <ele>1156.6</ele>
      </trkpt>
      <trkpt lat="10.041735" lon="-84.159921">
        <ele>1163.7</ele>
      </trkpt>
      <trkpt lat="10.042525" lon="-84.159999">
        <ele>1166.4</ele>
      </trkpt>
      <trkpt lat="10.042833" lon="-84.160029">
        <ele>1167.4</ele>
      </trkpt>
      <trkpt lat="10.043166" lon="-84.160089">
        <ele>1168.2</ele>
      </trkpt>
      <trkpt lat="10.043461" lon="-84.160169">
        <ele>1168.9</ele>
      </trkpt>
      <trkpt lat="10.043722" lon="-84.160273">
        <ele>1170.5</ele>
      </trkpt>
      <trkpt lat="10.043943" lon="-84.160306">
        <ele>1171.9</ele>
      </trkpt>
      <trkpt lat="10.044749" lon="-84.160331">
        <ele>1176.8</ele>
      </trkpt>
      <trkpt lat="10.044843" lon="-84.160354">
        <ele>1177.5</ele>
      </trkpt>
      <trkpt lat="10.045763" lon="-84.160905">
        <ele>1183.8</ele>
      </trkpt>
      <trkpt lat="10.045979" lon="-84.160961">
        <ele>1184.5</ele>
      </trkpt>
      <trkpt lat="10.046143" lon="-84.160933">
        <ele>1184.8</ele>
      </trkpt>
      <trkpt lat="10.046353" lon="-84.160871">
        <ele>1185.4</ele>
      </trkpt>
      <trkpt lat="10.046612" lon="-84.160868">
        <ele>1186.1</ele>
      </trkpt>
      <trkpt lat="10.046699" lon="-84.160877">
        <ele>1186.4</ele>
      </trkpt>
      <trkpt lat="10.046826" lon="-84.160957">
        <ele>1186.7</ele>
      </trkpt>
      <trkpt lat="10.046826" lon="-84.160957">
        <ele>1188.9</ele>
      </trkpt>
      <trkpt lat="10.046699" lon="-84.160877">
        <ele>1189</ele>
      </trkpt>
      <trkpt lat="10.046981" lon="-84.160886">
        <ele>1189.8</ele>
      </trkpt>
      <trkpt lat="10.047269" lon="-84.161036">
        <ele>1190.4</ele>
      </trkpt>
      <trkpt lat="10.047385" lon="-84.161073">
        <ele>1190.6</ele>
      </trkpt>
      <trkpt lat="10.047555" lon="-84.161095">
        <ele>1190.8</ele>
      </trkpt>
      <trkpt lat="10.049379" lon="-84.160943">
        <ele>1199.2</ele>
      </trkpt>
      <trkpt lat="10.049986" lon="-84.160957">
        <ele>1203.6</ele>
      </trkpt>
      <trkpt lat="10.049986" lon="-84.160957">
        <ele>1212.2</ele>
      </trkpt>
      <trkpt lat="10.050391" lon="-84.160967">
        <ele>1215.6</ele>
      </trkpt>
      <trkpt lat="10.050445" lon="-84.160968">
        <ele>1216.2</ele>
      </trkpt>
      <trkpt lat="10.050972" lon="-84.160956">
        <ele>1217.5</ele>
      </trkpt>
      <trkpt lat="10.051358" lon="-84.160894">
        <ele>1219.9</ele>
      </trkpt>
      <trkpt lat="10.051827" lon="-84.16073">
        <ele>1223.3</ele>
      </trkpt>
      <trkpt lat="10.051972" lon="-84.160708">
        <ele>1224.6</ele>
      </trkpt>
      <trkpt lat="10.052154" lon="-84.160714">
        <ele>1226.9</ele>
      </trkpt>
      <trkpt lat="10.052337" lon="-84.160748">
        <ele>1228.9</ele>
      </trkpt>
      <trkpt lat="10.052466" lon="-84.16075">
        <ele>1229.8</ele>
      </trkpt>
      <trkpt lat="10.053217" lon="-84.16061">
        <ele>1238</ele>
      </trkpt>
      <trkpt lat="10.054204" lon="-84.16074">
        <ele>1245.6</ele>
      </trkpt>
      <trkpt lat="10.054204" lon="-84.16074">
        <ele>1253.1</ele>
      </trkpt>
      <trkpt lat="10.054328" lon="-84.160756">
        <ele>1257.3</ele>
      </trkpt>
      <trkpt lat="10.055075" lon="-84.160887">
        <ele>1264.9</ele>
      </trkpt>
      <trkpt lat="10.056244" lon="-84.161115">
        <ele>1273.2</ele>
      </trkpt>
      <trkpt lat="10.056422" lon="-84.161169">
        <ele>1274.8</ele>
      </trkpt>
      <trkpt lat="10.057398" lon="-84.16135">
        <ele>1280.2</ele>
      </trkpt>
      <trkpt lat="10.057683" lon="-84.161361">
        <ele>1281</ele>
      </trkpt>
      <trkpt lat="10.057776" lon="-84.161401">
        <ele>1281.4</ele>
      </trkpt>
      <trkpt lat="10.05805" lon="-84.161701">
        <ele>1282.9</ele>
      </trkpt>
      <trkpt lat="10.058188" lon="-84.161975">
        <ele>1284.2</ele>
      </trkpt>
      <trkpt lat="10.058267" lon="-84.162374">
        <ele>1286.1</ele>
      </trkpt>
      <trkpt lat="10.058267" lon="-84.162374">
        <ele>1290.9</ele>
      </trkpt>
      <trkpt lat="10.058288" lon="-84.162477">
        <ele>1291.3</ele>
      </trkpt>
      <trkpt lat="10.058329" lon="-84.162591">
        <ele>1291.3</ele>
      </trkpt>
      <trkpt lat="10.058499" lon="-84.162943">
        <ele>1292.7</ele>
      </trkpt>
      <trkpt lat="10.058528" lon="-84.162785">
        <ele>1293.3</ele>
      </trkpt>
      <trkpt lat="10.058589" lon="-84.162654">
        <ele>1293.9</ele>
      </trkpt>
      <trkpt lat="10.058695" lon="-84.16252">
        <ele>1294.4</ele>
      </trkpt>
      <trkpt lat="10.059022" lon="-84.162267">
        <ele>1295.9</ele>
      </trkpt>
      <trkpt lat="10.059511" lon="-84.161723">
        <ele>1299.1</ele>
      </trkpt>
      <trkpt lat="10.059981" lon="-84.160543">
        <ele>1309.6</ele>
      </trkpt>
      <trkpt lat="10.060117" lon="-84.159699">
        <ele>1317.3</ele>
      </trkpt>
      <trkpt lat="10.060196" lon="-84.159482">
        <ele>1318.6</ele>
      </trkpt>
      <trkpt lat="10.060357" lon="-84.15924">
        <ele>1320.5</ele>
      </trkpt>
      <trkpt lat="10.06029" lon="-84.159272">
        <ele>1321</ele>
      </trkpt>
      <trkpt lat="10.06029" lon="-84.159272">
        <ele>1324.3</ele>
      </trkpt>
      <trkpt lat="10.060357" lon="-84.15924">
        <ele>1325.2</ele>
      </trkpt>
      <trkpt lat="10.060398" lon="-84.159186">
        <ele>1325.4</ele>
      </trkpt>
      <trkpt lat="10.060603" lon="-84.158945">
        <ele>1325.7</ele>
      </trkpt>
      <trkpt lat="10.060868" lon="-84.158641">
        <ele>1325.8</ele>
      </trkpt>
      <trkpt lat="10.061207" lon="-84.158115">
        <ele>1327</ele>
      </trkpt>
      <trkpt lat="10.061543" lon="-84.157572">
        <ele>1328.6</ele>
      </trkpt>
      <trkpt lat="10.06195" lon="-84.156916">
        <ele>1330.6</ele>
      </trkpt>
      <trkpt lat="10.062095" lon="-84.156663">
        <ele>1331</ele>
      </trkpt>
      <trkpt lat="10.062211" lon="-84.156467">
        <ele>1331</ele>
      </trkpt>
      <trkpt lat="10.062269" lon="-84.156374">
        <ele>1331</ele>
      </trkpt>
      <trkpt lat="10.062495" lon="-84.156167">
        <ele>1330.9</ele>
      </trkpt>
      <trkpt lat="10.062932" lon="-84.155878">
        <ele>1330.4</ele>
      </trkpt>
      <trkpt lat="10.063248" lon="-84.155636">
        <ele>1330</ele>
      </trkpt>
      <trkpt lat="10.063647" lon="-84.155474">
        <ele>1329.6</ele>
      </trkpt>
      <trkpt lat="10.063868" lon="-84.155404">
        <ele>1329.4</ele>
      </trkpt>
      <trkpt lat="10.064038" lon="-84.155351">
        <ele>1329.3</ele>
      </trkpt>
      <trkpt lat="10.064538" lon="-84.155194">
        <ele>1328.4</ele>
      </trkpt>
      <trkpt lat="10.064852" lon="-84.155105">
        <ele>1327.8</ele>
      </trkpt>
      <trkpt lat="10.065023" lon="-84.155071">
        <ele>1327.6</ele>
      </trkpt>
      <trkpt lat="10.065179" lon="-84.155041">
        <ele>1327.4</ele>
      </trkpt>
      <trkpt lat="10.065442" lon="-84.154979">
        <ele>1326.8</ele>
      </trkpt>
      <trkpt lat="10.065856" lon="-84.154887">
        <ele>1326</ele>
      </trkpt>
      <trkpt lat="10.065941" lon="-84.154871">
        <ele>1325.9</ele>
      </trkpt>
      <trkpt lat="10.066243" lon="-84.154811">
        <ele>1325.5</ele>
      </trkpt>
      <trkpt lat="10.066435" lon="-84.154757">
        <ele>1325.4</ele>
      </trkpt>
      <trkpt lat="10.066569" lon="-84.154701">
        <ele>1325.4</ele>
      </trkpt>
      <trkpt lat="10.066676" lon="-84.154629">
        <ele>1325.6</ele>
      </trkpt>
      <trkpt lat="10.066696" lon="-84.154616">
        <ele>1325.9</ele>
      </trkpt>
      <trkpt lat="10.067005" lon="-84.154376">
        <ele>1327.1</ele>
      </trkpt>
      <trkpt lat="10.067328" lon="-84.153986">
        <ele>1328.7</ele>
      </trkpt>
      <trkpt lat="10.067434" lon="-84.153872">
        <ele>1329.3</ele>
      </trkpt>
      <trkpt lat="10.067706" lon="-84.153885">
        <ele>1331</ele>
      </trkpt>
      <trkpt lat="10.067921" lon="-84.153879">
        <ele>1332.1</ele>
      </trkpt>
      <trkpt lat="10.068193" lon="-84.153861">
        <ele>1333.7</ele>
      </trkpt>
      <trkpt lat="10.068573" lon="-84.153829">
        <ele>1335.7</ele>
      </trkpt>
      <trkpt lat="10.068737" lon="-84.153816">
        <ele>1336.4</ele>
      </trkpt>
      <trkpt lat="10.068814" lon="-84.153811">
        <ele>1337.3</ele>
      </trkpt>
      <trkpt lat="10.069014" lon="-84.1538">
        <ele>1338.9</ele>
      </trkpt>
      <trkpt lat="10.069389" lon="-84.153849">
        <ele>1341.7</ele>
      </trkpt>
      <trkpt lat="10.069665" lon="-84.153955">
        <ele>1343</ele>
      </trkpt>
      <trkpt lat="10.069823" lon="-84.154046">
        <ele>1343.9</ele>
      </trkpt>
      <trkpt lat="10.069983" lon="-84.154195">
        <ele>1344.7</ele>
      </trkpt>
      <trkpt lat="10.070049" lon="-84.154337">
        <ele>1345.1</ele>
      </trkpt>
      <trkpt lat="10.070039" lon="-84.154516">
        <ele>1345.4</ele>
      </trkpt>
      <trkpt lat="10.0699" lon="-84.154902">
        <ele>1345.9</ele>
      </trkpt>
      <trkpt lat="10.069883" lon="-84.154965">
        <ele>1345.6</ele>
      </trkpt>
      <trkpt lat="10.069904" lon="-84.155017">
        <ele>1345.8</ele>
      </trkpt>
      <trkpt lat="10.069958" lon="-84.155041">
        <ele>1346.1</ele>
      </trkpt>
      <trkpt lat="10.070073" lon="-84.155012">
        <ele>1346.5</ele>
      </trkpt>
      <trkpt lat="10.07027" lon="-84.154812">
        <ele>1347.9</ele>
      </trkpt>
      <trkpt lat="10.070455" lon="-84.154715">
        <ele>1348.9</ele>
      </trkpt>
      <trkpt lat="10.070628" lon="-84.154682">
        <ele>1349.5</ele>
      </trkpt>
      <trkpt lat="10.070801" lon="-84.154698">
        <ele>1350.2</ele>
      </trkpt>
      <trkpt lat="10.070857" lon="-84.154719">
        <ele>1350.9</ele>
      </trkpt>
      <trkpt lat="10.070913" lon="-84.154792">
        <ele>1351.4</ele>
      </trkpt>
      <trkpt lat="10.070935" lon="-84.15486">
        <ele>1352.6</ele>
      </trkpt>
      <trkpt lat="10.070949" lon="-84.154918">
        <ele>1353.7</ele>
      </trkpt>
      <trkpt lat="10.070957" lon="-84.154959">
        <ele>1354.9</ele>
      </trkpt>
      <trkpt lat="10.070913" lon="-84.15516">
        <ele>1357.2</ele>
      </trkpt>
      <trkpt lat="10.070809" lon="-84.155582">
        <ele>1361.6</ele>
      </trkpt>
      <trkpt lat="10.070713" lon="-84.155937">
        <ele>1364.3</ele>
      </trkpt>
      <trkpt lat="10.070686" lon="-84.156086">
        <ele>1365</ele>
      </trkpt>
      <trkpt lat="10.070696" lon="-84.156337">
        <ele>1366.4</ele>
      </trkpt>
      <trkpt lat="10.070721" lon="-84.156459">
        <ele>1367.1</ele>
      </trkpt>
      <trkpt lat="10.07078" lon="-84.156579">
        <ele>1367.7</ele>
      </trkpt>
      <trkpt lat="10.070847" lon="-84.15666">
        <ele>1368.3</ele>
      </trkpt>
      <trkpt lat="10.070923" lon="-84.156714">
        <ele>1369.1</ele>
      </trkpt>
      <trkpt lat="10.071082" lon="-84.156775">
        <ele>1369.2</ele>
      </trkpt>
      <trkpt lat="10.071206" lon="-84.15678">
        <ele>1369.4</ele>
      </trkpt>
      <trkpt lat="10.071301" lon="-84.156748">
        <ele>1369.5</ele>
      </trkpt>
      <trkpt lat="10.071388" lon="-84.156694">
        <ele>1369.7</ele>
      </trkpt>
      <trkpt lat="10.071592" lon="-84.156563">
        <ele>1370.1</ele>
      </trkpt>
      <trkpt lat="10.071952" lon="-84.156271">
        <ele>1370.9</ele>
      </trkpt>
      <trkpt lat="10.072263" lon="-84.156003">
        <ele>1370.9</ele>
      </trkpt>
      <trkpt lat="10.072937" lon="-84.155415">
        <ele>1375.1</ele>
      </trkpt>
      <trkpt lat="10.073164" lon="-84.155332">
        <ele>1376.9</ele>
      </trkpt>
      <trkpt lat="10.073363" lon="-84.155302">
        <ele>1378.8</ele>
      </trkpt>
      <trkpt lat="10.073646" lon="-84.155346">
        <ele>1381.9</ele>
      </trkpt>
      <trkpt lat="10.073875" lon="-84.155353">
        <ele>1384.1</ele>
      </trkpt>
      <trkpt lat="10.073974" lon="-84.155338">
        <ele>1385.3</ele>
      </trkpt>
      <trkpt lat="10.074099" lon="-84.155312">
        <ele>1386.4</ele>
      </trkpt>
      <trkpt lat="10.074292" lon="-84.155253">
        <ele>1389</ele>
      </trkpt>
      <trkpt lat="10.074445" lon="-84.155181">
        <ele>1390.2</ele>
      </trkpt>
      <trkpt lat="10.074615" lon="-84.15507">
        <ele>1392.4</ele>
      </trkpt>
      <trkpt lat="10.074889" lon="-84.154768">
        <ele>1395.6</ele>
      </trkpt>
      <trkpt lat="10.074975" lon="-84.154694">
        <ele>1396.2</ele>
      </trkpt>
      <trkpt lat="10.075089" lon="-84.154647">
        <ele>1396.8</ele>
      </trkpt>
      <trkpt lat="10.075424" lon="-84.154632">
        <ele>1398.7</ele>
      </trkpt>
      <trkpt lat="10.075877" lon="-84.154741">
        <ele>1402.5</ele>
      </trkpt>
      <trkpt lat="10.076002" lon="-84.154805">
        <ele>1403.4</ele>
      </trkpt>
      <trkpt lat="10.076092" lon="-84.154887">
        <ele>1404</ele>
      </trkpt>
      <trkpt lat="10.076176" lon="-84.155025">
        <ele>1404.4</ele>
      </trkpt>
      <trkpt lat="10.076247" lon="-84.155201">
        <ele>1405.1</ele>
      </trkpt>
      <trkpt lat="10.0763" lon="-84.155391">
        <ele>1406.1</ele>
      </trkpt>
      <trkpt lat="10.076393" lon="-84.1559">
        <ele>1409.2</ele>
      </trkpt>
      <trkpt lat="10.076464" lon="-84.156149">
        <ele>1410.6</ele>
      </trkpt>
      <trkpt lat="10.076574" lon="-84.156423">
        <ele>1412.9</ele>
      </trkpt>
      <trkpt lat="10.076654" lon="-84.156545">
        <ele>1413.7</ele>
      </trkpt>
      <trkpt lat="10.076794" lon="-84.156599">
        <ele>1414.6</ele>
      </trkpt>
      <trkpt lat="10.076876" lon="-84.15658">
        <ele>1415.5</ele>
      </trkpt>
      <trkpt lat="10.077159" lon="-84.156354">
        <ele>1418.4</ele>
      </trkpt>
      <trkpt lat="10.077213" lon="-84.156331">
        <ele>1419.4</ele>
      </trkpt>
      <trkpt lat="10.077299" lon="-84.156328">
        <ele>1420.3</ele>
      </trkpt>
      <trkpt lat="10.077352" lon="-84.15635">
        <ele>1422</ele>
      </trkpt>
      <trkpt lat="10.077399" lon="-84.156369">
        <ele>1423.1</ele>
      </trkpt>
      <trkpt lat="10.077475" lon="-84.156407">
        <ele>1424.1</ele>
      </trkpt>
      <trkpt lat="10.077792" lon="-84.156444">
        <ele>1427.1</ele>
      </trkpt>
      <trkpt lat="10.077878" lon="-84.156506">
        <ele>1428.1</ele>
      </trkpt>
      <trkpt lat="10.077908" lon="-84.156596">
        <ele>1429</ele>
      </trkpt>
      <trkpt lat="10.077898" lon="-84.156712">
        <ele>1429.8</ele>
      </trkpt>
      <trkpt lat="10.077844" lon="-84.156849">
        <ele>1430.7</ele>
      </trkpt>
      <trkpt lat="10.077828" lon="-84.156975">
        <ele>1431.5</ele>
      </trkpt>
      <trkpt lat="10.077857" lon="-84.157095">
        <ele>1432.2</ele>
      </trkpt>
      <trkpt lat="10.07793" lon="-84.157226">
        <ele>1432.9</ele>
      </trkpt>
      <trkpt lat="10.078011" lon="-84.157427">
        <ele>1434.1</ele>
      </trkpt>
      <trkpt lat="10.077982" lon="-84.157771">
        <ele>1435.3</ele>
      </trkpt>
      <trkpt lat="10.077994" lon="-84.15785">
        <ele>1435.8</ele>
      </trkpt>
      <trkpt lat="10.078013" lon="-84.157899">
        <ele>1436.2</ele>
      </trkpt>
      <trkpt lat="10.078064" lon="-84.157953">
        <ele>1435.8</ele>
      </trkpt>
      <trkpt lat="10.078136" lon="-84.157977">
        <ele>1435.9</ele>
      </trkpt>
      <trkpt lat="10.078309" lon="-84.157911">
        <ele>1436.1</ele>
      </trkpt>
      <trkpt lat="10.078364" lon="-84.157841">
        <ele>1436.4</ele>
      </trkpt>
      <trkpt lat="10.078394" lon="-84.157762">
        <ele>1436.6</ele>
      </trkpt>
      <trkpt lat="10.078412" lon="-84.157658">
        <ele>1436.8</ele>
      </trkpt>
      <trkpt lat="10.078471" lon="-84.157549">
        <ele>1437.1</ele>
      </trkpt>
      <trkpt lat="10.078546" lon="-84.157463">
        <ele>1437.4</ele>
      </trkpt>
      <trkpt lat="10.079475" lon="-84.157233">
        <ele>1444.4</ele>
      </trkpt>
      <trkpt lat="10.079714" lon="-84.15715">
        <ele>1446.8</ele>
      </trkpt>
      <trkpt lat="10.080135" lon="-84.156968">
        <ele>1454.1</ele>
      </trkpt>
      <trkpt lat="10.080376" lon="-84.156848">
        <ele>1457.4</ele>
      </trkpt>
      <trkpt lat="10.080527" lon="-84.156792">
        <ele>1459.1</ele>
      </trkpt>
      <trkpt lat="10.080642" lon="-84.15679">
        <ele>1460.9</ele>
      </trkpt>
      <trkpt lat="10.080757" lon="-84.156816">
        <ele>1462.6</ele>
      </trkpt>
      <trkpt lat="10.080877" lon="-84.156909">
        <ele>1464.5</ele>
      </trkpt>
      <trkpt lat="10.080988" lon="-84.157046">
        <ele>1466.5</ele>
      </trkpt>
      <trkpt lat="10.081141" lon="-84.157249">
        <ele>1470.5</ele>
      </trkpt>
      <trkpt lat="10.081488" lon="-84.157816">
        <ele>1482.5</ele>
      </trkpt>
      <trkpt lat="10.081723" lon="-84.158066">
        <ele>1486.3</ele>
      </trkpt>
      <trkpt lat="10.081797" lon="-84.158182">
        <ele>1487.3</ele>
      </trkpt>
      <trkpt lat="10.081892" lon="-84.158522">
        <ele>1489.9</ele>
      </trkpt>
      <trkpt lat="10.081937" lon="-84.158618">
        <ele>1490.5</ele>
      </trkpt>
      <trkpt lat="10.08202" lon="-84.158712">
        <ele>1491.1</ele>
      </trkpt>
      <trkpt lat="10.082127" lon="-84.158767">
        <ele>1491.5</ele>
      </trkpt>
      <trkpt lat="10.082189" lon="-84.158784">
        <ele>1491.7</ele>
      </trkpt>
      <trkpt lat="10.082277" lon="-84.158803">
        <ele>1491.8</ele>
      </trkpt>
      <trkpt lat="10.082615" lon="-84.158883">
        <ele>1491.7</ele>
      </trkpt>
      <trkpt lat="10.082849" lon="-84.158937">
        <ele>1491.7</ele>
      </trkpt>
      <trkpt lat="10.083176" lon="-84.159008">
        <ele>1491.6</ele>
      </trkpt>
      <trkpt lat="10.083569" lon="-84.15912">
        <ele>1492.8</ele>
      </trkpt>
      <trkpt lat="10.083718" lon="-84.159162">
        <ele>1493.4</ele>
      </trkpt>
      <trkpt lat="10.084341" lon="-84.159337">
        <ele>1497.5</ele>
      </trkpt>
      <trkpt lat="10.084407" lon="-84.159342">
        <ele>1498</ele>
      </trkpt>
      <trkpt lat="10.084623" lon="-84.159271">
        <ele>1498.9</ele>
      </trkpt>
      <trkpt lat="10.08493" lon="-84.158981">
        <ele>1499.5</ele>
      </trkpt>
      <trkpt lat="10.085049" lon="-84.158925">
        <ele>1499.5</ele>
      </trkpt>
      <trkpt lat="10.085226" lon="-84.158884">
        <ele>1498.9</ele>
      </trkpt>
      <trkpt lat="10.085663" lon="-84.15894">
        <ele>1496.1</ele>
      </trkpt>
      <trkpt lat="10.086057" lon="-84.158943">
        <ele>1493</ele>
      </trkpt>
      <trkpt lat="10.086163" lon="-84.159019">
        <ele>1492.2</ele>
      </trkpt>
      <trkpt lat="10.086189" lon="-84.159087">
        <ele>1491.4</ele>
      </trkpt>
      <trkpt lat="10.08617" lon="-84.159183">
        <ele>1490.7</ele>
      </trkpt>
      <trkpt lat="10.08613" lon="-84.159231">
        <ele>1490.1</ele>
      </trkpt>
      <trkpt lat="10.085917" lon="-84.159319">
        <ele>1489.1</ele>
      </trkpt>
      <trkpt lat="10.08586" lon="-84.15939">
        <ele>1488.7</ele>
      </trkpt>
      <trkpt lat="10.085863" lon="-84.15946">
        <ele>1488.5</ele>
      </trkpt>
      <trkpt lat="10.085906" lon="-84.159538">
        <ele>1488.3</ele>
      </trkpt>
      <trkpt lat="10.085967" lon="-84.159584">
        <ele>1488.2</ele>
      </trkpt>
      <trkpt lat="10.086118" lon="-84.159606">
        <ele>1488.1</ele>
      </trkpt>
      <trkpt lat="10.086231" lon="-84.159557">
        <ele>1488</ele>
      </trkpt>
      <trkpt lat="10.086429" lon="-84.159365">
        <ele>1487.8</ele>
      </trkpt>
      <trkpt lat="10.086529" lon="-84.159352">
        <ele>1487.6</ele>
      </trkpt>
      <trkpt lat="10.086642" lon="-84.159379">
        <ele>1487.5</ele>
      </trkpt>
      <trkpt lat="10.086687" lon="-84.159463">
        <ele>1487.4</ele>
      </trkpt>
      <trkpt lat="10.086673" lon="-84.159702">
        <ele>1487</ele>
      </trkpt>
      <trkpt lat="10.086642" lon="-84.159853">
        <ele>1486.8</ele>
      </trkpt>
      <trkpt lat="10.086581" lon="-84.159954">
        <ele>1486.5</ele>
      </trkpt>
      <trkpt lat="10.086478" lon="-84.160042">
        <ele>1486.2</ele>
      </trkpt>
      <trkpt lat="10.086289" lon="-84.160096">
        <ele>1485.5</ele>
      </trkpt>
      <trkpt lat="10.086044" lon="-84.160223">
        <ele>1484.3</ele>
      </trkpt>
      <trkpt lat="10.086004" lon="-84.160282">
        <ele>1483.9</ele>
      </trkpt>
      <trkpt lat="10.085976" lon="-84.16036">
        <ele>1483.5</ele>
      </trkpt>
      <trkpt lat="10.085952" lon="-84.160529">
        <ele>1483</ele>
      </trkpt>
      <trkpt lat="10.086024" lon="-84.160699">
        <ele>1482</ele>
      </trkpt>
      <trkpt lat="10.086839" lon="-84.161321">
        <ele>1478.3</ele>
      </trkpt>
      <trkpt lat="10.086929" lon="-84.161464">
        <ele>1478</ele>
      </trkpt>
      <trkpt lat="10.086923" lon="-84.161741">
        <ele>1477.4</ele>
      </trkpt>
      <trkpt lat="10.086898" lon="-84.161986">
        <ele>1476.8</ele>
      </trkpt>
      <trkpt lat="10.086893" lon="-84.162039">
        <ele>1476.5</ele>
      </trkpt>
      <trkpt lat="10.086887" lon="-84.162075">
        <ele>1476.2</ele>
      </trkpt>
      <trkpt lat="10.086887" lon="-84.162075">
        <ele>1473</ele>
      </trkpt>
      <trkpt lat="10.086856" lon="-84.162267">
        <ele>1473</ele>
      </trkpt>
      <trkpt lat="10.086853" lon="-84.162282">
        <ele>1473</ele>
      </trkpt>
      <trkpt lat="10.086832" lon="-84.162388">
        <ele>1473</ele>
      </trkpt>
      <trkpt lat="10.086768" lon="-84.162753">
        <ele>1473</ele>
      </trkpt>
      <trkpt lat="10.086763" lon="-84.162895">
        <ele>1473</ele>
      </trkpt>
      <trkpt lat="10.086784" lon="-84.163062">
        <ele>1473</ele>
      </trkpt>
      <trkpt lat="10.086816" lon="-84.163136">
        <ele>1473</ele>
      </trkpt>
      <trkpt lat="10.086896" lon="-84.16325">
        <ele>1473</ele>
      </trkpt>
      <trkpt lat="10.086972" lon="-84.1633">
        <ele>1473</ele>
      </trkpt>
      <trkpt lat="10.087034" lon="-84.163316">
        <ele>1473</ele>
      </trkpt>
      <trkpt lat="10.087161" lon="-84.16334">
        <ele>1473</ele>
      </trkpt>
      <trkpt lat="10.087214" lon="-84.163296">
        <ele>1473.3</ele>
      </trkpt>
      <trkpt lat="10.087306" lon="-84.163245">
        <ele>1473.8</ele>
      </trkpt>
      <trkpt lat="10.08736" lon="-84.16319">
        <ele>1474.1</ele>
      </trkpt>
      <trkpt lat="10.087514" lon="-84.163088">
        <ele>1475</ele>
      </trkpt>
      <trkpt lat="10.087786" lon="-84.16297">
        <ele>1476.7</ele>
      </trkpt>
      <trkpt lat="10.087979" lon="-84.162777">
        <ele>1478.4</ele>
      </trkpt>
      <trkpt lat="10.088098" lon="-84.162617">
        <ele>1479.6</ele>
      </trkpt>
      <trkpt lat="10.088312" lon="-84.162447">
        <ele>1481.6</ele>
      </trkpt>
      <trkpt lat="10.088454" lon="-84.162277">
        <ele>1482.9</ele>
      </trkpt>
      <trkpt lat="10.088558" lon="-84.16216">
        <ele>1484</ele>
      </trkpt>
      <trkpt lat="10.088651" lon="-84.162139">
        <ele>1485.1</ele>
      </trkpt>
      <trkpt lat="10.08871" lon="-84.162164">
        <ele>1485.7</ele>
      </trkpt>
      <trkpt lat="10.088774" lon="-84.162193">
        <ele>1486.2</ele>
      </trkpt>
      <trkpt lat="10.088816" lon="-84.162249">
        <ele>1486.6</ele>
      </trkpt>
      <trkpt lat="10.088816" lon="-84.162333">
        <ele>1486.9</ele>
      </trkpt>
      <trkpt lat="10.0887" lon="-84.16262">
        <ele>1487.4</ele>
      </trkpt>
      <trkpt lat="10.088605" lon="-84.163157">
        <ele>1487.7</ele>
      </trkpt>
      <trkpt lat="10.088571" lon="-84.163427">
        <ele>1487.6</ele>
      </trkpt>
      <trkpt lat="10.088596" lon="-84.163497">
        <ele>1487.6</ele>
      </trkpt>
      <trkpt lat="10.088676" lon="-84.163619">
        <ele>1487.4</ele>
      </trkpt>
      <trkpt lat="10.088966" lon="-84.163945">
        <ele>1485.9</ele>
      </trkpt>
      <trkpt lat="10.089223" lon="-84.164264">
        <ele>1484.6</ele>
      </trkpt>
      <trkpt lat="10.089347" lon="-84.164464">
        <ele>1484.1</ele>
      </trkpt>
      <trkpt lat="10.089386" lon="-84.16454">
        <ele>1483.8</ele>
      </trkpt>
      <trkpt lat="10.089405" lon="-84.164577">
        <ele>1483.6</ele>
      </trkpt>
      <trkpt lat="10.089458" lon="-84.164726">
        <ele>1483.5</ele>
      </trkpt>
      <trkpt lat="10.089499" lon="-84.164934">
        <ele>1483.4</ele>
      </trkpt>
      <trkpt lat="10.089541" lon="-84.165105">
        <ele>1483.4</ele>
      </trkpt>
      <trkpt lat="10.089768" lon="-84.16515">
        <ele>1483.3</ele>
      </trkpt>
      <trkpt lat="10.090505" lon="-84.165238">
        <ele>1484</ele>
      </trkpt>
      <trkpt lat="10.09063" lon="-84.165272">
        <ele>1484.1</ele>
      </trkpt>
      <trkpt lat="10.09068" lon="-84.165319">
        <ele>1484.3</ele>
      </trkpt>
      <trkpt lat="10.090699" lon="-84.165358">
        <ele>1484.4</ele>
      </trkpt>
      <trkpt lat="10.090707" lon="-84.165437">
        <ele>1484.5</ele>
      </trkpt>
      <trkpt lat="10.090671" lon="-84.16576">
        <ele>1484.9</ele>
      </trkpt>
      <trkpt lat="10.090689" lon="-84.165847">
        <ele>1484.9</ele>
      </trkpt>
      <trkpt lat="10.09074" lon="-84.165962">
        <ele>1484.9</ele>
      </trkpt>
      <trkpt lat="10.090946" lon="-84.166244">
        <ele>1484.7</ele>
      </trkpt>
      <trkpt lat="10.090966" lon="-84.166339">
        <ele>1484.7</ele>
      </trkpt>
      <trkpt lat="10.090949" lon="-84.16651">
        <ele>1484.6</ele>
      </trkpt>
      <trkpt lat="10.090917" lon="-84.16664">
        <ele>1484.6</ele>
      </trkpt>
      <trkpt lat="10.090919" lon="-84.166771">
        <ele>1484.5</ele>
      </trkpt>
      <trkpt lat="10.090958" lon="-84.166889">
        <ele>1484</ele>
      </trkpt>
      <trkpt lat="10.091105" lon="-84.167142">
        <ele>1482.5</ele>
      </trkpt>
      <trkpt lat="10.091347" lon="-84.167556">
        <ele>1480</ele>
      </trkpt>
      <trkpt lat="10.0914" lon="-84.167669">
        <ele>1479.4</ele>
      </trkpt>
      <trkpt lat="10.091479" lon="-84.167932">
        <ele>1478</ele>
      </trkpt>
      <trkpt lat="10.091514" lon="-84.168181">
        <ele>1477.3</ele>
      </trkpt>
      <trkpt lat="10.091502" lon="-84.168297">
        <ele>1477</ele>
      </trkpt>
      <trkpt lat="10.0914" lon="-84.168693">
        <ele>1475.9</ele>
      </trkpt>
      <trkpt lat="10.091388" lon="-84.1688">
        <ele>1476.1</ele>
      </trkpt>
      <trkpt lat="10.091416" lon="-84.16893">
        <ele>1476.4</ele>
      </trkpt>
      <trkpt lat="10.091463" lon="-84.169005">
        <ele>1476.8</ele>
      </trkpt>
      <trkpt lat="10.091557" lon="-84.169071">
        <ele>1477.3</ele>
      </trkpt>
      <trkpt lat="10.091734" lon="-84.169132">
        <ele>1478.2</ele>
      </trkpt>
      <trkpt lat="10.092224" lon="-84.16926">
        <ele>1480.8</ele>
      </trkpt>
      <trkpt lat="10.092364" lon="-84.169279">
        <ele>1481.3</ele>
      </trkpt>
      <trkpt lat="10.09267" lon="-84.169277">
        <ele>1483.1</ele>
      </trkpt>
      <trkpt lat="10.092819" lon="-84.169295">
        <ele>1483.8</ele>
      </trkpt>
      <trkpt lat="10.09386" lon="-84.169567">
        <ele>1493.3</ele>
      </trkpt>
      <trkpt lat="10.093975" lon="-84.16958">
        <ele>1494.2</ele>
      </trkpt>
      <trkpt lat="10.094134" lon="-84.169566">
        <ele>1495.1</ele>
      </trkpt>
      <trkpt lat="10.094198" lon="-84.169538">
        <ele>1496.1</ele>
      </trkpt>
      <trkpt lat="10.094287" lon="-84.169463">
        <ele>1497.1</ele>
      </trkpt>
      <trkpt lat="10.094352" lon="-84.16937">
        <ele>1498.2</ele>
      </trkpt>
      <trkpt lat="10.094705" lon="-84.168863">
        <ele>1506.2</ele>
      </trkpt>
      <trkpt lat="10.094854" lon="-84.168683">
        <ele>1509.2</ele>
      </trkpt>
      <trkpt lat="10.094991" lon="-84.168569">
        <ele>1510.5</ele>
      </trkpt>
      <trkpt lat="10.095078" lon="-84.168507">
        <ele>1512.1</ele>
      </trkpt>
      <trkpt lat="10.09518" lon="-84.168434">
        <ele>1513.7</ele>
      </trkpt>
      <trkpt lat="10.095649" lon="-84.168099">
        <ele>1521.3</ele>
      </trkpt>
      <trkpt lat="10.095962" lon="-84.167815">
        <ele>1524.8</ele>
      </trkpt>
      <trkpt lat="10.096574" lon="-84.167194">
        <ele>1526.3</ele>
      </trkpt>
      <trkpt lat="10.096764" lon="-84.16706">
        <ele>1526.6</ele>
      </trkpt>
      <trkpt lat="10.097727" lon="-84.166697">
        <ele>1536.1</ele>
      </trkpt>
      <trkpt lat="10.098028" lon="-84.166632">
        <ele>1539.7</ele>
      </trkpt>
      <trkpt lat="10.098126" lon="-84.166593">
        <ele>1540.9</ele>
      </trkpt>
      <trkpt lat="10.098426" lon="-84.166379">
        <ele>1545.3</ele>
      </trkpt>
      <trkpt lat="10.098769" lon="-84.166039">
        <ele>1548.5</ele>
      </trkpt>
      <trkpt lat="10.098887" lon="-84.165943">
        <ele>1549</ele>
      </trkpt>
      <trkpt lat="10.099003" lon="-84.165905">
        <ele>1549.4</ele>
      </trkpt>
      <trkpt lat="10.099143" lon="-84.165925">
        <ele>1549.8</ele>
      </trkpt>
      <trkpt lat="10.099213" lon="-84.165956">
        <ele>1550.2</ele>
      </trkpt>
      <trkpt lat="10.099404" lon="-84.16604">
        <ele>1550.8</ele>
      </trkpt>
      <trkpt lat="10.099527" lon="-84.166056">
        <ele>1551.1</ele>
      </trkpt>
      <trkpt lat="10.100154" lon="-84.165994">
        <ele>1551.9</ele>
      </trkpt>
      <trkpt lat="10.100414" lon="-84.165993">
        <ele>1552.1</ele>
      </trkpt>
      <trkpt lat="10.100961" lon="-84.166113">
        <ele>1552.6</ele>
      </trkpt>
      <trkpt lat="10.101136" lon="-84.166106">
        <ele>1552.7</ele>
      </trkpt>
      <trkpt lat="10.101272" lon="-84.166071">
        <ele>1552.7</ele>
      </trkpt>
      <trkpt lat="10.101466" lon="-84.165988">
        <ele>1552.8</ele>
      </trkpt>
      <trkpt lat="10.101835" lon="-84.165768">
        <ele>1552.8</ele>
      </trkpt>
      <trkpt lat="10.101907" lon="-84.165719">
        <ele>1552.9</ele>
      </trkpt>
      <trkpt lat="10.102228" lon="-84.165712">
        <ele>1554</ele>
      </trkpt>
      <trkpt lat="10.102473" lon="-84.165814">
        <ele>1555.1</ele>
      </trkpt>
      <trkpt lat="10.102592" lon="-84.165829">
        <ele>1555.6</ele>
      </trkpt>
      <trkpt lat="10.103163" lon="-84.165572">
        <ele>1558.8</ele>
      </trkpt>
      <trkpt lat="10.103493" lon="-84.165374">
        <ele>1561.1</ele>
      </trkpt>
      <trkpt lat="10.103633" lon="-84.165194">
        <ele>1562.3</ele>
      </trkpt>
      <trkpt lat="10.103879" lon="-84.165142">
        <ele>1563.5</ele>
      </trkpt>
      <trkpt lat="10.103795" lon="-84.165197">
        <ele>1564</ele>
      </trkpt>
      <trkpt lat="10.103747" lon="-84.165249">
        <ele>1564.3</ele>
      </trkpt>
      <trkpt lat="10.103667" lon="-84.165417">
        <ele>1564.5</ele>
      </trkpt>
      <trkpt lat="10.103596" lon="-84.165684">
        <ele>1564.9</ele>
      </trkpt>
      <trkpt lat="10.103524" lon="-84.165876">
        <ele>1565.1</ele>
      </trkpt>
      <trkpt lat="10.10345" lon="-84.166009">
        <ele>1565.4</ele>
      </trkpt>
      <trkpt lat="10.10335" lon="-84.166132">
        <ele>1565.6</ele>
      </trkpt>
      <trkpt lat="10.103092" lon="-84.166395">
        <ele>1567.6</ele>
      </trkpt>
      <trkpt lat="10.103015" lon="-84.166507">
        <ele>1568.3</ele>
      </trkpt>
      <trkpt lat="10.102705" lon="-84.167116">
        <ele>1575.1</ele>
      </trkpt>
      <trkpt lat="10.102629" lon="-84.167315">
        <ele>1577.7</ele>
      </trkpt>
      <trkpt lat="10.102596" lon="-84.167489">
        <ele>1579</ele>
      </trkpt>
      <trkpt lat="10.102616" lon="-84.167619">
        <ele>1580.3</ele>
      </trkpt>
      <trkpt lat="10.102701" lon="-84.167865">
        <ele>1583.2</ele>
      </trkpt>
      <trkpt lat="10.102719" lon="-84.167961">
        <ele>1584.5</ele>
      </trkpt>
      <trkpt lat="10.102698" lon="-84.168364">
        <ele>1589</ele>
      </trkpt>
      <trkpt lat="10.102713" lon="-84.168424">
        <ele>1589.9</ele>
      </trkpt>
      <trkpt lat="10.102755" lon="-84.168492">
        <ele>1590.7</ele>
      </trkpt>
      <trkpt lat="10.102842" lon="-84.168549">
        <ele>1591.5</ele>
      </trkpt>
      <trkpt lat="10.103129" lon="-84.168624">
        <ele>1593.9</ele>
      </trkpt>
      <trkpt lat="10.103465" lon="-84.168655">
        <ele>1596</ele>
      </trkpt>
      <trkpt lat="10.103588" lon="-84.16864">
        <ele>1596.6</ele>
      </trkpt>
      <trkpt lat="10.10375" lon="-84.168574">
        <ele>1597.2</ele>
      </trkpt>
      <trkpt lat="10.103855" lon="-84.168451">
        <ele>1597.8</ele>
      </trkpt>
      <trkpt lat="10.104135" lon="-84.168021">
        <ele>1601.2</ele>
      </trkpt>
      <trkpt lat="10.104349" lon="-84.167768">
        <ele>1603.4</ele>
      </trkpt>
      <trkpt lat="10.104962" lon="-84.167251">
        <ele>1609.1</ele>
      </trkpt>
      <trkpt lat="10.105718" lon="-84.166411">
        <ele>1621.7</ele>
      </trkpt>
      <trkpt lat="10.105857" lon="-84.1663">
        <ele>1623.3</ele>
      </trkpt>
      <trkpt lat="10.105977" lon="-84.166243">
        <ele>1625.2</ele>
      </trkpt>
      <trkpt lat="10.106037" lon="-84.166231">
        <ele>1627.2</ele>
      </trkpt>
      <trkpt lat="10.106268" lon="-84.166236">
        <ele>1631.3</ele>
      </trkpt>
      <trkpt lat="10.106647" lon="-84.166373">
        <ele>1639.1</ele>
      </trkpt>
      <trkpt lat="10.10678" lon="-84.166377">
        <ele>1640.9</ele>
      </trkpt>
      <trkpt lat="10.106901" lon="-84.16635">
        <ele>1642.6</ele>
      </trkpt>
      <trkpt lat="10.107026" lon="-84.166284">
        <ele>1644.1</ele>
      </trkpt>
      <trkpt lat="10.107124" lon="-84.166206">
        <ele>1645.6</ele>
      </trkpt>
      <trkpt lat="10.107227" lon="-84.166095">
        <ele>1647.1</ele>
      </trkpt>
      <trkpt lat="10.107456" lon="-84.165795">
        <ele>1652</ele>
      </trkpt>
      <trkpt lat="10.107547" lon="-84.165697">
        <ele>1653.1</ele>
      </trkpt>
      <trkpt lat="10.107774" lon="-84.165492">
        <ele>1655.4</ele>
      </trkpt>
      <trkpt lat="10.107834" lon="-84.165416">
        <ele>1655.9</ele>
      </trkpt>
      <trkpt lat="10.108005" lon="-84.165081">
        <ele>1657.6</ele>
      </trkpt>
      <trkpt lat="10.108097" lon="-84.164938">
        <ele>1658.2</ele>
      </trkpt>
      <trkpt lat="10.108264" lon="-84.164778">
        <ele>1659.4</ele>
      </trkpt>
      <trkpt lat="10.108496" lon="-84.164622">
        <ele>1661.5</ele>
      </trkpt>
      <trkpt lat="10.108623" lon="-84.164558">
        <ele>1662.2</ele>
      </trkpt>
      <trkpt lat="10.10883" lon="-84.164485">
        <ele>1663.5</ele>
      </trkpt>
      <trkpt lat="10.109043" lon="-84.164431">
        <ele>1664.8</ele>
      </trkpt>
      <trkpt lat="10.109479" lon="-84.164362">
        <ele>1666.9</ele>
      </trkpt>
      <trkpt lat="10.110835" lon="-84.1641">
        <ele>1684.5</ele>
      </trkpt>
      <trkpt lat="10.11105" lon="-84.164058">
        <ele>1688.4</ele>
      </trkpt>
      <trkpt lat="10.111111" lon="-84.164035">
        <ele>1690.3</ele>
      </trkpt>
      <trkpt lat="10.11115" lon="-84.164021">
        <ele>1692.5</ele>
      </trkpt>
      <trkpt lat="10.111593" lon="-84.163747">
        <ele>1703.3</ele>
      </trkpt>
      <trkpt lat="10.111795" lon="-84.163681">
        <ele>1707.2</ele>
      </trkpt>
      <trkpt lat="10.11191" lon="-84.163673">
        <ele>1709</ele>
      </trkpt>
      <trkpt lat="10.112389" lon="-84.163714">
        <ele>1716.4</ele>
      </trkpt>
      <trkpt lat="10.112677" lon="-84.163643">
        <ele>1719.7</ele>
      </trkpt>
      <trkpt lat="10.112743" lon="-84.163659">
        <ele>1720.7</ele>
      </trkpt>
      <trkpt lat="10.112783" lon="-84.16369">
        <ele>1721.7</ele>
      </trkpt>
      <trkpt lat="10.112848" lon="-84.16379">
        <ele>1723.1</ele>
      </trkpt>
      <trkpt lat="10.112868" lon="-84.163866">
        <ele>1724.2</ele>
      </trkpt>
      <trkpt lat="10.112942" lon="-84.163905">
        <ele>1725.3</ele>
      </trkpt>
      <trkpt lat="10.113623" lon="-84.163843">
        <ele>1730.8</ele>
      </trkpt>
      <trkpt lat="10.11382" lon="-84.163781">
        <ele>1732</ele>
      </trkpt>
      <trkpt lat="10.113932" lon="-84.163729">
        <ele>1732.6</ele>
      </trkpt>
      <trkpt lat="10.114233" lon="-84.163339">
        <ele>1735.2</ele>
      </trkpt>
      <trkpt lat="10.114294" lon="-84.163297">
        <ele>1735.7</ele>
      </trkpt>
      <trkpt lat="10.114444" lon="-84.16329">
        <ele>1736.3</ele>
      </trkpt>
      <trkpt lat="10.114488" lon="-84.163289">
        <ele>1737.3</ele>
      </trkpt>
      <trkpt lat="10.114543" lon="-84.163324">
        <ele>1738.2</ele>
      </trkpt>
      <trkpt lat="10.114642" lon="-84.163465">
        <ele>1739.2</ele>
      </trkpt>
      <trkpt lat="10.114733" lon="-84.163517">
        <ele>1740.1</ele>
      </trkpt>
      <trkpt lat="10.114879" lon="-84.163542">
        <ele>1741</ele>
      </trkpt>
      <trkpt lat="10.115086" lon="-84.163555">
        <ele>1742.9</ele>
      </trkpt>
      <trkpt lat="10.11525" lon="-84.16354">
        <ele>1743.8</ele>
      </trkpt>
      <trkpt lat="10.115358" lon="-84.163503">
        <ele>1744.7</ele>
      </trkpt>
      <trkpt lat="10.11547" lon="-84.163433">
        <ele>1745.6</ele>
      </trkpt>
      <trkpt lat="10.115643" lon="-84.163261">
        <ele>1747.5</ele>
      </trkpt>
      <trkpt lat="10.115754" lon="-84.163185">
        <ele>1748.5</ele>
      </trkpt>
      <trkpt lat="10.115861" lon="-84.163167">
        <ele>1749.6</ele>
      </trkpt>
      <trkpt lat="10.116154" lon="-84.163242">
        <ele>1753.3</ele>
      </trkpt>
      <trkpt lat="10.116342" lon="-84.163315">
        <ele>1756.2</ele>
      </trkpt>
      <trkpt lat="10.117318" lon="-84.163185">
        <ele>1768.1</ele>
      </trkpt>
      <trkpt lat="10.117396" lon="-84.163202">
        <ele>1769.5</ele>
      </trkpt>
      <trkpt lat="10.117536" lon="-84.163263">
        <ele>1771</ele>
      </trkpt>
      <trkpt lat="10.117627" lon="-84.163362">
        <ele>1772.6</ele>
      </trkpt>
      <trkpt lat="10.117799" lon="-84.163701">
        <ele>1779.7</ele>
      </trkpt>
      <trkpt lat="10.117906" lon="-84.163965">
        <ele>1784.6</ele>
      </trkpt>
      <trkpt lat="10.117984" lon="-84.164022">
        <ele>1786.1</ele>
      </trkpt>
      <trkpt lat="10.118039" lon="-84.164035">
        <ele>1787.6</ele>
      </trkpt>
      <trkpt lat="10.118103" lon="-84.164031">
        <ele>1789</ele>
      </trkpt>
      <trkpt lat="10.118265" lon="-84.163963">
        <ele>1790.5</ele>
      </trkpt>
      <trkpt lat="10.118529" lon="-84.163745">
        <ele>1794.7</ele>
      </trkpt>
      <trkpt lat="10.118714" lon="-84.163634">
        <ele>1797.4</ele>
      </trkpt>
      <trkpt lat="10.118859" lon="-84.163562">
        <ele>1798.8</ele>
      </trkpt>
      <trkpt lat="10.118961" lon="-84.163568">
        <ele>1800.2</ele>
      </trkpt>
      <trkpt lat="10.11903" lon="-84.163616">
        <ele>1801.5</ele>
      </trkpt>
      <trkpt lat="10.119054" lon="-84.163668">
        <ele>1802.7</ele>
      </trkpt>
      <trkpt lat="10.119056" lon="-84.163749">
        <ele>1803.7</ele>
      </trkpt>
      <trkpt lat="10.119023" lon="-84.16381">
        <ele>1804.7</ele>
      </trkpt>
      <trkpt lat="10.118904" lon="-84.163954">
        <ele>1806.2</ele>
      </trkpt>
      <trkpt lat="10.118875" lon="-84.164059">
        <ele>1807</ele>
      </trkpt>
      <trkpt lat="10.118913" lon="-84.164154">
        <ele>1807.7</ele>
      </trkpt>
      <trkpt lat="10.118981" lon="-84.164231">
        <ele>1808.6</ele>
      </trkpt>
      <trkpt lat="10.119196" lon="-84.164368">
        <ele>1810.2</ele>
      </trkpt>
      <trkpt lat="10.119431" lon="-84.164487">
        <ele>1811.7</ele>
      </trkpt>
      <trkpt lat="10.119456" lon="-84.164529">
        <ele>1812.4</ele>
      </trkpt>
      <trkpt lat="10.119457" lon="-84.164563">
        <ele>1813.1</ele>
      </trkpt>
      <trkpt lat="10.119412" lon="-84.164791">
        <ele>1814.5</ele>
      </trkpt>
      <trkpt lat="10.11937" lon="-84.164833">
        <ele>1815.1</ele>
      </trkpt>
      <trkpt lat="10.118969" lon="-84.164954">
        <ele>1817</ele>
      </trkpt>
      <trkpt lat="10.118802" lon="-84.165029">
        <ele>1817.9</ele>
      </trkpt>
      <trkpt lat="10.118714" lon="-84.165113">
        <ele>1818.3</ele>
      </trkpt>
      <trkpt lat="10.118629" lon="-84.165231">
        <ele>1818.8</ele>
      </trkpt>
      <trkpt lat="10.118616" lon="-84.165365">
        <ele>1819.2</ele>
      </trkpt>
      <trkpt lat="10.118679" lon="-84.165477">
        <ele>1819.5</ele>
      </trkpt>
      <trkpt lat="10.118797" lon="-84.165556">
        <ele>1819.8</ele>
      </trkpt>
      <trkpt lat="10.118887" lon="-84.165583">
        <ele>1820</ele>
      </trkpt>
      <trkpt lat="10.118966" lon="-84.165581">
        <ele>1820.3</ele>
      </trkpt>
      <trkpt lat="10.119225" lon="-84.165455">
        <ele>1820.7</ele>
      </trkpt>
      <trkpt lat="10.119724" lon="-84.165493">
        <ele>1821.1</ele>
      </trkpt>
      <trkpt lat="10.12008" lon="-84.165477">
        <ele>1822.6</ele>
      </trkpt>
      <trkpt lat="10.120482" lon="-84.165436">
        <ele>1826</ele>
      </trkpt>
      <trkpt lat="10.12087" lon="-84.165186">
        <ele>1832.1</ele>
      </trkpt>
      <trkpt lat="10.121026" lon="-84.165041">
        <ele>1835</ele>
      </trkpt>
      <trkpt lat="10.121073" lon="-84.164944">
        <ele>1836.4</ele>
      </trkpt>
      <trkpt lat="10.121069" lon="-84.164895">
        <ele>1837.9</ele>
      </trkpt>
      <trkpt lat="10.120949" lon="-84.164703">
        <ele>1840.9</ele>
      </trkpt>
      <trkpt lat="10.120887" lon="-84.164562">
        <ele>1842.3</ele>
      </trkpt>
      <trkpt lat="10.120858" lon="-84.164416">
        <ele>1843.7</ele>
      </trkpt>
      <trkpt lat="10.120872" lon="-84.164134">
        <ele>1846.9</ele>
      </trkpt>
      <trkpt lat="10.120904" lon="-84.164035">
        <ele>1847.7</ele>
      </trkpt>
      <trkpt lat="10.120995" lon="-84.163908">
        <ele>1848.5</ele>
      </trkpt>
      <trkpt lat="10.121106" lon="-84.163894">
        <ele>1849.2</ele>
      </trkpt>
      <trkpt lat="10.121197" lon="-84.163908">
        <ele>1849.8</ele>
      </trkpt>
      <trkpt lat="10.121255" lon="-84.163957">
        <ele>1850.3</ele>
      </trkpt>
      <trkpt lat="10.121427" lon="-84.164286">
        <ele>1851.3</ele>
      </trkpt>
      <trkpt lat="10.121575" lon="-84.164415">
        <ele>1851.4</ele>
      </trkpt>
      <trkpt lat="10.121637" lon="-84.164423">
        <ele>1851.5</ele>
      </trkpt>
      <trkpt lat="10.12174" lon="-84.164398">
        <ele>1851.6</ele>
      </trkpt>
      <trkpt lat="10.121765" lon="-84.16438">
        <ele>1851.7</ele>
      </trkpt>
      <trkpt lat="10.121779" lon="-84.164341">
        <ele>1851.8</ele>
      </trkpt>
      <trkpt lat="10.121756" lon="-84.164274">
        <ele>1851.9</ele>
      </trkpt>
      <trkpt lat="10.12175" lon="-84.164184">
        <ele>1852</ele>
      </trkpt>
      <trkpt lat="10.121814" lon="-84.164023">
        <ele>1852.2</ele>
      </trkpt>
      <trkpt lat="10.122065" lon="-84.163843">
        <ele>1852.5</ele>
      </trkpt>
      <trkpt lat="10.122135" lon="-84.163835">
        <ele>1852.7</ele>
      </trkpt>
      <trkpt lat="10.122217" lon="-84.163855">
        <ele>1853</ele>
      </trkpt>
      <trkpt lat="10.122306" lon="-84.163928">
        <ele>1853.3</ele>
      </trkpt>
      <trkpt lat="10.122411" lon="-84.164101">
        <ele>1854</ele>
      </trkpt>
      <trkpt lat="10.122457" lon="-84.164255">
        <ele>1854.4</ele>
      </trkpt>
      <trkpt lat="10.122463" lon="-84.164432">
        <ele>1854.9</ele>
      </trkpt>
      <trkpt lat="10.122404" lon="-84.164618">
        <ele>1856</ele>
      </trkpt>
      <trkpt lat="10.122298" lon="-84.16486">
        <ele>1857.1</ele>
      </trkpt>
      <trkpt lat="10.122387" lon="-84.164968">
        <ele>1857.6</ele>
      </trkpt>
      <trkpt lat="10.122457" lon="-84.164995">
        <ele>1858.2</ele>
      </trkpt>
      <trkpt lat="10.122553" lon="-84.164974">
        <ele>1858.8</ele>
      </trkpt>
      <trkpt lat="10.122661" lon="-84.164854">
        <ele>1859.5</ele>
      </trkpt>
      <trkpt lat="10.12277" lon="-84.164706">
        <ele>1860.9</ele>
      </trkpt>
      <trkpt lat="10.12292" lon="-84.16461">
        <ele>1861.7</ele>
      </trkpt>
      <trkpt lat="10.123146" lon="-84.164543">
        <ele>1863.2</ele>
      </trkpt>
      <trkpt lat="10.123226" lon="-84.164543">
        <ele>1863.9</ele>
      </trkpt>
      <trkpt lat="10.123336" lon="-84.164566">
        <ele>1864.6</ele>
      </trkpt>
      <trkpt lat="10.12345" lon="-84.164616">
        <ele>1865.1</ele>
      </trkpt>
      <trkpt lat="10.123621" lon="-84.164722">
        <ele>1866</ele>
      </trkpt>
      <trkpt lat="10.123725" lon="-84.164856">
        <ele>1866.4</ele>
      </trkpt>
      <trkpt lat="10.123769" lon="-84.165015">
        <ele>1866.8</ele>
      </trkpt>
      <trkpt lat="10.123847" lon="-84.165166">
        <ele>1867.2</ele>
      </trkpt>
      <trkpt lat="10.12393" lon="-84.165257">
        <ele>1867.6</ele>
      </trkpt>
      <trkpt lat="10.124131" lon="-84.165348">
        <ele>1868.8</ele>
      </trkpt>
      <trkpt lat="10.124304" lon="-84.165396">
        <ele>1869.7</ele>
      </trkpt>
      <trkpt lat="10.124383" lon="-84.165436">
        <ele>1870.6</ele>
      </trkpt>
      <trkpt lat="10.124442" lon="-84.165494">
        <ele>1871.4</ele>
      </trkpt>
      <trkpt lat="10.124485" lon="-84.165552">
        <ele>1872.1</ele>
      </trkpt>
      <trkpt lat="10.124585" lon="-84.165964">
        <ele>1874.8</ele>
      </trkpt>
      <trkpt lat="10.124619" lon="-84.166036">
        <ele>1875.3</ele>
      </trkpt>
      <trkpt lat="10.124882" lon="-84.166356">
        <ele>1878.5</ele>
      </trkpt>
      <trkpt lat="10.124894" lon="-84.16644">
        <ele>1879.4</ele>
      </trkpt>
      <trkpt lat="10.124883" lon="-84.166548">
        <ele>1880.2</ele>
      </trkpt>
      <trkpt lat="10.124836" lon="-84.166666">
        <ele>1880.9</ele>
      </trkpt>
      <trkpt lat="10.124766" lon="-84.16677">
        <ele>1881.5</ele>
      </trkpt>
      <trkpt lat="10.124714" lon="-84.166889">
        <ele>1882.2</ele>
      </trkpt>
      <trkpt lat="10.124704" lon="-84.166972">
        <ele>1882.7</ele>
      </trkpt>
      <trkpt lat="10.124714" lon="-84.16705">
        <ele>1883.2</ele>
      </trkpt>
      <trkpt lat="10.124749" lon="-84.167101">
        <ele>1883.5</ele>
      </trkpt>
      <trkpt lat="10.124823" lon="-84.167158">
        <ele>1883.7</ele>
      </trkpt>
      <trkpt lat="10.125323" lon="-84.167212">
        <ele>1885.6</ele>
      </trkpt>
      <trkpt lat="10.125382" lon="-84.16725">
        <ele>1886</ele>
      </trkpt>
      <trkpt lat="10.125415" lon="-84.167297">
        <ele>1886.3</ele>
      </trkpt>
      <trkpt lat="10.125507" lon="-84.167526">
        <ele>1886.8</ele>
      </trkpt>
      <trkpt lat="10.125559" lon="-84.167566">
        <ele>1886.9</ele>
      </trkpt>
      <trkpt lat="10.125627" lon="-84.167593">
        <ele>1887.5</ele>
      </trkpt>
      <trkpt lat="10.125682" lon="-84.16759">
        <ele>1888.5</ele>
      </trkpt>
      <trkpt lat="10.125766" lon="-84.167539">
        <ele>1889.5</ele>
      </trkpt>
      <trkpt lat="10.125804" lon="-84.167475">
        <ele>1891</ele>
      </trkpt>
      <trkpt lat="10.125806" lon="-84.167146">
        <ele>1895.7</ele>
      </trkpt>
      <trkpt lat="10.12584" lon="-84.167024">
        <ele>1897.4</ele>
      </trkpt>
      <trkpt lat="10.125918" lon="-84.166887">
        <ele>1899.1</ele>
      </trkpt>
      <trkpt lat="10.12599" lon="-84.166583">
        <ele>1904.4</ele>
      </trkpt>
      <trkpt lat="10.126041" lon="-84.166277">
        <ele>1909.7</ele>
      </trkpt>
      <trkpt lat="10.126071" lon="-84.166204">
        <ele>1911.6</ele>
      </trkpt>
      <trkpt lat="10.126131" lon="-84.166126">
        <ele>1913.5</ele>
      </trkpt>
      <trkpt lat="10.126267" lon="-84.166012">
        <ele>1915.4</ele>
      </trkpt>
      <trkpt lat="10.126464" lon="-84.165887">
        <ele>1919.3</ele>
      </trkpt>
      <trkpt lat="10.126642" lon="-84.165744">
        <ele>1922.1</ele>
      </trkpt>
      <trkpt lat="10.127119" lon="-84.165064">
        <ele>1930.1</ele>
      </trkpt>
      <trkpt lat="10.127268" lon="-84.164664">
        <ele>1933.4</ele>
      </trkpt>
      <trkpt lat="10.127418" lon="-84.16431">
        <ele>1937.3</ele>
      </trkpt>
      <trkpt lat="10.127982" lon="-84.163112">
        <ele>1956</ele>
      </trkpt>
      <trkpt lat="10.128264" lon="-84.162552">
        <ele>1966.6</ele>
      </trkpt>
      <trkpt lat="10.128598" lon="-84.162034">
        <ele>1976.8</ele>
      </trkpt>
      <trkpt lat="10.128649" lon="-84.161976">
        <ele>1978.3</ele>
      </trkpt>
      <trkpt lat="10.128791" lon="-84.161915">
        <ele>1979.8</ele>
      </trkpt>
      <trkpt lat="10.128845" lon="-84.161911">
        <ele>1981.3</ele>
      </trkpt>
      <trkpt lat="10.128964" lon="-84.161936">
        <ele>1982.7</ele>
      </trkpt>
      <trkpt lat="10.129082" lon="-84.162085">
        <ele>1985.4</ele>
      </trkpt>
      <trkpt lat="10.129272" lon="-84.162416">
        <ele>1989.8</ele>
      </trkpt>
      <trkpt lat="10.129346" lon="-84.162508">
        <ele>1990.6</ele>
      </trkpt>
      <trkpt lat="10.129416" lon="-84.16255">
        <ele>1991.1</ele>
      </trkpt>
      <trkpt lat="10.129497" lon="-84.162577">
        <ele>1991.6</ele>
      </trkpt>
      <trkpt lat="10.129581" lon="-84.162593">
        <ele>1991.8</ele>
      </trkpt>
      <trkpt lat="10.130567" lon="-84.162568">
        <ele>1993.3</ele>
      </trkpt>
      <trkpt lat="10.130899" lon="-84.162626">
        <ele>1992.5</ele>
      </trkpt>
      <trkpt lat="10.130979" lon="-84.162576">
        <ele>1992.1</ele>
      </trkpt>
      <trkpt lat="10.131768" lon="-84.161587">
        <ele>1985.1</ele>
      </trkpt>
      <trkpt lat="10.132629" lon="-84.161141">
        <ele>1982.2</ele>
      </trkpt>
      <trkpt lat="10.132944" lon="-84.160933">
        <ele>1983.5</ele>
      </trkpt>
      <trkpt lat="10.133026" lon="-84.160912">
        <ele>1984.2</ele>
      </trkpt>
      <trkpt lat="10.133577" lon="-84.160942">
        <ele>1989</ele>
      </trkpt>
      <trkpt lat="10.133677" lon="-84.160921">
        <ele>1989.8</ele>
      </trkpt>
      <trkpt lat="10.133759" lon="-84.160874">
        <ele>1990.7</ele>
      </trkpt>
      <trkpt lat="10.133797" lon="-84.16077">
        <ele>1991.5</ele>
      </trkpt>
      <trkpt lat="10.133779" lon="-84.160343">
        <ele>1995.2</ele>
      </trkpt>
      <trkpt lat="10.133821" lon="-84.160201">
        <ele>1996.1</ele>
      </trkpt>
      <trkpt lat="10.133985" lon="-84.159984">
        <ele>1998</ele>
      </trkpt>
      <trkpt lat="10.134075" lon="-84.159937">
        <ele>1998.8</ele>
      </trkpt>
      <trkpt lat="10.134151" lon="-84.159938">
        <ele>1999.4</ele>
      </trkpt>
      <trkpt lat="10.134215" lon="-84.159976">
        <ele>1999.8</ele>
      </trkpt>
      <trkpt lat="10.134254" lon="-84.160024">
        <ele>2000.1</ele>
      </trkpt>
      <trkpt lat="10.134303" lon="-84.16017">
        <ele>2000.3</ele>
      </trkpt>
      <trkpt lat="10.134366" lon="-84.160492">
        <ele>2000.5</ele>
      </trkpt>
      <trkpt lat="10.134678" lon="-84.161055">
        <ele>1999.7</ele>
      </trkpt>
      <trkpt lat="10.134698" lon="-84.161191">
        <ele>1999.3</ele>
      </trkpt>
      <trkpt lat="10.134687" lon="-84.161268">
        <ele>1998.8</ele>
      </trkpt>
      <trkpt lat="10.13467" lon="-84.161347">
        <ele>1998.2</ele>
      </trkpt>
      <trkpt lat="10.134599" lon="-84.161522">
        <ele>1997.1</ele>
      </trkpt>
      <trkpt lat="10.134535" lon="-84.161605">
        <ele>1996.6</ele>
      </trkpt>
      <trkpt lat="10.134445" lon="-84.161677">
        <ele>1996.1</ele>
      </trkpt>
      <trkpt lat="10.134215" lon="-84.161803">
        <ele>1995.1</ele>
      </trkpt>
      <trkpt lat="10.133863" lon="-84.162023">
        <ele>1993.3</ele>
      </trkpt>
      <trkpt lat="10.13369" lon="-84.1622">
        <ele>1992.5</ele>
      </trkpt>
      <trkpt lat="10.133651" lon="-84.162276">
        <ele>1992.1</ele>
      </trkpt>
      <trkpt lat="10.133655" lon="-84.162341">
        <ele>1991.7</ele>
      </trkpt>
      <trkpt lat="10.133709" lon="-84.162396">
        <ele>1991.3</ele>
      </trkpt>
      <trkpt lat="10.13378" lon="-84.162419">
        <ele>1990.9</ele>
      </trkpt>
      <trkpt lat="10.133869" lon="-84.162387">
        <ele>1990.5</ele>
      </trkpt>
      <trkpt lat="10.134108" lon="-84.162149">
        <ele>1990.1</ele>
      </trkpt>
      <trkpt lat="10.134273" lon="-84.16208">
        <ele>1990.1</ele>
      </trkpt>
      <trkpt lat="10.134587" lon="-84.161996">
        <ele>1990.4</ele>
      </trkpt>
      <trkpt lat="10.134655" lon="-84.162006">
        <ele>1990.7</ele>
      </trkpt>
      <trkpt lat="10.134716" lon="-84.162038">
        <ele>1991</ele>
      </trkpt>
      <trkpt lat="10.134997" lon="-84.162265">
        <ele>1992.2</ele>
      </trkpt>
      <trkpt lat="10.135135" lon="-84.162287">
        <ele>1993.1</ele>
      </trkpt>
      <trkpt lat="10.135395" lon="-84.162223">
        <ele>1995</ele>
      </trkpt>
      <trkpt lat="10.135524" lon="-84.162222">
        <ele>1996</ele>
      </trkpt>
      <trkpt lat="10.135615" lon="-84.162261">
        <ele>1996.9</ele>
      </trkpt>
      <trkpt lat="10.135733" lon="-84.162375">
        <ele>1997.8</ele>
      </trkpt>
      <trkpt lat="10.135832" lon="-84.162521">
        <ele>1998.6</ele>
      </trkpt>
      <trkpt lat="10.136556" lon="-84.163756">
        <ele>2006.4</ele>
      </trkpt>
      <trkpt lat="10.136697" lon="-84.163882">
        <ele>2006.4</ele>
      </trkpt>
      <trkpt lat="10.136796" lon="-84.163929">
        <ele>2006.4</ele>
      </trkpt>
      <trkpt lat="10.136921" lon="-84.163952">
        <ele>2006.5</ele>
      </trkpt>
      <trkpt lat="10.13704" lon="-84.163938">
        <ele>2006.6</ele>
      </trkpt>
      <trkpt lat="10.137383" lon="-84.163713">
        <ele>2007</ele>
      </trkpt>
      <trkpt lat="10.137811" lon="-84.163563">
        <ele>2007.3</ele>
      </trkpt>
      <trkpt lat="10.137937" lon="-84.163437">
        <ele>2007.5</ele>
      </trkpt>
      <trkpt lat="10.137989" lon="-84.163297">
        <ele>2007.8</ele>
      </trkpt>
      <trkpt lat="10.137985" lon="-84.16316">
        <ele>2008.1</ele>
      </trkpt>
      <trkpt lat="10.137845" lon="-84.162933">
        <ele>2008.8</ele>
      </trkpt>
      <trkpt lat="10.137779" lon="-84.162756">
        <ele>2009.5</ele>
      </trkpt>
      <trkpt lat="10.137755" lon="-84.162549">
        <ele>2010.3</ele>
      </trkpt>
      <trkpt lat="10.137787" lon="-84.162407">
        <ele>2010.7</ele>
      </trkpt>
      <trkpt lat="10.137832" lon="-84.162302">
        <ele>2011.1</ele>
      </trkpt>
      <trkpt lat="10.137967" lon="-84.162155">
        <ele>2012</ele>
      </trkpt>
      <trkpt lat="10.138394" lon="-84.1619">
        <ele>2014.3</ele>
      </trkpt>
      <trkpt lat="10.138489" lon="-84.16176">
        <ele>2014.8</ele>
      </trkpt>
      <trkpt lat="10.138516" lon="-84.161664">
        <ele>2015.3</ele>
      </trkpt>
      <trkpt lat="10.138508" lon="-84.161567">
        <ele>2015.6</ele>
      </trkpt>
      <trkpt lat="10.138451" lon="-84.161382">
        <ele>2016.2</ele>
      </trkpt>
      <trkpt lat="10.138451" lon="-84.16121">
        <ele>2016.6</ele>
      </trkpt>
      <trkpt lat="10.1385" lon="-84.161109">
        <ele>2017</ele>
      </trkpt>
      <trkpt lat="10.138698" lon="-84.16083">
        <ele>2018.1</ele>
      </trkpt>
      <trkpt lat="10.1391" lon="-84.160498">
        <ele>2020.1</ele>
      </trkpt>
      <trkpt lat="10.139222" lon="-84.160328">
        <ele>2021</ele>
      </trkpt>
      <trkpt lat="10.139297" lon="-84.160181">
        <ele>2021.4</ele>
      </trkpt>
      <trkpt lat="10.139333" lon="-84.16004">
        <ele>2022.2</ele>
      </trkpt>
      <trkpt lat="10.139355" lon="-84.159884">
        <ele>2023</ele>
      </trkpt>
      <trkpt lat="10.139371" lon="-84.159632">
        <ele>2024.4</ele>
      </trkpt>
      <trkpt lat="10.139367" lon="-84.1594">
        <ele>2025.8</ele>
      </trkpt>
      <trkpt lat="10.139265" lon="-84.159007">
        <ele>2028</ele>
      </trkpt>
      <trkpt lat="10.139257" lon="-84.158896">
        <ele>2028.5</ele>
      </trkpt>
      <trkpt lat="10.139289" lon="-84.158819">
        <ele>2028.7</ele>
      </trkpt>
      <trkpt lat="10.13936" lon="-84.158753">
        <ele>2028.7</ele>
      </trkpt>
      <trkpt lat="10.13983" lon="-84.158486">
        <ele>2025.7</ele>
      </trkpt>
      <trkpt lat="10.140337" lon="-84.158224">
        <ele>2023.6</ele>
      </trkpt>
      <trkpt lat="10.140439" lon="-84.158201">
        <ele>2024.6</ele>
      </trkpt>
      <trkpt lat="10.14054" lon="-84.158208">
        <ele>2024.7</ele>
      </trkpt>
      <trkpt lat="10.140639" lon="-84.158245">
        <ele>2024.6</ele>
      </trkpt>
      <trkpt lat="10.14075" lon="-84.158343">
        <ele>2024.2</ele>
      </trkpt>
      <trkpt lat="10.14147" lon="-84.159183">
        <ele>2024.9</ele>
      </trkpt>
      <trkpt lat="10.141524" lon="-84.159215">
        <ele>2024.7</ele>
      </trkpt>
      <trkpt lat="10.141646" lon="-84.159229">
        <ele>2024.5</ele>
      </trkpt>
      <trkpt lat="10.142075" lon="-84.159075">
        <ele>2022.1</ele>
      </trkpt>
      <trkpt lat="10.14255" lon="-84.158939">
        <ele>2025.7</ele>
      </trkpt>
      <trkpt lat="10.142611" lon="-84.158848">
        <ele>2026.8</ele>
      </trkpt>
      <trkpt lat="10.142624" lon="-84.158756">
        <ele>2028</ele>
      </trkpt>
      <trkpt lat="10.142587" lon="-84.158496">
        <ele>2030.6</ele>
      </trkpt>
      <trkpt lat="10.142579" lon="-84.15826">
        <ele>2033.8</ele>
      </trkpt>
      <trkpt lat="10.142616" lon="-84.158107">
        <ele>2035.7</ele>
      </trkpt>
      <trkpt lat="10.14269" lon="-84.158013">
        <ele>2037.5</ele>
      </trkpt>
      <trkpt lat="10.142817" lon="-84.157949">
        <ele>2039.4</ele>
      </trkpt>
      <trkpt lat="10.142946" lon="-84.157928">
        <ele>2041.1</ele>
      </trkpt>
      <trkpt lat="10.143033" lon="-84.157963">
        <ele>2042.8</ele>
      </trkpt>
      <trkpt lat="10.143184" lon="-84.158056">
        <ele>2044.3</ele>
      </trkpt>
      <trkpt lat="10.143361" lon="-84.158199">
        <ele>2047.2</ele>
      </trkpt>
      <trkpt lat="10.143691" lon="-84.1584">
        <ele>2051.6</ele>
      </trkpt>
      <trkpt lat="10.143805" lon="-84.158404">
        <ele>2052.5</ele>
      </trkpt>
      <trkpt lat="10.143899" lon="-84.158373">
        <ele>2053.3</ele>
      </trkpt>
      <trkpt lat="10.143979" lon="-84.158306">
        <ele>2054</ele>
      </trkpt>
      <trkpt lat="10.144036" lon="-84.158191">
        <ele>2054.7</ele>
      </trkpt>
      <trkpt lat="10.144124" lon="-84.158075">
        <ele>2055.3</ele>
      </trkpt>
      <trkpt lat="10.144266" lon="-84.157986">
        <ele>2055.9</ele>
      </trkpt>
      <trkpt lat="10.144443" lon="-84.157936">
        <ele>2056.7</ele>
      </trkpt>
      <trkpt lat="10.144544" lon="-84.157871">
        <ele>2056.9</ele>
      </trkpt>
      <trkpt lat="10.144583" lon="-84.157743">
        <ele>2057.1</ele>
      </trkpt>
      <trkpt lat="10.144631" lon="-84.157423">
        <ele>2057.5</ele>
      </trkpt>
      <trkpt lat="10.144665" lon="-84.157297">
        <ele>2057.8</ele>
      </trkpt>
      <trkpt lat="10.14475" lon="-84.157244">
        <ele>2058</ele>
      </trkpt>
      <trkpt lat="10.144871" lon="-84.157238">
        <ele>2058.3</ele>
      </trkpt>
      <trkpt lat="10.144977" lon="-84.157295">
        <ele>2058.5</ele>
      </trkpt>
      <trkpt lat="10.145167" lon="-84.157461">
        <ele>2059.1</ele>
      </trkpt>
      <trkpt lat="10.145262" lon="-84.157493">
        <ele>2059.4</ele>
      </trkpt>
      <trkpt lat="10.145349" lon="-84.15745">
        <ele>2059.6</ele>
      </trkpt>
      <trkpt lat="10.14538" lon="-84.157364">
        <ele>2059.9</ele>
      </trkpt>
      <trkpt lat="10.145612" lon="-84.156368">
        <ele>2062.8</ele>
      </trkpt>
      <trkpt lat="10.145734" lon="-84.155948">
        <ele>2064.8</ele>
      </trkpt>
      <trkpt lat="10.145734" lon="-84.15574">
        <ele>2066.4</ele>
      </trkpt>
      <trkpt lat="10.145662" lon="-84.155338">
        <ele>2071</ele>
      </trkpt>
      <trkpt lat="10.145594" lon="-84.154654">
        <ele>2080.3</ele>
      </trkpt>
      <trkpt lat="10.145594" lon="-84.154442">
        <ele>2083</ele>
      </trkpt>
      <trkpt lat="10.14566" lon="-84.154163">
        <ele>2086.7</ele>
      </trkpt>
      <trkpt lat="10.145726" lon="-84.153962">
        <ele>2088.6</ele>
      </trkpt>
      <trkpt lat="10.145934" lon="-84.153643">
        <ele>2091</ele>
      </trkpt>
      <trkpt lat="10.146056" lon="-84.153565">
        <ele>2091.1</ele>
      </trkpt>
      <trkpt lat="10.14616" lon="-84.153558">
        <ele>2091.1</ele>
      </trkpt>
      <trkpt lat="10.146268" lon="-84.153636">
        <ele>2090.9</ele>
      </trkpt>
      <trkpt lat="10.146418" lon="-84.154151">
        <ele>2089.4</ele>
      </trkpt>
      <trkpt lat="10.146629" lon="-84.15443">
        <ele>2088.2</ele>
      </trkpt>
      <trkpt lat="10.146788" lon="-84.154594">
        <ele>2087.3</ele>
      </trkpt>
      <trkpt lat="10.146903" lon="-84.15461">
        <ele>2086.7</ele>
      </trkpt>
      <trkpt lat="10.147118" lon="-84.154575">
        <ele>2085.5</ele>
      </trkpt>
      <trkpt lat="10.147332" lon="-84.154454">
        <ele>2084.5</ele>
      </trkpt>
      <trkpt lat="10.147667" lon="-84.154119">
        <ele>2082.3</ele>
      </trkpt>
      <trkpt lat="10.148105" lon="-84.153314">
        <ele>2079.5</ele>
      </trkpt>
      <trkpt lat="10.148142" lon="-84.153278">
        <ele>2079.3</ele>
      </trkpt>
      <trkpt lat="10.148236" lon="-84.153241">
        <ele>2079.2</ele>
      </trkpt>
      <trkpt lat="10.148303" lon="-84.153258">
        <ele>2079.1</ele>
      </trkpt>
      <trkpt lat="10.148583" lon="-84.153459">
        <ele>2078.6</ele>
      </trkpt>
      <trkpt lat="10.148697" lon="-84.153475">
        <ele>2078.4</ele>
      </trkpt>
      <trkpt lat="10.148792" lon="-84.153421">
        <ele>2078.3</ele>
      </trkpt>
      <trkpt lat="10.148823" lon="-84.153379">
        <ele>2078.2</ele>
      </trkpt>
      <trkpt lat="10.148871" lon="-84.153193">
        <ele>2078.1</ele>
      </trkpt>
      <trkpt lat="10.148908" lon="-84.152893">
        <ele>2078.4</ele>
      </trkpt>
      <trkpt lat="10.148905" lon="-84.152601">
        <ele>2078.8</ele>
      </trkpt>
      <trkpt lat="10.148887" lon="-84.15241">
        <ele>2079.2</ele>
      </trkpt>
      <trkpt lat="10.148813" lon="-84.152247">
        <ele>2079.5</ele>
      </trkpt>
      <trkpt lat="10.148676" lon="-84.152083">
        <ele>2080.3</ele>
      </trkpt>
      <trkpt lat="10.14852" lon="-84.151949">
        <ele>2081.2</ele>
      </trkpt>
      <trkpt lat="10.148441" lon="-84.151818">
        <ele>2081.7</ele>
      </trkpt>
      <trkpt lat="10.148408" lon="-84.151642">
        <ele>2082.2</ele>
      </trkpt>
      <trkpt lat="10.148427" lon="-84.150967">
        <ele>2087.9</ele>
      </trkpt>
      <trkpt lat="10.148504" lon="-84.150248">
        <ele>2095.9</ele>
      </trkpt>
      <trkpt lat="10.148533" lon="-84.150133">
        <ele>2097.1</ele>
      </trkpt>
      <trkpt lat="10.148609" lon="-84.150077">
        <ele>2098.1</ele>
      </trkpt>
      <trkpt lat="10.148682" lon="-84.150049">
        <ele>2099</ele>
      </trkpt>
      <trkpt lat="10.148781" lon="-84.15009">
        <ele>2099.8</ele>
      </trkpt>
      <trkpt lat="10.149043" lon="-84.150369">
        <ele>2102.5</ele>
      </trkpt>
      <trkpt lat="10.149333" lon="-84.15064">
        <ele>2103.7</ele>
      </trkpt>
      <trkpt lat="10.149449" lon="-84.150656">
        <ele>2103.7</ele>
      </trkpt>
      <trkpt lat="10.149525" lon="-84.150621">
        <ele>2103.8</ele>
      </trkpt>
      <trkpt lat="10.14961" lon="-84.150498">
        <ele>2103.8</ele>
      </trkpt>
      <trkpt lat="10.149829" lon="-84.149951">
        <ele>2102.9</ele>
      </trkpt>
      <trkpt lat="10.149919" lon="-84.149822">
        <ele>2102.6</ele>
      </trkpt>
      <trkpt lat="10.150016" lon="-84.149724">
        <ele>2102.3</ele>
      </trkpt>
      <trkpt lat="10.150162" lon="-84.149645">
        <ele>2102.2</ele>
      </trkpt>
      <trkpt lat="10.150584" lon="-84.149568">
        <ele>2101.7</ele>
      </trkpt>
      <trkpt lat="10.150803" lon="-84.149428">
        <ele>2101.4</ele>
      </trkpt>
      <trkpt lat="10.150869" lon="-84.149363">
        <ele>2101.2</ele>
      </trkpt>
      <trkpt lat="10.150914" lon="-84.149256">
        <ele>2101</ele>
      </trkpt>
      <trkpt lat="10.150936" lon="-84.14906">
        <ele>2100.9</ele>
      </trkpt>
      <trkpt lat="10.151249" lon="-84.148566">
        <ele>2101.6</ele>
      </trkpt>
      <trkpt lat="10.151405" lon="-84.148358">
        <ele>2102.3</ele>
      </trkpt>
      <trkpt lat="10.151458" lon="-84.148243">
        <ele>2102.8</ele>
      </trkpt>
      <trkpt lat="10.151471" lon="-84.148137">
        <ele>2103.4</ele>
      </trkpt>
      <trkpt lat="10.151452" lon="-84.147957">
        <ele>2104.2</ele>
      </trkpt>
      <trkpt lat="10.151417" lon="-84.147819">
        <ele>2104.9</ele>
      </trkpt>
      <trkpt lat="10.151456" lon="-84.147653">
        <ele>2105.7</ele>
      </trkpt>
      <trkpt lat="10.15152" lon="-84.147613">
        <ele>2106.9</ele>
      </trkpt>
      <trkpt lat="10.15171" lon="-84.147674">
        <ele>2109.4</ele>
      </trkpt>
      <trkpt lat="10.151793" lon="-84.147836">
        <ele>2108.3</ele>
      </trkpt>
      <trkpt lat="10.152192" lon="-84.14883">
        <ele>2090.9</ele>
      </trkpt>
      <trkpt lat="10.152252" lon="-84.148951">
        <ele>2088.7</ele>
      </trkpt>
      <trkpt lat="10.152377" lon="-84.14903">
        <ele>2086.3</ele>
      </trkpt>
      <trkpt lat="10.152516" lon="-84.149053">
        <ele>2083.7</ele>
      </trkpt>
      <trkpt lat="10.152708" lon="-84.149045">
        <ele>2078.7</ele>
      </trkpt>
      <trkpt lat="10.153162" lon="-84.148972">
        <ele>2068.3</ele>
      </trkpt>
      <trkpt lat="10.153448" lon="-84.148746">
        <ele>2065.8</ele>
      </trkpt>
      <trkpt lat="10.153617" lon="-84.148721">
        <ele>2065.1</ele>
      </trkpt>
      <trkpt lat="10.153733" lon="-84.148787">
        <ele>2064.3</ele>
      </trkpt>
      <trkpt lat="10.153902" lon="-84.148951">
        <ele>2062.6</ele>
      </trkpt>
      <trkpt lat="10.154366" lon="-84.149512">
        <ele>2056.6</ele>
      </trkpt>
      <trkpt lat="10.154541" lon="-84.149649">
        <ele>2054.9</ele>
      </trkpt>
      <trkpt lat="10.15474" lon="-84.149696">
        <ele>2052.9</ele>
      </trkpt>
      <trkpt lat="10.155083" lon="-84.149657">
        <ele>2047.9</ele>
      </trkpt>
      <trkpt lat="10.155215" lon="-84.149689">
        <ele>2045.7</ele>
      </trkpt>
      <trkpt lat="10.155327" lon="-84.149755">
        <ele>2043.7</ele>
      </trkpt>
      <trkpt lat="10.155545" lon="-84.150034">
        <ele>2037.8</ele>
      </trkpt>
      <trkpt lat="10.155875" lon="-84.150342">
        <ele>2029.6</ele>
      </trkpt>
      <trkpt lat="10.156015" lon="-84.150385">
        <ele>2027.4</ele>
      </trkpt>
      <trkpt lat="10.156113" lon="-84.150388">
        <ele>2025.2</ele>
      </trkpt>
      <trkpt lat="10.156192" lon="-84.150345">
        <ele>2023.1</ele>
      </trkpt>
      <trkpt lat="10.156295" lon="-84.150179">
        <ele>2019.1</ele>
      </trkpt>
      <trkpt lat="10.156385" lon="-84.14994">
        <ele>2015.3</ele>
      </trkpt>
      <trkpt lat="10.156556" lon="-84.149269">
        <ele>2008.5</ele>
      </trkpt>
      <trkpt lat="10.156652" lon="-84.149178">
        <ele>2007.9</ele>
      </trkpt>
      <trkpt lat="10.156958" lon="-84.149103">
        <ele>2006.6</ele>
      </trkpt>
      <trkpt lat="10.157277" lon="-84.149092">
        <ele>2006</ele>
      </trkpt>
      <trkpt lat="10.157397" lon="-84.149146">
        <ele>2005.9</ele>
      </trkpt>
      <trkpt lat="10.157531" lon="-84.149277">
        <ele>2005.5</ele>
      </trkpt>
      <trkpt lat="10.157595" lon="-84.149417">
        <ele>2005.3</ele>
      </trkpt>
      <trkpt lat="10.157665" lon="-84.149752">
        <ele>2004.8</ele>
      </trkpt>
      <trkpt lat="10.157672" lon="-84.149876">
        <ele>2004.6</ele>
      </trkpt>
      <trkpt lat="10.157655" lon="-84.150046">
        <ele>2004.5</ele>
      </trkpt>
      <trkpt lat="10.157238" lon="-84.151433">
        <ele>1997.1</ele>
      </trkpt>
      <trkpt lat="10.157235" lon="-84.151481">
        <ele>1996.2</ele>
      </trkpt>
      <trkpt lat="10.157286" lon="-84.15158">
        <ele>1995</ele>
      </trkpt>
      <trkpt lat="10.157342" lon="-84.151636">
        <ele>1993.6</ele>
      </trkpt>
      <trkpt lat="10.157993" lon="-84.151937">
        <ele>1982.6</ele>
      </trkpt>
      <trkpt lat="10.158088" lon="-84.152002">
        <ele>1980.9</ele>
      </trkpt>
      <trkpt lat="10.158294" lon="-84.152256">
        <ele>1975.6</ele>
      </trkpt>
      <trkpt lat="10.15834" lon="-84.152361">
        <ele>1973.8</ele>
      </trkpt>
      <trkpt lat="10.158321" lon="-84.152748">
        <ele>1967.3</ele>
      </trkpt>
      <trkpt lat="10.158269" lon="-84.153243">
        <ele>1961.6</ele>
      </trkpt>
      <trkpt lat="10.158196" lon="-84.153428">
        <ele>1960.4</ele>
      </trkpt>
      <trkpt lat="10.158091" lon="-84.153519">
        <ele>1960</ele>
      </trkpt>
      <trkpt lat="10.157527" lon="-84.153706">
        <ele>1959.4</ele>
      </trkpt>
      <trkpt lat="10.15747" lon="-84.153768">
        <ele>1959.6</ele>
      </trkpt>
      <trkpt lat="10.157451" lon="-84.153829">
        <ele>1959.8</ele>
      </trkpt>
      <trkpt lat="10.157469" lon="-84.154072">
        <ele>1960.3</ele>
      </trkpt>
      <trkpt lat="10.157693" lon="-84.154859">
        <ele>1960.7</ele>
      </trkpt>
      <trkpt lat="10.158353" lon="-84.155836">
        <ele>1950.7</ele>
      </trkpt>
      <trkpt lat="10.158259" lon="-84.155696">
        <ele>1950</ele>
      </trkpt>
      <trkpt lat="10.158259" lon="-84.155696">
        <ele>1946</ele>
      </trkpt>
      <trkpt lat="10.158353" lon="-84.155836">
        <ele>1940</ele>
      </trkpt>
      <trkpt lat="10.159019" lon="-84.157053">
        <ele>1934.2</ele>
      </trkpt>
      <trkpt lat="10.159473" lon="-84.157836">
        <ele>1932.7</ele>
      </trkpt>
      <trkpt lat="10.159607" lon="-84.158131">
        <ele>1932.3</ele>
      </trkpt>
      <trkpt lat="10.159693" lon="-84.158475">
        <ele>1932</ele>
      </trkpt>
      <trkpt lat="10.159805" lon="-84.160262">
        <ele>1923.5</ele>
      </trkpt>
      <trkpt lat="10.159881" lon="-84.160979">
        <ele>1917.1</ele>
      </trkpt>
      <trkpt lat="10.160105" lon="-84.16311">
        <ele>1906.6</ele>
      </trkpt>
      <trkpt lat="10.160092" lon="-84.163265">
        <ele>1906.6</ele>
      </trkpt>
      <trkpt lat="10.160018" lon="-84.163458">
        <ele>1906.7</ele>
      </trkpt>
      <trkpt lat="10.159915" lon="-84.163571">
        <ele>1906.7</ele>
      </trkpt>
      <trkpt lat="10.159244" lon="-84.164173">
        <ele>1907</ele>
      </trkpt>
      <trkpt lat="10.159167" lon="-84.164312">
        <ele>1907</ele>
      </trkpt>
      <trkpt lat="10.159043" lon="-84.164736">
        <ele>1907</ele>
      </trkpt>
      <trkpt lat="10.158568" lon="-84.165942">
        <ele>1907</ele>
      </trkpt>
      <trkpt lat="10.158544" lon="-84.166127">
        <ele>1907</ele>
      </trkpt>
      <trkpt lat="10.158803" lon="-84.16884">
        <ele>1900.9</ele>
      </trkpt>
      <trkpt lat="10.158784" lon="-84.169306">
        <ele>1900.5</ele>
      </trkpt>
      <trkpt lat="10.158597" lon="-84.169783">
        <ele>1901</ele>
      </trkpt>
      <trkpt lat="10.158592" lon="-84.170357">
        <ele>1902.2</ele>
      </trkpt>
      <trkpt lat="10.158562" lon="-84.170506">
        <ele>1902.5</ele>
      </trkpt>
      <trkpt lat="10.158402" lon="-84.170915">
        <ele>1903.9</ele>
      </trkpt>
      <trkpt lat="10.158151" lon="-84.171373">
        <ele>1904.8</ele>
      </trkpt>
      <trkpt lat="10.158149" lon="-84.171473">
        <ele>1904.9</ele>
      </trkpt>
      <trkpt lat="10.158246" lon="-84.171744">
        <ele>1905.9</ele>
      </trkpt>
      <trkpt lat="10.158856" lon="-84.172527">
        <ele>1909.8</ele>
      </trkpt>
      <trkpt lat="10.15892" lon="-84.172639">
        <ele>1910.3</ele>
      </trkpt>
      <trkpt lat="10.158964" lon="-84.172897">
        <ele>1911.2</ele>
      </trkpt>
      <trkpt lat="10.158944" lon="-84.173217">
        <ele>1912.6</ele>
      </trkpt>
      <trkpt lat="10.158555" lon="-84.17448">
        <ele>1915.1</ele>
      </trkpt>
      <trkpt lat="10.158562" lon="-84.175898">
        <ele>1914.9</ele>
      </trkpt>
      <trkpt lat="10.158589" lon="-84.176268">
        <ele>1914.8</ele>
      </trkpt>
      <trkpt lat="10.158777" lon="-84.177234">
        <ele>1914.2</ele>
      </trkpt>
      <trkpt lat="10.158782" lon="-84.17736">
        <ele>1914.1</ele>
      </trkpt>
      <trkpt lat="10.15875" lon="-84.177506">
        <ele>1914</ele>
      </trkpt>
      <trkpt lat="10.158619" lon="-84.177666">
        <ele>1913.8</ele>
      </trkpt>
      <trkpt lat="10.15827" lon="-84.17795">
        <ele>1913.3</ele>
      </trkpt>
      <trkpt lat="10.158204" lon="-84.178055">
        <ele>1913.2</ele>
      </trkpt>
      <trkpt lat="10.158185" lon="-84.178176">
        <ele>1913.1</ele>
      </trkpt>
      <trkpt lat="10.158238" lon="-84.178286">
        <ele>1913</ele>
      </trkpt>
      <trkpt lat="10.158336" lon="-84.178396">
        <ele>1912.9</ele>
      </trkpt>
      <trkpt lat="10.160128" lon="-84.180097">
        <ele>1916.7</ele>
      </trkpt>
      <trkpt lat="10.160752" lon="-84.180689">
        <ele>1919.6</ele>
      </trkpt>
      <trkpt lat="10.160989" lon="-84.180893">
        <ele>1920.7</ele>
      </trkpt>
      <trkpt lat="10.161108" lon="-84.180962">
        <ele>1921</ele>
      </trkpt>
      <trkpt lat="10.161198" lon="-84.180995">
        <ele>1921.3</ele>
      </trkpt>
      <trkpt lat="10.162657" lon="-84.180975">
        <ele>1925.8</ele>
      </trkpt>
      <trkpt lat="10.163167" lon="-84.181056">
        <ele>1926.8</ele>
      </trkpt>
      <trkpt lat="10.163788" lon="-84.181298">
        <ele>1927.7</ele>
      </trkpt>
      <trkpt lat="10.166399" lon="-84.183323">
        <ele>1926.1</ele>
      </trkpt>
      <trkpt lat="10.166718" lon="-84.183594">
        <ele>1925.9</ele>
      </trkpt>
      <trkpt lat="10.1668" lon="-84.183704">
        <ele>1925.9</ele>
      </trkpt>
      <trkpt lat="10.166848" lon="-84.183821">
        <ele>1925.8</ele>
      </trkpt>
      <trkpt lat="10.167009" lon="-84.185576">
        <ele>1935.4</ele>
      </trkpt>
      <trkpt lat="10.167041" lon="-84.185745">
        <ele>1936.4</ele>
      </trkpt>
      <trkpt lat="10.167101" lon="-84.18586">
        <ele>1937.3</ele>
      </trkpt>
      <trkpt lat="10.167186" lon="-84.185946">
        <ele>1938.1</ele>
      </trkpt>
      <trkpt lat="10.167545" lon="-84.186201">
        <ele>1941.1</ele>
      </trkpt>
      <trkpt lat="10.167582" lon="-84.186292">
        <ele>1941.7</ele>
      </trkpt>
      <trkpt lat="10.167566" lon="-84.186447">
        <ele>1942.2</ele>
      </trkpt>
      <trkpt lat="10.167479" lon="-84.186675">
        <ele>1943.3</ele>
      </trkpt>
      <trkpt lat="10.167347" lon="-84.186933">
        <ele>1944.7</ele>
      </trkpt>
      <trkpt lat="10.167228" lon="-84.187115">
        <ele>1945.5</ele>
      </trkpt>
      <trkpt lat="10.166837" lon="-84.187418">
        <ele>1947.2</ele>
      </trkpt>
      <trkpt lat="10.166713" lon="-84.187577">
        <ele>1948</ele>
      </trkpt>
      <trkpt lat="10.16666" lon="-84.187759">
        <ele>1949.1</ele>
      </trkpt>
      <trkpt lat="10.16661" lon="-84.187995">
        <ele>1950.1</ele>
      </trkpt>
      <trkpt lat="10.166573" lon="-84.188347">
        <ele>1951.9</ele>
      </trkpt>
      <trkpt lat="10.166657" lon="-84.189384">
        <ele>1958.7</ele>
      </trkpt>
      <trkpt lat="10.166658" lon="-84.189736">
        <ele>1960.3</ele>
      </trkpt>
      <trkpt lat="10.166523" lon="-84.190702">
        <ele>1963.6</ele>
      </trkpt>
      <trkpt lat="10.166494" lon="-84.19093">
        <ele>1963.8</ele>
      </trkpt>
      <trkpt lat="10.166561" lon="-84.192705">
        <ele>1968</ele>
      </trkpt>
      <trkpt lat="10.166531" lon="-84.192901">
        <ele>1969.1</ele>
      </trkpt>
      <trkpt lat="10.166474" lon="-84.192973">
        <ele>1969.5</ele>
      </trkpt>
      <trkpt lat="10.166395" lon="-84.19303">
        <ele>1970</ele>
      </trkpt>
      <trkpt lat="10.166289" lon="-84.193043">
        <ele>1970.3</ele>
      </trkpt>
      <trkpt lat="10.1662" lon="-84.193022">
        <ele>1970.7</ele>
      </trkpt>
      <trkpt lat="10.166105" lon="-84.192968">
        <ele>1971</ele>
      </trkpt>
      <trkpt lat="10.165629" lon="-84.19254">
        <ele>1972.5</ele>
      </trkpt>
      <trkpt lat="10.165563" lon="-84.192509">
        <ele>1972.5</ele>
      </trkpt>
      <trkpt lat="10.165492" lon="-84.192495">
        <ele>1972.6</ele>
      </trkpt>
      <trkpt lat="10.165421" lon="-84.192507">
        <ele>1972.6</ele>
      </trkpt>
      <trkpt lat="10.165356" lon="-84.192543">
        <ele>1972.6</ele>
      </trkpt>
      <trkpt lat="10.165294" lon="-84.192618">
        <ele>1972.5</ele>
      </trkpt>
      <trkpt lat="10.165044" lon="-84.193198">
        <ele>1972.4</ele>
      </trkpt>
      <trkpt lat="10.164829" lon="-84.193711">
        <ele>1972.2</ele>
      </trkpt>
      <trkpt lat="10.16449" lon="-84.194512">
        <ele>1978.8</ele>
      </trkpt>
      <trkpt lat="10.164246" lon="-84.195066">
        <ele>1984.6</ele>
      </trkpt>
      <trkpt lat="10.164018" lon="-84.195665">
        <ele>1989.2</ele>
      </trkpt>
      <trkpt lat="10.163652" lon="-84.196953">
        <ele>1987.6</ele>
      </trkpt>
      <trkpt lat="10.163539" lon="-84.197535">
        <ele>1988.3</ele>
      </trkpt>
      <trkpt lat="10.163512" lon="-84.197911">
        <ele>1988.8</ele>
      </trkpt>
      <trkpt lat="10.163477" lon="-84.198165">
        <ele>1989</ele>
      </trkpt>
      <trkpt lat="10.163357" lon="-84.198619">
        <ele>1989.3</ele>
      </trkpt>
      <trkpt lat="10.163101" lon="-84.199271">
        <ele>1989.6</ele>
      </trkpt>
      <trkpt lat="10.163101" lon="-84.199271">
        <ele>1989.9</ele>
      </trkpt>
      <trkpt lat="10.163082" lon="-84.199321">
        <ele>1989.9</ele>
      </trkpt>
      <trkpt lat="10.162658" lon="-84.199111">
        <ele>1985.4</ele>
      </trkpt>
      <trkpt lat="10.162403" lon="-84.19902">
        <ele>1983.9</ele>
      </trkpt>
      <trkpt lat="10.162206" lon="-84.198973">
        <ele>1983.1</ele>
      </trkpt>
      <trkpt lat="10.161863" lon="-84.198967">
        <ele>1981.2</ele>
      </trkpt>
      <trkpt lat="10.16084" lon="-84.199031">
        <ele>1969.4</ele>
      </trkpt>
      <trkpt lat="10.160623" lon="-84.19902">
        <ele>1967</ele>
      </trkpt>
      <trkpt lat="10.160307" lon="-84.198963">
        <ele>1963.3</ele>
      </trkpt>
      <trkpt lat="10.160049" lon="-84.198855">
        <ele>1959.8</ele>
      </trkpt>
      <trkpt lat="10.15979" lon="-84.198709">
        <ele>1956.8</ele>
      </trkpt>
      <trkpt lat="10.159614" lon="-84.198567">
        <ele>1955.1</ele>
      </trkpt>
      <trkpt lat="10.159108" lon="-84.19804">
        <ele>1947.4</ele>
      </trkpt>
      <trkpt lat="10.157618" lon="-84.19641">
        <ele>1918.3</ele>
      </trkpt>
      <trkpt lat="10.157328" lon="-84.196082">
        <ele>1914.5</ele>
      </trkpt>
      <trkpt lat="10.15693" lon="-84.195636">
        <ele>1908.9</ele>
      </trkpt>
      <trkpt lat="10.156553" lon="-84.195212">
        <ele>1904.1</ele>
      </trkpt>
      <trkpt lat="10.156253" lon="-84.194974">
        <ele>1901.9</ele>
      </trkpt>
      <trkpt lat="10.156123" lon="-84.19488">
        <ele>1901.1</ele>
      </trkpt>
      <trkpt lat="10.155938" lon="-84.194769">
        <ele>1899.4</ele>
      </trkpt>
      <trkpt lat="10.155784" lon="-84.194681">
        <ele>1898</ele>
      </trkpt>
      <trkpt lat="10.155718" lon="-84.194649">
        <ele>1896.8</ele>
      </trkpt>
      <trkpt lat="10.15522" lon="-84.194518">
        <ele>1891.5</ele>
      </trkpt>
      <trkpt lat="10.154704" lon="-84.194482">
        <ele>1887</ele>
      </trkpt>
      <trkpt lat="10.154591" lon="-84.194476">
        <ele>1886.1</ele>
      </trkpt>
      <trkpt lat="10.152339" lon="-84.194513">
        <ele>1871.7</ele>
      </trkpt>
      <trkpt lat="10.151576" lon="-84.194524">
        <ele>1864.6</ele>
      </trkpt>
      <trkpt lat="10.149977" lon="-84.194545">
        <ele>1851.3</ele>
      </trkpt>
      <trkpt lat="10.149303" lon="-84.194553">
        <ele>1847.4</ele>
      </trkpt>
      <trkpt lat="10.146285" lon="-84.194632">
        <ele>1822.3</ele>
      </trkpt>
      <trkpt lat="10.145515" lon="-84.194628">
        <ele>1817</ele>
      </trkpt>
      <trkpt lat="10.145452" lon="-84.194629">
        <ele>1816.2</ele>
      </trkpt>
      <trkpt lat="10.144872" lon="-84.194634">
        <ele>1811.9</ele>
      </trkpt>
      <trkpt lat="10.144599" lon="-84.194639">
        <ele>1810</ele>
      </trkpt>
      <trkpt lat="10.143231" lon="-84.194655">
        <ele>1801</ele>
      </trkpt>
      <trkpt lat="10.142777" lon="-84.194653">
        <ele>1797.3</ele>
      </trkpt>
      <trkpt lat="10.140869" lon="-84.194665">
        <ele>1783.8</ele>
      </trkpt>
      <trkpt lat="10.140653" lon="-84.194719">
        <ele>1782.5</ele>
      </trkpt>
      <trkpt lat="10.14016" lon="-84.194891">
        <ele>1779.8</ele>
      </trkpt>
      <trkpt lat="10.137311" lon="-84.196333">
        <ele>1738.5</ele>
      </trkpt>
      <trkpt lat="10.137151" lon="-84.196378">
        <ele>1737.1</ele>
      </trkpt>
      <trkpt lat="10.136986" lon="-84.19637">
        <ele>1735.7</ele>
      </trkpt>
      <trkpt lat="10.136831" lon="-84.196313">
        <ele>1734.4</ele>
      </trkpt>
      <trkpt lat="10.1367" lon="-84.19621">
        <ele>1733.2</ele>
      </trkpt>
      <trkpt lat="10.136606" lon="-84.196071">
        <ele>1732.1</ele>
      </trkpt>
      <trkpt lat="10.136189" lon="-84.194475">
        <ele>1721.5</ele>
      </trkpt>
      <trkpt lat="10.136037" lon="-84.194143">
        <ele>1720.7</ele>
      </trkpt>
      <trkpt lat="10.135867" lon="-84.194027">
        <ele>1720.5</ele>
      </trkpt>
      <trkpt lat="10.13567" lon="-84.193975">
        <ele>1720.3</ele>
      </trkpt>
      <trkpt lat="10.135466" lon="-84.193992">
        <ele>1720.2</ele>
      </trkpt>
      <trkpt lat="10.135282" lon="-84.194051">
        <ele>1720.1</ele>
      </trkpt>
      <trkpt lat="10.13515" lon="-84.194191">
        <ele>1719.7</ele>
      </trkpt>
      <trkpt lat="10.135055" lon="-84.194454">
        <ele>1718.6</ele>
      </trkpt>
      <trkpt lat="10.13497" lon="-84.195135">
        <ele>1714.4</ele>
      </trkpt>
      <trkpt lat="10.134935" lon="-84.195302">
        <ele>1713.3</ele>
      </trkpt>
      <trkpt lat="10.134833" lon="-84.195462">
        <ele>1710.5</ele>
      </trkpt>
      <trkpt lat="10.13468" lon="-84.195586">
        <ele>1707.6</ele>
      </trkpt>
      <trkpt lat="10.134405" lon="-84.19587">
        <ele>1702</ele>
      </trkpt>
      <trkpt lat="10.134163" lon="-84.196146">
        <ele>1697.7</ele>
      </trkpt>
      <trkpt lat="10.134095" lon="-84.196537">
        <ele>1694.2</ele>
      </trkpt>
      <trkpt lat="10.134092" lon="-84.196967">
        <ele>1691.7</ele>
      </trkpt>
      <trkpt lat="10.134094" lon="-84.197408">
        <ele>1691.4</ele>
      </trkpt>
      <trkpt lat="10.134109" lon="-84.198183">
        <ele>1691.3</ele>
      </trkpt>
      <trkpt lat="10.134135" lon="-84.201145">
        <ele>1697.5</ele>
      </trkpt>
      <trkpt lat="10.13419" lon="-84.201404">
        <ele>1697.8</ele>
      </trkpt>
      <trkpt lat="10.134317" lon="-84.201635">
        <ele>1698.1</ele>
      </trkpt>
      <trkpt lat="10.134549" lon="-84.201853">
        <ele>1698.8</ele>
      </trkpt>
      <trkpt lat="10.135334" lon="-84.202275">
        <ele>1701.3</ele>
      </trkpt>
      <trkpt lat="10.135397" lon="-84.202375">
        <ele>1701.7</ele>
      </trkpt>
      <trkpt lat="10.135408" lon="-84.202495">
        <ele>1702.2</ele>
      </trkpt>
      <trkpt lat="10.135388" lon="-84.202609">
        <ele>1702.7</ele>
      </trkpt>
      <trkpt lat="10.135258" lon="-84.202748">
        <ele>1703.6</ele>
      </trkpt>
      <trkpt lat="10.135093" lon="-84.20282">
        <ele>1704</ele>
      </trkpt>
      <trkpt lat="10.134045" lon="-84.202722">
        <ele>1703.9</ele>
      </trkpt>
      <trkpt lat="10.133427" lon="-84.202841">
        <ele>1699.1</ele>
      </trkpt>
      <trkpt lat="10.132948" lon="-84.203011">
        <ele>1693.4</ele>
      </trkpt>
      <trkpt lat="10.132535" lon="-84.20326">
        <ele>1686.2</ele>
      </trkpt>
      <trkpt lat="10.132225" lon="-84.203532">
        <ele>1680.2</ele>
      </trkpt>
      <trkpt lat="10.129037" lon="-84.206331">
        <ele>1630.7</ele>
      </trkpt>
      <trkpt lat="10.128927" lon="-84.206406">
        <ele>1629.7</ele>
      </trkpt>
      <trkpt lat="10.12859" lon="-84.206686">
        <ele>1626.4</ele>
      </trkpt>
      <trkpt lat="10.128252" lon="-84.206914">
        <ele>1623.8</ele>
      </trkpt>
      <trkpt lat="10.124522" lon="-84.209408">
        <ele>1587.1</ele>
      </trkpt>
      <trkpt lat="10.124426" lon="-84.209455">
        <ele>1586.3</ele>
      </trkpt>
      <trkpt lat="10.124157" lon="-84.209576">
        <ele>1584.1</ele>
      </trkpt>
      <trkpt lat="10.12383" lon="-84.209725">
        <ele>1581.9</ele>
      </trkpt>
      <trkpt lat="10.123655" lon="-84.209739">
        <ele>1581.2</ele>
      </trkpt>
      <trkpt lat="10.123006" lon="-84.209449">
        <ele>1577.1</ele>
      </trkpt>
      <trkpt lat="10.12263" lon="-84.209323">
        <ele>1574.7</ele>
      </trkpt>
      <trkpt lat="10.121995" lon="-84.209267">
        <ele>1568.8</ele>
      </trkpt>
      <trkpt lat="10.121577" lon="-84.209272">
        <ele>1564.5</ele>
      </trkpt>
      <trkpt lat="10.12006" lon="-84.209449">
        <ele>1540.9</ele>
      </trkpt>
      <trkpt lat="10.118267" lon="-84.20961">
        <ele>1511.9</ele>
      </trkpt>
      <trkpt lat="10.117848" lon="-84.209585">
        <ele>1507.3</ele>
      </trkpt>
      <trkpt lat="10.117517" lon="-84.209496">
        <ele>1504.5</ele>
      </trkpt>
      <trkpt lat="10.117094" lon="-84.209356">
        <ele>1501.6</ele>
      </trkpt>
      <trkpt lat="10.116878" lon="-84.209415">
        <ele>1500.5</ele>
      </trkpt>
      <trkpt lat="10.11605" lon="-84.209945">
        <ele>1495.3</ele>
      </trkpt>
      <trkpt lat="10.115738" lon="-84.210305">
        <ele>1491</ele>
      </trkpt>
      <trkpt lat="10.115688" lon="-84.210585">
        <ele>1488.1</ele>
      </trkpt>
      <trkpt lat="10.115675" lon="-84.210886">
        <ele>1485.1</ele>
      </trkpt>
      <trkpt lat="10.115584" lon="-84.211303">
        <ele>1481.6</ele>
      </trkpt>
      <trkpt lat="10.115309" lon="-84.212068">
        <ele>1477.1</ele>
      </trkpt>
      <trkpt lat="10.115183" lon="-84.212298">
        <ele>1476.6</ele>
      </trkpt>
      <trkpt lat="10.114857" lon="-84.212716">
        <ele>1474.8</ele>
      </trkpt>
      <trkpt lat="10.114479" lon="-84.21305">
        <ele>1472.9</ele>
      </trkpt>
      <trkpt lat="10.114184" lon="-84.213337">
        <ele>1470.4</ele>
      </trkpt>
      <trkpt lat="10.114003" lon="-84.213549">
        <ele>1467.9</ele>
      </trkpt>
      <trkpt lat="10.113967" lon="-84.213613">
        <ele>1467</ele>
      </trkpt>
      <trkpt lat="10.11394" lon="-84.213684">
        <ele>1465.8</ele>
      </trkpt>
      <trkpt lat="10.113905" lon="-84.213833">
        <ele>1464.6</ele>
      </trkpt>
      <trkpt lat="10.113916" lon="-84.214012">
        <ele>1463.4</ele>
      </trkpt>
      <trkpt lat="10.114155" lon="-84.214784">
        <ele>1455.3</ele>
      </trkpt>
      <trkpt lat="10.114163" lon="-84.214934">
        <ele>1454.1</ele>
      </trkpt>
      <trkpt lat="10.114124" lon="-84.215106">
        <ele>1453</ele>
      </trkpt>
      <trkpt lat="10.113718" lon="-84.215683">
        <ele>1446.4</ele>
      </trkpt>
      <trkpt lat="10.113643" lon="-84.215922">
        <ele>1445</ele>
      </trkpt>
      <trkpt lat="10.113653" lon="-84.216078">
        <ele>1444.4</ele>
      </trkpt>
      <trkpt lat="10.113716" lon="-84.216286">
        <ele>1443.1</ele>
      </trkpt>
      <trkpt lat="10.113788" lon="-84.21654">
        <ele>1441.9</ele>
      </trkpt>
      <trkpt lat="10.113892" lon="-84.216991">
        <ele>1436.7</ele>
      </trkpt>
      <trkpt lat="10.11401" lon="-84.217412">
        <ele>1431.1</ele>
      </trkpt>
      <trkpt lat="10.114107" lon="-84.21786">
        <ele>1424.3</ele>
      </trkpt>
      <trkpt lat="10.11435" lon="-84.219837">
        <ele>1419.3</ele>
      </trkpt>
      <trkpt lat="10.114432" lon="-84.220191">
        <ele>1420.4</ele>
      </trkpt>
      <trkpt lat="10.114542" lon="-84.220481">
        <ele>1422.2</ele>
      </trkpt>
      <trkpt lat="10.114555" lon="-84.220751">
        <ele>1423.5</ele>
      </trkpt>
      <trkpt lat="10.114498" lon="-84.220931">
        <ele>1424.8</ele>
      </trkpt>
      <trkpt lat="10.113672" lon="-84.222272">
        <ele>1428.7</ele>
      </trkpt>
      <trkpt lat="10.113248" lon="-84.222654">
        <ele>1427.3</ele>
      </trkpt>
      <trkpt lat="10.11272" lon="-84.223039">
        <ele>1428.6</ele>
      </trkpt>
      <trkpt lat="10.112588" lon="-84.22316">
        <ele>1429.1</ele>
      </trkpt>
      <trkpt lat="10.112512" lon="-84.223326">
        <ele>1430.3</ele>
      </trkpt>
      <trkpt lat="10.112455" lon="-84.223519">
        <ele>1431.7</ele>
      </trkpt>
      <trkpt lat="10.112386" lon="-84.223623">
        <ele>1432.5</ele>
      </trkpt>
      <trkpt lat="10.112313" lon="-84.223653">
        <ele>1433.3</ele>
      </trkpt>
      <trkpt lat="10.112234" lon="-84.223661">
        <ele>1434.1</ele>
      </trkpt>
      <trkpt lat="10.112046" lon="-84.223627">
        <ele>1435.6</ele>
      </trkpt>
      <trkpt lat="10.111976" lon="-84.223635">
        <ele>1436</ele>
      </trkpt>
      <trkpt lat="10.111625" lon="-84.223678">
        <ele>1437.4</ele>
      </trkpt>
      <trkpt lat="10.111344" lon="-84.223807">
        <ele>1438.1</ele>
      </trkpt>
      <trkpt lat="10.111052" lon="-84.224123">
        <ele>1437.9</ele>
      </trkpt>
      <trkpt lat="10.110762" lon="-84.224634">
        <ele>1436.5</ele>
      </trkpt>
      <trkpt lat="10.110464" lon="-84.225569">
        <ele>1438.3</ele>
      </trkpt>
      <trkpt lat="10.109917" lon="-84.227284">
        <ele>1433</ele>
      </trkpt>
      <trkpt lat="10.10992" lon="-84.227454">
        <ele>1431.9</ele>
      </trkpt>
      <trkpt lat="10.109963" lon="-84.227618">
        <ele>1430.9</ele>
      </trkpt>
      <trkpt lat="10.110805" lon="-84.229193">
        <ele>1417.2</ele>
      </trkpt>
      <trkpt lat="10.110828" lon="-84.229385">
        <ele>1416.4</ele>
      </trkpt>
      <trkpt lat="10.110801" lon="-84.229576">
        <ele>1415.8</ele>
      </trkpt>
      <trkpt lat="10.110685" lon="-84.230051">
        <ele>1414.2</ele>
      </trkpt>
      <trkpt lat="10.110676" lon="-84.230159">
        <ele>1413.9</ele>
      </trkpt>
      <trkpt lat="10.110695" lon="-84.230266">
        <ele>1413.6</ele>
      </trkpt>
      <trkpt lat="10.11074" lon="-84.230365">
        <ele>1413.3</ele>
      </trkpt>
      <trkpt lat="10.111189" lon="-84.23089">
        <ele>1411.5</ele>
      </trkpt>
      <trkpt lat="10.111274" lon="-84.230938">
        <ele>1411.3</ele>
      </trkpt>
      <trkpt lat="10.111367" lon="-84.230964">
        <ele>1411</ele>
      </trkpt>
      <trkpt lat="10.112103" lon="-84.231035">
        <ele>1408.6</ele>
      </trkpt>
      <trkpt lat="10.112208" lon="-84.231064">
        <ele>1408.4</ele>
      </trkpt>
      <trkpt lat="10.112298" lon="-84.23111">
        <ele>1408.2</ele>
      </trkpt>
      <trkpt lat="10.113166" lon="-84.231522">
        <ele>1406.5</ele>
      </trkpt>
      <trkpt lat="10.113265" lon="-84.231578">
        <ele>1406.3</ele>
      </trkpt>
      <trkpt lat="10.113385" lon="-84.231711">
        <ele>1406.1</ele>
      </trkpt>
      <trkpt lat="10.113407" lon="-84.231771">
        <ele>1406</ele>
      </trkpt>
      <trkpt lat="10.113411" lon="-84.231835">
        <ele>1405.8</ele>
      </trkpt>
      <trkpt lat="10.113392" lon="-84.231922">
        <ele>1405.6</ele>
      </trkpt>
      <trkpt lat="10.112805" lon="-84.232885">
        <ele>1404.1</ele>
      </trkpt>
      <trkpt lat="10.112625" lon="-84.233044">
        <ele>1404</ele>
      </trkpt>
      <trkpt lat="10.112489" lon="-84.233127">
        <ele>1403.5</ele>
      </trkpt>
      <trkpt lat="10.112312" lon="-84.233156">
        <ele>1403</ele>
      </trkpt>
      <trkpt lat="10.112084" lon="-84.233125">
        <ele>1401.9</ele>
      </trkpt>
      <trkpt lat="10.1117" lon="-84.23304">
        <ele>1399.5</ele>
      </trkpt>
      <trkpt lat="10.111491" lon="-84.233033">
        <ele>1398.2</ele>
      </trkpt>
      <trkpt lat="10.111304" lon="-84.233048">
        <ele>1396.8</ele>
      </trkpt>
      <trkpt lat="10.111109" lon="-84.233087">
        <ele>1395.1</ele>
      </trkpt>
      <trkpt lat="10.110003" lon="-84.233495">
        <ele>1384.4</ele>
      </trkpt>
      <trkpt lat="10.109819" lon="-84.23359">
        <ele>1382.9</ele>
      </trkpt>
      <trkpt lat="10.109694" lon="-84.233732">
        <ele>1381.4</ele>
      </trkpt>
      <trkpt lat="10.109634" lon="-84.233867">
        <ele>1380.6</ele>
      </trkpt>
      <trkpt lat="10.109607" lon="-84.234045">
        <ele>1380</ele>
      </trkpt>
      <trkpt lat="10.109618" lon="-84.23421">
        <ele>1379.5</ele>
      </trkpt>
      <trkpt lat="10.110135" lon="-84.236292">
        <ele>1366.1</ele>
      </trkpt>
      <trkpt lat="10.110154" lon="-84.236501">
        <ele>1364.7</ele>
      </trkpt>
      <trkpt lat="10.110126" lon="-84.236677">
        <ele>1364.1</ele>
      </trkpt>
      <trkpt lat="10.110074" lon="-84.236842">
        <ele>1363.5</ele>
      </trkpt>
      <trkpt lat="10.109958" lon="-84.237007">
        <ele>1362.4</ele>
      </trkpt>
      <trkpt lat="10.109619" lon="-84.237367">
        <ele>1360.4</ele>
      </trkpt>
      <trkpt lat="10.109489" lon="-84.237543">
        <ele>1359.8</ele>
      </trkpt>
      <trkpt lat="10.109403" lon="-84.237718">
        <ele>1359.4</ele>
      </trkpt>
      <trkpt lat="10.109357" lon="-84.237845">
        <ele>1358.9</ele>
      </trkpt>
      <trkpt lat="10.10928" lon="-84.238808">
        <ele>1356.2</ele>
      </trkpt>
      <trkpt lat="10.109186" lon="-84.239187">
        <ele>1355.2</ele>
      </trkpt>
      <trkpt lat="10.109158" lon="-84.2393">
        <ele>1355</ele>
      </trkpt>
      <trkpt lat="10.109027" lon="-84.239476">
        <ele>1354.4</ele>
      </trkpt>
      <trkpt lat="10.108842" lon="-84.239683">
        <ele>1354</ele>
      </trkpt>
      <trkpt lat="10.10646" lon="-84.240659">
        <ele>1336.8</ele>
      </trkpt>
      <trkpt lat="10.1061" lon="-84.240739">
        <ele>1332.4</ele>
      </trkpt>
      <trkpt lat="10.105546" lon="-84.240809">
        <ele>1325.7</ele>
      </trkpt>
      <trkpt lat="10.103595" lon="-84.240972">
        <ele>1303.7</ele>
      </trkpt>
      <trkpt lat="10.102131" lon="-84.241086">
        <ele>1286.8</ele>
      </trkpt>
      <trkpt lat="10.101816" lon="-84.241142">
        <ele>1284.4</ele>
      </trkpt>
      <trkpt lat="10.101621" lon="-84.241223">
        <ele>1283</ele>
      </trkpt>
      <trkpt lat="10.101472" lon="-84.24131">
        <ele>1282.2</ele>
      </trkpt>
      <trkpt lat="10.10024" lon="-84.242272">
        <ele>1272.3</ele>
      </trkpt>
      <trkpt lat="10.099641" lon="-84.242739">
        <ele>1269.1</ele>
      </trkpt>
      <trkpt lat="10.099384" lon="-84.242945">
        <ele>1267.9</ele>
      </trkpt>
      <trkpt lat="10.099384" lon="-84.242945">
        <ele>1264</ele>
      </trkpt>
      <trkpt lat="10.099251" lon="-84.243052">
        <ele>1263.5</ele>
      </trkpt>
      <trkpt lat="10.099114" lon="-84.243333">
        <ele>1263.2</ele>
      </trkpt>
      <trkpt lat="10.099039" lon="-84.243486">
        <ele>1263.4</ele>
      </trkpt>
      <trkpt lat="10.098897" lon="-84.243801">
        <ele>1264</ele>
      </trkpt>
      <trkpt lat="10.098454" lon="-84.244424">
        <ele>1263.8</ele>
      </trkpt>
      <trkpt lat="10.098324" lon="-84.24455">
        <ele>1263.7</ele>
      </trkpt>
      <trkpt lat="10.098324" lon="-84.24455">
        <ele>1261.8</ele>
      </trkpt>
      <trkpt lat="10.098298" lon="-84.244575">
        <ele>1261.6</ele>
      </trkpt>
      <trkpt lat="10.09821" lon="-84.244645">
        <ele>1261.1</ele>
      </trkpt>
      <trkpt lat="10.097981" lon="-84.24474">
        <ele>1260</ele>
      </trkpt>
      <trkpt lat="10.097584" lon="-84.244968">
        <ele>1258.3</ele>
      </trkpt>
      <trkpt lat="10.097345" lon="-84.245124">
        <ele>1257.8</ele>
      </trkpt>
      <trkpt lat="10.096996" lon="-84.245296">
        <ele>1256.4</ele>
      </trkpt>
      <trkpt lat="10.096687" lon="-84.245448">
        <ele>1254.9</ele>
      </trkpt>
      <trkpt lat="10.096464" lon="-84.24552">
        <ele>1253.1</ele>
      </trkpt>
      <trkpt lat="10.095945" lon="-84.245653">
        <ele>1249.3</ele>
      </trkpt>
      <trkpt lat="10.095696" lon="-84.245743">
        <ele>1247.7</ele>
      </trkpt>
      <trkpt lat="10.095624" lon="-84.245776">
        <ele>1246.9</ele>
      </trkpt>
      <trkpt lat="10.095624" lon="-84.245776">
        <ele>1238.5</ele>
      </trkpt>
      <trkpt lat="10.094819" lon="-84.246148">
        <ele>1237.8</ele>
      </trkpt>
      <trkpt lat="10.094138" lon="-84.246369">
        <ele>1235.2</ele>
      </trkpt>
      <trkpt lat="10.093493" lon="-84.246635">
        <ele>1231</ele>
      </trkpt>
      <trkpt lat="10.093244" lon="-84.246766">
        <ele>1228.8</ele>
      </trkpt>
      <trkpt lat="10.092722" lon="-84.247255">
        <ele>1224.5</ele>
      </trkpt>
      <trkpt lat="10.092113" lon="-84.247944">
        <ele>1221.3</ele>
      </trkpt>
      <trkpt lat="10.091681" lon="-84.248392">
        <ele>1218.3</ele>
      </trkpt>
      <trkpt lat="10.091537" lon="-84.24851">
        <ele>1217</ele>
      </trkpt>
      <trkpt lat="10.090855" lon="-84.248901">
        <ele>1211.5</ele>
      </trkpt>
      <trkpt lat="10.090566" lon="-84.249057">
        <ele>1209.5</ele>
      </trkpt>
      <trkpt lat="10.090215" lon="-84.249324">
        <ele>1207.4</ele>
      </trkpt>
      <trkpt lat="10.090107" lon="-84.249481">
        <ele>1206.7</ele>
      </trkpt>
      <trkpt lat="10.090072" lon="-84.249572">
        <ele>1206.5</ele>
      </trkpt>
      <trkpt lat="10.090063" lon="-84.249799">
        <ele>1205.3</ele>
      </trkpt>
      <trkpt lat="10.090045" lon="-84.250008">
        <ele>1203.9</ele>
      </trkpt>
      <trkpt lat="10.089944" lon="-84.250248">
        <ele>1202.4</ele>
      </trkpt>
      <trkpt lat="10.089854" lon="-84.250374">
        <ele>1201.3</ele>
      </trkpt>
      <trkpt lat="10.089314" lon="-84.251263">
        <ele>1185.4</ele>
      </trkpt>
      <trkpt lat="10.089139" lon="-84.251683">
        <ele>1178.2</ele>
      </trkpt>
      <trkpt lat="10.089195" lon="-84.251702">
        <ele>1176.6</ele>
      </trkpt>
      <trkpt lat="10.089195" lon="-84.251702">
        <ele>1163</ele>
      </trkpt>
      <trkpt lat="10.089289" lon="-84.251735">
        <ele>1163</ele>
      </trkpt>
      <trkpt lat="10.089327" lon="-84.251754">
        <ele>1163</ele>
      </trkpt>
      <trkpt lat="10.089396" lon="-84.251789">
        <ele>1164.9</ele>
      </trkpt>
      <trkpt lat="10.089508" lon="-84.251868">
        <ele>1166.3</ele>
      </trkpt>
      <trkpt lat="10.089586" lon="-84.251955">
        <ele>1166.8</ele>
      </trkpt>
      <trkpt lat="10.090221" lon="-84.252716">
        <ele>1164.5</ele>
      </trkpt>
      <trkpt lat="10.090453" lon="-84.253003">
        <ele>1163.2</ele>
      </trkpt>
      <trkpt lat="10.09053" lon="-84.253112">
        <ele>1163</ele>
      </trkpt>
      <trkpt lat="10.090903" lon="-84.253737">
        <ele>1159.2</ele>
      </trkpt>
      <trkpt lat="10.09101" lon="-84.253894">
        <ele>1158.6</ele>
      </trkpt>
      <trkpt lat="10.091119" lon="-84.254073">
        <ele>1157.8</ele>
      </trkpt>
      <trkpt lat="10.091299" lon="-84.254424">
        <ele>1156.6</ele>
      </trkpt>
      <trkpt lat="10.091353" lon="-84.254584">
        <ele>1156.3</ele>
      </trkpt>
      <trkpt lat="10.091415" lon="-84.254875">
        <ele>1155.1</ele>
      </trkpt>
      <trkpt lat="10.09148" lon="-84.255029">
        <ele>1154.9</ele>
      </trkpt>
      <trkpt lat="10.091573" lon="-84.255192">
        <ele>1155.3</ele>
      </trkpt>
      <trkpt lat="10.091897" lon="-84.255585">
        <ele>1157.1</ele>
      </trkpt>
      <trkpt lat="10.091829" lon="-84.255644">
        <ele>1156.7</ele>
      </trkpt>
      <trkpt lat="10.091522" lon="-84.255939">
        <ele>1155.4</ele>
      </trkpt>
      <trkpt lat="10.091473" lon="-84.256001">
        <ele>1155.1</ele>
      </trkpt>
      <trkpt lat="10.091429" lon="-84.256086">
        <ele>1154.8</ele>
      </trkpt>
      <trkpt lat="10.09134" lon="-84.25636">
        <ele>1153.9</ele>
      </trkpt>
      <trkpt lat="10.091293" lon="-84.256424">
        <ele>1153.6</ele>
      </trkpt>
      <trkpt lat="10.091005" lon="-84.256724">
        <ele>1150.7</ele>
      </trkpt>
      <trkpt lat="10.090845" lon="-84.256846">
        <ele>1148.4</ele>
      </trkpt>
      <trkpt lat="10.090655" lon="-84.256972">
        <ele>1146.1</ele>
      </trkpt>
      <trkpt lat="10.090547" lon="-84.257031">
        <ele>1144.9</ele>
      </trkpt>
      <trkpt lat="10.090445" lon="-84.257067">
        <ele>1144.4</ele>
      </trkpt>
      <trkpt lat="10.090352" lon="-84.257085">
        <ele>1144</ele>
      </trkpt>
      <trkpt lat="10.090253" lon="-84.257081">
        <ele>1143.6</ele>
      </trkpt>
      <trkpt lat="10.09001" lon="-84.257004">
        <ele>1142.8</ele>
      </trkpt>
      <trkpt lat="10.089918" lon="-84.256996">
        <ele>1142.4</ele>
      </trkpt>
      <trkpt lat="10.089808" lon="-84.257015">
        <ele>1142.1</ele>
      </trkpt>
      <trkpt lat="10.089705" lon="-84.25707">
        <ele>1141.8</ele>
      </trkpt>
      <trkpt lat="10.089587" lon="-84.257159">
        <ele>1141.5</ele>
      </trkpt>
      <trkpt lat="10.089188" lon="-84.25751">
        <ele>1138.9</ele>
      </trkpt>
      <trkpt lat="10.08864" lon="-84.257994">
        <ele>1133.8</ele>
      </trkpt>
      <trkpt lat="10.08843" lon="-84.258255">
        <ele>1132.1</ele>
      </trkpt>
      <trkpt lat="10.088237" lon="-84.258554">
        <ele>1130.5</ele>
      </trkpt>
      <trkpt lat="10.087148" lon="-84.260921">
        <ele>1119.7</ele>
      </trkpt>
      <trkpt lat="10.087056" lon="-84.261083">
        <ele>1118.7</ele>
      </trkpt>
      <trkpt lat="10.086985" lon="-84.261184">
        <ele>1118.3</ele>
      </trkpt>
      <trkpt lat="10.086856" lon="-84.261303">
        <ele>1117.9</ele>
      </trkpt>
      <trkpt lat="10.086788" lon="-84.261349">
        <ele>1117.6</ele>
      </trkpt>
      <trkpt lat="10.086709" lon="-84.261373">
        <ele>1117.2</ele>
      </trkpt>
      <trkpt lat="10.086498" lon="-84.261384">
        <ele>1116.6</ele>
      </trkpt>
      <trkpt lat="10.085928" lon="-84.261329">
        <ele>1114.7</ele>
      </trkpt>
      <trkpt lat="10.085829" lon="-84.261344">
        <ele>1114.4</ele>
      </trkpt>
      <trkpt lat="10.08575" lon="-84.261389">
        <ele>1114</ele>
      </trkpt>
      <trkpt lat="10.085681" lon="-84.261457">
        <ele>1113.6</ele>
      </trkpt>
      <trkpt lat="10.085498" lon="-84.261728">
        <ele>1112.3</ele>
      </trkpt>
      <trkpt lat="10.085402" lon="-84.261832">
        <ele>1111.7</ele>
      </trkpt>
      <trkpt lat="10.085282" lon="-84.261926">
        <ele>1111.1</ele>
      </trkpt>
      <trkpt lat="10.08508" lon="-84.262024">
        <ele>1109.9</ele>
      </trkpt>
      <trkpt lat="10.084913" lon="-84.262071">
        <ele>1109.2</ele>
      </trkpt>
      <trkpt lat="10.084657" lon="-84.262113">
        <ele>1107.9</ele>
      </trkpt>
      <trkpt lat="10.084508" lon="-84.262159">
        <ele>1107.2</ele>
      </trkpt>
      <trkpt lat="10.084324" lon="-84.262243">
        <ele>1105.4</ele>
      </trkpt>
      <trkpt lat="10.083556" lon="-84.262598">
        <ele>1096.9</ele>
      </trkpt>
      <trkpt lat="10.082931" lon="-84.262865">
        <ele>1089.9</ele>
      </trkpt>
      <trkpt lat="10.082729" lon="-84.262961">
        <ele>1087.7</ele>
      </trkpt>
      <trkpt lat="10.082579" lon="-84.263051">
        <ele>1086.8</ele>
      </trkpt>
      <trkpt lat="10.082463" lon="-84.263141">
        <ele>1086</ele>
      </trkpt>
      <trkpt lat="10.082305" lon="-84.263303">
        <ele>1084.6</ele>
      </trkpt>
      <trkpt lat="10.081951" lon="-84.263777">
        <ele>1081</ele>
      </trkpt>
      <trkpt lat="10.081571" lon="-84.264394">
        <ele>1078.2</ele>
      </trkpt>
      <trkpt lat="10.081151" lon="-84.264923">
        <ele>1076</ele>
      </trkpt>
      <trkpt lat="10.081014" lon="-84.265132">
        <ele>1075.2</ele>
      </trkpt>
      <trkpt lat="10.080842" lon="-84.265468">
        <ele>1073.6</ele>
      </trkpt>
      <trkpt lat="10.080767" lon="-84.265656">
        <ele>1072.8</ele>
      </trkpt>
      <trkpt lat="10.08065" lon="-84.266053">
        <ele>1071.6</ele>
      </trkpt>
      <trkpt lat="10.080606" lon="-84.266158">
        <ele>1071.4</ele>
      </trkpt>
      <trkpt lat="10.08055" lon="-84.266234">
        <ele>1071.2</ele>
      </trkpt>
      <trkpt lat="10.080442" lon="-84.266331">
        <ele>1071</ele>
      </trkpt>
      <trkpt lat="10.080102" lon="-84.266533">
        <ele>1070.3</ele>
      </trkpt>
      <trkpt lat="10.079934" lon="-84.26659">
        <ele>1070</ele>
      </trkpt>
      <trkpt lat="10.079807" lon="-84.266605">
        <ele>1069.7</ele>
      </trkpt>
      <trkpt lat="10.079648" lon="-84.2666">
        <ele>1069.5</ele>
      </trkpt>
      <trkpt lat="10.079404" lon="-84.266539">
        <ele>1068.9</ele>
      </trkpt>
      <trkpt lat="10.079278" lon="-84.266525">
        <ele>1068.5</ele>
      </trkpt>
      <trkpt lat="10.079143" lon="-84.266536">
        <ele>1068.2</ele>
      </trkpt>
      <trkpt lat="10.079036" lon="-84.266577">
        <ele>1067.7</ele>
      </trkpt>
      <trkpt lat="10.078957" lon="-84.266646">
        <ele>1067.2</ele>
      </trkpt>
      <trkpt lat="10.078782" lon="-84.2669">
        <ele>1065.7</ele>
      </trkpt>
      <trkpt lat="10.078717" lon="-84.26703">
        <ele>1065.2</ele>
      </trkpt>
      <trkpt lat="10.078437" lon="-84.267842">
        <ele>1060.2</ele>
      </trkpt>
      <trkpt lat="10.078376" lon="-84.267949">
        <ele>1059.8</ele>
      </trkpt>
      <trkpt lat="10.078281" lon="-84.268057">
        <ele>1059.3</ele>
      </trkpt>
      <trkpt lat="10.077857" lon="-84.268445">
        <ele>1056.8</ele>
      </trkpt>
      <trkpt lat="10.07776" lon="-84.268506">
        <ele>1056.5</ele>
      </trkpt>
      <trkpt lat="10.077622" lon="-84.268541">
        <ele>1056.1</ele>
      </trkpt>
      <trkpt lat="10.077343" lon="-84.268548">
        <ele>1055.1</ele>
      </trkpt>
      <trkpt lat="10.077216" lon="-84.268568">
        <ele>1054.8</ele>
      </trkpt>
      <trkpt lat="10.077103" lon="-84.268607">
        <ele>1054.5</ele>
      </trkpt>
      <trkpt lat="10.077012" lon="-84.268678">
        <ele>1054.1</ele>
      </trkpt>
      <trkpt lat="10.076879" lon="-84.26885">
        <ele>1053.6</ele>
      </trkpt>
      <trkpt lat="10.075656" lon="-84.2709">
        <ele>1033</ele>
      </trkpt>
      <trkpt lat="10.075429" lon="-84.271492">
        <ele>1026.7</ele>
      </trkpt>
      <trkpt lat="10.075381" lon="-84.271615">
        <ele>1025.7</ele>
      </trkpt>
      <trkpt lat="10.075324" lon="-84.271714">
        <ele>1024.9</ele>
      </trkpt>
      <trkpt lat="10.074574" lon="-84.272804">
        <ele>1020.2</ele>
      </trkpt>
      <trkpt lat="10.0745" lon="-84.272975">
        <ele>1020.4</ele>
      </trkpt>
      <trkpt lat="10.074388" lon="-84.27332">
        <ele>1020.8</ele>
      </trkpt>
      <trkpt lat="10.074298" lon="-84.273542">
        <ele>1021</ele>
      </trkpt>
      <trkpt lat="10.074033" lon="-84.274002">
        <ele>1021.5</ele>
      </trkpt>
      <trkpt lat="10.073815" lon="-84.27456">
        <ele>1021.9</ele>
      </trkpt>
      <trkpt lat="10.073655" lon="-84.275038">
        <ele>1021.3</ele>
      </trkpt>
      <trkpt lat="10.073653" lon="-84.275154">
        <ele>1020.7</ele>
      </trkpt>
      <trkpt lat="10.074093" lon="-84.275667">
        <ele>1016.1</ele>
      </trkpt>
      <trkpt lat="10.074199" lon="-84.27574">
        <ele>1015.5</ele>
      </trkpt>
      <trkpt lat="10.074344" lon="-84.275749">
        <ele>1014.8</ele>
      </trkpt>
      <trkpt lat="10.074438" lon="-84.275711">
        <ele>1014.2</ele>
      </trkpt>
      <trkpt lat="10.074545" lon="-84.275635">
        <ele>1013.5</ele>
      </trkpt>
      <trkpt lat="10.074628" lon="-84.275606">
        <ele>1012.9</ele>
      </trkpt>
      <trkpt lat="10.0747" lon="-84.275604">
        <ele>1012.2</ele>
      </trkpt>
      <trkpt lat="10.074785" lon="-84.275613">
        <ele>1011.6</ele>
      </trkpt>
      <trkpt lat="10.07486" lon="-84.275638">
        <ele>1011.1</ele>
      </trkpt>
      <trkpt lat="10.074934" lon="-84.275685">
        <ele>1010.8</ele>
      </trkpt>
      <trkpt lat="10.07499" lon="-84.275746">
        <ele>1010.5</ele>
      </trkpt>
      <trkpt lat="10.075019" lon="-84.275784">
        <ele>1010.4</ele>
      </trkpt>
      <trkpt lat="10.07504" lon="-84.275826">
        <ele>1010.2</ele>
      </trkpt>
      <trkpt lat="10.075051" lon="-84.275853">
        <ele>1010.5</ele>
      </trkpt>
      <trkpt lat="10.075111" lon="-84.275967">
        <ele>1010.8</ele>
      </trkpt>
      <trkpt lat="10.075375" lon="-84.276487">
        <ele>1012.6</ele>
      </trkpt>
      <trkpt lat="10.075544" lon="-84.277227">
        <ele>1016.2</ele>
      </trkpt>
      <trkpt lat="10.0756" lon="-84.277319">
        <ele>1016.8</ele>
      </trkpt>
      <trkpt lat="10.075646" lon="-84.277367">
        <ele>1017.3</ele>
      </trkpt>
      <trkpt lat="10.075732" lon="-84.277404">
        <ele>1017.7</ele>
      </trkpt>
      <trkpt lat="10.075924" lon="-84.27744">
        <ele>1018.6</ele>
      </trkpt>
      <trkpt lat="10.07611" lon="-84.277468">
        <ele>1019.5</ele>
      </trkpt>
      <trkpt lat="10.076242" lon="-84.277464">
        <ele>1020</ele>
      </trkpt>
      <trkpt lat="10.076328" lon="-84.27744">
        <ele>1020.4</ele>
      </trkpt>
      <trkpt lat="10.076404" lon="-84.277388">
        <ele>1020.7</ele>
      </trkpt>
      <trkpt lat="10.076494" lon="-84.277273">
        <ele>1020.9</ele>
      </trkpt>
      <trkpt lat="10.076538" lon="-84.277187">
        <ele>1021.2</ele>
      </trkpt>
      <trkpt lat="10.076646" lon="-84.276901">
        <ele>1021.1</ele>
      </trkpt>
      <trkpt lat="10.076807" lon="-84.276523">
        <ele>1020.7</ele>
      </trkpt>
      <trkpt lat="10.076878" lon="-84.276413">
        <ele>1020.5</ele>
      </trkpt>
      <trkpt lat="10.077116" lon="-84.276146">
        <ele>1020.5</ele>
      </trkpt>
      <trkpt lat="10.077369" lon="-84.275989">
        <ele>1020.8</ele>
      </trkpt>
      <trkpt lat="10.077705" lon="-84.275793">
        <ele>1021.3</ele>
      </trkpt>
      <trkpt lat="10.078052" lon="-84.275632">
        <ele>1022.8</ele>
      </trkpt>
      <trkpt lat="10.078196" lon="-84.275565">
        <ele>1023.5</ele>
      </trkpt>
      <trkpt lat="10.078376" lon="-84.275497">
        <ele>1024.6</ele>
      </trkpt>
      <trkpt lat="10.078945" lon="-84.275368">
        <ele>1026.8</ele>
      </trkpt>
      <trkpt lat="10.079181" lon="-84.275323">
        <ele>1027.4</ele>
      </trkpt>
      <trkpt lat="10.079212" lon="-84.275318">
        <ele>1028</ele>
      </trkpt>
      <trkpt lat="10.079212" lon="-84.275318">
        <ele>1038.5</ele>
      </trkpt>
      <trkpt lat="10.080916" lon="-84.274998">
        <ele>1041.3</ele>
      </trkpt>
      <trkpt lat="10.081314" lon="-84.274923">
        <ele>1042.8</ele>
      </trkpt>
      <trkpt lat="10.082041" lon="-84.275036">
        <ele>1046.1</ele>
      </trkpt>
      <trkpt lat="10.082724" lon="-84.275082">
        <ele>1048.6</ele>
      </trkpt>
      <trkpt lat="10.082886" lon="-84.275101">
        <ele>1049</ele>
      </trkpt>
      <trkpt lat="10.082896" lon="-84.275102">
        <ele>1049.2</ele>
      </trkpt>
      <trkpt lat="10.083063" lon="-84.275119">
        <ele>1049.5</ele>
      </trkpt>
      <trkpt lat="10.083188" lon="-84.275132">
        <ele>1049.6</ele>
      </trkpt>
      <trkpt lat="10.083922" lon="-84.275224">
        <ele>1050.2</ele>
      </trkpt>
      <trkpt lat="10.084466" lon="-84.275295">
        <ele>1050.4</ele>
      </trkpt>
      <trkpt lat="10.084745" lon="-84.275325">
        <ele>1050.3</ele>
      </trkpt>
      <trkpt lat="10.085095" lon="-84.275368">
        <ele>1050.2</ele>
      </trkpt>
      <trkpt lat="10.085263" lon="-84.275554">
        <ele>1049.7</ele>
      </trkpt>
      <trkpt lat="10.085353" lon="-84.275967">
        <ele>1048.4</ele>
      </trkpt>
      <trkpt lat="10.085395" lon="-84.276053">
        <ele>1048.1</ele>
      </trkpt>
      <trkpt lat="10.085453" lon="-84.276092">
        <ele>1047.8</ele>
      </trkpt>
      <trkpt lat="10.085562" lon="-84.27612">
        <ele>1047.5</ele>
      </trkpt>
      <trkpt lat="10.085672" lon="-84.276089">
        <ele>1047.2</ele>
      </trkpt>
      <trkpt lat="10.086053" lon="-84.275849">
        <ele>1046</ele>
      </trkpt>
      <trkpt lat="10.086169" lon="-84.275825">
        <ele>1045.7</ele>
      </trkpt>
      <trkpt lat="10.086316" lon="-84.275867">
        <ele>1045.4</ele>
      </trkpt>
      <trkpt lat="10.087209" lon="-84.276794">
        <ele>1045.4</ele>
      </trkpt>
      <trkpt lat="10.087275" lon="-84.276962">
        <ele>1045.6</ele>
      </trkpt>
      <trkpt lat="10.087301" lon="-84.277218">
        <ele>1046.1</ele>
      </trkpt>
      <trkpt lat="10.08722" lon="-84.277378">
        <ele>1046.3</ele>
      </trkpt>
      <trkpt lat="10.087117" lon="-84.277456">
        <ele>1046.6</ele>
      </trkpt>
      <trkpt lat="10.087036" lon="-84.277459">
        <ele>1046.9</ele>
      </trkpt>
      <trkpt lat="10.086552" lon="-84.277319">
        <ele>1048</ele>
      </trkpt>
      <trkpt lat="10.086396" lon="-84.277386">
        <ele>1048.2</ele>
      </trkpt>
      <trkpt lat="10.086098" lon="-84.277614">
        <ele>1048.9</ele>
      </trkpt>
      <trkpt lat="10.085936" lon="-84.277767">
        <ele>1049.2</ele>
      </trkpt>
      <trkpt lat="10.085876" lon="-84.277893">
        <ele>1049.3</ele>
      </trkpt>
      <trkpt lat="10.085884" lon="-84.27803">
        <ele>1049.4</ele>
      </trkpt>
      <trkpt lat="10.086026" lon="-84.278245">
        <ele>1049.6</ele>
      </trkpt>
      <trkpt lat="10.086475" lon="-84.27876">
        <ele>1049.7</ele>
      </trkpt>
      <trkpt lat="10.086589" lon="-84.278769">
        <ele>1049.7</ele>
      </trkpt>
      <trkpt lat="10.087061" lon="-84.27876">
        <ele>1052.3</ele>
      </trkpt>
      <trkpt lat="10.087698" lon="-84.27888">
        <ele>1058.8</ele>
      </trkpt>
      <trkpt lat="10.087812" lon="-84.278934">
        <ele>1059.7</ele>
      </trkpt>
      <trkpt lat="10.087925" lon="-84.279049">
        <ele>1060.8</ele>
      </trkpt>
      <trkpt lat="10.087957" lon="-84.279113">
        <ele>1062.1</ele>
      </trkpt>
      <trkpt lat="10.088195" lon="-84.279583">
        <ele>1067.9</ele>
      </trkpt>
      <trkpt lat="10.088361" lon="-84.279808">
        <ele>1070.2</ele>
      </trkpt>
      <trkpt lat="10.088469" lon="-84.2799">
        <ele>1070.6</ele>
      </trkpt>
      <trkpt lat="10.089116" lon="-84.280161">
        <ele>1074.3</ele>
      </trkpt>
      <trkpt lat="10.089668" lon="-84.280422">
        <ele>1077.9</ele>
      </trkpt>
      <trkpt lat="10.089871" lon="-84.280629">
        <ele>1079.9</ele>
      </trkpt>
      <trkpt lat="10.089929" lon="-84.280739">
        <ele>1080.8</ele>
      </trkpt>
      <trkpt lat="10.089583" lon="-84.281474">
        <ele>1085.7</ele>
      </trkpt>
      <trkpt lat="10.08926" lon="-84.282133">
        <ele>1084.2</ele>
      </trkpt>
      <trkpt lat="10.089158" lon="-84.2823">
        <ele>1083.1</ele>
      </trkpt>
      <trkpt lat="10.089095" lon="-84.282373">
        <ele>1082.5</ele>
      </trkpt>
      <trkpt lat="10.08895" lon="-84.282458">
        <ele>1081.8</ele>
      </trkpt>
      <trkpt lat="10.087978" lon="-84.282748">
        <ele>1075.7</ele>
      </trkpt>
      <trkpt lat="10.087751" lon="-84.282842">
        <ele>1075.1</ele>
      </trkpt>
      <trkpt lat="10.087683" lon="-84.28294">
        <ele>1074.9</ele>
      </trkpt>
      <trkpt lat="10.087656" lon="-84.283012">
        <ele>1074.7</ele>
      </trkpt>
      <trkpt lat="10.087667" lon="-84.283114">
        <ele>1074.6</ele>
      </trkpt>
      <trkpt lat="10.087702" lon="-84.283211">
        <ele>1074.5</ele>
      </trkpt>
      <trkpt lat="10.087874" lon="-84.283461">
        <ele>1074.1</ele>
      </trkpt>
      <trkpt lat="10.089066" lon="-84.285123">
        <ele>1073</ele>
      </trkpt>
      <trkpt lat="10.089261" lon="-84.285315">
        <ele>1073</ele>
      </trkpt>
      <trkpt lat="10.089352" lon="-84.285362">
        <ele>1073</ele>
      </trkpt>
      <trkpt lat="10.089542" lon="-84.28542">
        <ele>1073</ele>
      </trkpt>
      <trkpt lat="10.090133" lon="-84.285505">
        <ele>1073.2</ele>
      </trkpt>
      <trkpt lat="10.091228" lon="-84.285554">
        <ele>1074.3</ele>
      </trkpt>
      <trkpt lat="10.091591" lon="-84.285478">
        <ele>1075.1</ele>
      </trkpt>
      <trkpt lat="10.091916" lon="-84.285431">
        <ele>1075.9</ele>
      </trkpt>
      <trkpt lat="10.092163" lon="-84.285476">
        <ele>1076.4</ele>
      </trkpt>
      <trkpt lat="10.092261" lon="-84.285543">
        <ele>1076.7</ele>
      </trkpt>
      <trkpt lat="10.092343" lon="-84.285655">
        <ele>1076.9</ele>
      </trkpt>
      <trkpt lat="10.092409" lon="-84.285811">
        <ele>1077.1</ele>
      </trkpt>
      <trkpt lat="10.092544" lon="-84.285951">
        <ele>1077.6</ele>
      </trkpt>
      <trkpt lat="10.092826" lon="-84.286149">
        <ele>1078.2</ele>
      </trkpt>
      <trkpt lat="10.093124" lon="-84.286414">
        <ele>1078.9</ele>
      </trkpt>
      <trkpt lat="10.093384" lon="-84.286636">
        <ele>1079</ele>
      </trkpt>
      <trkpt lat="10.09355" lon="-84.286778">
        <ele>1079</ele>
      </trkpt>
      <trkpt lat="10.093818" lon="-84.287007">
        <ele>1080.3</ele>
      </trkpt>
      <trkpt lat="10.094022" lon="-84.287245">
        <ele>1082.8</ele>
      </trkpt>
      <trkpt lat="10.094375" lon="-84.287656">
        <ele>1085.4</ele>
      </trkpt>
      <trkpt lat="10.095033" lon="-84.288339">
        <ele>1087.7</ele>
      </trkpt>
      <trkpt lat="10.09517" lon="-84.288537">
        <ele>1087.2</ele>
      </trkpt>
      <trkpt lat="10.095302" lon="-84.288722">
        <ele>1086.1</ele>
      </trkpt>
      <trkpt lat="10.095371" lon="-84.288912">
        <ele>1084.8</ele>
      </trkpt>
      <trkpt lat="10.095333" lon="-84.289112">
        <ele>1084.4</ele>
      </trkpt>
      <trkpt lat="10.09489" lon="-84.289823">
        <ele>1085.7</ele>
      </trkpt>
      <trkpt lat="10.094847" lon="-84.28993">
        <ele>1085.9</ele>
      </trkpt>
      <trkpt lat="10.094826" lon="-84.290138">
        <ele>1086.3</ele>
      </trkpt>
      <trkpt lat="10.094936" lon="-84.292137">
        <ele>1090.6</ele>
      </trkpt>
      <trkpt lat="10.09494" lon="-84.292554">
        <ele>1091.1</ele>
      </trkpt>
      <trkpt lat="10.094946" lon="-84.292723">
        <ele>1091.3</ele>
      </trkpt>
      <trkpt lat="10.094951" lon="-84.293042">
        <ele>1091.5</ele>
      </trkpt>
      <trkpt lat="10.094955" lon="-84.293262">
        <ele>1091.4</ele>
      </trkpt>
      <trkpt lat="10.094915" lon="-84.29378">
        <ele>1089.9</ele>
      </trkpt>
      <trkpt lat="10.094813" lon="-84.294104">
        <ele>1088.4</ele>
      </trkpt>
      <trkpt lat="10.0946" lon="-84.294602">
        <ele>1085.3</ele>
      </trkpt>
      <trkpt lat="10.094384" lon="-84.295029">
        <ele>1082.1</ele>
      </trkpt>
      <trkpt lat="10.094318" lon="-84.295125">
        <ele>1081.4</ele>
      </trkpt>
      <trkpt lat="10.094258" lon="-84.295193">
        <ele>1080.8</ele>
      </trkpt>
      <trkpt lat="10.094151" lon="-84.295276">
        <ele>1080.2</ele>
      </trkpt>
      <trkpt lat="10.093918" lon="-84.295383">
        <ele>1079.1</ele>
      </trkpt>
      <trkpt lat="10.093583" lon="-84.295481">
        <ele>1077.2</ele>
      </trkpt>
      <trkpt lat="10.09316" lon="-84.295617">
        <ele>1074.6</ele>
      </trkpt>
      <trkpt lat="10.092833" lon="-84.295727">
        <ele>1072.9</ele>
      </trkpt>
      <trkpt lat="10.087992" lon="-84.297338">
        <ele>1051.4</ele>
      </trkpt>
      <trkpt lat="10.087866" lon="-84.297404">
        <ele>1051.1</ele>
      </trkpt>
      <trkpt lat="10.087736" lon="-84.297495">
        <ele>1050.7</ele>
      </trkpt>
      <trkpt lat="10.087648" lon="-84.297578">
        <ele>1050.4</ele>
      </trkpt>
      <trkpt lat="10.087531" lon="-84.297698">
        <ele>1050.1</ele>
      </trkpt>
      <trkpt lat="10.087376" lon="-84.297913">
        <ele>1049.6</ele>
      </trkpt>
      <trkpt lat="10.087308" lon="-84.29808">
        <ele>1048.8</ele>
      </trkpt>
      <trkpt lat="10.087183" lon="-84.298402">
        <ele>1046.6</ele>
      </trkpt>
      <trkpt lat="10.08701" lon="-84.298889">
        <ele>1043.2</ele>
      </trkpt>
      <trkpt lat="10.086934" lon="-84.29905">
        <ele>1042.6</ele>
      </trkpt>
      <trkpt lat="10.08669" lon="-84.299382">
        <ele>1040.3</ele>
      </trkpt>
      <trkpt lat="10.086528" lon="-84.299539">
        <ele>1039.2</ele>
      </trkpt>
      <trkpt lat="10.085742" lon="-84.300114">
        <ele>1037.3</ele>
      </trkpt>
      <trkpt lat="10.084997" lon="-84.300726">
        <ele>1038.3</ele>
      </trkpt>
      <trkpt lat="10.084184" lon="-84.301542">
        <ele>1040</ele>
      </trkpt>
      <trkpt lat="10.083478" lon="-84.302301">
        <ele>1038.2</ele>
      </trkpt>
      <trkpt lat="10.083092" lon="-84.302715">
        <ele>1036.1</ele>
      </trkpt>
      <trkpt lat="10.082376" lon="-84.303455">
        <ele>1034.3</ele>
      </trkpt>
      <trkpt lat="10.081695" lon="-84.304163">
        <ele>1035</ele>
      </trkpt>
      <trkpt lat="10.081579" lon="-84.304283">
        <ele>1035</ele>
      </trkpt>
      <trkpt lat="10.081442" lon="-84.304414">
        <ele>1034.3</ele>
      </trkpt>
      <trkpt lat="10.081442" lon="-84.304414">
        <ele>1026</ele>
      </trkpt>
      <trkpt lat="10.081242" lon="-84.304605">
        <ele>1021.5</ele>
      </trkpt>
      <trkpt lat="10.080864" lon="-84.304978">
        <ele>1023.3</ele>
      </trkpt>
      <trkpt lat="10.080629" lon="-84.305267">
        <ele>1025.4</ele>
      </trkpt>
      <trkpt lat="10.080403" lon="-84.305545">
        <ele>1026.3</ele>
      </trkpt>
      <trkpt lat="10.079834" lon="-84.306197">
        <ele>1029.2</ele>
      </trkpt>
      <trkpt lat="10.079192" lon="-84.306945">
        <ele>1025.9</ele>
      </trkpt>
      <trkpt lat="10.078961" lon="-84.3072">
        <ele>1024.2</ele>
      </trkpt>
      <trkpt lat="10.078833" lon="-84.307348">
        <ele>1023.6</ele>
      </trkpt>
      <trkpt lat="10.078542" lon="-84.307513">
        <ele>1022.7</ele>
      </trkpt>
      <trkpt lat="10.078026" lon="-84.307628">
        <ele>1021.6</ele>
      </trkpt>
      <trkpt lat="10.077519" lon="-84.30773">
        <ele>1022.4</ele>
      </trkpt>
      <trkpt lat="10.076977" lon="-84.307846">
        <ele>1024</ele>
      </trkpt>
      <trkpt lat="10.076839" lon="-84.307877">
        <ele>1023.9</ele>
      </trkpt>
      <trkpt lat="10.076367" lon="-84.307982">
        <ele>1023.4</ele>
      </trkpt>
      <trkpt lat="10.075689" lon="-84.308137">
        <ele>1022.7</ele>
      </trkpt>
      <trkpt lat="10.07554" lon="-84.308148">
        <ele>1022.6</ele>
      </trkpt>
      <trkpt lat="10.075389" lon="-84.308132">
        <ele>1022.5</ele>
      </trkpt>
      <trkpt lat="10.074969" lon="-84.308058">
        <ele>1022.1</ele>
      </trkpt>
      <trkpt lat="10.074939" lon="-84.308193">
        <ele>1021.6</ele>
      </trkpt>
      <trkpt lat="10.074939" lon="-84.308193">
        <ele>1013.5</ele>
      </trkpt>
      <trkpt lat="10.07479" lon="-84.308862">
        <ele>1013.5</ele>
      </trkpt>
      <trkpt lat="10.07479" lon="-84.308862">
        <ele>1013.5</ele>
      </trkpt>
      <trkpt lat="10.074772" lon="-84.308941">
        <ele>1009.3</ele>
      </trkpt>
      <trkpt lat="10.073928" lon="-84.308758">
        <ele>1005.8</ele>
      </trkpt>
      <trkpt lat="10.073078" lon="-84.308572">
        <ele>1005.4</ele>
      </trkpt>
      <trkpt lat="10.072214" lon="-84.308388">
        <ele>1003.5</ele>
      </trkpt>
      <trkpt lat="10.071708" lon="-84.308268">
        <ele>1002</ele>
      </trkpt>
      <trkpt lat="10.071346" lon="-84.308192">
        <ele>1000.8</ele>
      </trkpt>
      <trkpt lat="10.071105" lon="-84.30814">
        <ele>1000.2</ele>
      </trkpt>
      <trkpt lat="10.070497" lon="-84.308011">
        <ele>997.5</ele>
      </trkpt>
      <trkpt lat="10.070091" lon="-84.307925">
        <ele>995.6</ele>
      </trkpt>
      <trkpt lat="10.069854" lon="-84.307857">
        <ele>994.7</ele>
      </trkpt>
      <trkpt lat="10.069701" lon="-84.307774">
        <ele>994.3</ele>
      </trkpt>
      <trkpt lat="10.069559" lon="-84.307667">
        <ele>993.8</ele>
      </trkpt>
      <trkpt lat="10.068916" lon="-84.307042">
        <ele>990.2</ele>
      </trkpt>
      <trkpt lat="10.068841" lon="-84.306968">
        <ele>990.1</ele>
      </trkpt>
      <trkpt lat="10.068732" lon="-84.306865">
        <ele>990</ele>
      </trkpt>
      <trkpt lat="10.068594" lon="-84.306764">
        <ele>990</ele>
      </trkpt>
      <trkpt lat="10.068409" lon="-84.306704">
        <ele>990.1</ele>
      </trkpt>
      <trkpt lat="10.068314" lon="-84.306719">
        <ele>990.2</ele>
      </trkpt>
      <trkpt lat="10.068314" lon="-84.306719">
        <ele>991</ele>
      </trkpt>
      <trkpt lat="10.068166" lon="-84.306742">
        <ele>991</ele>
      </trkpt>
      <trkpt lat="10.067369" lon="-84.30705">
        <ele>991</ele>
      </trkpt>
      <trkpt lat="10.067079" lon="-84.307135">
        <ele>991</ele>
      </trkpt>
      <trkpt lat="10.066917" lon="-84.307165">
        <ele>991</ele>
      </trkpt>
      <trkpt lat="10.066584" lon="-84.30721">
        <ele>991</ele>
      </trkpt>
      <trkpt lat="10.066241" lon="-84.30726">
        <ele>990.9</ele>
      </trkpt>
      <trkpt lat="10.066012" lon="-84.307325">
        <ele>990.9</ele>
      </trkpt>
      <trkpt lat="10.065872" lon="-84.307391">
        <ele>990.9</ele>
      </trkpt>
      <trkpt lat="10.065737" lon="-84.307481">
        <ele>990.8</ele>
      </trkpt>
      <trkpt lat="10.065598" lon="-84.307614">
        <ele>990.8</ele>
      </trkpt>
      <trkpt lat="10.065504" lon="-84.307783">
        <ele>990.8</ele>
      </trkpt>
      <trkpt lat="10.065452" lon="-84.307919">
        <ele>990.7</ele>
      </trkpt>
      <trkpt lat="10.065175" lon="-84.309279">
        <ele>985</ele>
      </trkpt>
      <trkpt lat="10.065132" lon="-84.309397">
        <ele>984.3</ele>
      </trkpt>
      <trkpt lat="10.065077" lon="-84.30949">
        <ele>983.3</ele>
      </trkpt>
      <trkpt lat="10.065017" lon="-84.309563">
        <ele>982.4</ele>
      </trkpt>
      <trkpt lat="10.064915" lon="-84.309641">
        <ele>981.5</ele>
      </trkpt>
      <trkpt lat="10.064822" lon="-84.309695">
        <ele>980.5</ele>
      </trkpt>
      <trkpt lat="10.064662" lon="-84.309736">
        <ele>979.7</ele>
      </trkpt>
      <trkpt lat="10.062976" lon="-84.310075">
        <ele>976</ele>
      </trkpt>
      <trkpt lat="10.062834" lon="-84.310093">
        <ele>976.4</ele>
      </trkpt>
      <trkpt lat="10.06268" lon="-84.310086">
        <ele>976.8</ele>
      </trkpt>
      <trkpt lat="10.062548" lon="-84.310045">
        <ele>977.1</ele>
      </trkpt>
      <trkpt lat="10.062275" lon="-84.309871">
        <ele>976.9</ele>
      </trkpt>
      <trkpt lat="10.062202" lon="-84.309835">
        <ele>976.6</ele>
      </trkpt>
      <trkpt lat="10.061992" lon="-84.309806">
        <ele>976</ele>
      </trkpt>
      <trkpt lat="10.061903" lon="-84.309822">
        <ele>975.5</ele>
      </trkpt>
      <trkpt lat="10.061744" lon="-84.309896">
        <ele>975.1</ele>
      </trkpt>
      <trkpt lat="10.061649" lon="-84.309986">
        <ele>974.5</ele>
      </trkpt>
      <trkpt lat="10.061063" lon="-84.310812">
        <ele>964.1</ele>
      </trkpt>
      <trkpt lat="10.060956" lon="-84.310906">
        <ele>962.9</ele>
      </trkpt>
      <trkpt lat="10.06074" lon="-84.311016">
        <ele>960.6</ele>
      </trkpt>
      <trkpt lat="10.060649" lon="-84.311042">
        <ele>959.5</ele>
      </trkpt>
      <trkpt lat="10.060585" lon="-84.311055">
        <ele>958.3</ele>
      </trkpt>
      <trkpt lat="10.060399" lon="-84.311046">
        <ele>955.4</ele>
      </trkpt>
      <trkpt lat="10.060229" lon="-84.310986">
        <ele>953.9</ele>
      </trkpt>
      <trkpt lat="10.06005" lon="-84.31088">
        <ele>951</ele>
      </trkpt>
      <trkpt lat="10.05992" lon="-84.310769">
        <ele>949.2</ele>
      </trkpt>
      <trkpt lat="10.05902" lon="-84.311381">
        <ele>932.7</ele>
      </trkpt>
      <trkpt lat="10.058882" lon="-84.311736">
        <ele>930.1</ele>
      </trkpt>
      <trkpt lat="10.058817" lon="-84.311862">
        <ele>929.7</ele>
      </trkpt>
      <trkpt lat="10.058731" lon="-84.311969">
        <ele>929.3</ele>
      </trkpt>
      <trkpt lat="10.058583" lon="-84.312086">
        <ele>929</ele>
      </trkpt>
      <trkpt lat="10.058466" lon="-84.312134">
        <ele>929</ele>
      </trkpt>
      <trkpt lat="10.058306" lon="-84.312153">
        <ele>929</ele>
      </trkpt>
      <trkpt lat="10.058145" lon="-84.312167">
        <ele>928.5</ele>
      </trkpt>
      <trkpt lat="10.058033" lon="-84.312175">
        <ele>927.9</ele>
      </trkpt>
      <trkpt lat="10.057775" lon="-84.312178">
        <ele>926.8</ele>
      </trkpt>
      <trkpt lat="10.057704" lon="-84.312172">
        <ele>926.3</ele>
      </trkpt>
      <trkpt lat="10.05757" lon="-84.312142">
        <ele>925.7</ele>
      </trkpt>
      <trkpt lat="10.057472" lon="-84.312101">
        <ele>925.2</ele>
      </trkpt>
      <trkpt lat="10.057316" lon="-84.311993">
        <ele>924.1</ele>
      </trkpt>
      <trkpt lat="10.057247" lon="-84.311925">
        <ele>923.5</ele>
      </trkpt>
      <trkpt lat="10.057153" lon="-84.311776">
        <ele>923</ele>
      </trkpt>
      <trkpt lat="10.057073" lon="-84.311577">
        <ele>921.9</ele>
      </trkpt>
      <trkpt lat="10.057017" lon="-84.311364">
        <ele>920.8</ele>
      </trkpt>
      <trkpt lat="10.056843" lon="-84.310872">
        <ele>918</ele>
      </trkpt>
      <trkpt lat="10.05672" lon="-84.310485">
        <ele>916.4</ele>
      </trkpt>
      <trkpt lat="10.056671" lon="-84.310226">
        <ele>915</ele>
      </trkpt>
      <trkpt lat="10.056656" lon="-84.309965">
        <ele>913.3</ele>
      </trkpt>
      <trkpt lat="10.056667" lon="-84.309661">
        <ele>910.6</ele>
      </trkpt>
      <trkpt lat="10.056719" lon="-84.309177">
        <ele>906.1</ele>
      </trkpt>
      <trkpt lat="10.056724" lon="-84.309072">
        <ele>905</ele>
      </trkpt>
      <trkpt lat="10.056714" lon="-84.3089">
        <ele>904</ele>
      </trkpt>
      <trkpt lat="10.056672" lon="-84.308727">
        <ele>902.9</ele>
      </trkpt>
      <trkpt lat="10.0566" lon="-84.308543">
        <ele>901.1</ele>
      </trkpt>
      <trkpt lat="10.056424" lon="-84.3082">
        <ele>897.8</ele>
      </trkpt>
      <trkpt lat="10.05638" lon="-84.308101">
        <ele>897</ele>
      </trkpt>
      <trkpt lat="10.056348" lon="-84.308023">
        <ele>896.2</ele>
      </trkpt>
      <trkpt lat="10.056315" lon="-84.307915">
        <ele>895.6</ele>
      </trkpt>
      <trkpt lat="10.05628" lon="-84.307777">
        <ele>895.1</ele>
      </trkpt>
      <trkpt lat="10.056243" lon="-84.307487">
        <ele>893.5</ele>
      </trkpt>
      <trkpt lat="10.056202" lon="-84.30739">
        <ele>892.9</ele>
      </trkpt>
      <trkpt lat="10.056106" lon="-84.307242">
        <ele>892.4</ele>
      </trkpt>
      <trkpt lat="10.056007" lon="-84.307145">
        <ele>891.8</ele>
      </trkpt>
      <trkpt lat="10.055941" lon="-84.307023">
        <ele>891.3</ele>
      </trkpt>
      <trkpt lat="10.05592" lon="-84.306896">
        <ele>891</ele>
      </trkpt>
      <trkpt lat="10.055946" lon="-84.306799">
        <ele>890.6</ele>
      </trkpt>
      <trkpt lat="10.05601" lon="-84.306719">
        <ele>890.3</ele>
      </trkpt>
      <trkpt lat="10.056093" lon="-84.306675">
        <ele>889.9</ele>
      </trkpt>
      <trkpt lat="10.056163" lon="-84.306657">
        <ele>889.6</ele>
      </trkpt>
      <trkpt lat="10.05623" lon="-84.306656">
        <ele>889.3</ele>
      </trkpt>
      <trkpt lat="10.056314" lon="-84.306683">
        <ele>889.2</ele>
      </trkpt>
      <trkpt lat="10.056425" lon="-84.306751">
        <ele>889.2</ele>
      </trkpt>
      <trkpt lat="10.056765" lon="-84.30705">
        <ele>889.8</ele>
      </trkpt>
      <trkpt lat="10.056903" lon="-84.307145">
        <ele>889.9</ele>
      </trkpt>
      <trkpt lat="10.057045" lon="-84.30717">
        <ele>889.9</ele>
      </trkpt>
      <trkpt lat="10.057176" lon="-84.307126">
        <ele>889.9</ele>
      </trkpt>
      <trkpt lat="10.057222" lon="-84.307083">
        <ele>889.8</ele>
      </trkpt>
      <trkpt lat="10.057259" lon="-84.307021">
        <ele>889.7</ele>
      </trkpt>
      <trkpt lat="10.057287" lon="-84.306939">
        <ele>889.5</ele>
      </trkpt>
      <trkpt lat="10.057332" lon="-84.306655">
        <ele>889.1</ele>
      </trkpt>
      <trkpt lat="10.05735" lon="-84.306563">
        <ele>888.7</ele>
      </trkpt>
      <trkpt lat="10.057375" lon="-84.306507">
        <ele>888.3</ele>
      </trkpt>
      <trkpt lat="10.057431" lon="-84.306448">
        <ele>887.9</ele>
      </trkpt>
      <trkpt lat="10.057522" lon="-84.306389">
        <ele>887.5</ele>
      </trkpt>
      <trkpt lat="10.057787" lon="-84.306284">
        <ele>886.3</ele>
      </trkpt>
      <trkpt lat="10.057894" lon="-84.306208">
        <ele>885.9</ele>
      </trkpt>
      <trkpt lat="10.057943" lon="-84.306095">
        <ele>885.4</ele>
      </trkpt>
      <trkpt lat="10.057944" lon="-84.305959">
        <ele>884.9</ele>
      </trkpt>
      <trkpt lat="10.057902" lon="-84.305872">
        <ele>884.1</ele>
      </trkpt>
      <trkpt lat="10.057797" lon="-84.305754">
        <ele>883.4</ele>
      </trkpt>
      <trkpt lat="10.057717" lon="-84.305685">
        <ele>882.8</ele>
      </trkpt>
      <trkpt lat="10.057266" lon="-84.305439">
        <ele>880</ele>
      </trkpt>
      <trkpt lat="10.057169" lon="-84.305361">
        <ele>879.4</ele>
      </trkpt>
      <trkpt lat="10.057102" lon="-84.305286">
        <ele>878.9</ele>
      </trkpt>
      <trkpt lat="10.05704" lon="-84.305178">
        <ele>878.7</ele>
      </trkpt>
      <trkpt lat="10.057" lon="-84.305068">
        <ele>878.4</ele>
      </trkpt>
      <trkpt lat="10.056906" lon="-84.304672">
        <ele>877.4</ele>
      </trkpt>
      <trkpt lat="10.056857" lon="-84.304568">
        <ele>877.2</ele>
      </trkpt>
      <trkpt lat="10.056776" lon="-84.304467">
        <ele>877</ele>
      </trkpt>
      <trkpt lat="10.056663" lon="-84.304378">
        <ele>876.9</ele>
      </trkpt>
      <trkpt lat="10.056251" lon="-84.304174">
        <ele>878.4</ele>
      </trkpt>
      <trkpt lat="10.056129" lon="-84.304095">
        <ele>879</ele>
      </trkpt>
      <trkpt lat="10.055562" lon="-84.303686">
        <ele>883.5</ele>
      </trkpt>
      <trkpt lat="10.055391" lon="-84.303531">
        <ele>884.8</ele>
      </trkpt>
      <trkpt lat="10.055277" lon="-84.303355">
        <ele>885.8</ele>
      </trkpt>
      <trkpt lat="10.054975" lon="-84.302554">
        <ele>887.2</ele>
      </trkpt>
      <trkpt lat="10.054887" lon="-84.302371">
        <ele>886.7</ele>
      </trkpt>
      <trkpt lat="10.054782" lon="-84.302231">
        <ele>886.5</ele>
      </trkpt>
      <trkpt lat="10.054641" lon="-84.302102">
        <ele>886.8</ele>
      </trkpt>
      <trkpt lat="10.05451" lon="-84.302032">
        <ele>887</ele>
      </trkpt>
      <trkpt lat="10.05439" lon="-84.301987">
        <ele>887.2</ele>
      </trkpt>
      <trkpt lat="10.05422" lon="-84.30196">
        <ele>887.4</ele>
      </trkpt>
      <trkpt lat="10.054066" lon="-84.301961">
        <ele>887.5</ele>
      </trkpt>
      <trkpt lat="10.052814" lon="-84.302071">
        <ele>885.7</ele>
      </trkpt>
      <trkpt lat="10.052642" lon="-84.302099">
        <ele>885</ele>
      </trkpt>
      <trkpt lat="10.052221" lon="-84.302252">
        <ele>880.2</ele>
      </trkpt>
      <trkpt lat="10.052015" lon="-84.302304">
        <ele>878</ele>
      </trkpt>
      <trkpt lat="10.051428" lon="-84.302398">
        <ele>873.2</ele>
      </trkpt>
      <trkpt lat="10.051229" lon="-84.302475">
        <ele>872.2</ele>
      </trkpt>
      <trkpt lat="10.051123" lon="-84.30254">
        <ele>871.9</ele>
      </trkpt>
      <trkpt lat="10.051033" lon="-84.302614">
        <ele>871.6</ele>
      </trkpt>
      <trkpt lat="10.050918" lon="-84.30274">
        <ele>871.3</ele>
      </trkpt>
      <trkpt lat="10.050824" lon="-84.30289">
        <ele>871.1</ele>
      </trkpt>
      <trkpt lat="10.050725" lon="-84.303004">
        <ele>871</ele>
      </trkpt>
      <trkpt lat="10.050617" lon="-84.303086">
        <ele>871</ele>
      </trkpt>
      <trkpt lat="10.05024" lon="-84.303309">
        <ele>870.4</ele>
      </trkpt>
      <trkpt lat="10.050067" lon="-84.303447">
        <ele>869.7</ele>
      </trkpt>
      <trkpt lat="10.049622" lon="-84.303872">
        <ele>866</ele>
      </trkpt>
      <trkpt lat="10.049521" lon="-84.303946">
        <ele>865</ele>
      </trkpt>
      <trkpt lat="10.049416" lon="-84.303994">
        <ele>864.1</ele>
      </trkpt>
      <trkpt lat="10.049272" lon="-84.304024">
        <ele>863.1</ele>
      </trkpt>
      <trkpt lat="10.049021" lon="-84.304032">
        <ele>861</ele>
      </trkpt>
      <trkpt lat="10.0487" lon="-84.304017">
        <ele>857.8</ele>
      </trkpt>
      <trkpt lat="10.048431" lon="-84.303956">
        <ele>854.8</ele>
      </trkpt>
      <trkpt lat="10.048214" lon="-84.303867">
        <ele>853.1</ele>
      </trkpt>
      <trkpt lat="10.047461" lon="-84.303511">
        <ele>847.9</ele>
      </trkpt>
      <trkpt lat="10.047076" lon="-84.30329">
        <ele>846.8</ele>
      </trkpt>
      <trkpt lat="10.046342" lon="-84.302768">
        <ele>845.2</ele>
      </trkpt>
      <trkpt lat="10.045999" lon="-84.302546">
        <ele>844.7</ele>
      </trkpt>
      <trkpt lat="10.045655" lon="-84.30231">
        <ele>844.5</ele>
      </trkpt>
      <trkpt lat="10.045547" lon="-84.302212">
        <ele>844.5</ele>
      </trkpt>
      <trkpt lat="10.045413" lon="-84.301985">
        <ele>844.6</ele>
      </trkpt>
      <trkpt lat="10.045361" lon="-84.301824">
        <ele>844.7</ele>
      </trkpt>
      <trkpt lat="10.045179" lon="-84.301264">
        <ele>845.5</ele>
      </trkpt>
      <trkpt lat="10.045101" lon="-84.301147">
        <ele>845.6</ele>
      </trkpt>
      <trkpt lat="10.045035" lon="-84.301093">
        <ele>845.8</ele>
      </trkpt>
      <trkpt lat="10.044966" lon="-84.301067">
        <ele>845.9</ele>
      </trkpt>
      <trkpt lat="10.044792" lon="-84.301054">
        <ele>846.1</ele>
      </trkpt>
      <trkpt lat="10.044699" lon="-84.301085">
        <ele>846.2</ele>
      </trkpt>
      <trkpt lat="10.044207" lon="-84.301427">
        <ele>847.6</ele>
      </trkpt>
      <trkpt lat="10.044083" lon="-84.301493">
        <ele>847.9</ele>
      </trkpt>
      <trkpt lat="10.043927" lon="-84.301532">
        <ele>848.1</ele>
      </trkpt>
      <trkpt lat="10.043754" lon="-84.301509">
        <ele>848.4</ele>
      </trkpt>
      <trkpt lat="10.043678" lon="-84.301477">
        <ele>848.7</ele>
      </trkpt>
      <trkpt lat="10.043363" lon="-84.301267">
        <ele>850</ele>
      </trkpt>
      <trkpt lat="10.043241" lon="-84.30121">
        <ele>850.3</ele>
      </trkpt>
      <trkpt lat="10.043022" lon="-84.3012">
        <ele>851</ele>
      </trkpt>
      <trkpt lat="10.042923" lon="-84.301224">
        <ele>851.3</ele>
      </trkpt>
      <trkpt lat="10.042835" lon="-84.301266">
        <ele>851.8</ele>
      </trkpt>
      <trkpt lat="10.042512" lon="-84.301474">
        <ele>853.7</ele>
      </trkpt>
      <trkpt lat="10.042386" lon="-84.301538">
        <ele>854.1</ele>
      </trkpt>
      <trkpt lat="10.042266" lon="-84.301563">
        <ele>854.5</ele>
      </trkpt>
      <trkpt lat="10.042041" lon="-84.301545">
        <ele>855.2</ele>
      </trkpt>
      <trkpt lat="10.041833" lon="-84.301477">
        <ele>855.8</ele>
      </trkpt>
      <trkpt lat="10.041709" lon="-84.30146">
        <ele>856</ele>
      </trkpt>
      <trkpt lat="10.041585" lon="-84.30147">
        <ele>856.3</ele>
      </trkpt>
      <trkpt lat="10.041418" lon="-84.301527">
        <ele>856.5</ele>
      </trkpt>
      <trkpt lat="10.041166" lon="-84.3017">
        <ele>857</ele>
      </trkpt>
      <trkpt lat="10.041049" lon="-84.301732">
        <ele>857.1</ele>
      </trkpt>
      <trkpt lat="10.040956" lon="-84.301723">
        <ele>857.3</ele>
      </trkpt>
      <trkpt lat="10.040868" lon="-84.301673">
        <ele>857.5</ele>
      </trkpt>
      <trkpt lat="10.040775" lon="-84.301591">
        <ele>857.5</ele>
      </trkpt>
      <trkpt lat="10.040401" lon="-84.30119">
        <ele>857.3</ele>
      </trkpt>
      <trkpt lat="10.040257" lon="-84.301036">
        <ele>857.2</ele>
      </trkpt>
      <trkpt lat="10.040169" lon="-84.300965">
        <ele>857.2</ele>
      </trkpt>
      <trkpt lat="10.040073" lon="-84.300906">
        <ele>857.2</ele>
      </trkpt>
      <trkpt lat="10.039911" lon="-84.300863">
        <ele>856.8</ele>
      </trkpt>
      <trkpt lat="10.039592" lon="-84.300848">
        <ele>855.6</ele>
      </trkpt>
      <trkpt lat="10.039424" lon="-84.300807">
        <ele>855.1</ele>
      </trkpt>
      <trkpt lat="10.039326" lon="-84.300739">
        <ele>854.8</ele>
      </trkpt>
      <trkpt lat="10.039252" lon="-84.300637">
        <ele>854.4</ele>
      </trkpt>
      <trkpt lat="10.039204" lon="-84.300516">
        <ele>854.1</ele>
      </trkpt>
      <trkpt lat="10.039217" lon="-84.300358">
        <ele>853.9</ele>
      </trkpt>
      <trkpt lat="10.039311" lon="-84.300195">
        <ele>853.4</ele>
      </trkpt>
      <trkpt lat="10.039506" lon="-84.300086">
        <ele>852.9</ele>
      </trkpt>
      <trkpt lat="10.039776" lon="-84.300014">
        <ele>852.1</ele>
      </trkpt>
      <trkpt lat="10.039876" lon="-84.299961">
        <ele>851.8</ele>
      </trkpt>
      <trkpt lat="10.039926" lon="-84.299899">
        <ele>851.4</ele>
      </trkpt>
      <trkpt lat="10.039952" lon="-84.299819">
        <ele>851.1</ele>
      </trkpt>
      <trkpt lat="10.039957" lon="-84.299745">
        <ele>850.8</ele>
      </trkpt>
      <trkpt lat="10.039871" lon="-84.299549">
        <ele>850.6</ele>
      </trkpt>
      <trkpt lat="10.039442" lon="-84.29896">
        <ele>848.6</ele>
      </trkpt>
      <trkpt lat="10.039314" lon="-84.298733">
        <ele>847.7</ele>
      </trkpt>
      <trkpt lat="10.03924" lon="-84.29855">
        <ele>846.6</ele>
      </trkpt>
      <trkpt lat="10.039179" lon="-84.298315">
        <ele>844.8</ele>
      </trkpt>
      <trkpt lat="10.039147" lon="-84.298088">
        <ele>842.8</ele>
      </trkpt>
      <trkpt lat="10.039078" lon="-84.297147">
        <ele>832.8</ele>
      </trkpt>
      <trkpt lat="10.039051" lon="-84.296976">
        <ele>831.8</ele>
      </trkpt>
      <trkpt lat="10.038993" lon="-84.296836">
        <ele>830.8</ele>
      </trkpt>
      <trkpt lat="10.038858" lon="-84.296664">
        <ele>828.7</ele>
      </trkpt>
      <trkpt lat="10.038703" lon="-84.296522">
        <ele>827</ele>
      </trkpt>
      <trkpt lat="10.038239" lon="-84.296165">
        <ele>823.9</ele>
      </trkpt>
      <trkpt lat="10.037951" lon="-84.295934">
        <ele>821.3</ele>
      </trkpt>
      <trkpt lat="10.03754" lon="-84.295615">
        <ele>817.1</ele>
      </trkpt>
      <trkpt lat="10.037304" lon="-84.295461">
        <ele>814.4</ele>
      </trkpt>
      <trkpt lat="10.036889" lon="-84.295253">
        <ele>810.1</ele>
      </trkpt>
      <trkpt lat="10.03673" lon="-84.295199">
        <ele>809.2</ele>
      </trkpt>
      <trkpt lat="10.036587" lon="-84.295195">
        <ele>808.5</ele>
      </trkpt>
      <trkpt lat="10.036403" lon="-84.29522">
        <ele>807.3</ele>
      </trkpt>
      <trkpt lat="10.036107" lon="-84.29537">
        <ele>806.6</ele>
      </trkpt>
      <trkpt lat="10.035938" lon="-84.295682">
        <ele>806.8</ele>
      </trkpt>
      <trkpt lat="10.035787" lon="-84.296256">
        <ele>808.3</ele>
      </trkpt>
      <trkpt lat="10.03576" lon="-84.296311">
        <ele>808.6</ele>
      </trkpt>
      <trkpt lat="10.035716" lon="-84.296355">
        <ele>808.9</ele>
      </trkpt>
      <trkpt lat="10.03566" lon="-84.296383">
        <ele>809.2</ele>
      </trkpt>
      <trkpt lat="10.035599" lon="-84.296391">
        <ele>809.5</ele>
      </trkpt>
      <trkpt lat="10.035389" lon="-84.296346">
        <ele>810</ele>
      </trkpt>
      <trkpt lat="10.035219" lon="-84.296327">
        <ele>809.7</ele>
      </trkpt>
      <trkpt lat="10.035134" lon="-84.296326">
        <ele>809.3</ele>
      </trkpt>
      <trkpt lat="10.034964" lon="-84.296341">
        <ele>808.6</ele>
      </trkpt>
      <trkpt lat="10.03481" lon="-84.296375">
        <ele>808</ele>
      </trkpt>
      <trkpt lat="10.034668" lon="-84.296425">
        <ele>807.3</ele>
      </trkpt>
      <trkpt lat="10.034525" lon="-84.296496">
        <ele>806.6</ele>
      </trkpt>
      <trkpt lat="10.034264" lon="-84.296712">
        <ele>804.4</ele>
      </trkpt>
      <trkpt lat="10.034165" lon="-84.296754">
        <ele>803.7</ele>
      </trkpt>
      <trkpt lat="10.034063" lon="-84.296735">
        <ele>803</ele>
      </trkpt>
      <trkpt lat="10.033994" lon="-84.296677">
        <ele>802.2</ele>
      </trkpt>
      <trkpt lat="10.033958" lon="-84.296578">
        <ele>801.4</ele>
      </trkpt>
      <trkpt lat="10.033965" lon="-84.296459">
        <ele>800.6</ele>
      </trkpt>
      <trkpt lat="10.034003" lon="-84.296303">
        <ele>799.8</ele>
      </trkpt>
      <trkpt lat="10.034114" lon="-84.29603">
        <ele>797.2</ele>
      </trkpt>
      <trkpt lat="10.034244" lon="-84.295866">
        <ele>795.5</ele>
      </trkpt>
      <trkpt lat="10.034482" lon="-84.295709">
        <ele>794.7</ele>
      </trkpt>
      <trkpt lat="10.03459" lon="-84.295583">
        <ele>794.6</ele>
      </trkpt>
      <trkpt lat="10.034669" lon="-84.295408">
        <ele>794.3</ele>
      </trkpt>
      <trkpt lat="10.034721" lon="-84.295222">
        <ele>793.4</ele>
      </trkpt>
      <trkpt lat="10.034728" lon="-84.295147">
        <ele>793</ele>
      </trkpt>
      <trkpt lat="10.034725" lon="-84.295059">
        <ele>792.4</ele>
      </trkpt>
      <trkpt lat="10.034688" lon="-84.294929">
        <ele>792</ele>
      </trkpt>
      <trkpt lat="10.034601" lon="-84.29472">
        <ele>791</ele>
      </trkpt>
      <trkpt lat="10.034509" lon="-84.294445">
        <ele>789.8</ele>
      </trkpt>
      <trkpt lat="10.034248" lon="-84.293678">
        <ele>788.4</ele>
      </trkpt>
      <trkpt lat="10.034208" lon="-84.29359">
        <ele>788.6</ele>
      </trkpt>
      <trkpt lat="10.03411" lon="-84.293335">
        <ele>789.3</ele>
      </trkpt>
      <trkpt lat="10.034002" lon="-84.293077">
        <ele>790.9</ele>
      </trkpt>
      <trkpt lat="10.033907" lon="-84.292964">
        <ele>791.5</ele>
      </trkpt>
      <trkpt lat="10.033796" lon="-84.292919">
        <ele>792</ele>
      </trkpt>
      <trkpt lat="10.033614" lon="-84.292932">
        <ele>793.5</ele>
      </trkpt>
      <trkpt lat="10.033487" lon="-84.292964">
        <ele>794.2</ele>
      </trkpt>
      <trkpt lat="10.033244" lon="-84.29312">
        <ele>796.2</ele>
      </trkpt>
      <trkpt lat="10.03302" lon="-84.293345">
        <ele>798.9</ele>
      </trkpt>
      <trkpt lat="10.032822" lon="-84.293577">
        <ele>801.9</ele>
      </trkpt>
      <trkpt lat="10.032663" lon="-84.293697">
        <ele>803.3</ele>
      </trkpt>
      <trkpt lat="10.032491" lon="-84.293791">
        <ele>804.8</ele>
      </trkpt>
      <trkpt lat="10.032282" lon="-84.293826">
        <ele>806.3</ele>
      </trkpt>
      <trkpt lat="10.032" lon="-84.293756">
        <ele>808.3</ele>
      </trkpt>
      <trkpt lat="10.031376" lon="-84.293388">
        <ele>811.4</ele>
      </trkpt>
      <trkpt lat="10.030896" lon="-84.293064">
        <ele>810.3</ele>
      </trkpt>
      <trkpt lat="10.030434" lon="-84.29279">
        <ele>808.9</ele>
      </trkpt>
      <trkpt lat="10.029771" lon="-84.292372">
        <ele>806.9</ele>
      </trkpt>
      <trkpt lat="10.029659" lon="-84.29227">
        <ele>806.6</ele>
      </trkpt>
      <trkpt lat="10.029377" lon="-84.291895">
        <ele>806</ele>
      </trkpt>
      <trkpt lat="10.029171" lon="-84.291567">
        <ele>804.8</ele>
      </trkpt>
      <trkpt lat="10.028954" lon="-84.291221">
        <ele>802.5</ele>
      </trkpt>
      <trkpt lat="10.028852" lon="-84.290953">
        <ele>799.5</ele>
      </trkpt>
      <trkpt lat="10.02879" lon="-84.290603">
        <ele>795.9</ele>
      </trkpt>
      <trkpt lat="10.02873" lon="-84.28998">
        <ele>788.7</ele>
      </trkpt>
      <trkpt lat="10.02873" lon="-84.289937">
        <ele>787.6</ele>
      </trkpt>
      <trkpt lat="10.028732" lon="-84.289755">
        <ele>787.1</ele>
      </trkpt>
      <trkpt lat="10.028753" lon="-84.289642">
        <ele>786.7</ele>
      </trkpt>
      <trkpt lat="10.028834" lon="-84.289562">
        <ele>786.5</ele>
      </trkpt>
      <trkpt lat="10.029188" lon="-84.289474">
        <ele>786</ele>
      </trkpt>
      <trkpt lat="10.029359" lon="-84.289387">
        <ele>786.4</ele>
      </trkpt>
      <trkpt lat="10.029441" lon="-84.289304">
        <ele>786.9</ele>
      </trkpt>
      <trkpt lat="10.029483" lon="-84.289172">
        <ele>787.5</ele>
      </trkpt>
      <trkpt lat="10.029487" lon="-84.288999">
        <ele>788.1</ele>
      </trkpt>
      <trkpt lat="10.029461" lon="-84.288842">
        <ele>788.7</ele>
      </trkpt>
      <trkpt lat="10.029414" lon="-84.288617">
        <ele>789.9</ele>
      </trkpt>
      <trkpt lat="10.029374" lon="-84.28837">
        <ele>791.1</ele>
      </trkpt>
      <trkpt lat="10.02933" lon="-84.287973">
        <ele>794.4</ele>
      </trkpt>
      <trkpt lat="10.029303" lon="-84.287769">
        <ele>795.9</ele>
      </trkpt>
      <trkpt lat="10.029224" lon="-84.287549">
        <ele>797.3</ele>
      </trkpt>
      <trkpt lat="10.028904" lon="-84.287085">
        <ele>802.2</ele>
      </trkpt>
      <trkpt lat="10.02882" lon="-84.286871">
        <ele>804</ele>
      </trkpt>
      <trkpt lat="10.02882" lon="-84.286688">
        <ele>805.1</ele>
      </trkpt>
      <trkpt lat="10.028859" lon="-84.286519">
        <ele>806.1</ele>
      </trkpt>
      <trkpt lat="10.029137" lon="-84.285825">
        <ele>812.2</ele>
      </trkpt>
      <trkpt lat="10.029213" lon="-84.285383">
        <ele>814.2</ele>
      </trkpt>
      <trkpt lat="10.029211" lon="-84.284958">
        <ele>815.7</ele>
      </trkpt>
      <trkpt lat="10.02916" lon="-84.284604">
        <ele>816.5</ele>
      </trkpt>
      <trkpt lat="10.028944" lon="-84.284151">
        <ele>817.9</ele>
      </trkpt>
      <trkpt lat="10.028815" lon="-84.283976">
        <ele>818.6</ele>
      </trkpt>
      <trkpt lat="10.028685" lon="-84.283778">
        <ele>819.5</ele>
      </trkpt>
      <trkpt lat="10.02835" lon="-84.283298">
        <ele>822.3</ele>
      </trkpt>
      <trkpt lat="10.028194" lon="-84.283038">
        <ele>823.4</ele>
      </trkpt>
      <trkpt lat="10.028115" lon="-84.282582">
        <ele>824.5</ele>
      </trkpt>
      <trkpt lat="10.028128" lon="-84.281841">
        <ele>823.9</ele>
      </trkpt>
      <trkpt lat="10.028104" lon="-84.281176">
        <ele>821.5</ele>
      </trkpt>
      <trkpt lat="10.027758" lon="-84.27847">
        <ele>811.9</ele>
      </trkpt>
      <trkpt lat="10.027716" lon="-84.278239">
        <ele>811.6</ele>
      </trkpt>
      <trkpt lat="10.027703" lon="-84.278143">
        <ele>811.5</ele>
      </trkpt>
      <trkpt lat="10.027655" lon="-84.277998">
        <ele>811.3</ele>
      </trkpt>
      <trkpt lat="10.027557" lon="-84.277912">
        <ele>811.2</ele>
      </trkpt>
      <trkpt lat="10.027449" lon="-84.27788">
        <ele>811</ele>
      </trkpt>
      <trkpt lat="10.026992" lon="-84.277968">
        <ele>810.5</ele>
      </trkpt>
      <trkpt lat="10.026637" lon="-84.278065">
        <ele>810.2</ele>
      </trkpt>
      <trkpt lat="10.026529" lon="-84.278094">
        <ele>810.1</ele>
      </trkpt>
      <trkpt lat="10.026334" lon="-84.278103">
        <ele>810.1</ele>
      </trkpt>
      <trkpt lat="10.025998" lon="-84.278006">
        <ele>810</ele>
      </trkpt>
      <trkpt lat="10.025953" lon="-84.277973">
        <ele>810</ele>
      </trkpt>
      <trkpt lat="10.025803" lon="-84.277864">
        <ele>810.1</ele>
      </trkpt>
      <trkpt lat="10.025448" lon="-84.277589">
        <ele>810.5</ele>
      </trkpt>
      <trkpt lat="10.025306" lon="-84.27727">
        <ele>810.7</ele>
      </trkpt>
      <trkpt lat="10.025306" lon="-84.276597">
        <ele>812.3</ele>
      </trkpt>
      <trkpt lat="10.025333" lon="-84.275569">
        <ele>817</ele>
      </trkpt>
      <trkpt lat="10.025375" lon="-84.275303">
        <ele>818.1</ele>
      </trkpt>
      <trkpt lat="10.025383" lon="-84.275282">
        <ele>818.6</ele>
      </trkpt>
      <trkpt lat="10.02561" lon="-84.27467">
        <ele>821.1</ele>
      </trkpt>
      <trkpt lat="10.025785" lon="-84.274171">
        <ele>822</ele>
      </trkpt>
      <trkpt lat="10.026042" lon="-84.27361">
        <ele>822.5</ele>
      </trkpt>
      <trkpt lat="10.026334" lon="-84.273202">
        <ele>822.6</ele>
      </trkpt>
      <trkpt lat="10.026512" lon="-84.272839">
        <ele>822.6</ele>
      </trkpt>
      <trkpt lat="10.02663" lon="-84.272321">
        <ele>822.4</ele>
      </trkpt>
      <trkpt lat="10.026712" lon="-84.272133">
        <ele>822.3</ele>
      </trkpt>
      <trkpt lat="10.027037" lon="-84.271717">
        <ele>823</ele>
      </trkpt>
      <trkpt lat="10.027504" lon="-84.271067">
        <ele>826.7</ele>
      </trkpt>
      <trkpt lat="10.027734" lon="-84.270379">
        <ele>832</ele>
      </trkpt>
      <trkpt lat="10.027839" lon="-84.270199">
        <ele>833.4</ele>
      </trkpt>
      <trkpt lat="10.028292" lon="-84.269761">
        <ele>836.2</ele>
      </trkpt>
      <trkpt lat="10.028368" lon="-84.269569">
        <ele>836.6</ele>
      </trkpt>
      <trkpt lat="10.028393" lon="-84.269448">
        <ele>836.7</ele>
      </trkpt>
      <trkpt lat="10.028411" lon="-84.269367">
        <ele>836.8</ele>
      </trkpt>
      <trkpt lat="10.028411" lon="-84.269203">
        <ele>836.9</ele>
      </trkpt>
      <trkpt lat="10.028409" lon="-84.269133">
        <ele>836.9</ele>
      </trkpt>
      <trkpt lat="10.028407" lon="-84.269093">
        <ele>836.9</ele>
      </trkpt>
      <trkpt lat="10.028393" lon="-84.268984">
        <ele>836.9</ele>
      </trkpt>
      <trkpt lat="10.028386" lon="-84.268923">
        <ele>836.7</ele>
      </trkpt>
      <trkpt lat="10.028234" lon="-84.268348">
        <ele>835.3</ele>
      </trkpt>
      <trkpt lat="10.028156" lon="-84.268068">
        <ele>834.3</ele>
      </trkpt>
      <trkpt lat="10.028027" lon="-84.267611">
        <ele>832.8</ele>
      </trkpt>
      <trkpt lat="10.027987" lon="-84.267353">
        <ele>832.2</ele>
      </trkpt>
      <trkpt lat="10.028011" lon="-84.267148">
        <ele>831.6</ele>
      </trkpt>
      <trkpt lat="10.028045" lon="-84.266972">
        <ele>831.3</ele>
      </trkpt>
      <trkpt lat="10.028106" lon="-84.266884">
        <ele>831.1</ele>
      </trkpt>
      <trkpt lat="10.02823" lon="-84.266814">
        <ele>830.9</ele>
      </trkpt>
      <trkpt lat="10.028594" lon="-84.26676">
        <ele>829.8</ele>
      </trkpt>
      <trkpt lat="10.028907" lon="-84.266626">
        <ele>829.1</ele>
      </trkpt>
      <trkpt lat="10.029092" lon="-84.266495">
        <ele>828.8</ele>
      </trkpt>
      <trkpt lat="10.03" lon="-84.265494">
        <ele>828.6</ele>
      </trkpt>
      <trkpt lat="10.030026" lon="-84.26536">
        <ele>828.7</ele>
      </trkpt>
      <trkpt lat="10.030007" lon="-84.265301">
        <ele>828.8</ele>
      </trkpt>
      <trkpt lat="10.029897" lon="-84.265164">
        <ele>829</ele>
      </trkpt>
      <trkpt lat="10.029696" lon="-84.265041">
        <ele>829.3</ele>
      </trkpt>
      <trkpt lat="10.029607" lon="-84.265007">
        <ele>829.3</ele>
      </trkpt>
      <trkpt lat="10.029461" lon="-84.265026">
        <ele>829.4</ele>
      </trkpt>
      <trkpt lat="10.028442" lon="-84.265537">
        <ele>828.8</ele>
      </trkpt>
      <trkpt lat="10.028233" lon="-84.265706">
        <ele>828.4</ele>
      </trkpt>
      <trkpt lat="10.028104" lon="-84.265787">
        <ele>828.2</ele>
      </trkpt>
      <trkpt lat="10.027929" lon="-84.265846">
        <ele>827.7</ele>
      </trkpt>
      <trkpt lat="10.027528" lon="-84.26587">
        <ele>826.9</ele>
      </trkpt>
      <trkpt lat="10.027467" lon="-84.265837">
        <ele>826.6</ele>
      </trkpt>
      <trkpt lat="10.027406" lon="-84.265712">
        <ele>826.5</ele>
      </trkpt>
      <trkpt lat="10.027398" lon="-84.265623">
        <ele>826.3</ele>
      </trkpt>
      <trkpt lat="10.027435" lon="-84.26554">
        <ele>826.1</ele>
      </trkpt>
      <trkpt lat="10.027566" lon="-84.265368">
        <ele>825.8</ele>
      </trkpt>
      <trkpt lat="10.027797" lon="-84.26514">
        <ele>825.5</ele>
      </trkpt>
      <trkpt lat="10.027983" lon="-84.264907">
        <ele>825.6</ele>
      </trkpt>
      <trkpt lat="10.028035" lon="-84.264735">
        <ele>825.8</ele>
      </trkpt>
      <trkpt lat="10.028072" lon="-84.264544">
        <ele>826.4</ele>
      </trkpt>
      <trkpt lat="10.028069" lon="-84.264236">
        <ele>828</ele>
      </trkpt>
      <trkpt lat="10.028038" lon="-84.263847">
        <ele>830.9</ele>
      </trkpt>
      <trkpt lat="10.028051" lon="-84.263738">
        <ele>831.8</ele>
      </trkpt>
      <trkpt lat="10.028106" lon="-84.263611">
        <ele>832.7</ele>
      </trkpt>
      <trkpt lat="10.028222" lon="-84.263428">
        <ele>834.9</ele>
      </trkpt>
      <trkpt lat="10.029144" lon="-84.262549">
        <ele>852.1</ele>
      </trkpt>
      <trkpt lat="10.029181" lon="-84.262453">
        <ele>853.2</ele>
      </trkpt>
      <trkpt lat="10.029197" lon="-84.262359">
        <ele>854.3</ele>
      </trkpt>
      <trkpt lat="10.029176" lon="-84.262262">
        <ele>855.2</ele>
      </trkpt>
      <trkpt lat="10.029134" lon="-84.262217">
        <ele>856</ele>
      </trkpt>
      <trkpt lat="10.029044" lon="-84.262203">
        <ele>856.8</ele>
      </trkpt>
      <trkpt lat="10.028915" lon="-84.26223">
        <ele>857.5</ele>
      </trkpt>
      <trkpt lat="10.028756" lon="-84.262318">
        <ele>858.9</ele>
      </trkpt>
      <trkpt lat="10.028558" lon="-84.26248">
        <ele>860.3</ele>
      </trkpt>
      <trkpt lat="10.028304" lon="-84.262608">
        <ele>862</ele>
      </trkpt>
      <trkpt lat="10.028106" lon="-84.262681">
        <ele>862.8</ele>
      </trkpt>
      <trkpt lat="10.027869" lon="-84.262697">
        <ele>864</ele>
      </trkpt>
      <trkpt lat="10.027583" lon="-84.262673">
        <ele>865.3</ele>
      </trkpt>
      <trkpt lat="10.027491" lon="-84.262608">
        <ele>865.7</ele>
      </trkpt>
      <trkpt lat="10.027412" lon="-84.262531">
        <ele>866.2</ele>
      </trkpt>
      <trkpt lat="10.02734" lon="-84.26241">
        <ele>866.7</ele>
      </trkpt>
      <trkpt lat="10.027269" lon="-84.26219">
        <ele>867.9</ele>
      </trkpt>
      <trkpt lat="10.027211" lon="-84.262104">
        <ele>868.4</ele>
      </trkpt>
      <trkpt lat="10.027137" lon="-84.262067">
        <ele>869</ele>
      </trkpt>
      <trkpt lat="10.026944" lon="-84.262075">
        <ele>870</ele>
      </trkpt>
      <trkpt lat="10.026504" lon="-84.262237">
        <ele>873.3</ele>
      </trkpt>
      <trkpt lat="10.026051" lon="-84.262465">
        <ele>877.3</ele>
      </trkpt>
      <trkpt lat="10.025904" lon="-84.262481">
        <ele>878.4</ele>
      </trkpt>
      <trkpt lat="10.025814" lon="-84.262451">
        <ele>879.5</ele>
      </trkpt>
      <trkpt lat="10.025731" lon="-84.262394">
        <ele>880.6</ele>
      </trkpt>
      <trkpt lat="10.02568" lon="-84.262294">
        <ele>881.5</ele>
      </trkpt>
      <trkpt lat="10.025669" lon="-84.262157">
        <ele>882.5</ele>
      </trkpt>
      <trkpt lat="10.026377" lon="-84.25594">
        <ele>889.4</ele>
      </trkpt>
      <trkpt lat="10.026672" lon="-84.254261">
        <ele>888.1</ele>
      </trkpt>
      <trkpt lat="10.026671" lon="-84.254144">
        <ele>888</ele>
      </trkpt>
      <trkpt lat="10.026671" lon="-84.254144">
        <ele>887</ele>
      </trkpt>
      <trkpt lat="10.026671" lon="-84.253971">
        <ele>887</ele>
      </trkpt>
      <trkpt lat="10.026632" lon="-84.253747">
        <ele>886.9</ele>
      </trkpt>
      <trkpt lat="10.026537" lon="-84.253517">
        <ele>886.9</ele>
      </trkpt>
      <trkpt lat="10.025987" lon="-84.252549">
        <ele>886.7</ele>
      </trkpt>
      <trkpt lat="10.025558" lon="-84.25202">
        <ele>886.4</ele>
      </trkpt>
      <trkpt lat="10.02527" lon="-84.251651">
        <ele>886</ele>
      </trkpt>
      <trkpt lat="10.025124" lon="-84.251489">
        <ele>885.8</ele>
      </trkpt>
      <trkpt lat="10.025004" lon="-84.251342">
        <ele>885.1</ele>
      </trkpt>
      <trkpt lat="10.024763" lon="-84.251026">
        <ele>883.1</ele>
      </trkpt>
      <trkpt lat="10.024731" lon="-84.250954">
        <ele>882.5</ele>
      </trkpt>
      <trkpt lat="10.024717" lon="-84.250908">
        <ele>881.5</ele>
      </trkpt>
      <trkpt lat="10.024715" lon="-84.250832">
        <ele>880.8</ele>
      </trkpt>
      <trkpt lat="10.024729" lon="-84.250754">
        <ele>880.1</ele>
      </trkpt>
      <trkpt lat="10.024792" lon="-84.250632">
        <ele>879.4</ele>
      </trkpt>
      <trkpt lat="10.024845" lon="-84.250587">
        <ele>878.7</ele>
      </trkpt>
      <trkpt lat="10.025042" lon="-84.250488">
        <ele>877.3</ele>
      </trkpt>
      <trkpt lat="10.025112" lon="-84.250436">
        <ele>876.7</ele>
      </trkpt>
      <trkpt lat="10.025148" lon="-84.250387">
        <ele>876.1</ele>
      </trkpt>
      <trkpt lat="10.025176" lon="-84.250279">
        <ele>875.6</ele>
      </trkpt>
      <trkpt lat="10.025153" lon="-84.250186">
        <ele>875.1</ele>
      </trkpt>
      <trkpt lat="10.025124" lon="-84.250136">
        <ele>874.6</ele>
      </trkpt>
      <trkpt lat="10.024623" lon="-84.249578">
        <ele>872.6</ele>
      </trkpt>
      <trkpt lat="10.024507" lon="-84.249491">
        <ele>872.8</ele>
      </trkpt>
      <trkpt lat="10.024282" lon="-84.249362">
        <ele>872.7</ele>
      </trkpt>
      <trkpt lat="10.02407" lon="-84.249271">
        <ele>871.5</ele>
      </trkpt>
      <trkpt lat="10.023925" lon="-84.24925">
        <ele>870.7</ele>
      </trkpt>
      <trkpt lat="10.023925" lon="-84.24925">
        <ele>856</ele>
      </trkpt>
      <trkpt lat="10.023904" lon="-84.249247">
        <ele>856</ele>
      </trkpt>
      <trkpt lat="10.023794" lon="-84.24925">
        <ele>856</ele>
      </trkpt>
      <trkpt lat="10.023541" lon="-84.24933">
        <ele>856</ele>
      </trkpt>
      <trkpt lat="10.023415" lon="-84.249414">
        <ele>856</ele>
      </trkpt>
      <trkpt lat="10.023327" lon="-84.249493">
        <ele>856</ele>
      </trkpt>
      <trkpt lat="10.023279" lon="-84.249594">
        <ele>856</ele>
      </trkpt>
      <trkpt lat="10.023255" lon="-84.249691">
        <ele>856</ele>
      </trkpt>
      <trkpt lat="10.023242" lon="-84.249795">
        <ele>856</ele>
      </trkpt>
      <trkpt lat="10.02322" lon="-84.249886">
        <ele>856</ele>
      </trkpt>
      <trkpt lat="10.023149" lon="-84.250015">
        <ele>856</ele>
      </trkpt>
      <trkpt lat="10.02306" lon="-84.250061">
        <ele>856</ele>
      </trkpt>
      <trkpt lat="10.02282" lon="-84.250108">
        <ele>856</ele>
      </trkpt>
      <trkpt lat="10.022699" lon="-84.250106">
        <ele>856.1</ele>
      </trkpt>
      <trkpt lat="10.02258" lon="-84.250079">
        <ele>856.2</ele>
      </trkpt>
      <trkpt lat="10.022374" lon="-84.249994">
        <ele>856.3</ele>
      </trkpt>
      <trkpt lat="10.022141" lon="-84.249854">
        <ele>856.6</ele>
      </trkpt>
      <trkpt lat="10.021519" lon="-84.249701">
        <ele>857.3</ele>
      </trkpt>
      <trkpt lat="10.021519" lon="-84.249701">
        <ele>858</ele>
      </trkpt>
      <trkpt lat="10.021396" lon="-84.24967">
        <ele>858</ele>
      </trkpt>
      <trkpt lat="10.020341" lon="-84.249149">
        <ele>869.3</ele>
      </trkpt>
      <trkpt lat="10.019939" lon="-84.24886">
        <ele>872.9</ele>
      </trkpt>
      <trkpt lat="10.019104" lon="-84.247793">
        <ele>884.4</ele>
      </trkpt>
      <trkpt lat="10.018788" lon="-84.247484">
        <ele>884.8</ele>
      </trkpt>
      <trkpt lat="10.018573" lon="-84.247343">
        <ele>885.5</ele>
      </trkpt>
      <trkpt lat="10.018033" lon="-84.247077">
        <ele>888.3</ele>
      </trkpt>
      <trkpt lat="10.017446" lon="-84.246822">
        <ele>891.6</ele>
      </trkpt>
      <trkpt lat="10.017229" lon="-84.246657">
        <ele>892.8</ele>
      </trkpt>
      <trkpt lat="10.016893" lon="-84.246447">
        <ele>893.4</ele>
      </trkpt>
      <trkpt lat="10.01671" lon="-84.246294">
        <ele>893.2</ele>
      </trkpt>
      <trkpt lat="10.016404" lon="-84.246007">
        <ele>891.8</ele>
      </trkpt>
      <trkpt lat="10.016395" lon="-84.246045">
        <ele>891.4</ele>
      </trkpt>
      <trkpt lat="10.016395" lon="-84.246045">
        <ele>885</ele>
      </trkpt>
      <trkpt lat="10.016213" lon="-84.246784">
        <ele>885</ele>
      </trkpt>
      <trkpt lat="10.016206" lon="-84.246854">
        <ele>885</ele>
      </trkpt>
      <trkpt lat="10.016212" lon="-84.2469">
        <ele>885.1</ele>
      </trkpt>
      <trkpt lat="10.016212" lon="-84.2469">
        <ele>885.8</ele>
      </trkpt>
      <trkpt lat="10.016206" lon="-84.246854">
        <ele>885.4</ele>
      </trkpt>
      <trkpt lat="10.016075" lon="-84.246821">
        <ele>885.3</ele>
      </trkpt>
      <trkpt lat="10.015534" lon="-84.246589">
        <ele>885.1</ele>
      </trkpt>
      <trkpt lat="10.015083" lon="-84.246371">
        <ele>884.9</ele>
      </trkpt>
      <trkpt lat="10.014895" lon="-84.246298">
        <ele>884.8</ele>
      </trkpt>
      <trkpt lat="10.014743" lon="-84.24627">
        <ele>884.7</ele>
      </trkpt>
      <trkpt lat="10.014163" lon="-84.246253">
        <ele>883.7</ele>
      </trkpt>
      <trkpt lat="10.013996" lon="-84.246239">
        <ele>883.4</ele>
      </trkpt>
      <trkpt lat="10.013577" lon="-84.246206">
        <ele>882.4</ele>
      </trkpt>
      <trkpt lat="10.013548" lon="-84.246204">
        <ele>882.2</ele>
      </trkpt>
      <trkpt lat="10.013096" lon="-84.246193">
        <ele>880.8</ele>
      </trkpt>
      <trkpt lat="10.012906" lon="-84.246231">
        <ele>880.3</ele>
      </trkpt>
      <trkpt lat="10.012479" lon="-84.246348">
        <ele>879.4</ele>
      </trkpt>
      <trkpt lat="10.01219" lon="-84.246376">
        <ele>878.9</ele>
      </trkpt>
      <trkpt lat="10.012023" lon="-84.246382">
        <ele>878.7</ele>
      </trkpt>
      <trkpt lat="10.011942" lon="-84.247114">
        <ele>876.8</ele>
      </trkpt>
      <trkpt lat="10.011942" lon="-84.247114">
        <ele>875</ele>
      </trkpt>
      <trkpt lat="10.011928" lon="-84.247238">
        <ele>875</ele>
      </trkpt>
      <trkpt lat="10.011832" lon="-84.247921">
        <ele>875</ele>
      </trkpt>
      <trkpt lat="10.011504" lon="-84.249603">
        <ele>875.5</ele>
      </trkpt>
      <trkpt lat="10.011357" lon="-84.250291">
        <ele>875.4</ele>
      </trkpt>
      <trkpt lat="10.011263" lon="-84.250762">
        <ele>875</ele>
      </trkpt>
      <trkpt lat="10.011122" lon="-84.251569">
        <ele>874.3</ele>
      </trkpt>
      <trkpt lat="10.011069" lon="-84.251929">
        <ele>874.1</ele>
      </trkpt>
      <trkpt lat="10.011013" lon="-84.252479">
        <ele>873.4</ele>
      </trkpt>
      <trkpt lat="10.010917" lon="-84.25342">
        <ele>871.3</ele>
      </trkpt>
      <trkpt lat="10.010866" lon="-84.253901">
        <ele>869.8</ele>
      </trkpt>
      <trkpt lat="10.010734" lon="-84.254747">
        <ele>867.7</ele>
      </trkpt>
      <trkpt lat="10.010635" lon="-84.255177">
        <ele>866.8</ele>
      </trkpt>
      <trkpt lat="10.01059" lon="-84.255319">
        <ele>866.5</ele>
      </trkpt>
      <trkpt lat="10.010338" lon="-84.255905">
        <ele>864.4</ele>
      </trkpt>
      <trkpt lat="10.010097" lon="-84.256469">
        <ele>862.5</ele>
      </trkpt>
      <trkpt lat="10.009934" lon="-84.256975">
        <ele>861</ele>
      </trkpt>
      <trkpt lat="10.009864" lon="-84.257271">
        <ele>860.1</ele>
      </trkpt>
      <trkpt lat="10.009594" lon="-84.258807">
        <ele>857.2</ele>
      </trkpt>
      <trkpt lat="10.009251" lon="-84.260975">
        <ele>853</ele>
      </trkpt>
      <trkpt lat="10.009123" lon="-84.261645">
        <ele>851.8</ele>
      </trkpt>
      <trkpt lat="10.009068" lon="-84.261914">
        <ele>851.5</ele>
      </trkpt>
      <trkpt lat="10.009015" lon="-84.262168">
        <ele>851.3</ele>
      </trkpt>
      <trkpt lat="10.008912" lon="-84.262663">
        <ele>851.1</ele>
      </trkpt>
      <trkpt lat="10.008706" lon="-84.263606">
        <ele>851.5</ele>
      </trkpt>
      <trkpt lat="10.00859" lon="-84.264173">
        <ele>851.8</ele>
      </trkpt>
      <trkpt lat="10.008476" lon="-84.264715">
        <ele>851.9</ele>
      </trkpt>
      <trkpt lat="10.008202" lon="-84.266496">
        <ele>848.7</ele>
      </trkpt>
      <trkpt lat="10.008191" lon="-84.266673">
        <ele>848.6</ele>
      </trkpt>
      <trkpt lat="10.008195" lon="-84.266853">
        <ele>847.6</ele>
      </trkpt>
      <trkpt lat="10.008231" lon="-84.267045">
        <ele>845.7</ele>
      </trkpt>
      <trkpt lat="10.008269" lon="-84.267191">
        <ele>844.7</ele>
      </trkpt>
      <trkpt lat="10.008358" lon="-84.267393">
        <ele>842.9</ele>
      </trkpt>
      <trkpt lat="10.008656" lon="-84.267902">
        <ele>837.9</ele>
      </trkpt>
      <trkpt lat="10.009224" lon="-84.268761">
        <ele>832</ele>
      </trkpt>
      <trkpt lat="10.009338" lon="-84.268941">
        <ele>831.8</ele>
      </trkpt>
      <trkpt lat="10.009564" lon="-84.269361">
        <ele>830.9</ele>
      </trkpt>
      <trkpt lat="10.00974" lon="-84.269789">
        <ele>829.9</ele>
      </trkpt>
      <trkpt lat="10.010217" lon="-84.271264">
        <ele>824.8</ele>
      </trkpt>
      <trkpt lat="10.0107" lon="-84.272465">
        <ele>819.3</ele>
      </trkpt>
      <trkpt lat="10.010863" lon="-84.272991">
        <ele>817.2</ele>
      </trkpt>
      <trkpt lat="10.010965" lon="-84.273492">
        <ele>816</ele>
      </trkpt>
      <trkpt lat="10.011921" lon="-84.277255">
        <ele>804.4</ele>
      </trkpt>
      <trkpt lat="10.011968" lon="-84.277518">
        <ele>803.6</ele>
      </trkpt>
      <trkpt lat="10.01199" lon="-84.27779">
        <ele>802.9</ele>
      </trkpt>
      <trkpt lat="10.01198" lon="-84.278145">
        <ele>801.8</ele>
      </trkpt>
      <trkpt lat="10.011905" lon="-84.278961">
        <ele>799.8</ele>
      </trkpt>
      <trkpt lat="10.011833" lon="-84.27968">
        <ele>798.2</ele>
      </trkpt>
      <trkpt lat="10.011756" lon="-84.280523">
        <ele>796.1</ele>
      </trkpt>
      <trkpt lat="10.01172" lon="-84.280844">
        <ele>795.2</ele>
      </trkpt>
      <trkpt lat="10.011675" lon="-84.281097">
        <ele>794.6</ele>
      </trkpt>
      <trkpt lat="10.011579" lon="-84.281473">
        <ele>793.7</ele>
      </trkpt>
      <trkpt lat="10.011462" lon="-84.281893">
        <ele>792.6</ele>
      </trkpt>
      <trkpt lat="10.011106" lon="-84.283133">
        <ele>788.7</ele>
      </trkpt>
      <trkpt lat="10.010926" lon="-84.283748">
        <ele>787</ele>
      </trkpt>
      <trkpt lat="10.010698" lon="-84.284523">
        <ele>785</ele>
      </trkpt>
      <trkpt lat="10.010684" lon="-84.284568">
        <ele>784.8</ele>
      </trkpt>
      <trkpt lat="10.010533" lon="-84.285067">
        <ele>783.5</ele>
      </trkpt>
      <trkpt lat="10.010468" lon="-84.285293">
        <ele>783.2</ele>
      </trkpt>
      <trkpt lat="10.01004" lon="-84.286726">
        <ele>777.9</ele>
      </trkpt>
      <trkpt lat="10.00962" lon="-84.288209">
        <ele>769.1</ele>
      </trkpt>
      <trkpt lat="10.009499" lon="-84.288492">
        <ele>768.1</ele>
      </trkpt>
      <trkpt lat="10.009368" lon="-84.288728">
        <ele>767.6</ele>
      </trkpt>
      <trkpt lat="10.009243" lon="-84.288907">
        <ele>767.2</ele>
      </trkpt>
      <trkpt lat="10.008698" lon="-84.289483">
        <ele>766.2</ele>
      </trkpt>
      <trkpt lat="10.00847" lon="-84.289714">
        <ele>766</ele>
      </trkpt>
      <trkpt lat="10.008426" lon="-84.289757">
        <ele>765.6</ele>
      </trkpt>
      <trkpt lat="10.007716" lon="-84.290563">
        <ele>762.9</ele>
      </trkpt>
      <trkpt lat="10.007452" lon="-84.290968">
        <ele>762.6</ele>
      </trkpt>
      <trkpt lat="10.007105" lon="-84.291585">
        <ele>763.7</ele>
      </trkpt>
      <trkpt lat="10.00698" lon="-84.29171">
        <ele>763.9</ele>
      </trkpt>
      <trkpt lat="10.006885" lon="-84.291778">
        <ele>764.1</ele>
      </trkpt>
      <trkpt lat="10.006608" lon="-84.291978">
        <ele>763.2</ele>
      </trkpt>
      <trkpt lat="10.00642" lon="-84.292137">
        <ele>761.9</ele>
      </trkpt>
      <trkpt lat="10.006289" lon="-84.292299">
        <ele>760.4</ele>
      </trkpt>
      <trkpt lat="10.006183" lon="-84.292504">
        <ele>758.9</ele>
      </trkpt>
      <trkpt lat="10.006144" lon="-84.292637">
        <ele>758.1</ele>
      </trkpt>
      <trkpt lat="10.006125" lon="-84.292777">
        <ele>757.3</ele>
      </trkpt>
      <trkpt lat="10.006119" lon="-84.293375">
        <ele>752</ele>
      </trkpt>
      <trkpt lat="10.006109" lon="-84.293421">
        <ele>751</ele>
      </trkpt>
      <trkpt lat="10.006109" lon="-84.293421">
        <ele>745.3</ele>
      </trkpt>
      <trkpt lat="10.006003" lon="-84.293927">
        <ele>744.7</ele>
      </trkpt>
      <trkpt lat="10.005931" lon="-84.294185">
        <ele>744.5</ele>
      </trkpt>
      <trkpt lat="10.005844" lon="-84.29454">
        <ele>744.3</ele>
      </trkpt>
      <trkpt lat="10.005694" lon="-84.295109">
        <ele>744.2</ele>
      </trkpt>
      <trkpt lat="10.005663" lon="-84.29522">
        <ele>744.2</ele>
      </trkpt>
      <trkpt lat="10.00561" lon="-84.295425">
        <ele>744.1</ele>
      </trkpt>
      <trkpt lat="10.0056" lon="-84.295467">
        <ele>744.1</ele>
      </trkpt>
      <trkpt lat="10.005497" lon="-84.295835">
        <ele>744</ele>
      </trkpt>
      <trkpt lat="10.005441" lon="-84.296062">
        <ele>743.7</ele>
      </trkpt>
      <trkpt lat="10.005426" lon="-84.296113">
        <ele>743.5</ele>
      </trkpt>
      <trkpt lat="10.00537" lon="-84.296312">
        <ele>742.9</ele>
      </trkpt>
      <trkpt lat="10.005303" lon="-84.296459">
        <ele>742.6</ele>
      </trkpt>
      <trkpt lat="10.005123" lon="-84.296714">
        <ele>741.7</ele>
      </trkpt>
      <trkpt lat="10.004751" lon="-84.296947">
        <ele>740.5</ele>
      </trkpt>
      <trkpt lat="10.004582" lon="-84.297101">
        <ele>739.9</ele>
      </trkpt>
      <trkpt lat="10.004114" lon="-84.297575">
        <ele>738.1</ele>
      </trkpt>
      <trkpt lat="10.004022" lon="-84.297665">
        <ele>738.3</ele>
      </trkpt>
      <trkpt lat="10.003542" lon="-84.298176">
        <ele>738.4</ele>
      </trkpt>
      <trkpt lat="10.003414" lon="-84.298329">
        <ele>738</ele>
      </trkpt>
      <trkpt lat="10.003297" lon="-84.298508">
        <ele>737.6</ele>
      </trkpt>
      <trkpt lat="10.002966" lon="-84.299257">
        <ele>735.6</ele>
      </trkpt>
      <trkpt lat="10.002681" lon="-84.299929">
        <ele>732.8</ele>
      </trkpt>
      <trkpt lat="10.002499" lon="-84.300382">
        <ele>728.8</ele>
      </trkpt>
      <trkpt lat="10.002409" lon="-84.300621">
        <ele>726.4</ele>
      </trkpt>
      <trkpt lat="10.002334" lon="-84.300869">
        <ele>724</ele>
      </trkpt>
      <trkpt lat="10.00222" lon="-84.301266">
        <ele>719.4</ele>
      </trkpt>
      <trkpt lat="10.002138" lon="-84.301602">
        <ele>715.9</ele>
      </trkpt>
      <trkpt lat="10.002005" lon="-84.302096">
        <ele>710.4</ele>
      </trkpt>
      <trkpt lat="10.001893" lon="-84.302535">
        <ele>709.7</ele>
      </trkpt>
      <trkpt lat="10.001242" lon="-84.305834">
        <ele>713.4</ele>
      </trkpt>
      <trkpt lat="10.00119" lon="-84.306005">
        <ele>713.4</ele>
      </trkpt>
      <trkpt lat="10.001123" lon="-84.306171">
        <ele>713.2</ele>
      </trkpt>
      <trkpt lat="10.000973" lon="-84.306435">
        <ele>712.7</ele>
      </trkpt>
      <trkpt lat="10.000856" lon="-84.306582">
        <ele>712.4</ele>
      </trkpt>
      <trkpt lat="10.000676" lon="-84.306767">
        <ele>712</ele>
      </trkpt>
      <trkpt lat="10.000321" lon="-84.307099">
        <ele>710.9</ele>
      </trkpt>
      <trkpt lat="9.999958" lon="-84.307397">
        <ele>709.5</ele>
      </trkpt>
      <trkpt lat="9.999769" lon="-84.30752">
        <ele>708.9</ele>
      </trkpt>
      <trkpt lat="9.999555" lon="-84.307614">
        <ele>708.4</ele>
      </trkpt>
      <trkpt lat="9.99833" lon="-84.307971">
        <ele>704.2</ele>
      </trkpt>
      <trkpt lat="9.997986" lon="-84.30809">
        <ele>703.1</ele>
      </trkpt>
      <trkpt lat="9.997853" lon="-84.308156">
        <ele>702.9</ele>
      </trkpt>
      <trkpt lat="9.997579" lon="-84.308361">
        <ele>702.2</ele>
      </trkpt>
      <trkpt lat="9.997319" lon="-84.308602">
        <ele>701.5</ele>
      </trkpt>
      <trkpt lat="9.996711" lon="-84.309167">
        <ele>700.4</ele>
      </trkpt>
      <trkpt lat="9.996602" lon="-84.309267">
        <ele>700.3</ele>
      </trkpt>
      <trkpt lat="9.996478" lon="-84.30942">
        <ele>700.1</ele>
      </trkpt>
      <trkpt lat="9.996386" lon="-84.309563">
        <ele>700.1</ele>
      </trkpt>
      <trkpt lat="9.996257" lon="-84.30985">
        <ele>700</ele>
      </trkpt>
      <trkpt lat="9.996163" lon="-84.310117">
        <ele>700</ele>
      </trkpt>
      <trkpt lat="9.995634" lon="-84.311568">
        <ele>696.2</ele>
      </trkpt>
      <trkpt lat="9.995518" lon="-84.311904">
        <ele>694.8</ele>
      </trkpt>
      <trkpt lat="9.995403" lon="-84.312212">
        <ele>693.6</ele>
      </trkpt>
      <trkpt lat="9.995315" lon="-84.312454">
        <ele>692.9</ele>
      </trkpt>
      <trkpt lat="9.995266" lon="-84.312574">
        <ele>692.5</ele>
      </trkpt>
      <trkpt lat="9.99516" lon="-84.312809">
        <ele>692.4</ele>
      </trkpt>
      <trkpt lat="9.994443" lon="-84.314012">
        <ele>695.5</ele>
      </trkpt>
      <trkpt lat="9.994288" lon="-84.314296">
        <ele>696.4</ele>
      </trkpt>
      <trkpt lat="9.994179" lon="-84.314533">
        <ele>696.7</ele>
      </trkpt>
      <trkpt lat="9.99361" lon="-84.315974">
        <ele>694.3</ele>
      </trkpt>
      <trkpt lat="9.993561" lon="-84.316103">
        <ele>693.9</ele>
      </trkpt>
      <trkpt lat="9.993509" lon="-84.31624">
        <ele>693.6</ele>
      </trkpt>
      <trkpt lat="9.993386" lon="-84.316578">
        <ele>692.7</ele>
      </trkpt>
      <trkpt lat="9.993268" lon="-84.316865">
        <ele>692.1</ele>
      </trkpt>
      <trkpt lat="9.993107" lon="-84.317296">
        <ele>691.6</ele>
      </trkpt>
      <trkpt lat="9.99302" lon="-84.317567">
        <ele>691.7</ele>
      </trkpt>
      <trkpt lat="9.992848" lon="-84.318148">
        <ele>692.3</ele>
      </trkpt>
      <trkpt lat="9.99283" lon="-84.31821">
        <ele>692.4</ele>
      </trkpt>
      <trkpt lat="9.992683" lon="-84.318839">
        <ele>692.5</ele>
      </trkpt>
      <trkpt lat="9.992625" lon="-84.319193">
        <ele>691.7</ele>
      </trkpt>
      <trkpt lat="9.992582" lon="-84.319506">
        <ele>690.7</ele>
      </trkpt>
      <trkpt lat="9.992537" lon="-84.319814">
        <ele>689.6</ele>
      </trkpt>
      <trkpt lat="9.992463" lon="-84.320305">
        <ele>687.9</ele>
      </trkpt>
      <trkpt lat="9.992453" lon="-84.3204">
        <ele>687.6</ele>
      </trkpt>
      <trkpt lat="9.992443" lon="-84.320496">
        <ele>687.3</ele>
      </trkpt>
      <trkpt lat="9.992405" lon="-84.32078">
        <ele>686.5</ele>
      </trkpt>
      <trkpt lat="9.992386" lon="-84.320969">
        <ele>685.9</ele>
      </trkpt>
      <trkpt lat="9.992369" lon="-84.321092">
        <ele>685.3</ele>
      </trkpt>
      <trkpt lat="9.992368" lon="-84.321096">
        <ele>684.9</ele>
      </trkpt>
      <trkpt lat="9.992368" lon="-84.321096">
        <ele>677</ele>
      </trkpt>
      <trkpt lat="9.992369" lon="-84.321092">
        <ele>677</ele>
      </trkpt>
      <trkpt lat="9.991991" lon="-84.321052">
        <ele>677</ele>
      </trkpt>
      <trkpt lat="9.9912" lon="-84.320889">
        <ele>676.4</ele>
      </trkpt>
      <trkpt lat="9.98964" lon="-84.320567">
        <ele>670.7</ele>
      </trkpt>
      <trkpt lat="9.989282" lon="-84.320518">
        <ele>668.5</ele>
      </trkpt>
      <trkpt lat="9.988963" lon="-84.320552">
        <ele>667.1</ele>
      </trkpt>
      <trkpt lat="9.988053" lon="-84.320729">
        <ele>663.9</ele>
      </trkpt>
      <trkpt lat="9.987927" lon="-84.320746">
        <ele>663.7</ele>
      </trkpt>
      <trkpt lat="9.987666" lon="-84.32075">
        <ele>663.4</ele>
      </trkpt>
      <trkpt lat="9.987352" lon="-84.320744">
        <ele>662.8</ele>
      </trkpt>
      <trkpt lat="9.985643" lon="-84.320728">
        <ele>660</ele>
      </trkpt>
      <trkpt lat="9.984606" lon="-84.320717">
        <ele>658.9</ele>
      </trkpt>
      <trkpt lat="9.984349" lon="-84.320732">
        <ele>658.5</ele>
      </trkpt>
      <trkpt lat="9.984109" lon="-84.320782">
        <ele>658.1</ele>
      </trkpt>
      <trkpt lat="9.983854" lon="-84.320873">
        <ele>657.1</ele>
      </trkpt>
      <trkpt lat="9.983635" lon="-84.320995">
        <ele>656.3</ele>
      </trkpt>
      <trkpt lat="9.982749" lon="-84.32159">
        <ele>651.6</ele>
      </trkpt>
      <trkpt lat="9.98244" lon="-84.32172">
        <ele>650.2</ele>
      </trkpt>
      <trkpt lat="9.98231" lon="-84.321748">
        <ele>649.8</ele>
      </trkpt>
      <trkpt lat="9.982154" lon="-84.321755">
        <ele>649.4</ele>
      </trkpt>
      <trkpt lat="9.981919" lon="-84.321745">
        <ele>648.6</ele>
      </trkpt>
      <trkpt lat="9.9818" lon="-84.321709">
        <ele>648.3</ele>
      </trkpt>
      <trkpt lat="9.981509" lon="-84.321573">
        <ele>647.5</ele>
      </trkpt>
      <trkpt lat="9.981369" lon="-84.321471">
        <ele>647.3</ele>
      </trkpt>
      <trkpt lat="9.981266" lon="-84.321375">
        <ele>647.1</ele>
      </trkpt>
      <trkpt lat="9.981174" lon="-84.321262">
        <ele>646.8</ele>
      </trkpt>
      <trkpt lat="9.980777" lon="-84.320633">
        <ele>645.5</ele>
      </trkpt>
      <trkpt lat="9.980685" lon="-84.320498">
        <ele>645.4</ele>
      </trkpt>
      <trkpt lat="9.98034" lon="-84.320024">
        <ele>644.7</ele>
      </trkpt>
      <trkpt lat="9.98024" lon="-84.319852">
        <ele>644.6</ele>
      </trkpt>
      <trkpt lat="9.980165" lon="-84.319678">
        <ele>644.5</ele>
      </trkpt>
      <trkpt lat="9.98012" lon="-84.319476">
        <ele>644.5</ele>
      </trkpt>
      <trkpt lat="9.980107" lon="-84.319293">
        <ele>644.6</ele>
      </trkpt>
      <trkpt lat="9.980133" lon="-84.319052">
        <ele>644.7</ele>
      </trkpt>
      <trkpt lat="9.980204" lon="-84.318695">
        <ele>645.4</ele>
      </trkpt>
      <trkpt lat="9.980284" lon="-84.318526">
        <ele>646.1</ele>
      </trkpt>
      <trkpt lat="9.980336" lon="-84.318282">
        <ele>646.8</ele>
      </trkpt>
      <trkpt lat="9.980337" lon="-84.31815">
        <ele>647.2</ele>
      </trkpt>
      <trkpt lat="9.980321" lon="-84.317955">
        <ele>647.9</ele>
      </trkpt>
      <trkpt lat="9.980189" lon="-84.317383">
        <ele>649.6</ele>
      </trkpt>
      <trkpt lat="9.980147" lon="-84.317205">
        <ele>650.2</ele>
      </trkpt>
      <trkpt lat="9.980136" lon="-84.317156">
        <ele>650.5</ele>
      </trkpt>
      <trkpt lat="9.980099" lon="-84.317011">
        <ele>650.7</ele>
      </trkpt>
      <trkpt lat="9.980056" lon="-84.316828">
        <ele>651.2</ele>
      </trkpt>
      <trkpt lat="9.979945" lon="-84.316421">
        <ele>651.8</ele>
      </trkpt>
      <trkpt lat="9.979893" lon="-84.316281">
        <ele>651.9</ele>
      </trkpt>
      <trkpt lat="9.979813" lon="-84.316142">
        <ele>652.1</ele>
      </trkpt>
      <trkpt lat="9.979734" lon="-84.316045">
        <ele>652.3</ele>
      </trkpt>
      <trkpt lat="9.979671" lon="-84.315978">
        <ele>652.5</ele>
      </trkpt>
      <trkpt lat="9.979596" lon="-84.315911">
        <ele>652.7</ele>
      </trkpt>
      <trkpt lat="9.979356" lon="-84.315766">
        <ele>653.3</ele>
      </trkpt>
      <trkpt lat="9.979076" lon="-84.315671">
        <ele>653.9</ele>
      </trkpt>
      <trkpt lat="9.978919" lon="-84.315636">
        <ele>654.1</ele>
      </trkpt>
      <trkpt lat="9.978771" lon="-84.315624">
        <ele>654.3</ele>
      </trkpt>
      <trkpt lat="9.978262" lon="-84.315734">
        <ele>654.8</ele>
      </trkpt>
      <trkpt lat="9.97791" lon="-84.31581">
        <ele>654.9</ele>
      </trkpt>
      <trkpt lat="9.976579" lon="-84.31594">
        <ele>654.5</ele>
      </trkpt>
      <trkpt lat="9.975045" lon="-84.316042">
        <ele>654.2</ele>
      </trkpt>
      <trkpt lat="9.974795" lon="-84.316061">
        <ele>654.6</ele>
      </trkpt>
      <trkpt lat="9.973616" lon="-84.316144">
        <ele>658.3</ele>
      </trkpt>
      <trkpt lat="9.970423" lon="-84.316059">
        <ele>662.1</ele>
      </trkpt>
      <trkpt lat="9.970224" lon="-84.316057">
        <ele>662.3</ele>
      </trkpt>
      <trkpt lat="9.969497" lon="-84.316044">
        <ele>662.8</ele>
      </trkpt>
      <trkpt lat="9.96925" lon="-84.316037">
        <ele>662.9</ele>
      </trkpt>
      <trkpt lat="9.967001" lon="-84.315971">
        <ele>655.7</ele>
      </trkpt>
      <trkpt lat="9.96665" lon="-84.315974">
        <ele>654.4</ele>
      </trkpt>
      <trkpt lat="9.966503" lon="-84.316018">
        <ele>654</ele>
      </trkpt>
      <trkpt lat="9.965898" lon="-84.316405">
        <ele>650.9</ele>
      </trkpt>
      <trkpt lat="9.96581" lon="-84.316468">
        <ele>650.5</ele>
      </trkpt>
      <trkpt lat="9.965767" lon="-84.3165">
        <ele>649.8</ele>
      </trkpt>
      <trkpt lat="9.965729" lon="-84.316538">
        <ele>649.2</ele>
      </trkpt>
      <trkpt lat="9.965685" lon="-84.31664">
        <ele>648.5</ele>
      </trkpt>
      <trkpt lat="9.965443" lon="-84.317541">
        <ele>642.7</ele>
      </trkpt>
      <trkpt lat="9.965377" lon="-84.317651">
        <ele>642.3</ele>
      </trkpt>
      <trkpt lat="9.965325" lon="-84.317688">
        <ele>641.8</ele>
      </trkpt>
      <trkpt lat="9.965273" lon="-84.317707">
        <ele>641.3</ele>
      </trkpt>
      <trkpt lat="9.965214" lon="-84.31772">
        <ele>640.9</ele>
      </trkpt>
      <trkpt lat="9.965155" lon="-84.317728">
        <ele>640.5</ele>
      </trkpt>
      <trkpt lat="9.964365" lon="-84.317778">
        <ele>641</ele>
      </trkpt>
      <trkpt lat="9.963688" lon="-84.317847">
        <ele>643.2</ele>
      </trkpt>
      <trkpt lat="9.963474" lon="-84.317842">
        <ele>643.8</ele>
      </trkpt>
      <trkpt lat="9.963301" lon="-84.317826">
        <ele>644.3</ele>
      </trkpt>
      <trkpt lat="9.962681" lon="-84.317746">
        <ele>645.8</ele>
      </trkpt>
      <trkpt lat="9.9626" lon="-84.31775">
        <ele>645.9</ele>
      </trkpt>
      <trkpt lat="9.962495" lon="-84.317748">
        <ele>645.9</ele>
      </trkpt>
      <trkpt lat="9.961868" lon="-84.317694">
        <ele>645.8</ele>
      </trkpt>
      <trkpt lat="9.961703" lon="-84.317648">
        <ele>645.8</ele>
      </trkpt>
      <trkpt lat="9.961715" lon="-84.317619">
        <ele>645.7</ele>
      </trkpt>
      <trkpt lat="9.961715" lon="-84.317619">
        <ele>645</ele>
      </trkpt>
      <trkpt lat="9.961864" lon="-84.31725">
        <ele>645</ele>
      </trkpt>
      <trkpt lat="9.962122" lon="-84.316533">
        <ele>647.4</ele>
      </trkpt>
      <trkpt lat="9.962735" lon="-84.31487">
        <ele>652.5</ele>
      </trkpt>
      <trkpt lat="9.962776" lon="-84.314759">
        <ele>652.6</ele>
      </trkpt>
      <trkpt lat="9.962871" lon="-84.314307">
        <ele>653.4</ele>
      </trkpt>
      <trkpt lat="9.963093" lon="-84.313088">
        <ele>656.6</ele>
      </trkpt>
      <trkpt lat="9.963215" lon="-84.312614">
        <ele>658.7</ele>
      </trkpt>
      <trkpt lat="9.963336" lon="-84.312142">
        <ele>660.9</ele>
      </trkpt>
      <trkpt lat="9.96346" lon="-84.311662">
        <ele>662.8</ele>
      </trkpt>
      <trkpt lat="9.96374" lon="-84.310409">
        <ele>664.3</ele>
      </trkpt>
      <trkpt lat="9.963775" lon="-84.310163">
        <ele>664</ele>
      </trkpt>
      <trkpt lat="9.964156" lon="-84.30857">
        <ele>664.2</ele>
      </trkpt>
      <trkpt lat="9.964465" lon="-84.307581">
        <ele>669</ele>
      </trkpt>
      <trkpt lat="9.96473" lon="-84.306491">
        <ele>675.4</ele>
      </trkpt>
      <trkpt lat="9.964803" lon="-84.306177">
        <ele>676.7</ele>
      </trkpt>
      <trkpt lat="9.964889" lon="-84.305748">
        <ele>678.1</ele>
      </trkpt>
      <trkpt lat="9.965096" lon="-84.301953">
        <ele>688.7</ele>
      </trkpt>
      <trkpt lat="9.965109" lon="-84.301837">
        <ele>688.9</ele>
      </trkpt>
      <trkpt lat="9.96518" lon="-84.301231">
        <ele>690</ele>
      </trkpt>
      <trkpt lat="9.96518" lon="-84.301231">
        <ele>691</ele>
      </trkpt>
      <trkpt lat="9.965183" lon="-84.301204">
        <ele>691</ele>
      </trkpt>
      <trkpt lat="9.965225" lon="-84.300901">
        <ele>691.6</ele>
      </trkpt>
      <trkpt lat="9.965267" lon="-84.30065">
        <ele>692.1</ele>
      </trkpt>
      <trkpt lat="9.965332" lon="-84.300445">
        <ele>692.3</ele>
      </trkpt>
      <trkpt lat="9.965537" lon="-84.300003">
        <ele>692.8</ele>
      </trkpt>
      <trkpt lat="9.965818" lon="-84.299508">
        <ele>694.3</ele>
      </trkpt>
      <trkpt lat="9.966126" lon="-84.298972">
        <ele>697.2</ele>
      </trkpt>
      <trkpt lat="9.96632" lon="-84.29869">
        <ele>698.5</ele>
      </trkpt>
      <trkpt lat="9.967392" lon="-84.297453">
        <ele>705.6</ele>
      </trkpt>
      <trkpt lat="9.967505" lon="-84.297218">
        <ele>706.2</ele>
      </trkpt>
      <trkpt lat="9.967802" lon="-84.296522">
        <ele>708.2</ele>
      </trkpt>
      <trkpt lat="9.96792" lon="-84.29626">
        <ele>709.1</ele>
      </trkpt>
      <trkpt lat="9.968004" lon="-84.29602">
        <ele>709.8</ele>
      </trkpt>
      <trkpt lat="9.968018" lon="-84.295836">
        <ele>710.6</ele>
      </trkpt>
      <trkpt lat="9.96799" lon="-84.295653">
        <ele>711.5</ele>
      </trkpt>
      <trkpt lat="9.967503" lon="-84.295017">
        <ele>715.4</ele>
      </trkpt>
      <trkpt lat="9.96735" lon="-84.294735">
        <ele>717.6</ele>
      </trkpt>
      <trkpt lat="9.966974" lon="-84.293562">
        <ele>725.6</ele>
      </trkpt>
      <trkpt lat="9.966807" lon="-84.292785">
        <ele>729.2</ele>
      </trkpt>
      <trkpt lat="9.966736" lon="-84.291935">
        <ele>731.2</ele>
      </trkpt>
      <trkpt lat="9.966724" lon="-84.291258">
        <ele>733.2</ele>
      </trkpt>
      <trkpt lat="9.966735" lon="-84.289978">
        <ele>739.2</ele>
      </trkpt>
      <trkpt lat="9.96672" lon="-84.287545">
        <ele>746.4</ele>
      </trkpt>
      <trkpt lat="9.966831" lon="-84.284744">
        <ele>749</ele>
      </trkpt>
      <trkpt lat="9.966897" lon="-84.283722">
        <ele>749</ele>
      </trkpt>
      <trkpt lat="9.966865" lon="-84.283355">
        <ele>749</ele>
      </trkpt>
      <trkpt lat="9.966814" lon="-84.283176">
        <ele>749</ele>
      </trkpt>
      <trkpt lat="9.966744" lon="-84.282993">
        <ele>749</ele>
      </trkpt>
      <trkpt lat="9.966366" lon="-84.282216">
        <ele>750.5</ele>
      </trkpt>
      <trkpt lat="9.96616" lon="-84.281825">
        <ele>751.7</ele>
      </trkpt>
      <trkpt lat="9.965749" lon="-84.281277">
        <ele>753.8</ele>
      </trkpt>
      <trkpt lat="9.965556" lon="-84.280984">
        <ele>754.5</ele>
      </trkpt>
      <trkpt lat="9.965421" lon="-84.280606">
        <ele>755</ele>
      </trkpt>
      <trkpt lat="9.965356" lon="-84.280336">
        <ele>755</ele>
      </trkpt>
      <trkpt lat="9.965309" lon="-84.280126">
        <ele>755</ele>
      </trkpt>
      <trkpt lat="9.965284" lon="-84.28008">
        <ele>755</ele>
      </trkpt>
      <trkpt lat="9.965256" lon="-84.280036">
        <ele>755</ele>
      </trkpt>
      <trkpt lat="9.965225" lon="-84.279993">
        <ele>755</ele>
      </trkpt>
      <trkpt lat="9.965203" lon="-84.279999">
        <ele>755</ele>
      </trkpt>
      <trkpt lat="9.965181" lon="-84.280002">
        <ele>755</ele>
      </trkpt>
      <trkpt lat="9.965152" lon="-84.280001">
        <ele>755</ele>
      </trkpt>
      <trkpt lat="9.965097" lon="-84.279986">
        <ele>755</ele>
      </trkpt>
      <trkpt lat="9.965031" lon="-84.279931">
        <ele>755</ele>
      </trkpt>
      <trkpt lat="9.965016" lon="-84.279907">
        <ele>755</ele>
      </trkpt>
      <trkpt lat="9.965002" lon="-84.279867">
        <ele>755</ele>
      </trkpt>
      <trkpt lat="9.964998" lon="-84.279824">
        <ele>755</ele>
      </trkpt>
      <trkpt lat="9.965004" lon="-84.279782">
        <ele>755</ele>
      </trkpt>
      <trkpt lat="9.96502" lon="-84.279743">
        <ele>755</ele>
      </trkpt>
      <trkpt lat="9.96504" lon="-84.279715">
        <ele>755</ele>
      </trkpt>
      <trkpt lat="9.965092" lon="-84.279674">
        <ele>755</ele>
      </trkpt>
      <trkpt lat="9.965156" lon="-84.279656">
        <ele>755</ele>
      </trkpt>
      <trkpt lat="9.965189" lon="-84.279657">
        <ele>755</ele>
      </trkpt>
      <trkpt lat="9.965224" lon="-84.279665">
        <ele>755</ele>
      </trkpt>
      <trkpt lat="9.96523" lon="-84.279668">
        <ele>755</ele>
      </trkpt>
      <trkpt lat="9.965269" lon="-84.279645">
        <ele>755</ele>
      </trkpt>
      <trkpt lat="9.965305" lon="-84.279619">
        <ele>755</ele>
      </trkpt>
      <trkpt lat="9.965341" lon="-84.279591">
        <ele>755</ele>
      </trkpt>
      <trkpt lat="9.965453" lon="-84.279457">
        <ele>755</ele>
      </trkpt>
      <trkpt lat="9.965657" lon="-84.279146">
        <ele>755.3</ele>
      </trkpt>
      <trkpt lat="9.965788" lon="-84.278973">
        <ele>755.4</ele>
      </trkpt>
      <trkpt lat="9.965965" lon="-84.278796">
        <ele>755.7</ele>
      </trkpt>
      <trkpt lat="9.966166" lon="-84.278651">
        <ele>756</ele>
      </trkpt>
      <trkpt lat="9.966421" lon="-84.278525">
        <ele>756.4</ele>
      </trkpt>
      <trkpt lat="9.96672" lon="-84.278418">
        <ele>757</ele>
      </trkpt>
      <trkpt lat="9.967771" lon="-84.278124">
        <ele>761.5</ele>
      </trkpt>
      <trkpt lat="9.968026" lon="-84.277915">
        <ele>762.8</ele>
      </trkpt>
      <trkpt lat="9.968179" lon="-84.27773">
        <ele>763.6</ele>
      </trkpt>
      <trkpt lat="9.968439" lon="-84.277169">
        <ele>765.7</ele>
      </trkpt>
      <trkpt lat="9.968657" lon="-84.276777">
        <ele>766.8</ele>
      </trkpt>
      <trkpt lat="9.968657" lon="-84.276777">
        <ele>768.8</ele>
      </trkpt>
      <trkpt lat="9.968978" lon="-84.276198">
        <ele>769.4</ele>
      </trkpt>
      <trkpt lat="9.97007" lon="-84.274771">
        <ele>774.5</ele>
      </trkpt>
      <trkpt lat="9.970893" lon="-84.273746">
        <ele>776</ele>
      </trkpt>
      <trkpt lat="9.971532" lon="-84.272853">
        <ele>775.5</ele>
      </trkpt>
      <trkpt lat="9.971762" lon="-84.272538">
        <ele>777.2</ele>
      </trkpt>
      <trkpt lat="9.972421" lon="-84.271634">
        <ele>784.3</ele>
      </trkpt>
      <trkpt lat="9.972755" lon="-84.271164">
        <ele>786.4</ele>
      </trkpt>
      <trkpt lat="9.972909" lon="-84.270963">
        <ele>787</ele>
      </trkpt>
      <trkpt lat="9.973129" lon="-84.270692">
        <ele>788</ele>
      </trkpt>
      <trkpt lat="9.973516" lon="-84.270222">
        <ele>789.8</ele>
      </trkpt>
      <trkpt lat="9.973625" lon="-84.270048">
        <ele>790.2</ele>
      </trkpt>
      <trkpt lat="9.97403" lon="-84.269566">
        <ele>791.6</ele>
      </trkpt>
      <trkpt lat="9.974336" lon="-84.269216">
        <ele>792</ele>
      </trkpt>
      <trkpt lat="9.974714" lon="-84.268786">
        <ele>793.2</ele>
      </trkpt>
      <trkpt lat="9.974792" lon="-84.268691">
        <ele>793.6</ele>
      </trkpt>
      <trkpt lat="9.97499" lon="-84.268432">
        <ele>794.3</ele>
      </trkpt>
      <trkpt lat="9.975122" lon="-84.268269">
        <ele>794.7</ele>
      </trkpt>
      <trkpt lat="9.975711" lon="-84.267456">
        <ele>796.6</ele>
      </trkpt>
      <trkpt lat="9.975983" lon="-84.267068">
        <ele>796.1</ele>
      </trkpt>
      <trkpt lat="9.976032" lon="-84.266999">
        <ele>796.2</ele>
      </trkpt>
      <trkpt lat="9.976293" lon="-84.266629">
        <ele>796.9</ele>
      </trkpt>
      <trkpt lat="9.976404" lon="-84.266487">
        <ele>797.3</ele>
      </trkpt>
      <trkpt lat="9.976487" lon="-84.266405">
        <ele>797.7</ele>
      </trkpt>
      <trkpt lat="9.976581" lon="-84.266324">
        <ele>798.1</ele>
      </trkpt>
      <trkpt lat="9.976798" lon="-84.266176">
        <ele>798.8</ele>
      </trkpt>
      <trkpt lat="9.977324" lon="-84.265505">
        <ele>801.5</ele>
      </trkpt>
      <trkpt lat="9.978038" lon="-84.264645">
        <ele>803.9</ele>
      </trkpt>
      <trkpt lat="9.978207" lon="-84.264405">
        <ele>804.9</ele>
      </trkpt>
      <trkpt lat="9.97838" lon="-84.264141">
        <ele>806</ele>
      </trkpt>
      <trkpt lat="9.978607" lon="-84.263781">
        <ele>807.5</ele>
      </trkpt>
      <trkpt lat="9.978882" lon="-84.263359">
        <ele>808.7</ele>
      </trkpt>
      <trkpt lat="9.979309" lon="-84.262667">
        <ele>807.7</ele>
      </trkpt>
      <trkpt lat="9.979504" lon="-84.262362">
        <ele>807.4</ele>
      </trkpt>
      <trkpt lat="9.979819" lon="-84.261809">
        <ele>807.4</ele>
      </trkpt>
      <trkpt lat="9.97988" lon="-84.261714">
        <ele>807.4</ele>
      </trkpt>
      <trkpt lat="9.980079" lon="-84.261408">
        <ele>807.5</ele>
      </trkpt>
      <trkpt lat="9.980424" lon="-84.260845">
        <ele>808.9</ele>
      </trkpt>
      <trkpt lat="9.981218" lon="-84.259598">
        <ele>809.9</ele>
      </trkpt>
      <trkpt lat="9.981277" lon="-84.259491">
        <ele>810</ele>
      </trkpt>
      <trkpt lat="9.981277" lon="-84.259491">
        <ele>811</ele>
      </trkpt>
      <trkpt lat="9.981322" lon="-84.259409">
        <ele>811</ele>
      </trkpt>
      <trkpt lat="9.981163" lon="-84.259415">
        <ele>811</ele>
      </trkpt>
      <trkpt lat="9.981056" lon="-84.259395">
        <ele>811.8</ele>
      </trkpt>
      <trkpt lat="9.980948" lon="-84.259354">
        <ele>812.2</ele>
      </trkpt>
      <trkpt lat="9.980745" lon="-84.259252">
        <ele>812.9</ele>
      </trkpt>
      <trkpt lat="9.98018" lon="-84.258909">
        <ele>813.9</ele>
      </trkpt>
      <trkpt lat="9.979925" lon="-84.258755">
        <ele>814.1</ele>
      </trkpt>
      <trkpt lat="9.979744" lon="-84.258626">
        <ele>814.2</ele>
      </trkpt>
      <trkpt lat="9.979617" lon="-84.258511">
        <ele>814.2</ele>
      </trkpt>
      <trkpt lat="9.979498" lon="-84.258376">
        <ele>814.4</ele>
      </trkpt>
      <trkpt lat="9.97926" lon="-84.25805">
        <ele>813.8</ele>
      </trkpt>
      <trkpt lat="9.979051" lon="-84.257779">
        <ele>812.6</ele>
      </trkpt>
      <trkpt lat="9.978999" lon="-84.25765">
        <ele>812.1</ele>
      </trkpt>
      <trkpt lat="9.97897" lon="-84.257387">
        <ele>811.1</ele>
      </trkpt>
      <trkpt lat="9.978948" lon="-84.257325">
        <ele>810.7</ele>
      </trkpt>
      <trkpt lat="9.978881" lon="-84.257272">
        <ele>810.2</ele>
      </trkpt>
      <trkpt lat="9.97883" lon="-84.257263">
        <ele>809.8</ele>
      </trkpt>
      <trkpt lat="9.978685" lon="-84.257251">
        <ele>809.3</ele>
      </trkpt>
      <trkpt lat="9.977969" lon="-84.257198">
        <ele>805.3</ele>
      </trkpt>
      <trkpt lat="9.977841" lon="-84.257162">
        <ele>804.7</ele>
      </trkpt>
      <trkpt lat="9.977706" lon="-84.257074">
        <ele>804.1</ele>
      </trkpt>
      <trkpt lat="9.977508" lon="-84.256899">
        <ele>803.2</ele>
      </trkpt>
      <trkpt lat="9.977323" lon="-84.256773">
        <ele>802.1</ele>
      </trkpt>
      <trkpt lat="9.976916" lon="-84.256562">
        <ele>799.4</ele>
      </trkpt>
      <trkpt lat="9.976878" lon="-84.256559">
        <ele>798.8</ele>
      </trkpt>
      <trkpt lat="9.976878" lon="-84.256559">
        <ele>794.4</ele>
      </trkpt>
      <trkpt lat="9.976761" lon="-84.256547">
        <ele>794.3</ele>
      </trkpt>
      <trkpt lat="9.976619" lon="-84.256585">
        <ele>794.5</ele>
      </trkpt>
      <trkpt lat="9.976548" lon="-84.256613">
        <ele>793.4</ele>
      </trkpt>
      <trkpt lat="9.976305" lon="-84.256732">
        <ele>792.2</ele>
      </trkpt>
      <trkpt lat="9.976289" lon="-84.256763">
        <ele>791.9</ele>
      </trkpt>
      <trkpt lat="9.976284" lon="-84.256802">
        <ele>791.7</ele>
      </trkpt>
      <trkpt lat="9.97631" lon="-84.256915">
        <ele>791.5</ele>
      </trkpt>
      <trkpt lat="9.976365" lon="-84.257056">
        <ele>791.3</ele>
      </trkpt>
      <trkpt lat="9.976354" lon="-84.257183">
        <ele>791.2</ele>
      </trkpt>
      <trkpt lat="9.976297" lon="-84.25729">
        <ele>791.1</ele>
      </trkpt>
      <trkpt lat="9.976199" lon="-84.25734">
        <ele>791</ele>
      </trkpt>
      <trkpt lat="9.976069" lon="-84.257343">
        <ele>791</ele>
      </trkpt>
      <trkpt lat="9.975955" lon="-84.257318">
        <ele>790.9</ele>
      </trkpt>
      <trkpt lat="9.975813" lon="-84.257236">
        <ele>790.9</ele>
      </trkpt>
      <trkpt lat="9.975456" lon="-84.256922">
        <ele>791.6</ele>
      </trkpt>
      <trkpt lat="9.975001" lon="-84.256694">
        <ele>793.1</ele>
      </trkpt>
      <trkpt lat="9.97492" lon="-84.25662">
        <ele>793.6</ele>
      </trkpt>
      <trkpt lat="9.974784" lon="-84.256445">
        <ele>794.8</ele>
      </trkpt>
      <trkpt lat="9.974709" lon="-84.256373">
        <ele>795.5</ele>
      </trkpt>
      <trkpt lat="9.974578" lon="-84.256283">
        <ele>796.1</ele>
      </trkpt>
      <trkpt lat="9.974456" lon="-84.25623">
        <ele>796.8</ele>
      </trkpt>
      <trkpt lat="9.974299" lon="-84.256172">
        <ele>797.8</ele>
      </trkpt>
      <trkpt lat="9.972786" lon="-84.255903">
        <ele>810.2</ele>
      </trkpt>
      <trkpt lat="9.972515" lon="-84.25587">
        <ele>810.3</ele>
      </trkpt>
      <trkpt lat="9.971601" lon="-84.255756">
        <ele>805.4</ele>
      </trkpt>
      <trkpt lat="9.971239" lon="-84.255712">
        <ele>802.9</ele>
      </trkpt>
      <trkpt lat="9.970741" lon="-84.25569">
        <ele>799.7</ele>
      </trkpt>
      <trkpt lat="9.970593" lon="-84.255692">
        <ele>799.2</ele>
      </trkpt>
      <trkpt lat="9.970441" lon="-84.255714">
        <ele>798.8</ele>
      </trkpt>
      <trkpt lat="9.970258" lon="-84.255769">
        <ele>797.8</ele>
      </trkpt>
      <trkpt lat="9.969354" lon="-84.256118">
        <ele>793.9</ele>
      </trkpt>
      <trkpt lat="9.967467" lon="-84.256728">
        <ele>793.7</ele>
      </trkpt>
      <trkpt lat="9.967346" lon="-84.256742">
        <ele>793.9</ele>
      </trkpt>
      <trkpt lat="9.967054" lon="-84.256696">
        <ele>794.4</ele>
      </trkpt>
      <trkpt lat="9.966924" lon="-84.256652">
        <ele>794.6</ele>
      </trkpt>
      <trkpt lat="9.966793" lon="-84.256586">
        <ele>794.8</ele>
      </trkpt>
      <trkpt lat="9.9662" lon="-84.256228">
        <ele>796</ele>
      </trkpt>
      <trkpt lat="9.965949" lon="-84.256054">
        <ele>796.9</ele>
      </trkpt>
      <trkpt lat="9.9659" lon="-84.256014">
        <ele>797.3</ele>
      </trkpt>
      <trkpt lat="9.965524" lon="-84.2557">
        <ele>799</ele>
      </trkpt>
      <trkpt lat="9.965441" lon="-84.255645">
        <ele>799.3</ele>
      </trkpt>
      <trkpt lat="9.965361" lon="-84.255601">
        <ele>799.6</ele>
      </trkpt>
      <trkpt lat="9.965291" lon="-84.255578">
        <ele>799.9</ele>
      </trkpt>
      <trkpt lat="9.96521" lon="-84.255573">
        <ele>800.1</ele>
      </trkpt>
      <trkpt lat="9.964963" lon="-84.255585">
        <ele>800.7</ele>
      </trkpt>
      <trkpt lat="9.964812" lon="-84.255568">
        <ele>800.9</ele>
      </trkpt>
      <trkpt lat="9.964359" lon="-84.255441">
        <ele>802.3</ele>
      </trkpt>
      <trkpt lat="9.963139" lon="-84.255211">
        <ele>804.9</ele>
      </trkpt>
      <trkpt lat="9.962966" lon="-84.255166">
        <ele>805.2</ele>
      </trkpt>
      <trkpt lat="9.962765" lon="-84.255107">
        <ele>805.7</ele>
      </trkpt>
      <trkpt lat="9.962593" lon="-84.255001">
        <ele>806.1</ele>
      </trkpt>
      <trkpt lat="9.962102" lon="-84.254716">
        <ele>806.9</ele>
      </trkpt>
      <trkpt lat="9.962127" lon="-84.254676">
        <ele>806.9</ele>
      </trkpt>
      <trkpt lat="9.962127" lon="-84.254676">
        <ele>806</ele>
      </trkpt>
      <trkpt lat="9.962257" lon="-84.254467">
        <ele>806</ele>
      </trkpt>
      <trkpt lat="9.962731" lon="-84.253736">
        <ele>808.5</ele>
      </trkpt>
      <trkpt lat="9.96277" lon="-84.253667">
        <ele>808.8</ele>
      </trkpt>
      <trkpt lat="9.963013" lon="-84.253239">
        <ele>809.7</ele>
      </trkpt>
      <trkpt lat="9.963241" lon="-84.252838">
        <ele>810.8</ele>
      </trkpt>
      <trkpt lat="9.96336" lon="-84.252618">
        <ele>811.3</ele>
      </trkpt>
      <trkpt lat="9.963484" lon="-84.252347">
        <ele>811.8</ele>
      </trkpt>
      <trkpt lat="9.963584" lon="-84.252088">
        <ele>812.4</ele>
      </trkpt>
      <trkpt lat="9.96365" lon="-84.251902">
        <ele>813</ele>
      </trkpt>
      <trkpt lat="9.96375" lon="-84.251589">
        <ele>813.9</ele>
      </trkpt>
      <trkpt lat="9.963818" lon="-84.25138">
        <ele>814.5</ele>
      </trkpt>
      <trkpt lat="9.963973" lon="-84.250865">
        <ele>816</ele>
      </trkpt>
      <trkpt lat="9.964055" lon="-84.250543">
        <ele>816.9</ele>
      </trkpt>
      <trkpt lat="9.964086" lon="-84.25042">
        <ele>817.2</ele>
      </trkpt>
      <trkpt lat="9.964124" lon="-84.250253">
        <ele>817.5</ele>
      </trkpt>
      <trkpt lat="9.964128" lon="-84.250237">
        <ele>817.7</ele>
      </trkpt>
      <trkpt lat="9.96417" lon="-84.250072">
        <ele>818</ele>
      </trkpt>
      <trkpt lat="9.964191" lon="-84.249908">
        <ele>818.2</ele>
      </trkpt>
      <trkpt lat="9.964257" lon="-84.249355">
        <ele>818.8</ele>
      </trkpt>
      <trkpt lat="9.964412" lon="-84.248538">
        <ele>819.7</ele>
      </trkpt>
      <trkpt lat="9.96448" lon="-84.248237">
        <ele>819.7</ele>
      </trkpt>
      <trkpt lat="9.964588" lon="-84.247837">
        <ele>818.9</ele>
      </trkpt>
      <trkpt lat="9.964769" lon="-84.247147">
        <ele>817.5</ele>
      </trkpt>
      <trkpt lat="9.964911" lon="-84.246757">
        <ele>816.7</ele>
      </trkpt>
      <trkpt lat="9.964934" lon="-84.246686">
        <ele>816.5</ele>
      </trkpt>
      <trkpt lat="9.965174" lon="-84.245909">
        <ele>817.4</ele>
      </trkpt>
      <trkpt lat="9.965194" lon="-84.245843">
        <ele>817.7</ele>
      </trkpt>
      <trkpt lat="9.965295" lon="-84.245498">
        <ele>818.6</ele>
      </trkpt>
      <trkpt lat="9.965342" lon="-84.245352">
        <ele>818.9</ele>
      </trkpt>
      <trkpt lat="9.965409" lon="-84.24518">
        <ele>819.5</ele>
      </trkpt>
      <trkpt lat="9.96549" lon="-84.244999">
        <ele>820.1</ele>
      </trkpt>
      <trkpt lat="9.965663" lon="-84.244613">
        <ele>821.2</ele>
      </trkpt>
      <trkpt lat="9.965798" lon="-84.244346">
        <ele>821.8</ele>
      </trkpt>
      <trkpt lat="9.965947" lon="-84.24406">
        <ele>822</ele>
      </trkpt>
      <trkpt lat="9.966357" lon="-84.243462">
        <ele>822.2</ele>
      </trkpt>
      <trkpt lat="9.966661" lon="-84.243014">
        <ele>822.2</ele>
      </trkpt>
      <trkpt lat="9.96696" lon="-84.242515">
        <ele>821.9</ele>
      </trkpt>
      <trkpt lat="9.967021" lon="-84.242415">
        <ele>821.8</ele>
      </trkpt>
      <trkpt lat="9.967234" lon="-84.242038">
        <ele>821.6</ele>
      </trkpt>
      <trkpt lat="9.967462" lon="-84.241561">
        <ele>821.5</ele>
      </trkpt>
      <trkpt lat="9.967849" lon="-84.240953">
        <ele>822.1</ele>
      </trkpt>
      <trkpt lat="9.968007" lon="-84.240668">
        <ele>822.5</ele>
      </trkpt>
      <trkpt lat="9.968279" lon="-84.240177">
        <ele>823.4</ele>
      </trkpt>
      <trkpt lat="9.968506" lon="-84.239741">
        <ele>823.7</ele>
      </trkpt>
      <trkpt lat="9.968973" lon="-84.238747">
        <ele>825.5</ele>
      </trkpt>
      <trkpt lat="9.968973" lon="-84.238747">
        <ele>828.5</ele>
      </trkpt>
      <trkpt lat="9.969016" lon="-84.238654">
        <ele>830.8</ele>
      </trkpt>
      <trkpt lat="9.969375" lon="-84.237959">
        <ele>832.6</ele>
      </trkpt>
      <trkpt lat="9.969495" lon="-84.237685">
        <ele>832.6</ele>
      </trkpt>
      <trkpt lat="9.969643" lon="-84.237253">
        <ele>832.5</ele>
      </trkpt>
      <trkpt lat="9.969686" lon="-84.237059">
        <ele>832.4</ele>
      </trkpt>
      <trkpt lat="9.969713" lon="-84.23685">
        <ele>832.6</ele>
      </trkpt>
      <trkpt lat="9.969727" lon="-84.23659">
        <ele>832.5</ele>
      </trkpt>
      <trkpt lat="9.969742" lon="-84.236237">
        <ele>832</ele>
      </trkpt>
      <trkpt lat="9.969706" lon="-84.236057">
        <ele>831.5</ele>
      </trkpt>
      <trkpt lat="9.969613" lon="-84.235786">
        <ele>830.6</ele>
      </trkpt>
      <trkpt lat="9.969451" lon="-84.235051">
        <ele>828</ele>
      </trkpt>
      <trkpt lat="9.969426" lon="-84.235">
        <ele>827.5</ele>
      </trkpt>
      <trkpt lat="9.9694" lon="-84.234963">
        <ele>826.9</ele>
      </trkpt>
      <trkpt lat="9.969322" lon="-84.234904">
        <ele>826.4</ele>
      </trkpt>
      <trkpt lat="9.969277" lon="-84.234887">
        <ele>825.8</ele>
      </trkpt>
      <trkpt lat="9.968773" lon="-84.234732">
        <ele>823.8</ele>
      </trkpt>
      <trkpt lat="9.968642" lon="-84.234654">
        <ele>823.5</ele>
      </trkpt>
      <trkpt lat="9.968598" lon="-84.234592">
        <ele>823.3</ele>
      </trkpt>
      <trkpt lat="9.968577" lon="-84.234503">
        <ele>823</ele>
      </trkpt>
      <trkpt lat="9.968593" lon="-84.234425">
        <ele>822.7</ele>
      </trkpt>
      <trkpt lat="9.968674" lon="-84.234304">
        <ele>822.5</ele>
      </trkpt>
      <trkpt lat="9.968844" lon="-84.234048">
        <ele>822.1</ele>
      </trkpt>
      <trkpt lat="9.968863" lon="-84.233995">
        <ele>822</ele>
      </trkpt>
      <trkpt lat="9.968872" lon="-84.233896">
        <ele>822.1</ele>
      </trkpt>
      <trkpt lat="9.968646" lon="-84.233385">
        <ele>823.9</ele>
      </trkpt>
      <trkpt lat="9.968544" lon="-84.23325">
        <ele>824.2</ele>
      </trkpt>
      <trkpt lat="9.968177" lon="-84.232894">
        <ele>826</ele>
      </trkpt>
      <trkpt lat="9.968131" lon="-84.232833">
        <ele>826.7</ele>
      </trkpt>
      <trkpt lat="9.968111" lon="-84.232803">
        <ele>827.3</ele>
      </trkpt>
      <trkpt lat="9.968083" lon="-84.232767">
        <ele>828</ele>
      </trkpt>
      <trkpt lat="9.968066" lon="-84.232633">
        <ele>828.6</ele>
      </trkpt>
      <trkpt lat="9.968127" lon="-84.230353">
        <ele>837</ele>
      </trkpt>
      <trkpt lat="9.968144" lon="-84.230182">
        <ele>837.2</ele>
      </trkpt>
      <trkpt lat="9.968172" lon="-84.230083">
        <ele>837.4</ele>
      </trkpt>
      <trkpt lat="9.968226" lon="-84.229982">
        <ele>837.6</ele>
      </trkpt>
      <trkpt lat="9.968303" lon="-84.229918">
        <ele>837.8</ele>
      </trkpt>
      <trkpt lat="9.968485" lon="-84.229841">
        <ele>838.1</ele>
      </trkpt>
      <trkpt lat="9.968538" lon="-84.229827">
        <ele>838.2</ele>
      </trkpt>
      <trkpt lat="9.968992" lon="-84.229691">
        <ele>838.5</ele>
      </trkpt>
      <trkpt lat="9.969148" lon="-84.229636">
        <ele>838.5</ele>
      </trkpt>
      <trkpt lat="9.969303" lon="-84.229554">
        <ele>838.5</ele>
      </trkpt>
      <trkpt lat="9.969503" lon="-84.229393">
        <ele>838.5</ele>
      </trkpt>
      <trkpt lat="9.969627" lon="-84.229248">
        <ele>838.6</ele>
      </trkpt>
      <trkpt lat="9.969701" lon="-84.22914">
        <ele>838.7</ele>
      </trkpt>
      <trkpt lat="9.969793" lon="-84.228903">
        <ele>838.7</ele>
      </trkpt>
      <trkpt lat="9.969811" lon="-84.228795">
        <ele>838.8</ele>
      </trkpt>
      <trkpt lat="9.969815" lon="-84.228635">
        <ele>838.8</ele>
      </trkpt>
      <trkpt lat="9.9698" lon="-84.228495">
        <ele>838.8</ele>
      </trkpt>
      <trkpt lat="9.969775" lon="-84.228281">
        <ele>838.9</ele>
      </trkpt>
      <trkpt lat="9.969758" lon="-84.227977">
        <ele>839.1</ele>
      </trkpt>
      <trkpt lat="9.969752" lon="-84.227875">
        <ele>839.2</ele>
      </trkpt>
      <trkpt lat="9.969751" lon="-84.227768">
        <ele>839.3</ele>
      </trkpt>
      <trkpt lat="9.969742" lon="-84.227246">
        <ele>839.8</ele>
      </trkpt>
      <trkpt lat="9.96974" lon="-84.226724">
        <ele>840.1</ele>
      </trkpt>
      <trkpt lat="9.96974" lon="-84.22668">
        <ele>840.1</ele>
      </trkpt>
      <trkpt lat="9.96974" lon="-84.226635">
        <ele>840.2</ele>
      </trkpt>
      <trkpt lat="9.969751" lon="-84.22641">
        <ele>840.4</ele>
      </trkpt>
      <trkpt lat="9.969762" lon="-84.226278">
        <ele>840.4</ele>
      </trkpt>
      <trkpt lat="9.96977" lon="-84.226217">
        <ele>840.5</ele>
      </trkpt>
      <trkpt lat="9.969807" lon="-84.225917">
        <ele>840.6</ele>
      </trkpt>
      <trkpt lat="9.96982" lon="-84.225821">
        <ele>840.7</ele>
      </trkpt>
      <trkpt lat="9.96993" lon="-84.225014">
        <ele>841.2</ele>
      </trkpt>
      <trkpt lat="9.970033" lon="-84.224319">
        <ele>841.6</ele>
      </trkpt>
      <trkpt lat="9.970076" lon="-84.223996">
        <ele>841.7</ele>
      </trkpt>
      <trkpt lat="9.970134" lon="-84.223703">
        <ele>841.9</ele>
      </trkpt>
      <trkpt lat="9.970189" lon="-84.223475">
        <ele>841.9</ele>
      </trkpt>
      <trkpt lat="9.970189" lon="-84.223475">
        <ele>842</ele>
      </trkpt>
      <trkpt lat="9.97021" lon="-84.223386">
        <ele>842</ele>
      </trkpt>
      <trkpt lat="9.970285" lon="-84.223074">
        <ele>842</ele>
      </trkpt>
      <trkpt lat="9.970444" lon="-84.222419">
        <ele>843.7</ele>
      </trkpt>
      <trkpt lat="9.970486" lon="-84.222221">
        <ele>844.1</ele>
      </trkpt>
      <trkpt lat="9.970486" lon="-84.222221">
        <ele>847.2</ele>
      </trkpt>
      <trkpt lat="9.970541" lon="-84.221961">
        <ele>847.3</ele>
      </trkpt>
      <trkpt lat="9.97058" lon="-84.221596">
        <ele>847.8</ele>
      </trkpt>
      <trkpt lat="9.970552" lon="-84.221317">
        <ele>848.1</ele>
      </trkpt>
      <trkpt lat="9.97048" lon="-84.221026">
        <ele>848.3</ele>
      </trkpt>
      <trkpt lat="9.970304" lon="-84.22059">
        <ele>848.5</ele>
      </trkpt>
      <trkpt lat="9.970208" lon="-84.220444">
        <ele>848.6</ele>
      </trkpt>
      <trkpt lat="9.970086" lon="-84.220298">
        <ele>848.8</ele>
      </trkpt>
      <trkpt lat="9.969942" lon="-84.22015">
        <ele>849.1</ele>
      </trkpt>
      <trkpt lat="9.969942" lon="-84.22015">
        <ele>850.5</ele>
      </trkpt>
      <trkpt lat="9.969874" lon="-84.22008">
        <ele>850.8</ele>
      </trkpt>
      <trkpt lat="9.969886" lon="-84.220038">
        <ele>850.8</ele>
      </trkpt>
      <trkpt lat="9.969917" lon="-84.219906">
        <ele>850.9</ele>
      </trkpt>
      <trkpt lat="9.969999" lon="-84.219674">
        <ele>850.9</ele>
      </trkpt>
      <trkpt lat="9.97003" lon="-84.219586">
        <ele>850.9</ele>
      </trkpt>
      <trkpt lat="9.970073" lon="-84.219449">
        <ele>850.9</ele>
      </trkpt>
      <trkpt lat="9.970081" lon="-84.219394">
        <ele>850.9</ele>
      </trkpt>
      <trkpt lat="9.970123" lon="-84.219096">
        <ele>851.4</ele>
      </trkpt>
      <trkpt lat="9.97016" lon="-84.218675">
        <ele>852.8</ele>
      </trkpt>
      <trkpt lat="9.97018" lon="-84.218542">
        <ele>853.2</ele>
      </trkpt>
      <trkpt lat="9.970198" lon="-84.218418">
        <ele>853.5</ele>
      </trkpt>
      <trkpt lat="9.970264" lon="-84.21801">
        <ele>854.9</ele>
      </trkpt>
      <trkpt lat="9.970283" lon="-84.217853">
        <ele>855.3</ele>
      </trkpt>
      <trkpt lat="9.97041" lon="-84.217527">
        <ele>856.5</ele>
      </trkpt>
      <trkpt lat="9.9706" lon="-84.217236">
        <ele>857.7</ele>
      </trkpt>
      <trkpt lat="9.970663" lon="-84.21714">
        <ele>857.9</ele>
      </trkpt>
      <trkpt lat="9.970951" lon="-84.216668">
        <ele>858.4</ele>
      </trkpt>
      <trkpt lat="9.971131" lon="-84.216269">
        <ele>857.7</ele>
      </trkpt>
      <trkpt lat="9.971271" lon="-84.215869">
        <ele>856.9</ele>
      </trkpt>
      <trkpt lat="9.971392" lon="-84.215571">
        <ele>856.3</ele>
      </trkpt>
      <trkpt lat="9.971679" lon="-84.214996">
        <ele>855.4</ele>
      </trkpt>
      <trkpt lat="9.972204" lon="-84.214064">
        <ele>856.8</ele>
      </trkpt>
      <trkpt lat="9.972346" lon="-84.213794">
        <ele>857.7</ele>
      </trkpt>
      <trkpt lat="9.972625" lon="-84.213232">
        <ele>859.5</ele>
      </trkpt>
      <trkpt lat="9.972853" lon="-84.212712">
        <ele>859.2</ele>
      </trkpt>
      <trkpt lat="9.972955" lon="-84.212453">
        <ele>858.6</ele>
      </trkpt>
      <trkpt lat="9.973106" lon="-84.211832">
        <ele>857.6</ele>
      </trkpt>
      <trkpt lat="9.973112" lon="-84.211805">
        <ele>857.5</ele>
      </trkpt>
      <trkpt lat="9.973142" lon="-84.211685">
        <ele>857.3</ele>
      </trkpt>
      <trkpt lat="9.973267" lon="-84.21119">
        <ele>857</ele>
      </trkpt>
      <trkpt lat="9.973399" lon="-84.210841">
        <ele>858.2</ele>
      </trkpt>
      <trkpt lat="9.97355" lon="-84.210548">
        <ele>858.9</ele>
      </trkpt>
      <trkpt lat="9.97355" lon="-84.210548">
        <ele>862.7</ele>
      </trkpt>
      <trkpt lat="9.973576" lon="-84.210497">
        <ele>863.8</ele>
      </trkpt>
      <trkpt lat="9.973687" lon="-84.210445">
        <ele>864.2</ele>
      </trkpt>
      <trkpt lat="9.97391" lon="-84.210461">
        <ele>864.5</ele>
      </trkpt>
      <trkpt lat="9.974115" lon="-84.21046">
        <ele>864.7</ele>
      </trkpt>
      <trkpt lat="9.974819" lon="-84.210347">
        <ele>864.8</ele>
      </trkpt>
      <trkpt lat="9.974927" lon="-84.210351">
        <ele>864.8</ele>
      </trkpt>
      <trkpt lat="9.975251" lon="-84.210382">
        <ele>864.6</ele>
      </trkpt>
      <trkpt lat="9.975347" lon="-84.210345">
        <ele>864.5</ele>
      </trkpt>
      <trkpt lat="9.975394" lon="-84.210293">
        <ele>864.4</ele>
      </trkpt>
      <trkpt lat="9.97544" lon="-84.210209">
        <ele>864.4</ele>
      </trkpt>
      <trkpt lat="9.975574" lon="-84.209958">
        <ele>864.1</ele>
      </trkpt>
      <trkpt lat="9.975656" lon="-84.209785">
        <ele>863.9</ele>
      </trkpt>
      <trkpt lat="9.975673" lon="-84.20979">
        <ele>863.8</ele>
      </trkpt>
      <trkpt lat="9.975673" lon="-84.20979">
        <ele>863</ele>
      </trkpt>
      <trkpt lat="9.975656" lon="-84.209785">
        <ele>863</ele>
      </trkpt>
      <trkpt lat="9.975826" lon="-84.209395">
        <ele>863</ele>
      </trkpt>
      <trkpt lat="9.976009" lon="-84.208866">
        <ele>863.6</ele>
      </trkpt>
      <trkpt lat="9.976246" lon="-84.208253">
        <ele>864.4</ele>
      </trkpt>
      <trkpt lat="9.976444" lon="-84.207897">
        <ele>865.1</ele>
      </trkpt>
      <trkpt lat="9.976681" lon="-84.20736">
        <ele>866.6</ele>
      </trkpt>
      <trkpt lat="9.976755" lon="-84.207146">
        <ele>867.3</ele>
      </trkpt>
      <trkpt lat="9.97702" lon="-84.206162">
        <ele>872.4</ele>
      </trkpt>
      <trkpt lat="9.977067" lon="-84.205984">
        <ele>873.5</ele>
      </trkpt>
      <trkpt lat="9.977186" lon="-84.205519">
        <ele>875.8</ele>
      </trkpt>
      <trkpt lat="9.977208" lon="-84.20544">
        <ele>876.2</ele>
      </trkpt>
      <trkpt lat="9.977236" lon="-84.205335">
        <ele>876.5</ele>
      </trkpt>
      <trkpt lat="9.977256" lon="-84.205256">
        <ele>876.8</ele>
      </trkpt>
      <trkpt lat="9.97753" lon="-84.204267">
        <ele>879.5</ele>
      </trkpt>
      <trkpt lat="9.977591" lon="-84.203891">
        <ele>880.5</ele>
      </trkpt>
      <trkpt lat="9.977646" lon="-84.203566">
        <ele>881.3</ele>
      </trkpt>
      <trkpt lat="9.977683" lon="-84.203351">
        <ele>881.8</ele>
      </trkpt>
      <trkpt lat="9.97781" lon="-84.202503">
        <ele>883</ele>
      </trkpt>
      <trkpt lat="9.977833" lon="-84.202322">
        <ele>883.1</ele>
      </trkpt>
      <trkpt lat="9.977899" lon="-84.201884">
        <ele>883.2</ele>
      </trkpt>
      <trkpt lat="9.978024" lon="-84.200974">
        <ele>884</ele>
      </trkpt>
      <trkpt lat="9.978047" lon="-84.20082">
        <ele>884.2</ele>
      </trkpt>
      <trkpt lat="9.978209" lon="-84.200044">
        <ele>886.5</ele>
      </trkpt>
      <trkpt lat="9.978269" lon="-84.199796">
        <ele>887.2</ele>
      </trkpt>
      <trkpt lat="9.978312" lon="-84.19958">
        <ele>887.9</ele>
      </trkpt>
      <trkpt lat="9.97836" lon="-84.19936">
        <ele>888.6</ele>
      </trkpt>
      <trkpt lat="9.978427" lon="-84.199061">
        <ele>889.5</ele>
      </trkpt>
      <trkpt lat="9.978546" lon="-84.19853">
        <ele>890.8</ele>
      </trkpt>
      <trkpt lat="9.978632" lon="-84.198119">
        <ele>891.5</ele>
      </trkpt>
      <trkpt lat="9.978647" lon="-84.198052">
        <ele>891.7</ele>
      </trkpt>
      <trkpt lat="9.97881" lon="-84.197325">
        <ele>893.7</ele>
      </trkpt>
      <trkpt lat="9.978835" lon="-84.19723">
        <ele>894</ele>
      </trkpt>
      <trkpt lat="9.978896" lon="-84.196922">
        <ele>894.7</ele>
      </trkpt>
      <trkpt lat="9.978959" lon="-84.196551">
        <ele>895.5</ele>
      </trkpt>
      <trkpt lat="9.978987" lon="-84.196383">
        <ele>895.7</ele>
      </trkpt>
      <trkpt lat="9.979063" lon="-84.195912">
        <ele>896.8</ele>
      </trkpt>
      <trkpt lat="9.979145" lon="-84.195149">
        <ele>899.5</ele>
      </trkpt>
      <trkpt lat="9.979164" lon="-84.194868">
        <ele>900.7</ele>
      </trkpt>
      <trkpt lat="9.979183" lon="-84.194684">
        <ele>901.5</ele>
      </trkpt>
      <trkpt lat="9.979138" lon="-84.194411">
        <ele>902.7</ele>
      </trkpt>
      <trkpt lat="9.979124" lon="-84.194346">
        <ele>903</ele>
      </trkpt>
      <trkpt lat="9.979124" lon="-84.194346">
        <ele>904</ele>
      </trkpt>
      <trkpt lat="9.9791" lon="-84.194228">
        <ele>904</ele>
      </trkpt>
      <trkpt lat="9.978754" lon="-84.192717">
        <ele>902.6</ele>
      </trkpt>
      <trkpt lat="9.978677" lon="-84.192402">
        <ele>902.3</ele>
      </trkpt>
      <trkpt lat="9.978517" lon="-84.191636">
        <ele>902.5</ele>
      </trkpt>
      <trkpt lat="9.978319" lon="-84.190747">
        <ele>904.4</ele>
      </trkpt>
      <trkpt lat="9.978289" lon="-84.190529">
        <ele>904.9</ele>
      </trkpt>
      <trkpt lat="9.978269" lon="-84.190293">
        <ele>905.3</ele>
      </trkpt>
      <trkpt lat="9.978253" lon="-84.189984">
        <ele>905.8</ele>
      </trkpt>
      <trkpt lat="9.97825" lon="-84.189582">
        <ele>906.5</ele>
      </trkpt>
      <trkpt lat="9.97825" lon="-84.189348">
        <ele>906.9</ele>
      </trkpt>
      <trkpt lat="9.978231" lon="-84.188514">
        <ele>908.7</ele>
      </trkpt>
      <trkpt lat="9.978231" lon="-84.188514">
        <ele>910</ele>
      </trkpt>
      <trkpt lat="9.978223" lon="-84.188146">
        <ele>910</ele>
      </trkpt>
      <trkpt lat="9.97822" lon="-84.188023">
        <ele>910</ele>
      </trkpt>
      <trkpt lat="9.978236" lon="-84.187563">
        <ele>910.5</ele>
      </trkpt>
      <trkpt lat="9.978262" lon="-84.187168">
        <ele>910.9</ele>
      </trkpt>
      <trkpt lat="9.978296" lon="-84.186858">
        <ele>911.1</ele>
      </trkpt>
      <trkpt lat="9.978327" lon="-84.186633">
        <ele>911.2</ele>
      </trkpt>
      <trkpt lat="9.978369" lon="-84.186317">
        <ele>911.5</ele>
      </trkpt>
      <trkpt lat="9.978369" lon="-84.186317">
        <ele>912</ele>
      </trkpt>
      <trkpt lat="9.978374" lon="-84.186281">
        <ele>912</ele>
      </trkpt>
      <trkpt lat="9.978377" lon="-84.186253">
        <ele>912</ele>
      </trkpt>
      <trkpt lat="9.978391" lon="-84.186123">
        <ele>912</ele>
      </trkpt>
      <trkpt lat="9.97842" lon="-84.185848">
        <ele>912</ele>
      </trkpt>
      <trkpt lat="9.978426" lon="-84.185791">
        <ele>912.2</ele>
      </trkpt>
      <trkpt lat="9.978467" lon="-84.185527">
        <ele>912.5</ele>
      </trkpt>
      <trkpt lat="9.978486" lon="-84.1854">
        <ele>912.7</ele>
      </trkpt>
      <trkpt lat="9.978511" lon="-84.185319">
        <ele>912.9</ele>
      </trkpt>
      <trkpt lat="9.978551" lon="-84.185221">
        <ele>913.1</ele>
      </trkpt>
      <trkpt lat="9.978633" lon="-84.184841">
        <ele>913.5</ele>
      </trkpt>
      <trkpt lat="9.978628" lon="-84.184648">
        <ele>913.7</ele>
      </trkpt>
      <trkpt lat="9.978629" lon="-84.184517">
        <ele>913.8</ele>
      </trkpt>
      <trkpt lat="9.978836" lon="-84.183697">
        <ele>914.9</ele>
      </trkpt>
      <trkpt lat="9.978988" lon="-84.183159">
        <ele>915.7</ele>
      </trkpt>
      <trkpt lat="9.978988" lon="-84.183159">
        <ele>919</ele>
      </trkpt>
      <trkpt lat="9.979028" lon="-84.183017">
        <ele>921</ele>
      </trkpt>
      <trkpt lat="9.979061" lon="-84.182899">
        <ele>921.7</ele>
      </trkpt>
      <trkpt lat="9.979265" lon="-84.182151">
        <ele>922.6</ele>
      </trkpt>
      <trkpt lat="9.979453" lon="-84.181443">
        <ele>923.2</ele>
      </trkpt>
      <trkpt lat="9.97948" lon="-84.181287">
        <ele>923.4</ele>
      </trkpt>
      <trkpt lat="9.979499" lon="-84.181183">
        <ele>923.9</ele>
      </trkpt>
      <trkpt lat="9.979499" lon="-84.181183">
        <ele>928</ele>
      </trkpt>
      <trkpt lat="9.979555" lon="-84.180877">
        <ele>928</ele>
      </trkpt>
      <trkpt lat="9.979564" lon="-84.180715">
        <ele>928</ele>
      </trkpt>
      <trkpt lat="9.979596" lon="-84.180179">
        <ele>928</ele>
      </trkpt>
      <trkpt lat="9.979605" lon="-84.18003">
        <ele>928</ele>
      </trkpt>
      <trkpt lat="9.979601" lon="-84.17959">
        <ele>928</ele>
      </trkpt>
      <trkpt lat="9.979599" lon="-84.179386">
        <ele>928</ele>
      </trkpt>
      <trkpt lat="9.979603" lon="-84.178997">
        <ele>928.3</ele>
      </trkpt>
      <trkpt lat="9.97958" lon="-84.17843">
        <ele>964</ele>
      </trkpt>
      <trkpt lat="9.979196" lon="-84.17844">
        <ele>961</ele>
      </trkpt>
      <trkpt lat="9.979196" lon="-84.17844">
        <ele>961</ele>
      </trkpt>
      <trkpt lat="9.9788" lon="-84.17842">
        <ele>959</ele>
      </trkpt>
      <trkpt lat="9.978289" lon="-84.178329">
        <ele>955</ele>
      </trkpt>
    </trkseg>
  </trk>
</gpx>
